<?xml version="1.0" encoding="utf-8"?>
<gpx xmlns:xsi="http://www.w3.org/2001/XMLSchema-instance" xmlns:xsd="http://www.w3.org/2001/XMLSchema" version="1.1" creator="Shapelink.com" xmlns="http://www.topografix.com/GPX/1/1" xmlns:gpxtpx="http://www.garmin.com/xmlschemas/TrackPointExtension/v1">
  <metadata>
    <name>Ciclismo 21.63 km, 2019-12-05</name>
    <desc></desc>
    <author><name>Peter Littke</name></author> 
    <time>2019-12-05T08:09:03Z</time>
  </metadata>
  <trk>
    <name>Ciclismo 21.63 km, 2019-12-05</name>
    <trkseg>
      <trkpt lat="59.340404" lon="18.085026">
        <ele>19</ele>
        <time>2019-12-05T08:09:03Z</time>
      </trkpt>
      <trkpt lat="59.340385" lon="18.084976">
        <ele>0</ele>
        <time>2019-12-05T08:09:11Z</time>
      </trkpt>
      <trkpt lat="59.340385" lon="18.084941">
        <ele>22</ele>
        <time>2019-12-05T08:09:12Z</time>
      </trkpt>
      <trkpt lat="59.340385" lon="18.084901">
        <ele>23</ele>
        <time>2019-12-05T08:09:13Z</time>
      </trkpt>
      <trkpt lat="59.340388" lon="18.084856">
        <ele>23</ele>
        <time>2019-12-05T08:09:14Z</time>
      </trkpt>
      <trkpt lat="59.340391" lon="18.08481">
        <ele>23</ele>
        <time>2019-12-05T08:09:15Z</time>
      </trkpt>
      <trkpt lat="59.340396" lon="18.084761">
        <ele>23</ele>
        <time>2019-12-05T08:09:16Z</time>
      </trkpt>
      <trkpt lat="59.340402" lon="18.084712">
        <ele>23</ele>
        <time>2019-12-05T08:09:17Z</time>
      </trkpt>
      <trkpt lat="59.340413" lon="18.084659">
        <ele>23</ele>
        <time>2019-12-05T08:09:18Z</time>
      </trkpt>
      <trkpt lat="59.340423" lon="18.084599">
        <ele>23</ele>
        <time>2019-12-05T08:09:19Z</time>
      </trkpt>
      <trkpt lat="59.340439" lon="18.084531">
        <ele>23</ele>
        <time>2019-12-05T08:09:20Z</time>
      </trkpt>
      <trkpt lat="59.340457" lon="18.084457">
        <ele>23</ele>
        <time>2019-12-05T08:09:21Z</time>
      </trkpt>
      <trkpt lat="59.340473" lon="18.084382">
        <ele>23</ele>
        <time>2019-12-05T08:09:22Z</time>
      </trkpt>
      <trkpt lat="59.340494" lon="18.084309">
        <ele>22</ele>
        <time>2019-12-05T08:09:23Z</time>
      </trkpt>
      <trkpt lat="59.340514" lon="18.084231">
        <ele>22</ele>
        <time>2019-12-05T08:09:24Z</time>
      </trkpt>
      <trkpt lat="59.340536" lon="18.084165">
        <ele>22</ele>
        <time>2019-12-05T08:09:25Z</time>
      </trkpt>
      <trkpt lat="59.340558" lon="18.084101">
        <ele>22</ele>
        <time>2019-12-05T08:09:27Z</time>
      </trkpt>
      <trkpt lat="59.340577" lon="18.084038">
        <ele>23</ele>
        <time>2019-12-05T08:09:27Z</time>
      </trkpt>
      <trkpt lat="59.340594" lon="18.083977">
        <ele>23</ele>
        <time>2019-12-05T08:09:28Z</time>
      </trkpt>
      <trkpt lat="59.340606" lon="18.08392">
        <ele>23</ele>
        <time>2019-12-05T08:09:29Z</time>
      </trkpt>
      <trkpt lat="59.34062" lon="18.083863">
        <ele>23</ele>
        <time>2019-12-05T08:09:31Z</time>
      </trkpt>
      <trkpt lat="59.340623" lon="18.083801">
        <ele>22</ele>
        <time>2019-12-05T08:09:31Z</time>
      </trkpt>
      <trkpt lat="59.340616" lon="18.083739">
        <ele>22</ele>
        <time>2019-12-05T08:09:32Z</time>
      </trkpt>
      <trkpt lat="59.340589" lon="18.083686">
        <ele>22</ele>
        <time>2019-12-05T08:09:33Z</time>
      </trkpt>
      <trkpt lat="59.340556" lon="18.083639">
        <ele>22</ele>
        <time>2019-12-05T08:09:34Z</time>
      </trkpt>
      <trkpt lat="59.340509" lon="18.083592">
        <ele>21</ele>
        <time>2019-12-05T08:09:35Z</time>
      </trkpt>
      <trkpt lat="59.340455" lon="18.083544">
        <ele>21</ele>
        <time>2019-12-05T08:09:36Z</time>
      </trkpt>
      <trkpt lat="59.340403" lon="18.083506">
        <ele>21</ele>
        <time>2019-12-05T08:09:37Z</time>
      </trkpt>
      <trkpt lat="59.340349" lon="18.083472">
        <ele>21</ele>
        <time>2019-12-05T08:09:39Z</time>
      </trkpt>
      <trkpt lat="59.340287" lon="18.083438">
        <ele>21</ele>
        <time>2019-12-05T08:09:39Z</time>
      </trkpt>
      <trkpt lat="59.340229" lon="18.083412">
        <ele>21</ele>
        <time>2019-12-05T08:09:40Z</time>
      </trkpt>
      <trkpt lat="59.340171" lon="18.083385">
        <ele>20</ele>
        <time>2019-12-05T08:09:41Z</time>
      </trkpt>
      <trkpt lat="59.340117" lon="18.083349">
        <ele>20</ele>
        <time>2019-12-05T08:09:42Z</time>
      </trkpt>
      <trkpt lat="59.340065" lon="18.08331">
        <ele>20</ele>
        <time>2019-12-05T08:09:43Z</time>
      </trkpt>
      <trkpt lat="59.340013" lon="18.083267">
        <ele>20</ele>
        <time>2019-12-05T08:09:44Z</time>
      </trkpt>
      <trkpt lat="59.339962" lon="18.083226">
        <ele>20</ele>
        <time>2019-12-05T08:09:45Z</time>
      </trkpt>
      <trkpt lat="59.339915" lon="18.083179">
        <ele>20</ele>
        <time>2019-12-05T08:09:46Z</time>
      </trkpt>
      <trkpt lat="59.339867" lon="18.083132">
        <ele>20</ele>
        <time>2019-12-05T08:09:48Z</time>
      </trkpt>
      <trkpt lat="59.339816" lon="18.083093">
        <ele>20</ele>
        <time>2019-12-05T08:09:48Z</time>
      </trkpt>
      <trkpt lat="59.339765" lon="18.08306">
        <ele>20</ele>
        <time>2019-12-05T08:09:50Z</time>
      </trkpt>
      <trkpt lat="59.339715" lon="18.083025">
        <ele>20</ele>
        <time>2019-12-05T08:09:50Z</time>
      </trkpt>
      <trkpt lat="59.339664" lon="18.082991">
        <ele>20</ele>
        <time>2019-12-05T08:09:51Z</time>
      </trkpt>
      <trkpt lat="59.339616" lon="18.082959">
        <ele>20</ele>
        <time>2019-12-05T08:09:52Z</time>
      </trkpt>
      <trkpt lat="59.339568" lon="18.082933">
        <ele>20</ele>
        <time>2019-12-05T08:09:53Z</time>
      </trkpt>
      <trkpt lat="59.339522" lon="18.082899">
        <ele>21</ele>
        <time>2019-12-05T08:09:54Z</time>
      </trkpt>
      <trkpt lat="59.339477" lon="18.082868">
        <ele>21</ele>
        <time>2019-12-05T08:09:55Z</time>
      </trkpt>
      <trkpt lat="59.339438" lon="18.082836">
        <ele>21</ele>
        <time>2019-12-05T08:09:56Z</time>
      </trkpt>
      <trkpt lat="59.339403" lon="18.082807">
        <ele>21</ele>
        <time>2019-12-05T08:09:58Z</time>
      </trkpt>
      <trkpt lat="59.33937" lon="18.08278">
        <ele>21</ele>
        <time>2019-12-05T08:09:58Z</time>
      </trkpt>
      <trkpt lat="59.339341" lon="18.082735">
        <ele>21</ele>
        <time>2019-12-05T08:09:59Z</time>
      </trkpt>
      <trkpt lat="59.339313" lon="18.082679">
        <ele>21</ele>
        <time>2019-12-05T08:10:00Z</time>
      </trkpt>
      <trkpt lat="59.339285" lon="18.082631">
        <ele>21</ele>
        <time>2019-12-05T08:10:01Z</time>
      </trkpt>
      <trkpt lat="59.339259" lon="18.082589">
        <ele>21</ele>
        <time>2019-12-05T08:10:02Z</time>
      </trkpt>
      <trkpt lat="59.339231" lon="18.082554">
        <ele>21</ele>
        <time>2019-12-05T08:10:03Z</time>
      </trkpt>
      <trkpt lat="59.339198" lon="18.08252">
        <ele>20</ele>
        <time>2019-12-05T08:10:04Z</time>
      </trkpt>
      <trkpt lat="59.33916" lon="18.082487">
        <ele>20</ele>
        <time>2019-12-05T08:10:05Z</time>
      </trkpt>
      <trkpt lat="59.33912" lon="18.082465">
        <ele>20</ele>
        <time>2019-12-05T08:10:06Z</time>
      </trkpt>
      <trkpt lat="59.339079" lon="18.082445">
        <ele>20</ele>
        <time>2019-12-05T08:10:07Z</time>
      </trkpt>
      <trkpt lat="59.339038" lon="18.082423">
        <ele>20</ele>
        <time>2019-12-05T08:10:09Z</time>
      </trkpt>
      <trkpt lat="59.338991" lon="18.082397">
        <ele>19</ele>
        <time>2019-12-05T08:10:10Z</time>
      </trkpt>
      <trkpt lat="59.338938" lon="18.082366">
        <ele>19</ele>
        <time>2019-12-05T08:10:11Z</time>
      </trkpt>
      <trkpt lat="59.338884" lon="18.082334">
        <ele>19</ele>
        <time>2019-12-05T08:10:11Z</time>
      </trkpt>
      <trkpt lat="59.338829" lon="18.082296">
        <ele>19</ele>
        <time>2019-12-05T08:10:12Z</time>
      </trkpt>
      <trkpt lat="59.338773" lon="18.082259">
        <ele>19</ele>
        <time>2019-12-05T08:10:13Z</time>
      </trkpt>
      <trkpt lat="59.338717" lon="18.082217">
        <ele>19</ele>
        <time>2019-12-05T08:10:14Z</time>
      </trkpt>
      <trkpt lat="59.338659" lon="18.082176">
        <ele>18</ele>
        <time>2019-12-05T08:10:15Z</time>
      </trkpt>
      <trkpt lat="59.338601" lon="18.082131">
        <ele>18</ele>
        <time>2019-12-05T08:10:16Z</time>
      </trkpt>
      <trkpt lat="59.338543" lon="18.082084">
        <ele>18</ele>
        <time>2019-12-05T08:10:17Z</time>
      </trkpt>
      <trkpt lat="59.338488" lon="18.082045">
        <ele>18</ele>
        <time>2019-12-05T08:10:19Z</time>
      </trkpt>
      <trkpt lat="59.338432" lon="18.082002">
        <ele>18</ele>
        <time>2019-12-05T08:10:19Z</time>
      </trkpt>
      <trkpt lat="59.338377" lon="18.08196">
        <ele>18</ele>
        <time>2019-12-05T08:10:20Z</time>
      </trkpt>
      <trkpt lat="59.338324" lon="18.081916">
        <ele>18</ele>
        <time>2019-12-05T08:10:21Z</time>
      </trkpt>
      <trkpt lat="59.338274" lon="18.081874">
        <ele>19</ele>
        <time>2019-12-05T08:10:22Z</time>
      </trkpt>
      <trkpt lat="59.338235" lon="18.081827">
        <ele>19</ele>
        <time>2019-12-05T08:10:23Z</time>
      </trkpt>
      <trkpt lat="59.338204" lon="18.081767">
        <ele>19</ele>
        <time>2019-12-05T08:10:24Z</time>
      </trkpt>
      <trkpt lat="59.33817" lon="18.08173">
        <ele>19</ele>
        <time>2019-12-05T08:10:25Z</time>
      </trkpt>
      <trkpt lat="59.338131" lon="18.081694">
        <ele>19</ele>
        <time>2019-12-05T08:10:26Z</time>
      </trkpt>
      <trkpt lat="59.338087" lon="18.081663">
        <ele>19</ele>
        <time>2019-12-05T08:10:28Z</time>
      </trkpt>
      <trkpt lat="59.338039" lon="18.081634">
        <ele>19</ele>
        <time>2019-12-05T08:10:29Z</time>
      </trkpt>
      <trkpt lat="59.337988" lon="18.081601">
        <ele>18</ele>
        <time>2019-12-05T08:10:29Z</time>
      </trkpt>
      <trkpt lat="59.337937" lon="18.081563">
        <ele>18</ele>
        <time>2019-12-05T08:10:30Z</time>
      </trkpt>
      <trkpt lat="59.337884" lon="18.081531">
        <ele>19</ele>
        <time>2019-12-05T08:10:31Z</time>
      </trkpt>
      <trkpt lat="59.337832" lon="18.081506">
        <ele>19</ele>
        <time>2019-12-05T08:10:32Z</time>
      </trkpt>
      <trkpt lat="59.33778" lon="18.081475">
        <ele>19</ele>
        <time>2019-12-05T08:10:33Z</time>
      </trkpt>
      <trkpt lat="59.337726" lon="18.081442">
        <ele>19</ele>
        <time>2019-12-05T08:10:34Z</time>
      </trkpt>
      <trkpt lat="59.337676" lon="18.081406">
        <ele>19</ele>
        <time>2019-12-05T08:10:35Z</time>
      </trkpt>
      <trkpt lat="59.337627" lon="18.081369">
        <ele>19</ele>
        <time>2019-12-05T08:10:36Z</time>
      </trkpt>
      <trkpt lat="59.337579" lon="18.081336">
        <ele>19</ele>
        <time>2019-12-05T08:10:38Z</time>
      </trkpt>
      <trkpt lat="59.337531" lon="18.081302">
        <ele>19</ele>
        <time>2019-12-05T08:10:38Z</time>
      </trkpt>
      <trkpt lat="59.337482" lon="18.081267">
        <ele>19</ele>
        <time>2019-12-05T08:10:39Z</time>
      </trkpt>
      <trkpt lat="59.337433" lon="18.081233">
        <ele>19</ele>
        <time>2019-12-05T08:10:40Z</time>
      </trkpt>
      <trkpt lat="59.337384" lon="18.081196">
        <ele>19</ele>
        <time>2019-12-05T08:10:41Z</time>
      </trkpt>
      <trkpt lat="59.337337" lon="18.081166">
        <ele>19</ele>
        <time>2019-12-05T08:10:42Z</time>
      </trkpt>
      <trkpt lat="59.33729" lon="18.081136">
        <ele>19</ele>
        <time>2019-12-05T08:10:43Z</time>
      </trkpt>
      <trkpt lat="59.337244" lon="18.081103">
        <ele>19</ele>
        <time>2019-12-05T08:10:44Z</time>
      </trkpt>
      <trkpt lat="59.337199" lon="18.081069">
        <ele>19</ele>
        <time>2019-12-05T08:10:45Z</time>
      </trkpt>
      <trkpt lat="59.337153" lon="18.081021">
        <ele>19</ele>
        <time>2019-12-05T08:10:47Z</time>
      </trkpt>
      <trkpt lat="59.337106" lon="18.080962">
        <ele>19</ele>
        <time>2019-12-05T08:10:48Z</time>
      </trkpt>
      <trkpt lat="59.33706" lon="18.080895">
        <ele>20</ele>
        <time>2019-12-05T08:10:48Z</time>
      </trkpt>
      <trkpt lat="59.337011" lon="18.080826">
        <ele>20</ele>
        <time>2019-12-05T08:10:49Z</time>
      </trkpt>
      <trkpt lat="59.336961" lon="18.080773">
        <ele>20</ele>
        <time>2019-12-05T08:10:50Z</time>
      </trkpt>
      <trkpt lat="59.336909" lon="18.080732">
        <ele>19</ele>
        <time>2019-12-05T08:10:51Z</time>
      </trkpt>
      <trkpt lat="59.336858" lon="18.080698">
        <ele>19</ele>
        <time>2019-12-05T08:10:52Z</time>
      </trkpt>
      <trkpt lat="59.336808" lon="18.080662">
        <ele>19</ele>
        <time>2019-12-05T08:10:53Z</time>
      </trkpt>
      <trkpt lat="59.336755" lon="18.08063">
        <ele>19</ele>
        <time>2019-12-05T08:10:54Z</time>
      </trkpt>
      <trkpt lat="59.336702" lon="18.080598">
        <ele>19</ele>
        <time>2019-12-05T08:10:55Z</time>
      </trkpt>
      <trkpt lat="59.336648" lon="18.080569">
        <ele>19</ele>
        <time>2019-12-05T08:10:57Z</time>
      </trkpt>
      <trkpt lat="59.336594" lon="18.080532">
        <ele>19</ele>
        <time>2019-12-05T08:10:57Z</time>
      </trkpt>
      <trkpt lat="59.336541" lon="18.08049">
        <ele>19</ele>
        <time>2019-12-05T08:10:58Z</time>
      </trkpt>
      <trkpt lat="59.336488" lon="18.080447">
        <ele>20</ele>
        <time>2019-12-05T08:10:59Z</time>
      </trkpt>
      <trkpt lat="59.336433" lon="18.080396">
        <ele>20</ele>
        <time>2019-12-05T08:11:00Z</time>
      </trkpt>
      <trkpt lat="59.336378" lon="18.080343">
        <ele>20</ele>
        <time>2019-12-05T08:11:01Z</time>
      </trkpt>
      <trkpt lat="59.336325" lon="18.080297">
        <ele>20</ele>
        <time>2019-12-05T08:11:02Z</time>
      </trkpt>
      <trkpt lat="59.33627" lon="18.080255">
        <ele>20</ele>
        <time>2019-12-05T08:11:03Z</time>
      </trkpt>
      <trkpt lat="59.336219" lon="18.080216">
        <ele>20</ele>
        <time>2019-12-05T08:11:05Z</time>
      </trkpt>
      <trkpt lat="59.336172" lon="18.080182">
        <ele>20</ele>
        <time>2019-12-05T08:11:06Z</time>
      </trkpt>
      <trkpt lat="59.336132" lon="18.08015">
        <ele>20</ele>
        <time>2019-12-05T08:11:06Z</time>
      </trkpt>
      <trkpt lat="59.336099" lon="18.080121">
        <ele>20</ele>
        <time>2019-12-05T08:11:07Z</time>
      </trkpt>
      <trkpt lat="59.336072" lon="18.080089">
        <ele>20</ele>
        <time>2019-12-05T08:11:08Z</time>
      </trkpt>
      <trkpt lat="59.336043" lon="18.080063">
        <ele>20</ele>
        <time>2019-12-05T08:11:09Z</time>
      </trkpt>
      <trkpt lat="59.336012" lon="18.08003">
        <ele>20</ele>
        <time>2019-12-05T08:11:10Z</time>
      </trkpt>
      <trkpt lat="59.33598" lon="18.079997">
        <ele>20</ele>
        <time>2019-12-05T08:11:11Z</time>
      </trkpt>
      <trkpt lat="59.335951" lon="18.079961">
        <ele>20</ele>
        <time>2019-12-05T08:11:12Z</time>
      </trkpt>
      <trkpt lat="59.33592" lon="18.079929">
        <ele>20</ele>
        <time>2019-12-05T08:11:13Z</time>
      </trkpt>
      <trkpt lat="59.335886" lon="18.0799">
        <ele>20</ele>
        <time>2019-12-05T08:11:14Z</time>
      </trkpt>
      <trkpt lat="59.335849" lon="18.079869">
        <ele>20</ele>
        <time>2019-12-05T08:11:15Z</time>
      </trkpt>
      <trkpt lat="59.335811" lon="18.079834">
        <ele>21</ele>
        <time>2019-12-05T08:11:16Z</time>
      </trkpt>
      <trkpt lat="59.335773" lon="18.079793">
        <ele>20</ele>
        <time>2019-12-05T08:11:17Z</time>
      </trkpt>
      <trkpt lat="59.335733" lon="18.079754">
        <ele>20</ele>
        <time>2019-12-05T08:11:19Z</time>
      </trkpt>
      <trkpt lat="59.33569" lon="18.079715">
        <ele>20</ele>
        <time>2019-12-05T08:11:19Z</time>
      </trkpt>
      <trkpt lat="59.335646" lon="18.079675">
        <ele>20</ele>
        <time>2019-12-05T08:11:20Z</time>
      </trkpt>
      <trkpt lat="59.335598" lon="18.079631">
        <ele>19</ele>
        <time>2019-12-05T08:11:21Z</time>
      </trkpt>
      <trkpt lat="59.335549" lon="18.079587">
        <ele>19</ele>
        <time>2019-12-05T08:11:22Z</time>
      </trkpt>
      <trkpt lat="59.335501" lon="18.079545">
        <ele>19</ele>
        <time>2019-12-05T08:11:23Z</time>
      </trkpt>
      <trkpt lat="59.335449" lon="18.079502">
        <ele>18</ele>
        <time>2019-12-05T08:11:25Z</time>
      </trkpt>
      <trkpt lat="59.335392" lon="18.079462">
        <ele>18</ele>
        <time>2019-12-05T08:11:25Z</time>
      </trkpt>
      <trkpt lat="59.335334" lon="18.07942">
        <ele>18</ele>
        <time>2019-12-05T08:11:26Z</time>
      </trkpt>
      <trkpt lat="59.335275" lon="18.079375">
        <ele>18</ele>
        <time>2019-12-05T08:11:28Z</time>
      </trkpt>
      <trkpt lat="59.335215" lon="18.079335">
        <ele>18</ele>
        <time>2019-12-05T08:11:28Z</time>
      </trkpt>
      <trkpt lat="59.335155" lon="18.079288">
        <ele>18</ele>
        <time>2019-12-05T08:11:29Z</time>
      </trkpt>
      <trkpt lat="59.335095" lon="18.079237">
        <ele>18</ele>
        <time>2019-12-05T08:11:30Z</time>
      </trkpt>
      <trkpt lat="59.335034" lon="18.079181">
        <ele>18</ele>
        <time>2019-12-05T08:11:31Z</time>
      </trkpt>
      <trkpt lat="59.334969" lon="18.079132">
        <ele>17</ele>
        <time>2019-12-05T08:11:32Z</time>
      </trkpt>
      <trkpt lat="59.334906" lon="18.079077">
        <ele>17</ele>
        <time>2019-12-05T08:11:33Z</time>
      </trkpt>
      <trkpt lat="59.334841" lon="18.079021">
        <ele>17</ele>
        <time>2019-12-05T08:11:35Z</time>
      </trkpt>
      <trkpt lat="59.334775" lon="18.078963">
        <ele>16</ele>
        <time>2019-12-05T08:11:35Z</time>
      </trkpt>
      <trkpt lat="59.334708" lon="18.078906">
        <ele>16</ele>
        <time>2019-12-05T08:11:36Z</time>
      </trkpt>
      <trkpt lat="59.334638" lon="18.078851">
        <ele>15</ele>
        <time>2019-12-05T08:11:37Z</time>
      </trkpt>
      <trkpt lat="59.334569" lon="18.078792">
        <ele>15</ele>
        <time>2019-12-05T08:11:38Z</time>
      </trkpt>
      <trkpt lat="59.3345" lon="18.078735">
        <ele>15</ele>
        <time>2019-12-05T08:11:39Z</time>
      </trkpt>
      <trkpt lat="59.334433" lon="18.078676">
        <ele>14</ele>
        <time>2019-12-05T08:11:40Z</time>
      </trkpt>
      <trkpt lat="59.334364" lon="18.078618">
        <ele>14</ele>
        <time>2019-12-05T08:11:42Z</time>
      </trkpt>
      <trkpt lat="59.334294" lon="18.07856">
        <ele>13</ele>
        <time>2019-12-05T08:11:42Z</time>
      </trkpt>
      <trkpt lat="59.334225" lon="18.078499">
        <ele>13</ele>
        <time>2019-12-05T08:11:44Z</time>
      </trkpt>
      <trkpt lat="59.334161" lon="18.078436">
        <ele>13</ele>
        <time>2019-12-05T08:11:44Z</time>
      </trkpt>
      <trkpt lat="59.334099" lon="18.078373">
        <ele>13</ele>
        <time>2019-12-05T08:11:45Z</time>
      </trkpt>
      <trkpt lat="59.334036" lon="18.078315">
        <ele>12</ele>
        <time>2019-12-05T08:11:46Z</time>
      </trkpt>
      <trkpt lat="59.333971" lon="18.078261">
        <ele>12</ele>
        <time>2019-12-05T08:11:47Z</time>
      </trkpt>
      <trkpt lat="59.333905" lon="18.078204">
        <ele>12</ele>
        <time>2019-12-05T08:11:49Z</time>
      </trkpt>
      <trkpt lat="59.333837" lon="18.078148">
        <ele>12</ele>
        <time>2019-12-05T08:11:49Z</time>
      </trkpt>
      <trkpt lat="59.333771" lon="18.078088">
        <ele>11</ele>
        <time>2019-12-05T08:11:50Z</time>
      </trkpt>
      <trkpt lat="59.333703" lon="18.078031">
        <ele>11</ele>
        <time>2019-12-05T08:11:51Z</time>
      </trkpt>
      <trkpt lat="59.333636" lon="18.077975">
        <ele>11</ele>
        <time>2019-12-05T08:11:52Z</time>
      </trkpt>
      <trkpt lat="59.333569" lon="18.077919">
        <ele>11</ele>
        <time>2019-12-05T08:11:53Z</time>
      </trkpt>
      <trkpt lat="59.333504" lon="18.07786">
        <ele>10</ele>
        <time>2019-12-05T08:11:55Z</time>
      </trkpt>
      <trkpt lat="59.333438" lon="18.077802">
        <ele>10</ele>
        <time>2019-12-05T08:11:55Z</time>
      </trkpt>
      <trkpt lat="59.333377" lon="18.077741">
        <ele>10</ele>
        <time>2019-12-05T08:11:56Z</time>
      </trkpt>
      <trkpt lat="59.333312" lon="18.077695">
        <ele>9</ele>
        <time>2019-12-05T08:11:57Z</time>
      </trkpt>
      <trkpt lat="59.333246" lon="18.077644">
        <ele>9</ele>
        <time>2019-12-05T08:11:58Z</time>
      </trkpt>
      <trkpt lat="59.333177" lon="18.077598">
        <ele>9</ele>
        <time>2019-12-05T08:11:59Z</time>
      </trkpt>
      <trkpt lat="59.333112" lon="18.077542">
        <ele>9</ele>
        <time>2019-12-05T08:12:00Z</time>
      </trkpt>
      <trkpt lat="59.333051" lon="18.077482">
        <ele>9</ele>
        <time>2019-12-05T08:12:01Z</time>
      </trkpt>
      <trkpt lat="59.332992" lon="18.077428">
        <ele>8</ele>
        <time>2019-12-05T08:12:03Z</time>
      </trkpt>
      <trkpt lat="59.332939" lon="18.077373">
        <ele>8</ele>
        <time>2019-12-05T08:12:03Z</time>
      </trkpt>
      <trkpt lat="59.332893" lon="18.077322">
        <ele>8</ele>
        <time>2019-12-05T08:12:04Z</time>
      </trkpt>
      <trkpt lat="59.332856" lon="18.077283">
        <ele>8</ele>
        <time>2019-12-05T08:12:05Z</time>
      </trkpt>
      <trkpt lat="59.332825" lon="18.077247">
        <ele>8</ele>
        <time>2019-12-05T08:12:06Z</time>
      </trkpt>
      <trkpt lat="59.332802" lon="18.077207">
        <ele>8</ele>
        <time>2019-12-05T08:12:07Z</time>
      </trkpt>
      <trkpt lat="59.332785" lon="18.077159">
        <ele>8</ele>
        <time>2019-12-05T08:12:08Z</time>
      </trkpt>
      <trkpt lat="59.33278" lon="18.077102">
        <ele>7</ele>
        <time>2019-12-05T08:12:09Z</time>
      </trkpt>
      <trkpt lat="59.332793" lon="18.077045">
        <ele>7</ele>
        <time>2019-12-05T08:12:10Z</time>
      </trkpt>
      <trkpt lat="59.332812" lon="18.076984">
        <ele>7</ele>
        <time>2019-12-05T08:12:11Z</time>
      </trkpt>
      <trkpt lat="59.332831" lon="18.076918">
        <ele>7</ele>
        <time>2019-12-05T08:12:12Z</time>
      </trkpt>
      <trkpt lat="59.332852" lon="18.07685">
        <ele>7</ele>
        <time>2019-12-05T08:12:13Z</time>
      </trkpt>
      <trkpt lat="59.332873" lon="18.07678">
        <ele>7</ele>
        <time>2019-12-05T08:12:15Z</time>
      </trkpt>
      <trkpt lat="59.332895" lon="18.076708">
        <ele>7</ele>
        <time>2019-12-05T08:12:15Z</time>
      </trkpt>
      <trkpt lat="59.332918" lon="18.076635">
        <ele>8</ele>
        <time>2019-12-05T08:12:16Z</time>
      </trkpt>
      <trkpt lat="59.33294" lon="18.076562">
        <ele>8</ele>
        <time>2019-12-05T08:12:17Z</time>
      </trkpt>
      <trkpt lat="59.33296" lon="18.076493">
        <ele>8</ele>
        <time>2019-12-05T08:12:18Z</time>
      </trkpt>
      <trkpt lat="59.332981" lon="18.076432">
        <ele>8</ele>
        <time>2019-12-05T08:12:19Z</time>
      </trkpt>
      <trkpt lat="59.333005" lon="18.07638">
        <ele>8</ele>
        <time>2019-12-05T08:12:20Z</time>
      </trkpt>
      <trkpt lat="59.333029" lon="18.076333">
        <ele>7</ele>
        <time>2019-12-05T08:12:22Z</time>
      </trkpt>
      <trkpt lat="59.333052" lon="18.076291">
        <ele>7</ele>
        <time>2019-12-05T08:12:22Z</time>
      </trkpt>
      <trkpt lat="59.333076" lon="18.076255">
        <ele>7</ele>
        <time>2019-12-05T08:12:23Z</time>
      </trkpt>
      <trkpt lat="59.333094" lon="18.076227">
        <ele>7</ele>
        <time>2019-12-05T08:12:24Z</time>
      </trkpt>
      <trkpt lat="59.33311" lon="18.076201">
        <ele>7</ele>
        <time>2019-12-05T08:12:25Z</time>
      </trkpt>
      <trkpt lat="59.33313" lon="18.076158">
        <ele>7</ele>
        <time>2019-12-05T08:12:27Z</time>
      </trkpt>
      <trkpt lat="59.333136" lon="18.076114">
        <ele>6</ele>
        <time>2019-12-05T08:12:29Z</time>
      </trkpt>
      <trkpt lat="59.333139" lon="18.076108">
        <ele>0</ele>
        <time>2019-12-05T08:12:33Z</time>
      </trkpt>
      <trkpt lat="59.333107" lon="18.076039">
        <ele>6</ele>
        <time>2019-12-05T08:12:43Z</time>
      </trkpt>
      <trkpt lat="59.333081" lon="18.076008">
        <ele>6</ele>
        <time>2019-12-05T08:12:43Z</time>
      </trkpt>
      <trkpt lat="59.33305" lon="18.075979">
        <ele>6</ele>
        <time>2019-12-05T08:12:44Z</time>
      </trkpt>
      <trkpt lat="59.333016" lon="18.075952">
        <ele>6</ele>
        <time>2019-12-05T08:12:46Z</time>
      </trkpt>
      <trkpt lat="59.33298" lon="18.075924">
        <ele>6</ele>
        <time>2019-12-05T08:12:46Z</time>
      </trkpt>
      <trkpt lat="59.332942" lon="18.075896">
        <ele>6</ele>
        <time>2019-12-05T08:12:47Z</time>
      </trkpt>
      <trkpt lat="59.332906" lon="18.075872">
        <ele>6</ele>
        <time>2019-12-05T08:12:48Z</time>
      </trkpt>
      <trkpt lat="59.332872" lon="18.07585">
        <ele>6</ele>
        <time>2019-12-05T08:12:49Z</time>
      </trkpt>
      <trkpt lat="59.332838" lon="18.075828">
        <ele>6</ele>
        <time>2019-12-05T08:12:50Z</time>
      </trkpt>
      <trkpt lat="59.332812" lon="18.07579">
        <ele>6</ele>
        <time>2019-12-05T08:12:51Z</time>
      </trkpt>
      <trkpt lat="59.332797" lon="18.075736">
        <ele>6</ele>
        <time>2019-12-05T08:12:52Z</time>
      </trkpt>
      <trkpt lat="59.332784" lon="18.075674">
        <ele>6</ele>
        <time>2019-12-05T08:12:53Z</time>
      </trkpt>
      <trkpt lat="59.332769" lon="18.07561">
        <ele>6</ele>
        <time>2019-12-05T08:12:54Z</time>
      </trkpt>
      <trkpt lat="59.33275" lon="18.075541">
        <ele>6</ele>
        <time>2019-12-05T08:12:55Z</time>
      </trkpt>
      <trkpt lat="59.332726" lon="18.07547">
        <ele>6</ele>
        <time>2019-12-05T08:12:56Z</time>
      </trkpt>
      <trkpt lat="59.332704" lon="18.075397">
        <ele>6</ele>
        <time>2019-12-05T08:12:57Z</time>
      </trkpt>
      <trkpt lat="59.332681" lon="18.075333">
        <ele>6</ele>
        <time>2019-12-05T08:12:58Z</time>
      </trkpt>
      <trkpt lat="59.332655" lon="18.075283">
        <ele>6</ele>
        <time>2019-12-05T08:13:00Z</time>
      </trkpt>
      <trkpt lat="59.332621" lon="18.075258">
        <ele>6</ele>
        <time>2019-12-05T08:13:00Z</time>
      </trkpt>
      <trkpt lat="59.332563" lon="18.075256">
        <ele>6</ele>
        <time>2019-12-05T08:13:02Z</time>
      </trkpt>
      <trkpt lat="59.332508" lon="18.075249">
        <ele>6</ele>
        <time>2019-12-05T08:13:02Z</time>
      </trkpt>
      <trkpt lat="59.332455" lon="18.075229">
        <ele>6</ele>
        <time>2019-12-05T08:13:03Z</time>
      </trkpt>
      <trkpt lat="59.332404" lon="18.075192">
        <ele>6</ele>
        <time>2019-12-05T08:13:04Z</time>
      </trkpt>
      <trkpt lat="59.33236" lon="18.075141">
        <ele>6</ele>
        <time>2019-12-05T08:13:05Z</time>
      </trkpt>
      <trkpt lat="59.332319" lon="18.075082">
        <ele>6</ele>
        <time>2019-12-05T08:13:06Z</time>
      </trkpt>
      <trkpt lat="59.33228" lon="18.07502">
        <ele>6</ele>
        <time>2019-12-05T08:13:07Z</time>
      </trkpt>
      <trkpt lat="59.332234" lon="18.07496">
        <ele>6</ele>
        <time>2019-12-05T08:13:09Z</time>
      </trkpt>
      <trkpt lat="59.332188" lon="18.074905">
        <ele>6</ele>
        <time>2019-12-05T08:13:09Z</time>
      </trkpt>
      <trkpt lat="59.332147" lon="18.074859">
        <ele>6</ele>
        <time>2019-12-05T08:13:10Z</time>
      </trkpt>
      <trkpt lat="59.332111" lon="18.074822">
        <ele>6</ele>
        <time>2019-12-05T08:13:11Z</time>
      </trkpt>
      <trkpt lat="59.332083" lon="18.07479">
        <ele>6</ele>
        <time>2019-12-05T08:13:12Z</time>
      </trkpt>
      <trkpt lat="59.332054" lon="18.074754">
        <ele>6</ele>
        <time>2019-12-05T08:13:13Z</time>
      </trkpt>
      <trkpt lat="59.332024" lon="18.07471">
        <ele>6</ele>
        <time>2019-12-05T08:13:14Z</time>
      </trkpt>
      <trkpt lat="59.331993" lon="18.074665">
        <ele>6</ele>
        <time>2019-12-05T08:13:15Z</time>
      </trkpt>
      <trkpt lat="59.331955" lon="18.07462">
        <ele>6</ele>
        <time>2019-12-05T08:13:16Z</time>
      </trkpt>
      <trkpt lat="59.331916" lon="18.074572">
        <ele>6</ele>
        <time>2019-12-05T08:13:17Z</time>
      </trkpt>
      <trkpt lat="59.331873" lon="18.074526">
        <ele>6</ele>
        <time>2019-12-05T08:13:18Z</time>
      </trkpt>
      <trkpt lat="59.33183" lon="18.07448">
        <ele>6</ele>
        <time>2019-12-05T08:13:19Z</time>
      </trkpt>
      <trkpt lat="59.331787" lon="18.07443">
        <ele>0</ele>
        <time>2019-12-05T08:13:20Z</time>
      </trkpt>
      <trkpt lat="59.331749" lon="18.074371">
        <ele>6</ele>
        <time>2019-12-05T08:13:21Z</time>
      </trkpt>
      <trkpt lat="59.331711" lon="18.074302">
        <ele>6</ele>
        <time>2019-12-05T08:13:22Z</time>
      </trkpt>
      <trkpt lat="59.33168" lon="18.074219">
        <ele>6</ele>
        <time>2019-12-05T08:13:23Z</time>
      </trkpt>
      <trkpt lat="59.331661" lon="18.074126">
        <ele>6</ele>
        <time>2019-12-05T08:13:24Z</time>
      </trkpt>
      <trkpt lat="59.33164" lon="18.074024">
        <ele>6</ele>
        <time>2019-12-05T08:13:25Z</time>
      </trkpt>
      <trkpt lat="59.331616" lon="18.07392">
        <ele>6</ele>
        <time>2019-12-05T08:13:26Z</time>
      </trkpt>
      <trkpt lat="59.331591" lon="18.073819">
        <ele>6</ele>
        <time>2019-12-05T08:13:27Z</time>
      </trkpt>
      <trkpt lat="59.33157" lon="18.073719">
        <ele>6</ele>
        <time>2019-12-05T08:13:28Z</time>
      </trkpt>
      <trkpt lat="59.331548" lon="18.07362">
        <ele>6</ele>
        <time>2019-12-05T08:13:30Z</time>
      </trkpt>
      <trkpt lat="59.331522" lon="18.073523">
        <ele>6</ele>
        <time>2019-12-05T08:13:30Z</time>
      </trkpt>
      <trkpt lat="59.331494" lon="18.073429">
        <ele>6</ele>
        <time>2019-12-05T08:13:31Z</time>
      </trkpt>
      <trkpt lat="59.331469" lon="18.073333">
        <ele>6</ele>
        <time>2019-12-05T08:13:32Z</time>
      </trkpt>
      <trkpt lat="59.331452" lon="18.073238">
        <ele>6</ele>
        <time>2019-12-05T08:13:33Z</time>
      </trkpt>
      <trkpt lat="59.331436" lon="18.073145">
        <ele>6</ele>
        <time>2019-12-05T08:13:34Z</time>
      </trkpt>
      <trkpt lat="59.33142" lon="18.073054">
        <ele>6</ele>
        <time>2019-12-05T08:13:35Z</time>
      </trkpt>
      <trkpt lat="59.331407" lon="18.072965">
        <ele>7</ele>
        <time>2019-12-05T08:13:36Z</time>
      </trkpt>
      <trkpt lat="59.331398" lon="18.072878">
        <ele>7</ele>
        <time>2019-12-05T08:13:37Z</time>
      </trkpt>
      <trkpt lat="59.331387" lon="18.072799">
        <ele>7</ele>
        <time>2019-12-05T08:13:38Z</time>
      </trkpt>
      <trkpt lat="59.331374" lon="18.072729">
        <ele>7</ele>
        <time>2019-12-05T08:13:40Z</time>
      </trkpt>
      <trkpt lat="59.331371" lon="18.072666">
        <ele>7</ele>
        <time>2019-12-05T08:13:41Z</time>
      </trkpt>
      <trkpt lat="59.331369" lon="18.072619">
        <ele>7</ele>
        <time>2019-12-05T08:13:41Z</time>
      </trkpt>
      <trkpt lat="59.331369" lon="18.07258">
        <ele>7</ele>
        <time>2019-12-05T08:13:42Z</time>
      </trkpt>
      <trkpt lat="59.331366" lon="18.072533">
        <ele>7</ele>
        <time>2019-12-05T08:13:43Z</time>
      </trkpt>
      <trkpt lat="59.331355" lon="18.072493">
        <ele>7</ele>
        <time>2019-12-05T08:13:44Z</time>
      </trkpt>
      <trkpt lat="59.331327" lon="18.072478">
        <ele>7</ele>
        <time>2019-12-05T08:13:45Z</time>
      </trkpt>
      <trkpt lat="59.331286" lon="18.072482">
        <ele>7</ele>
        <time>2019-12-05T08:13:46Z</time>
      </trkpt>
      <trkpt lat="59.33124" lon="18.0725">
        <ele>7</ele>
        <time>2019-12-05T08:13:47Z</time>
      </trkpt>
      <trkpt lat="59.331191" lon="18.07252">
        <ele>8</ele>
        <time>2019-12-05T08:13:48Z</time>
      </trkpt>
      <trkpt lat="59.331142" lon="18.072552">
        <ele>8</ele>
        <time>2019-12-05T08:13:49Z</time>
      </trkpt>
      <trkpt lat="59.331088" lon="18.072583">
        <ele>8</ele>
        <time>2019-12-05T08:13:50Z</time>
      </trkpt>
      <trkpt lat="59.331035" lon="18.072611">
        <ele>8</ele>
        <time>2019-12-05T08:13:51Z</time>
      </trkpt>
      <trkpt lat="59.330982" lon="18.07264">
        <ele>8</ele>
        <time>2019-12-05T08:13:53Z</time>
      </trkpt>
      <trkpt lat="59.33093" lon="18.07267">
        <ele>8</ele>
        <time>2019-12-05T08:13:53Z</time>
      </trkpt>
      <trkpt lat="59.33088" lon="18.072702">
        <ele>8</ele>
        <time>2019-12-05T08:13:54Z</time>
      </trkpt>
      <trkpt lat="59.330827" lon="18.072732">
        <ele>8</ele>
        <time>2019-12-05T08:13:55Z</time>
      </trkpt>
      <trkpt lat="59.330776" lon="18.07276">
        <ele>8</ele>
        <time>2019-12-05T08:13:56Z</time>
      </trkpt>
      <trkpt lat="59.330725" lon="18.072786">
        <ele>8</ele>
        <time>2019-12-05T08:13:57Z</time>
      </trkpt>
      <trkpt lat="59.330674" lon="18.072815">
        <ele>8</ele>
        <time>2019-12-05T08:13:59Z</time>
      </trkpt>
      <trkpt lat="59.330625" lon="18.072846">
        <ele>8</ele>
        <time>2019-12-05T08:13:59Z</time>
      </trkpt>
      <trkpt lat="59.330574" lon="18.072873">
        <ele>8</ele>
        <time>2019-12-05T08:14:00Z</time>
      </trkpt>
      <trkpt lat="59.330523" lon="18.072901">
        <ele>8</ele>
        <time>2019-12-05T08:14:02Z</time>
      </trkpt>
      <trkpt lat="59.33047" lon="18.072927">
        <ele>8</ele>
        <time>2019-12-05T08:14:02Z</time>
      </trkpt>
      <trkpt lat="59.330415" lon="18.072952">
        <ele>8</ele>
        <time>2019-12-05T08:14:03Z</time>
      </trkpt>
      <trkpt lat="59.330358" lon="18.07298">
        <ele>8</ele>
        <time>2019-12-05T08:14:04Z</time>
      </trkpt>
      <trkpt lat="59.330302" lon="18.07301">
        <ele>8</ele>
        <time>2019-12-05T08:14:05Z</time>
      </trkpt>
      <trkpt lat="59.330244" lon="18.073041">
        <ele>8</ele>
        <time>2019-12-05T08:14:06Z</time>
      </trkpt>
      <trkpt lat="59.330188" lon="18.073071">
        <ele>8</ele>
        <time>2019-12-05T08:14:07Z</time>
      </trkpt>
      <trkpt lat="59.330136" lon="18.073096">
        <ele>8</ele>
        <time>2019-12-05T08:14:08Z</time>
      </trkpt>
      <trkpt lat="59.330085" lon="18.073125">
        <ele>9</ele>
        <time>2019-12-05T08:14:09Z</time>
      </trkpt>
      <trkpt lat="59.330038" lon="18.073153">
        <ele>9</ele>
        <time>2019-12-05T08:14:10Z</time>
      </trkpt>
      <trkpt lat="59.329994" lon="18.073174">
        <ele>9</ele>
        <time>2019-12-05T08:14:12Z</time>
      </trkpt>
      <trkpt lat="59.329955" lon="18.073191">
        <ele>9</ele>
        <time>2019-12-05T08:14:12Z</time>
      </trkpt>
      <trkpt lat="59.329921" lon="18.073204">
        <ele>9</ele>
        <time>2019-12-05T08:14:13Z</time>
      </trkpt>
      <trkpt lat="59.329888" lon="18.073217">
        <ele>10</ele>
        <time>2019-12-05T08:14:14Z</time>
      </trkpt>
      <trkpt lat="59.329857" lon="18.073226">
        <ele>10</ele>
        <time>2019-12-05T08:14:15Z</time>
      </trkpt>
      <trkpt lat="59.329834" lon="18.073232">
        <ele>10</ele>
        <time>2019-12-05T08:14:16Z</time>
      </trkpt>
      <trkpt lat="59.329809" lon="18.073249">
        <ele>10</ele>
        <time>2019-12-05T08:14:18Z</time>
      </trkpt>
      <trkpt lat="59.329811" lon="18.073264">
        <ele>0</ele>
        <time>2019-12-05T08:14:23Z</time>
      </trkpt>
      <trkpt lat="59.329762" lon="18.073302">
        <ele>8</ele>
        <time>2019-12-05T08:14:41Z</time>
      </trkpt>
      <trkpt lat="59.329733" lon="18.073292">
        <ele>8</ele>
        <time>2019-12-05T08:14:41Z</time>
      </trkpt>
      <trkpt lat="59.329696" lon="18.073277">
        <ele>8</ele>
        <time>2019-12-05T08:14:42Z</time>
      </trkpt>
      <trkpt lat="59.329653" lon="18.073261">
        <ele>8</ele>
        <time>2019-12-05T08:14:43Z</time>
      </trkpt>
      <trkpt lat="59.329602" lon="18.073248">
        <ele>8</ele>
        <time>2019-12-05T08:14:44Z</time>
      </trkpt>
      <trkpt lat="59.329549" lon="18.073236">
        <ele>7</ele>
        <time>2019-12-05T08:14:45Z</time>
      </trkpt>
      <trkpt lat="59.329494" lon="18.073226">
        <ele>7</ele>
        <time>2019-12-05T08:14:46Z</time>
      </trkpt>
      <trkpt lat="59.329437" lon="18.073217">
        <ele>7</ele>
        <time>2019-12-05T08:14:48Z</time>
      </trkpt>
      <trkpt lat="59.329378" lon="18.073206">
        <ele>7</ele>
        <time>2019-12-05T08:14:48Z</time>
      </trkpt>
      <trkpt lat="59.32932" lon="18.073189">
        <ele>7</ele>
        <time>2019-12-05T08:14:49Z</time>
      </trkpt>
      <trkpt lat="59.32926" lon="18.073173">
        <ele>7</ele>
        <time>2019-12-05T08:14:50Z</time>
      </trkpt>
      <trkpt lat="59.3292" lon="18.073157">
        <ele>7</ele>
        <time>2019-12-05T08:14:51Z</time>
      </trkpt>
      <trkpt lat="59.32914" lon="18.073139">
        <ele>7</ele>
        <time>2019-12-05T08:14:52Z</time>
      </trkpt>
      <trkpt lat="59.32908" lon="18.07312">
        <ele>7</ele>
        <time>2019-12-05T08:14:53Z</time>
      </trkpt>
      <trkpt lat="59.329019" lon="18.0731">
        <ele>7</ele>
        <time>2019-12-05T08:14:54Z</time>
      </trkpt>
      <trkpt lat="59.328959" lon="18.07308">
        <ele>7</ele>
        <time>2019-12-05T08:14:56Z</time>
      </trkpt>
      <trkpt lat="59.3289" lon="18.073063">
        <ele>7</ele>
        <time>2019-12-05T08:14:56Z</time>
      </trkpt>
      <trkpt lat="59.328842" lon="18.073048">
        <ele>7</ele>
        <time>2019-12-05T08:14:57Z</time>
      </trkpt>
      <trkpt lat="59.328784" lon="18.073035">
        <ele>7</ele>
        <time>2019-12-05T08:14:58Z</time>
      </trkpt>
      <trkpt lat="59.328727" lon="18.073021">
        <ele>7</ele>
        <time>2019-12-05T08:15:00Z</time>
      </trkpt>
      <trkpt lat="59.328672" lon="18.073008">
        <ele>7</ele>
        <time>2019-12-05T08:15:01Z</time>
      </trkpt>
      <trkpt lat="59.328568" lon="18.072981">
        <ele>7</ele>
        <time>2019-12-05T08:15:02Z</time>
      </trkpt>
      <trkpt lat="59.32852" lon="18.072967">
        <ele>7</ele>
        <time>2019-12-05T08:15:03Z</time>
      </trkpt>
      <trkpt lat="59.328473" lon="18.072955">
        <ele>7</ele>
        <time>2019-12-05T08:15:04Z</time>
      </trkpt>
      <trkpt lat="59.328428" lon="18.072945">
        <ele>7</ele>
        <time>2019-12-05T08:15:06Z</time>
      </trkpt>
      <trkpt lat="59.328385" lon="18.072934">
        <ele>7</ele>
        <time>2019-12-05T08:15:06Z</time>
      </trkpt>
      <trkpt lat="59.328344" lon="18.072924">
        <ele>7</ele>
        <time>2019-12-05T08:15:07Z</time>
      </trkpt>
      <trkpt lat="59.328309" lon="18.072915">
        <ele>7</ele>
        <time>2019-12-05T08:15:08Z</time>
      </trkpt>
      <trkpt lat="59.328281" lon="18.072906">
        <ele>7</ele>
        <time>2019-12-05T08:15:09Z</time>
      </trkpt>
      <trkpt lat="59.328258" lon="18.072899">
        <ele>7</ele>
        <time>2019-12-05T08:15:10Z</time>
      </trkpt>
      <trkpt lat="59.328237" lon="18.072894">
        <ele>7</ele>
        <time>2019-12-05T08:15:11Z</time>
      </trkpt>
      <trkpt lat="59.328219" lon="18.072888">
        <ele>7</ele>
        <time>2019-12-05T08:15:12Z</time>
      </trkpt>
      <trkpt lat="59.328187" lon="18.072879">
        <ele>7</ele>
        <time>2019-12-05T08:15:14Z</time>
      </trkpt>
      <trkpt lat="59.328164" lon="18.072874">
        <ele>7</ele>
        <time>2019-12-05T08:15:16Z</time>
      </trkpt>
      <trkpt lat="59.328167" lon="18.072875">
        <ele>0</ele>
        <time>2019-12-05T08:15:20Z</time>
      </trkpt>
      <trkpt lat="59.328101" lon="18.072863">
        <ele>7</ele>
        <time>2019-12-05T08:15:35Z</time>
      </trkpt>
      <trkpt lat="59.328067" lon="18.072857">
        <ele>7</ele>
        <time>2019-12-05T08:15:35Z</time>
      </trkpt>
      <trkpt lat="59.328029" lon="18.072853">
        <ele>7</ele>
        <time>2019-12-05T08:15:36Z</time>
      </trkpt>
      <trkpt lat="59.327988" lon="18.072853">
        <ele>7</ele>
        <time>2019-12-05T08:15:37Z</time>
      </trkpt>
      <trkpt lat="59.327944" lon="18.07286">
        <ele>6</ele>
        <time>2019-12-05T08:15:38Z</time>
      </trkpt>
      <trkpt lat="59.327898" lon="18.072878">
        <ele>6</ele>
        <time>2019-12-05T08:15:39Z</time>
      </trkpt>
      <trkpt lat="59.32785" lon="18.072911">
        <ele>6</ele>
        <time>2019-12-05T08:15:41Z</time>
      </trkpt>
      <trkpt lat="59.327801" lon="18.072959">
        <ele>6</ele>
        <time>2019-12-05T08:15:41Z</time>
      </trkpt>
      <trkpt lat="59.327753" lon="18.073017">
        <ele>6</ele>
        <time>2019-12-05T08:15:42Z</time>
      </trkpt>
      <trkpt lat="59.327702" lon="18.073079">
        <ele>6</ele>
        <time>2019-12-05T08:15:43Z</time>
      </trkpt>
      <trkpt lat="59.327649" lon="18.073141">
        <ele>6</ele>
        <time>2019-12-05T08:15:44Z</time>
      </trkpt>
      <trkpt lat="59.327596" lon="18.073204">
        <ele>6</ele>
        <time>2019-12-05T08:15:45Z</time>
      </trkpt>
      <trkpt lat="59.327541" lon="18.073269">
        <ele>6</ele>
        <time>2019-12-05T08:15:46Z</time>
      </trkpt>
      <trkpt lat="59.327484" lon="18.073335">
        <ele>6</ele>
        <time>2019-12-05T08:15:47Z</time>
      </trkpt>
      <trkpt lat="59.327426" lon="18.0734">
        <ele>6</ele>
        <time>2019-12-05T08:15:49Z</time>
      </trkpt>
      <trkpt lat="59.327367" lon="18.073467">
        <ele>6</ele>
        <time>2019-12-05T08:15:49Z</time>
      </trkpt>
      <trkpt lat="59.327308" lon="18.073534">
        <ele>6</ele>
        <time>2019-12-05T08:15:50Z</time>
      </trkpt>
      <trkpt lat="59.327249" lon="18.073602">
        <ele>6</ele>
        <time>2019-12-05T08:15:51Z</time>
      </trkpt>
      <trkpt lat="59.32719" lon="18.07367">
        <ele>6</ele>
        <time>2019-12-05T08:15:52Z</time>
      </trkpt>
      <trkpt lat="59.327132" lon="18.073739">
        <ele>6</ele>
        <time>2019-12-05T08:15:54Z</time>
      </trkpt>
      <trkpt lat="59.327074" lon="18.073808">
        <ele>6</ele>
        <time>2019-12-05T08:15:54Z</time>
      </trkpt>
      <trkpt lat="59.327016" lon="18.073877">
        <ele>6</ele>
        <time>2019-12-05T08:15:56Z</time>
      </trkpt>
      <trkpt lat="59.326958" lon="18.073949">
        <ele>6</ele>
        <time>2019-12-05T08:15:56Z</time>
      </trkpt>
      <trkpt lat="59.326898" lon="18.074023">
        <ele>6</ele>
        <time>2019-12-05T08:15:57Z</time>
      </trkpt>
      <trkpt lat="59.326837" lon="18.074098">
        <ele>6</ele>
        <time>2019-12-05T08:15:58Z</time>
      </trkpt>
      <trkpt lat="59.326776" lon="18.074171">
        <ele>6</ele>
        <time>2019-12-05T08:15:59Z</time>
      </trkpt>
      <trkpt lat="59.326715" lon="18.074241">
        <ele>6</ele>
        <time>2019-12-05T08:16:00Z</time>
      </trkpt>
      <trkpt lat="59.326656" lon="18.074312">
        <ele>6</ele>
        <time>2019-12-05T08:16:01Z</time>
      </trkpt>
      <trkpt lat="59.326598" lon="18.074384">
        <ele>6</ele>
        <time>2019-12-05T08:16:03Z</time>
      </trkpt>
      <trkpt lat="59.32654" lon="18.074457">
        <ele>5</ele>
        <time>2019-12-05T08:16:03Z</time>
      </trkpt>
      <trkpt lat="59.326482" lon="18.074532">
        <ele>5</ele>
        <time>2019-12-05T08:16:04Z</time>
      </trkpt>
      <trkpt lat="59.326424" lon="18.074611">
        <ele>5</ele>
        <time>2019-12-05T08:16:05Z</time>
      </trkpt>
      <trkpt lat="59.326365" lon="18.074692">
        <ele>5</ele>
        <time>2019-12-05T08:16:06Z</time>
      </trkpt>
      <trkpt lat="59.326303" lon="18.074771">
        <ele>5</ele>
        <time>2019-12-05T08:16:07Z</time>
      </trkpt>
      <trkpt lat="59.326239" lon="18.074844">
        <ele>5</ele>
        <time>2019-12-05T08:16:08Z</time>
      </trkpt>
      <trkpt lat="59.326173" lon="18.074915">
        <ele>5</ele>
        <time>2019-12-05T08:16:10Z</time>
      </trkpt>
      <trkpt lat="59.326105" lon="18.074983">
        <ele>4</ele>
        <time>2019-12-05T08:16:10Z</time>
      </trkpt>
      <trkpt lat="59.326037" lon="18.075048">
        <ele>4</ele>
        <time>2019-12-05T08:16:11Z</time>
      </trkpt>
      <trkpt lat="59.325968" lon="18.075114">
        <ele>4</ele>
        <time>2019-12-05T08:16:13Z</time>
      </trkpt>
      <trkpt lat="59.325899" lon="18.075181">
        <ele>4</ele>
        <time>2019-12-05T08:16:13Z</time>
      </trkpt>
      <trkpt lat="59.32583" lon="18.075248">
        <ele>4</ele>
        <time>2019-12-05T08:16:14Z</time>
      </trkpt>
      <trkpt lat="59.32576" lon="18.075313">
        <ele>4</ele>
        <time>2019-12-05T08:16:15Z</time>
      </trkpt>
      <trkpt lat="59.325691" lon="18.075378">
        <ele>4</ele>
        <time>2019-12-05T08:16:17Z</time>
      </trkpt>
      <trkpt lat="59.325621" lon="18.075443">
        <ele>4</ele>
        <time>2019-12-05T08:16:17Z</time>
      </trkpt>
      <trkpt lat="59.32555" lon="18.075502">
        <ele>4</ele>
        <time>2019-12-05T08:16:18Z</time>
      </trkpt>
      <trkpt lat="59.325476" lon="18.075543">
        <ele>4</ele>
        <time>2019-12-05T08:16:19Z</time>
      </trkpt>
      <trkpt lat="59.325399" lon="18.075562">
        <ele>4</ele>
        <time>2019-12-05T08:16:20Z</time>
      </trkpt>
      <trkpt lat="59.325322" lon="18.075572">
        <ele>4</ele>
        <time>2019-12-05T08:16:21Z</time>
      </trkpt>
      <trkpt lat="59.325248" lon="18.075583">
        <ele>4</ele>
        <time>2019-12-05T08:16:23Z</time>
      </trkpt>
      <trkpt lat="59.325175" lon="18.075596">
        <ele>4</ele>
        <time>2019-12-05T08:16:23Z</time>
      </trkpt>
      <trkpt lat="59.325102" lon="18.075607">
        <ele>3</ele>
        <time>2019-12-05T08:16:24Z</time>
      </trkpt>
      <trkpt lat="59.325029" lon="18.075614">
        <ele>3</ele>
        <time>2019-12-05T08:16:25Z</time>
      </trkpt>
      <trkpt lat="59.324956" lon="18.075617">
        <ele>3</ele>
        <time>2019-12-05T08:16:26Z</time>
      </trkpt>
      <trkpt lat="59.324882" lon="18.075615">
        <ele>3</ele>
        <time>2019-12-05T08:16:27Z</time>
      </trkpt>
      <trkpt lat="59.324809" lon="18.075605">
        <ele>3</ele>
        <time>2019-12-05T08:16:28Z</time>
      </trkpt>
      <trkpt lat="59.324736" lon="18.075584">
        <ele>3</ele>
        <time>2019-12-05T08:16:30Z</time>
      </trkpt>
      <trkpt lat="59.324665" lon="18.075552">
        <ele>3</ele>
        <time>2019-12-05T08:16:30Z</time>
      </trkpt>
      <trkpt lat="59.324595" lon="18.075516">
        <ele>3</ele>
        <time>2019-12-05T08:16:32Z</time>
      </trkpt>
      <trkpt lat="59.324525" lon="18.075484">
        <ele>3</ele>
        <time>2019-12-05T08:16:32Z</time>
      </trkpt>
      <trkpt lat="59.324455" lon="18.075461">
        <ele>3</ele>
        <time>2019-12-05T08:16:33Z</time>
      </trkpt>
      <trkpt lat="59.324383" lon="18.075441">
        <ele>3</ele>
        <time>2019-12-05T08:16:34Z</time>
      </trkpt>
      <trkpt lat="59.324311" lon="18.075421">
        <ele>2</ele>
        <time>2019-12-05T08:16:35Z</time>
      </trkpt>
      <trkpt lat="59.324239" lon="18.0754">
        <ele>2</ele>
        <time>2019-12-05T08:16:37Z</time>
      </trkpt>
      <trkpt lat="59.324167" lon="18.075376">
        <ele>2</ele>
        <time>2019-12-05T08:16:37Z</time>
      </trkpt>
      <trkpt lat="59.324095" lon="18.075351">
        <ele>2</ele>
        <time>2019-12-05T08:16:38Z</time>
      </trkpt>
      <trkpt lat="59.324023" lon="18.075323">
        <ele>2</ele>
        <time>2019-12-05T08:16:39Z</time>
      </trkpt>
      <trkpt lat="59.323951" lon="18.075293">
        <ele>2</ele>
        <time>2019-12-05T08:16:40Z</time>
      </trkpt>
      <trkpt lat="59.32388" lon="18.075263">
        <ele>2</ele>
        <time>2019-12-05T08:16:41Z</time>
      </trkpt>
      <trkpt lat="59.323808" lon="18.075237">
        <ele>2</ele>
        <time>2019-12-05T08:16:42Z</time>
      </trkpt>
      <trkpt lat="59.323737" lon="18.075212">
        <ele>2</ele>
        <time>2019-12-05T08:16:44Z</time>
      </trkpt>
      <trkpt lat="59.323665" lon="18.075191">
        <ele>2</ele>
        <time>2019-12-05T08:16:44Z</time>
      </trkpt>
      <trkpt lat="59.323594" lon="18.075168">
        <ele>2</ele>
        <time>2019-12-05T08:16:46Z</time>
      </trkpt>
      <trkpt lat="59.323524" lon="18.075141">
        <ele>2</ele>
        <time>2019-12-05T08:16:46Z</time>
      </trkpt>
      <trkpt lat="59.323456" lon="18.075112">
        <ele>2</ele>
        <time>2019-12-05T08:16:47Z</time>
      </trkpt>
      <trkpt lat="59.323389" lon="18.075082">
        <ele>2</ele>
        <time>2019-12-05T08:16:48Z</time>
      </trkpt>
      <trkpt lat="59.323323" lon="18.075054">
        <ele>2</ele>
        <time>2019-12-05T08:16:49Z</time>
      </trkpt>
      <trkpt lat="59.323258" lon="18.07503">
        <ele>0</ele>
        <time>2019-12-05T08:16:50Z</time>
      </trkpt>
      <trkpt lat="59.323193" lon="18.075004">
        <ele>2</ele>
        <time>2019-12-05T08:16:51Z</time>
      </trkpt>
      <trkpt lat="59.32313" lon="18.074978">
        <ele>2</ele>
        <time>2019-12-05T08:16:52Z</time>
      </trkpt>
      <trkpt lat="59.323066" lon="18.074952">
        <ele>1</ele>
        <time>2019-12-05T08:16:53Z</time>
      </trkpt>
      <trkpt lat="59.323003" lon="18.074924">
        <ele>1</ele>
        <time>2019-12-05T08:16:54Z</time>
      </trkpt>
      <trkpt lat="59.322941" lon="18.074893">
        <ele>1</ele>
        <time>2019-12-05T08:16:55Z</time>
      </trkpt>
      <trkpt lat="59.32288" lon="18.074856">
        <ele>1</ele>
        <time>2019-12-05T08:16:56Z</time>
      </trkpt>
      <trkpt lat="59.322821" lon="18.074808">
        <ele>1</ele>
        <time>2019-12-05T08:16:57Z</time>
      </trkpt>
      <trkpt lat="59.322765" lon="18.074749">
        <ele>1</ele>
        <time>2019-12-05T08:16:59Z</time>
      </trkpt>
      <trkpt lat="59.322712" lon="18.074682">
        <ele>1</ele>
        <time>2019-12-05T08:16:59Z</time>
      </trkpt>
      <trkpt lat="59.322659" lon="18.074616">
        <ele>1</ele>
        <time>2019-12-05T08:17:00Z</time>
      </trkpt>
      <trkpt lat="59.322605" lon="18.07455">
        <ele>1</ele>
        <time>2019-12-05T08:17:01Z</time>
      </trkpt>
      <trkpt lat="59.322549" lon="18.074489">
        <ele>1</ele>
        <time>2019-12-05T08:17:02Z</time>
      </trkpt>
      <trkpt lat="59.322492" lon="18.074433">
        <ele>1</ele>
        <time>2019-12-05T08:17:03Z</time>
      </trkpt>
      <trkpt lat="59.322436" lon="18.074378">
        <ele>1</ele>
        <time>2019-12-05T08:17:04Z</time>
      </trkpt>
      <trkpt lat="59.322381" lon="18.074321">
        <ele>1</ele>
        <time>2019-12-05T08:17:05Z</time>
      </trkpt>
      <trkpt lat="59.322325" lon="18.074265">
        <ele>1</ele>
        <time>2019-12-05T08:17:07Z</time>
      </trkpt>
      <trkpt lat="59.322269" lon="18.074212">
        <ele>1</ele>
        <time>2019-12-05T08:17:07Z</time>
      </trkpt>
      <trkpt lat="59.322214" lon="18.074157">
        <ele>1</ele>
        <time>2019-12-05T08:17:08Z</time>
      </trkpt>
      <trkpt lat="59.322161" lon="18.074102">
        <ele>1</ele>
        <time>2019-12-05T08:17:10Z</time>
      </trkpt>
      <trkpt lat="59.322109" lon="18.074048">
        <ele>2</ele>
        <time>2019-12-05T08:17:10Z</time>
      </trkpt>
      <trkpt lat="59.32206" lon="18.073997">
        <ele>2</ele>
        <time>2019-12-05T08:17:11Z</time>
      </trkpt>
      <trkpt lat="59.322015" lon="18.073951">
        <ele>2</ele>
        <time>2019-12-05T08:17:12Z</time>
      </trkpt>
      <trkpt lat="59.321974" lon="18.073909">
        <ele>2</ele>
        <time>2019-12-05T08:17:13Z</time>
      </trkpt>
      <trkpt lat="59.321942" lon="18.073866">
        <ele>2</ele>
        <time>2019-12-05T08:17:14Z</time>
      </trkpt>
      <trkpt lat="59.321923" lon="18.07381">
        <ele>3</ele>
        <time>2019-12-05T08:17:16Z</time>
      </trkpt>
      <trkpt lat="59.321917" lon="18.073746">
        <ele>3</ele>
        <time>2019-12-05T08:17:16Z</time>
      </trkpt>
      <trkpt lat="59.321921" lon="18.073684">
        <ele>2</ele>
        <time>2019-12-05T08:17:17Z</time>
      </trkpt>
      <trkpt lat="59.321931" lon="18.073615">
        <ele>2</ele>
        <time>2019-12-05T08:17:18Z</time>
      </trkpt>
      <trkpt lat="59.321945" lon="18.073547">
        <ele>2</ele>
        <time>2019-12-05T08:17:19Z</time>
      </trkpt>
      <trkpt lat="59.32196" lon="18.07348">
        <ele>2</ele>
        <time>2019-12-05T08:17:20Z</time>
      </trkpt>
      <trkpt lat="59.321977" lon="18.073412">
        <ele>2</ele>
        <time>2019-12-05T08:17:21Z</time>
      </trkpt>
      <trkpt lat="59.321993" lon="18.073346">
        <ele>2</ele>
        <time>2019-12-05T08:17:22Z</time>
      </trkpt>
      <trkpt lat="59.322007" lon="18.073284">
        <ele>2</ele>
        <time>2019-12-05T08:17:23Z</time>
      </trkpt>
      <trkpt lat="59.32202" lon="18.073226">
        <ele>2</ele>
        <time>2019-12-05T08:17:24Z</time>
      </trkpt>
      <trkpt lat="59.32203" lon="18.073175">
        <ele>2</ele>
        <time>2019-12-05T08:17:25Z</time>
      </trkpt>
      <trkpt lat="59.32204" lon="18.073132">
        <ele>2</ele>
        <time>2019-12-05T08:17:26Z</time>
      </trkpt>
      <trkpt lat="59.322048" lon="18.073095">
        <ele>2</ele>
        <time>2019-12-05T08:17:27Z</time>
      </trkpt>
      <trkpt lat="59.322055" lon="18.073061">
        <ele>3</ele>
        <time>2019-12-05T08:17:29Z</time>
      </trkpt>
      <trkpt lat="59.322066" lon="18.073006">
        <ele>3</ele>
        <time>2019-12-05T08:17:30Z</time>
      </trkpt>
      <trkpt lat="59.322071" lon="18.072972">
        <ele>0</ele>
        <time>2019-12-05T08:17:35Z</time>
      </trkpt>
      <trkpt lat="59.322079" lon="18.07285">
        <ele>3</ele>
        <time>2019-12-05T08:17:39Z</time>
      </trkpt>
      <trkpt lat="59.322081" lon="18.072787">
        <ele>3</ele>
        <time>2019-12-05T08:17:39Z</time>
      </trkpt>
      <trkpt lat="59.322079" lon="18.072723">
        <ele>3</ele>
        <time>2019-12-05T08:17:41Z</time>
      </trkpt>
      <trkpt lat="59.322075" lon="18.072658">
        <ele>3</ele>
        <time>2019-12-05T08:17:42Z</time>
      </trkpt>
      <trkpt lat="59.322068" lon="18.072591">
        <ele>3</ele>
        <time>2019-12-05T08:17:42Z</time>
      </trkpt>
      <trkpt lat="59.322063" lon="18.072524">
        <ele>3</ele>
        <time>2019-12-05T08:17:43Z</time>
      </trkpt>
      <trkpt lat="59.322058" lon="18.072458">
        <ele>3</ele>
        <time>2019-12-05T08:17:44Z</time>
      </trkpt>
      <trkpt lat="59.322048" lon="18.072396">
        <ele>3</ele>
        <time>2019-12-05T08:17:45Z</time>
      </trkpt>
      <trkpt lat="59.322026" lon="18.07235">
        <ele>3</ele>
        <time>2019-12-05T08:17:46Z</time>
      </trkpt>
      <trkpt lat="59.321994" lon="18.072325">
        <ele>3</ele>
        <time>2019-12-05T08:17:47Z</time>
      </trkpt>
      <trkpt lat="59.321959" lon="18.072304">
        <ele>3</ele>
        <time>2019-12-05T08:17:48Z</time>
      </trkpt>
      <trkpt lat="59.321924" lon="18.072278">
        <ele>4</ele>
        <time>2019-12-05T08:17:49Z</time>
      </trkpt>
      <trkpt lat="59.321889" lon="18.072253">
        <ele>4</ele>
        <time>2019-12-05T08:17:50Z</time>
      </trkpt>
      <trkpt lat="59.321854" lon="18.072227">
        <ele>4</ele>
        <time>2019-12-05T08:17:51Z</time>
      </trkpt>
      <trkpt lat="59.321821" lon="18.072205">
        <ele>4</ele>
        <time>2019-12-05T08:17:52Z</time>
      </trkpt>
      <trkpt lat="59.321789" lon="18.072189">
        <ele>4</ele>
        <time>2019-12-05T08:17:53Z</time>
      </trkpt>
      <trkpt lat="59.32176" lon="18.072182">
        <ele>4</ele>
        <time>2019-12-05T08:17:54Z</time>
      </trkpt>
      <trkpt lat="59.321734" lon="18.072176">
        <ele>4</ele>
        <time>2019-12-05T08:17:55Z</time>
      </trkpt>
      <trkpt lat="59.321712" lon="18.072171">
        <ele>4</ele>
        <time>2019-12-05T08:17:57Z</time>
      </trkpt>
      <trkpt lat="59.321691" lon="18.072171">
        <ele>4</ele>
        <time>2019-12-05T08:17:58Z</time>
      </trkpt>
      <trkpt lat="59.321666" lon="18.072184">
        <ele>4</ele>
        <time>2019-12-05T08:17:58Z</time>
      </trkpt>
      <trkpt lat="59.321636" lon="18.072195">
        <ele>5</ele>
        <time>2019-12-05T08:17:59Z</time>
      </trkpt>
      <trkpt lat="59.321601" lon="18.072185">
        <ele>5</ele>
        <time>2019-12-05T08:18:00Z</time>
      </trkpt>
      <trkpt lat="59.321563" lon="18.072162">
        <ele>5</ele>
        <time>2019-12-05T08:18:01Z</time>
      </trkpt>
      <trkpt lat="59.321524" lon="18.072134">
        <ele>5</ele>
        <time>2019-12-05T08:18:02Z</time>
      </trkpt>
      <trkpt lat="59.321485" lon="18.072105">
        <ele>5</ele>
        <time>2019-12-05T08:18:03Z</time>
      </trkpt>
      <trkpt lat="59.321446" lon="18.072076">
        <ele>5</ele>
        <time>2019-12-05T08:18:04Z</time>
      </trkpt>
      <trkpt lat="59.321405" lon="18.072045">
        <ele>5</ele>
        <time>2019-12-05T08:18:05Z</time>
      </trkpt>
      <trkpt lat="59.321366" lon="18.072013">
        <ele>5</ele>
        <time>2019-12-05T08:18:06Z</time>
      </trkpt>
      <trkpt lat="59.321324" lon="18.071982">
        <ele>6</ele>
        <time>2019-12-05T08:18:07Z</time>
      </trkpt>
      <trkpt lat="59.321284" lon="18.071953">
        <ele>6</ele>
        <time>2019-12-05T08:18:08Z</time>
      </trkpt>
      <trkpt lat="59.321243" lon="18.07192">
        <ele>6</ele>
        <time>2019-12-05T08:18:10Z</time>
      </trkpt>
      <trkpt lat="59.321206" lon="18.071879">
        <ele>6</ele>
        <time>2019-12-05T08:18:10Z</time>
      </trkpt>
      <trkpt lat="59.321173" lon="18.071825">
        <ele>6</ele>
        <time>2019-12-05T08:18:11Z</time>
      </trkpt>
      <trkpt lat="59.321144" lon="18.071762">
        <ele>7</ele>
        <time>2019-12-05T08:18:12Z</time>
      </trkpt>
      <trkpt lat="59.321122" lon="18.071688">
        <ele>7</ele>
        <time>2019-12-05T08:18:13Z</time>
      </trkpt>
      <trkpt lat="59.321106" lon="18.071609">
        <ele>7</ele>
        <time>2019-12-05T08:18:14Z</time>
      </trkpt>
      <trkpt lat="59.321096" lon="18.071529">
        <ele>7</ele>
        <time>2019-12-05T08:18:15Z</time>
      </trkpt>
      <trkpt lat="59.321088" lon="18.071452">
        <ele>7</ele>
        <time>2019-12-05T08:18:17Z</time>
      </trkpt>
      <trkpt lat="59.32108" lon="18.071382">
        <ele>8</ele>
        <time>2019-12-05T08:18:17Z</time>
      </trkpt>
      <trkpt lat="59.321073" lon="18.071316">
        <ele>8</ele>
        <time>2019-12-05T08:18:18Z</time>
      </trkpt>
      <trkpt lat="59.321066" lon="18.071251">
        <ele>8</ele>
        <time>2019-12-05T08:18:19Z</time>
      </trkpt>
      <trkpt lat="59.321058" lon="18.071188">
        <ele>8</ele>
        <time>2019-12-05T08:18:20Z</time>
      </trkpt>
      <trkpt lat="59.321048" lon="18.071127">
        <ele>9</ele>
        <time>2019-12-05T08:18:21Z</time>
      </trkpt>
      <trkpt lat="59.321032" lon="18.071075">
        <ele>9</ele>
        <time>2019-12-05T08:18:23Z</time>
      </trkpt>
      <trkpt lat="59.321006" lon="18.071033">
        <ele>9</ele>
        <time>2019-12-05T08:18:23Z</time>
      </trkpt>
      <trkpt lat="59.320976" lon="18.071002">
        <ele>9</ele>
        <time>2019-12-05T08:18:24Z</time>
      </trkpt>
      <trkpt lat="59.320941" lon="18.070975">
        <ele>9</ele>
        <time>2019-12-05T08:18:25Z</time>
      </trkpt>
      <trkpt lat="59.320906" lon="18.07095">
        <ele>9</ele>
        <time>2019-12-05T08:18:26Z</time>
      </trkpt>
      <trkpt lat="59.320872" lon="18.070926">
        <ele>10</ele>
        <time>2019-12-05T08:18:27Z</time>
      </trkpt>
      <trkpt lat="59.320835" lon="18.0709">
        <ele>10</ele>
        <time>2019-12-05T08:18:28Z</time>
      </trkpt>
      <trkpt lat="59.3208" lon="18.070874">
        <ele>10</ele>
        <time>2019-12-05T08:18:29Z</time>
      </trkpt>
      <trkpt lat="59.320764" lon="18.07085">
        <ele>10</ele>
        <time>2019-12-05T08:18:30Z</time>
      </trkpt>
      <trkpt lat="59.32073" lon="18.070828">
        <ele>10</ele>
        <time>2019-12-05T08:18:31Z</time>
      </trkpt>
      <trkpt lat="59.320694" lon="18.070813">
        <ele>10</ele>
        <time>2019-12-05T08:18:32Z</time>
      </trkpt>
      <trkpt lat="59.320658" lon="18.070802">
        <ele>10</ele>
        <time>2019-12-05T08:18:33Z</time>
      </trkpt>
      <trkpt lat="59.320624" lon="18.070792">
        <ele>11</ele>
        <time>2019-12-05T08:18:34Z</time>
      </trkpt>
      <trkpt lat="59.320593" lon="18.070774">
        <ele>11</ele>
        <time>2019-12-05T08:18:36Z</time>
      </trkpt>
      <trkpt lat="59.32057" lon="18.070733">
        <ele>11</ele>
        <time>2019-12-05T08:18:37Z</time>
      </trkpt>
      <trkpt lat="59.320556" lon="18.070674">
        <ele>11</ele>
        <time>2019-12-05T08:18:37Z</time>
      </trkpt>
      <trkpt lat="59.320542" lon="18.070601">
        <ele>11</ele>
        <time>2019-12-05T08:18:38Z</time>
      </trkpt>
      <trkpt lat="59.320528" lon="18.07052">
        <ele>11</ele>
        <time>2019-12-05T08:18:39Z</time>
      </trkpt>
      <trkpt lat="59.320516" lon="18.070436">
        <ele>11</ele>
        <time>2019-12-05T08:18:40Z</time>
      </trkpt>
      <trkpt lat="59.3205" lon="18.070357">
        <ele>11</ele>
        <time>2019-12-05T08:18:41Z</time>
      </trkpt>
      <trkpt lat="59.320477" lon="18.070287">
        <ele>11</ele>
        <time>2019-12-05T08:18:42Z</time>
      </trkpt>
      <trkpt lat="59.320445" lon="18.070243">
        <ele>11</ele>
        <time>2019-12-05T08:18:43Z</time>
      </trkpt>
      <trkpt lat="59.320408" lon="18.070228">
        <ele>11</ele>
        <time>2019-12-05T08:18:44Z</time>
      </trkpt>
      <trkpt lat="59.320368" lon="18.070233">
        <ele>11</ele>
        <time>2019-12-05T08:18:45Z</time>
      </trkpt>
      <trkpt lat="59.320323" lon="18.070243">
        <ele>11</ele>
        <time>2019-12-05T08:18:46Z</time>
      </trkpt>
      <trkpt lat="59.320278" lon="18.070256">
        <ele>11</ele>
        <time>2019-12-05T08:18:47Z</time>
      </trkpt>
      <trkpt lat="59.32023" lon="18.070266">
        <ele>11</ele>
        <time>2019-12-05T08:18:49Z</time>
      </trkpt>
      <trkpt lat="59.320182" lon="18.070275">
        <ele>11</ele>
        <time>2019-12-05T08:18:49Z</time>
      </trkpt>
      <trkpt lat="59.320134" lon="18.070289">
        <ele>11</ele>
        <time>2019-12-05T08:18:50Z</time>
      </trkpt>
      <trkpt lat="59.320086" lon="18.070307">
        <ele>11</ele>
        <time>2019-12-05T08:18:51Z</time>
      </trkpt>
      <trkpt lat="59.320036" lon="18.070325">
        <ele>11</ele>
        <time>2019-12-05T08:18:52Z</time>
      </trkpt>
      <trkpt lat="59.319985" lon="18.070345">
        <ele>11</ele>
        <time>2019-12-05T08:18:53Z</time>
      </trkpt>
      <trkpt lat="59.319936" lon="18.070368">
        <ele>11</ele>
        <time>2019-12-05T08:18:55Z</time>
      </trkpt>
      <trkpt lat="59.31989" lon="18.070387">
        <ele>11</ele>
        <time>2019-12-05T08:18:55Z</time>
      </trkpt>
      <trkpt lat="59.319849" lon="18.070402">
        <ele>12</ele>
        <time>2019-12-05T08:18:56Z</time>
      </trkpt>
      <trkpt lat="59.319816" lon="18.070419">
        <ele>12</ele>
        <time>2019-12-05T08:18:57Z</time>
      </trkpt>
      <trkpt lat="59.31978" lon="18.070441">
        <ele>12</ele>
        <time>2019-12-05T08:18:58Z</time>
      </trkpt>
      <trkpt lat="59.319742" lon="18.070463">
        <ele>12</ele>
        <time>2019-12-05T08:19:00Z</time>
      </trkpt>
      <trkpt lat="59.3197" lon="18.070488">
        <ele>12</ele>
        <time>2019-12-05T08:19:00Z</time>
      </trkpt>
      <trkpt lat="59.319658" lon="18.070513">
        <ele>13</ele>
        <time>2019-12-05T08:19:01Z</time>
      </trkpt>
      <trkpt lat="59.319612" lon="18.070544">
        <ele>13</ele>
        <time>2019-12-05T08:19:02Z</time>
      </trkpt>
      <trkpt lat="59.319571" lon="18.070566">
        <ele>13</ele>
        <time>2019-12-05T08:19:03Z</time>
      </trkpt>
      <trkpt lat="59.319532" lon="18.070582">
        <ele>13</ele>
        <time>2019-12-05T08:19:04Z</time>
      </trkpt>
      <trkpt lat="59.319492" lon="18.070597">
        <ele>13</ele>
        <time>2019-12-05T08:19:05Z</time>
      </trkpt>
      <trkpt lat="59.319452" lon="18.070614">
        <ele>14</ele>
        <time>2019-12-05T08:19:06Z</time>
      </trkpt>
      <trkpt lat="59.319414" lon="18.07063">
        <ele>14</ele>
        <time>2019-12-05T08:19:07Z</time>
      </trkpt>
      <trkpt lat="59.319381" lon="18.070642">
        <ele>14</ele>
        <time>2019-12-05T08:19:08Z</time>
      </trkpt>
      <trkpt lat="59.319347" lon="18.07066">
        <ele>14</ele>
        <time>2019-12-05T08:19:09Z</time>
      </trkpt>
      <trkpt lat="59.319312" lon="18.07068">
        <ele>14</ele>
        <time>2019-12-05T08:19:10Z</time>
      </trkpt>
      <trkpt lat="59.319277" lon="18.070697">
        <ele>14</ele>
        <time>2019-12-05T08:19:12Z</time>
      </trkpt>
      <trkpt lat="59.319242" lon="18.070717">
        <ele>14</ele>
        <time>2019-12-05T08:19:12Z</time>
      </trkpt>
      <trkpt lat="59.319204" lon="18.070742">
        <ele>15</ele>
        <time>2019-12-05T08:19:14Z</time>
      </trkpt>
      <trkpt lat="59.319167" lon="18.070773">
        <ele>15</ele>
        <time>2019-12-05T08:19:14Z</time>
      </trkpt>
      <trkpt lat="59.319135" lon="18.070794">
        <ele>15</ele>
        <time>2019-12-05T08:19:15Z</time>
      </trkpt>
      <trkpt lat="59.319105" lon="18.070811">
        <ele>15</ele>
        <time>2019-12-05T08:19:16Z</time>
      </trkpt>
      <trkpt lat="59.31908" lon="18.070828">
        <ele>16</ele>
        <time>2019-12-05T08:19:17Z</time>
      </trkpt>
      <trkpt lat="59.319058" lon="18.070844">
        <ele>16</ele>
        <time>2019-12-05T08:19:18Z</time>
      </trkpt>
      <trkpt lat="59.319037" lon="18.070855">
        <ele>16</ele>
        <time>2019-12-05T08:19:19Z</time>
      </trkpt>
      <trkpt lat="59.31901" lon="18.07087">
        <ele>17</ele>
        <time>2019-12-05T08:19:20Z</time>
      </trkpt>
      <trkpt lat="59.318986" lon="18.070889">
        <ele>17</ele>
        <time>2019-12-05T08:19:21Z</time>
      </trkpt>
      <trkpt lat="59.318963" lon="18.070909">
        <ele>17</ele>
        <time>2019-12-05T08:19:22Z</time>
      </trkpt>
      <trkpt lat="59.318943" lon="18.070926">
        <ele>18</ele>
        <time>2019-12-05T08:19:23Z</time>
      </trkpt>
      <trkpt lat="59.318921" lon="18.070947">
        <ele>18</ele>
        <time>2019-12-05T08:19:24Z</time>
      </trkpt>
      <trkpt lat="59.318898" lon="18.070966">
        <ele>18</ele>
        <time>2019-12-05T08:19:25Z</time>
      </trkpt>
      <trkpt lat="59.318874" lon="18.07098">
        <ele>18</ele>
        <time>2019-12-05T08:19:26Z</time>
      </trkpt>
      <trkpt lat="59.318852" lon="18.070993">
        <ele>19</ele>
        <time>2019-12-05T08:19:27Z</time>
      </trkpt>
      <trkpt lat="59.31883" lon="18.071007">
        <ele>19</ele>
        <time>2019-12-05T08:19:28Z</time>
      </trkpt>
      <trkpt lat="59.318808" lon="18.071021">
        <ele>19</ele>
        <time>2019-12-05T08:19:29Z</time>
      </trkpt>
      <trkpt lat="59.318788" lon="18.071038">
        <ele>20</ele>
        <time>2019-12-05T08:19:31Z</time>
      </trkpt>
      <trkpt lat="59.318764" lon="18.071056">
        <ele>20</ele>
        <time>2019-12-05T08:19:31Z</time>
      </trkpt>
      <trkpt lat="59.318738" lon="18.07107">
        <ele>20</ele>
        <time>2019-12-05T08:19:33Z</time>
      </trkpt>
      <trkpt lat="59.318711" lon="18.071074">
        <ele>20</ele>
        <time>2019-12-05T08:19:33Z</time>
      </trkpt>
      <trkpt lat="59.318684" lon="18.071082">
        <ele>20</ele>
        <time>2019-12-05T08:19:34Z</time>
      </trkpt>
      <trkpt lat="59.318663" lon="18.071095">
        <ele>21</ele>
        <time>2019-12-05T08:19:35Z</time>
      </trkpt>
      <trkpt lat="59.318643" lon="18.071113">
        <ele>21</ele>
        <time>2019-12-05T08:19:36Z</time>
      </trkpt>
      <trkpt lat="59.318625" lon="18.07113">
        <ele>21</ele>
        <time>2019-12-05T08:19:37Z</time>
      </trkpt>
      <trkpt lat="59.318607" lon="18.071146">
        <ele>21</ele>
        <time>2019-12-05T08:19:38Z</time>
      </trkpt>
      <trkpt lat="59.318585" lon="18.071152">
        <ele>21</ele>
        <time>2019-12-05T08:19:39Z</time>
      </trkpt>
      <trkpt lat="59.318563" lon="18.071158">
        <ele>21</ele>
        <time>2019-12-05T08:19:40Z</time>
      </trkpt>
      <trkpt lat="59.31854" lon="18.071164">
        <ele>22</ele>
        <time>2019-12-05T08:19:41Z</time>
      </trkpt>
      <trkpt lat="59.318514" lon="18.071164">
        <ele>22</ele>
        <time>2019-12-05T08:19:42Z</time>
      </trkpt>
      <trkpt lat="59.31849" lon="18.071164">
        <ele>22</ele>
        <time>2019-12-05T08:19:43Z</time>
      </trkpt>
      <trkpt lat="59.318462" lon="18.071168">
        <ele>23</ele>
        <time>2019-12-05T08:19:44Z</time>
      </trkpt>
      <trkpt lat="59.318436" lon="18.071174">
        <ele>23</ele>
        <time>2019-12-05T08:19:45Z</time>
      </trkpt>
      <trkpt lat="59.318413" lon="18.071187">
        <ele>23</ele>
        <time>2019-12-05T08:19:46Z</time>
      </trkpt>
      <trkpt lat="59.318391" lon="18.071202">
        <ele>24</ele>
        <time>2019-12-05T08:19:47Z</time>
      </trkpt>
      <trkpt lat="59.318371" lon="18.071226">
        <ele>24</ele>
        <time>2019-12-05T08:19:48Z</time>
      </trkpt>
      <trkpt lat="59.318347" lon="18.071244">
        <ele>24</ele>
        <time>2019-12-05T08:19:49Z</time>
      </trkpt>
      <trkpt lat="59.318327" lon="18.071264">
        <ele>24</ele>
        <time>2019-12-05T08:19:50Z</time>
      </trkpt>
      <trkpt lat="59.318302" lon="18.071279">
        <ele>0</ele>
        <time>2019-12-05T08:19:51Z</time>
      </trkpt>
      <trkpt lat="59.318277" lon="18.071291">
        <ele>25</ele>
        <time>2019-12-05T08:19:52Z</time>
      </trkpt>
      <trkpt lat="59.318252" lon="18.071314">
        <ele>25</ele>
        <time>2019-12-05T08:19:53Z</time>
      </trkpt>
      <trkpt lat="59.318225" lon="18.071346">
        <ele>26</ele>
        <time>2019-12-05T08:19:54Z</time>
      </trkpt>
      <trkpt lat="59.318202" lon="18.071374">
        <ele>26</ele>
        <time>2019-12-05T08:19:55Z</time>
      </trkpt>
      <trkpt lat="59.318181" lon="18.071395">
        <ele>27</ele>
        <time>2019-12-05T08:19:56Z</time>
      </trkpt>
      <trkpt lat="59.318154" lon="18.071416">
        <ele>27</ele>
        <time>2019-12-05T08:19:57Z</time>
      </trkpt>
      <trkpt lat="59.318128" lon="18.071443">
        <ele>27</ele>
        <time>2019-12-05T08:19:58Z</time>
      </trkpt>
      <trkpt lat="59.3181" lon="18.071465">
        <ele>27</ele>
        <time>2019-12-05T08:19:59Z</time>
      </trkpt>
      <trkpt lat="59.318066" lon="18.071475">
        <ele>28</ele>
        <time>2019-12-05T08:20:00Z</time>
      </trkpt>
      <trkpt lat="59.318036" lon="18.071494">
        <ele>28</ele>
        <time>2019-12-05T08:20:01Z</time>
      </trkpt>
      <trkpt lat="59.318001" lon="18.071507">
        <ele>28</ele>
        <time>2019-12-05T08:20:02Z</time>
      </trkpt>
      <trkpt lat="59.317966" lon="18.071517">
        <ele>28</ele>
        <time>2019-12-05T08:20:03Z</time>
      </trkpt>
      <trkpt lat="59.31793" lon="18.071523">
        <ele>29</ele>
        <time>2019-12-05T08:20:04Z</time>
      </trkpt>
      <trkpt lat="59.31789" lon="18.071522">
        <ele>29</ele>
        <time>2019-12-05T08:20:05Z</time>
      </trkpt>
      <trkpt lat="59.317853" lon="18.071533">
        <ele>29</ele>
        <time>2019-12-05T08:20:07Z</time>
      </trkpt>
      <trkpt lat="59.317818" lon="18.071545">
        <ele>30</ele>
        <time>2019-12-05T08:20:07Z</time>
      </trkpt>
      <trkpt lat="59.317786" lon="18.071559">
        <ele>30</ele>
        <time>2019-12-05T08:20:08Z</time>
      </trkpt>
      <trkpt lat="59.31775" lon="18.071579">
        <ele>30</ele>
        <time>2019-12-05T08:20:09Z</time>
      </trkpt>
      <trkpt lat="59.317716" lon="18.071592">
        <ele>31</ele>
        <time>2019-12-05T08:20:11Z</time>
      </trkpt>
      <trkpt lat="59.317684" lon="18.071609">
        <ele>31</ele>
        <time>2019-12-05T08:20:11Z</time>
      </trkpt>
      <trkpt lat="59.317652" lon="18.071625">
        <ele>31</ele>
        <time>2019-12-05T08:20:12Z</time>
      </trkpt>
      <trkpt lat="59.317618" lon="18.071644">
        <ele>31</ele>
        <time>2019-12-05T08:20:13Z</time>
      </trkpt>
      <trkpt lat="59.317584" lon="18.071665">
        <ele>32</ele>
        <time>2019-12-05T08:20:14Z</time>
      </trkpt>
      <trkpt lat="59.317552" lon="18.071688">
        <ele>32</ele>
        <time>2019-12-05T08:20:15Z</time>
      </trkpt>
      <trkpt lat="59.317518" lon="18.071707">
        <ele>33</ele>
        <time>2019-12-05T08:20:16Z</time>
      </trkpt>
      <trkpt lat="59.317486" lon="18.071727">
        <ele>33</ele>
        <time>2019-12-05T08:20:17Z</time>
      </trkpt>
      <trkpt lat="59.317457" lon="18.071748">
        <ele>33</ele>
        <time>2019-12-05T08:20:18Z</time>
      </trkpt>
      <trkpt lat="59.317426" lon="18.071769">
        <ele>34</ele>
        <time>2019-12-05T08:20:19Z</time>
      </trkpt>
      <trkpt lat="59.317392" lon="18.071788">
        <ele>34</ele>
        <time>2019-12-05T08:20:20Z</time>
      </trkpt>
      <trkpt lat="59.317357" lon="18.071807">
        <ele>34</ele>
        <time>2019-12-05T08:20:22Z</time>
      </trkpt>
      <trkpt lat="59.31732" lon="18.071821">
        <ele>34</ele>
        <time>2019-12-05T08:20:22Z</time>
      </trkpt>
      <trkpt lat="59.317276" lon="18.071834">
        <ele>34</ele>
        <time>2019-12-05T08:20:23Z</time>
      </trkpt>
      <trkpt lat="59.317236" lon="18.071855">
        <ele>34</ele>
        <time>2019-12-05T08:20:24Z</time>
      </trkpt>
      <trkpt lat="59.317195" lon="18.071875">
        <ele>34</ele>
        <time>2019-12-05T08:20:25Z</time>
      </trkpt>
      <trkpt lat="59.317152" lon="18.071892">
        <ele>34</ele>
        <time>2019-12-05T08:20:26Z</time>
      </trkpt>
      <trkpt lat="59.31711" lon="18.071904">
        <ele>34</ele>
        <time>2019-12-05T08:20:27Z</time>
      </trkpt>
      <trkpt lat="59.317066" lon="18.07192">
        <ele>35</ele>
        <time>2019-12-05T08:20:28Z</time>
      </trkpt>
      <trkpt lat="59.317022" lon="18.071938">
        <ele>35</ele>
        <time>2019-12-05T08:20:30Z</time>
      </trkpt>
      <trkpt lat="59.316976" lon="18.071955">
        <ele>35</ele>
        <time>2019-12-05T08:20:30Z</time>
      </trkpt>
      <trkpt lat="59.316936" lon="18.071982">
        <ele>35</ele>
        <time>2019-12-05T08:20:31Z</time>
      </trkpt>
      <trkpt lat="59.3169" lon="18.072009">
        <ele>35</ele>
        <time>2019-12-05T08:20:32Z</time>
      </trkpt>
      <trkpt lat="59.316864" lon="18.072043">
        <ele>36</ele>
        <time>2019-12-05T08:20:34Z</time>
      </trkpt>
      <trkpt lat="59.316826" lon="18.072067">
        <ele>36</ele>
        <time>2019-12-05T08:20:34Z</time>
      </trkpt>
      <trkpt lat="59.316791" lon="18.072088">
        <ele>36</ele>
        <time>2019-12-05T08:20:35Z</time>
      </trkpt>
      <trkpt lat="59.316756" lon="18.072112">
        <ele>36</ele>
        <time>2019-12-05T08:20:36Z</time>
      </trkpt>
      <trkpt lat="59.316722" lon="18.072135">
        <ele>36</ele>
        <time>2019-12-05T08:20:37Z</time>
      </trkpt>
      <trkpt lat="59.316684" lon="18.072152">
        <ele>37</ele>
        <time>2019-12-05T08:20:38Z</time>
      </trkpt>
      <trkpt lat="59.316646" lon="18.072162">
        <ele>37</ele>
        <time>2019-12-05T08:20:39Z</time>
      </trkpt>
      <trkpt lat="59.316616" lon="18.072164">
        <ele>37</ele>
        <time>2019-12-05T08:20:40Z</time>
      </trkpt>
      <trkpt lat="59.316594" lon="18.072168">
        <ele>37</ele>
        <time>2019-12-05T08:20:41Z</time>
      </trkpt>
      <trkpt lat="59.316552" lon="18.07219">
        <ele>38</ele>
        <time>2019-12-05T08:20:43Z</time>
      </trkpt>
      <trkpt lat="59.316521" lon="18.072202">
        <ele>38</ele>
        <time>2019-12-05T08:20:44Z</time>
      </trkpt>
      <trkpt lat="59.31649" lon="18.072213">
        <ele>39</ele>
        <time>2019-12-05T08:20:45Z</time>
      </trkpt>
      <trkpt lat="59.316452" lon="18.072216">
        <ele>39</ele>
        <time>2019-12-05T08:20:46Z</time>
      </trkpt>
      <trkpt lat="59.31641" lon="18.072228">
        <ele>40</ele>
        <time>2019-12-05T08:20:48Z</time>
      </trkpt>
      <trkpt lat="59.316362" lon="18.072254">
        <ele>40</ele>
        <time>2019-12-05T08:20:49Z</time>
      </trkpt>
      <trkpt lat="59.316312" lon="18.07229">
        <ele>40</ele>
        <time>2019-12-05T08:20:49Z</time>
      </trkpt>
      <trkpt lat="59.316259" lon="18.072317">
        <ele>40</ele>
        <time>2019-12-05T08:20:50Z</time>
      </trkpt>
      <trkpt lat="59.316211" lon="18.072342">
        <ele>40</ele>
        <time>2019-12-05T08:20:51Z</time>
      </trkpt>
      <trkpt lat="59.316166" lon="18.07237">
        <ele>40</ele>
        <time>2019-12-05T08:20:52Z</time>
      </trkpt>
      <trkpt lat="59.316122" lon="18.072396">
        <ele>40</ele>
        <time>2019-12-05T08:20:53Z</time>
      </trkpt>
      <trkpt lat="59.316074" lon="18.072409">
        <ele>40</ele>
        <time>2019-12-05T08:20:54Z</time>
      </trkpt>
      <trkpt lat="59.316026" lon="18.072432">
        <ele>41</ele>
        <time>2019-12-05T08:20:55Z</time>
      </trkpt>
      <trkpt lat="59.315983" lon="18.072454">
        <ele>41</ele>
        <time>2019-12-05T08:20:56Z</time>
      </trkpt>
      <trkpt lat="59.315946" lon="18.072473">
        <ele>41</ele>
        <time>2019-12-05T08:20:57Z</time>
      </trkpt>
      <trkpt lat="59.315908" lon="18.072484">
        <ele>41</ele>
        <time>2019-12-05T08:20:59Z</time>
      </trkpt>
      <trkpt lat="59.315878" lon="18.072498">
        <ele>41</ele>
        <time>2019-12-05T08:20:59Z</time>
      </trkpt>
      <trkpt lat="59.315854" lon="18.072514">
        <ele>41</ele>
        <time>2019-12-05T08:21:00Z</time>
      </trkpt>
      <trkpt lat="59.315833" lon="18.072522">
        <ele>41</ele>
        <time>2019-12-05T08:21:01Z</time>
      </trkpt>
      <trkpt lat="59.315813" lon="18.072535">
        <ele>42</ele>
        <time>2019-12-05T08:21:03Z</time>
      </trkpt>
      <trkpt lat="59.315809" lon="18.072532">
        <ele>0</ele>
        <time>2019-12-05T08:21:07Z</time>
      </trkpt>
      <trkpt lat="59.315761" lon="18.07257">
        <ele>41</ele>
        <time>2019-12-05T08:22:01Z</time>
      </trkpt>
      <trkpt lat="59.315728" lon="18.072593">
        <ele>40</ele>
        <time>2019-12-05T08:22:01Z</time>
      </trkpt>
      <trkpt lat="59.315688" lon="18.072621">
        <ele>40</ele>
        <time>2019-12-05T08:22:02Z</time>
      </trkpt>
      <trkpt lat="59.315647" lon="18.072652">
        <ele>40</ele>
        <time>2019-12-05T08:22:03Z</time>
      </trkpt>
      <trkpt lat="59.315608" lon="18.072676">
        <ele>40</ele>
        <time>2019-12-05T08:22:04Z</time>
      </trkpt>
      <trkpt lat="59.315568" lon="18.072699">
        <ele>39</ele>
        <time>2019-12-05T08:22:05Z</time>
      </trkpt>
      <trkpt lat="59.315527" lon="18.07272">
        <ele>39</ele>
        <time>2019-12-05T08:22:06Z</time>
      </trkpt>
      <trkpt lat="59.315488" lon="18.072741">
        <ele>39</ele>
        <time>2019-12-05T08:22:07Z</time>
      </trkpt>
      <trkpt lat="59.315455" lon="18.072757">
        <ele>39</ele>
        <time>2019-12-05T08:22:08Z</time>
      </trkpt>
      <trkpt lat="59.315423" lon="18.072767">
        <ele>39</ele>
        <time>2019-12-05T08:22:09Z</time>
      </trkpt>
      <trkpt lat="59.315392" lon="18.072778">
        <ele>38</ele>
        <time>2019-12-05T08:22:10Z</time>
      </trkpt>
      <trkpt lat="59.315361" lon="18.072787">
        <ele>38</ele>
        <time>2019-12-05T08:22:12Z</time>
      </trkpt>
      <trkpt lat="59.315323" lon="18.072802">
        <ele>38</ele>
        <time>2019-12-05T08:22:12Z</time>
      </trkpt>
      <trkpt lat="59.315282" lon="18.072823">
        <ele>38</ele>
        <time>2019-12-05T08:22:13Z</time>
      </trkpt>
      <trkpt lat="59.315238" lon="18.072844">
        <ele>37</ele>
        <time>2019-12-05T08:22:14Z</time>
      </trkpt>
      <trkpt lat="59.315192" lon="18.07287">
        <ele>37</ele>
        <time>2019-12-05T08:22:15Z</time>
      </trkpt>
      <trkpt lat="59.315142" lon="18.072896">
        <ele>37</ele>
        <time>2019-12-05T08:22:16Z</time>
      </trkpt>
      <trkpt lat="59.31509" lon="18.072922">
        <ele>36</ele>
        <time>2019-12-05T08:22:17Z</time>
      </trkpt>
      <trkpt lat="59.315034" lon="18.072944">
        <ele>36</ele>
        <time>2019-12-05T08:22:18Z</time>
      </trkpt>
      <trkpt lat="59.314977" lon="18.072966">
        <ele>36</ele>
        <time>2019-12-05T08:22:20Z</time>
      </trkpt>
      <trkpt lat="59.314919" lon="18.072995">
        <ele>36</ele>
        <time>2019-12-05T08:22:20Z</time>
      </trkpt>
      <trkpt lat="59.314863" lon="18.073031">
        <ele>35</ele>
        <time>2019-12-05T08:22:22Z</time>
      </trkpt>
      <trkpt lat="59.314807" lon="18.073068">
        <ele>35</ele>
        <time>2019-12-05T08:22:22Z</time>
      </trkpt>
      <trkpt lat="59.314755" lon="18.073101">
        <ele>35</ele>
        <time>2019-12-05T08:22:23Z</time>
      </trkpt>
      <trkpt lat="59.314706" lon="18.073124">
        <ele>35</ele>
        <time>2019-12-05T08:22:24Z</time>
      </trkpt>
      <trkpt lat="59.314656" lon="18.073137">
        <ele>36</ele>
        <time>2019-12-05T08:22:25Z</time>
      </trkpt>
      <trkpt lat="59.314608" lon="18.073147">
        <ele>36</ele>
        <time>2019-12-05T08:22:26Z</time>
      </trkpt>
      <trkpt lat="59.314565" lon="18.073159">
        <ele>36</ele>
        <time>2019-12-05T08:22:27Z</time>
      </trkpt>
      <trkpt lat="59.314527" lon="18.073173">
        <ele>36</ele>
        <time>2019-12-05T08:22:28Z</time>
      </trkpt>
      <trkpt lat="59.31449" lon="18.073189">
        <ele>37</ele>
        <time>2019-12-05T08:22:29Z</time>
      </trkpt>
      <trkpt lat="59.31446" lon="18.073201">
        <ele>37</ele>
        <time>2019-12-05T08:22:30Z</time>
      </trkpt>
      <trkpt lat="59.314434" lon="18.073217">
        <ele>37</ele>
        <time>2019-12-05T08:22:31Z</time>
      </trkpt>
      <trkpt lat="59.314408" lon="18.073232">
        <ele>36</ele>
        <time>2019-12-05T08:22:32Z</time>
      </trkpt>
      <trkpt lat="59.314381" lon="18.073252">
        <ele>36</ele>
        <time>2019-12-05T08:22:33Z</time>
      </trkpt>
      <trkpt lat="59.314359" lon="18.073272">
        <ele>36</ele>
        <time>2019-12-05T08:22:35Z</time>
      </trkpt>
      <trkpt lat="59.314359" lon="18.073272">
        <ele>0</ele>
        <time>2019-12-05T08:22:38Z</time>
      </trkpt>
      <trkpt lat="59.314269" lon="18.073332">
        <ele>35</ele>
        <time>2019-12-05T08:23:22Z</time>
      </trkpt>
      <trkpt lat="59.314231" lon="18.073338">
        <ele>35</ele>
        <time>2019-12-05T08:23:22Z</time>
      </trkpt>
      <trkpt lat="59.31419" lon="18.073345">
        <ele>35</ele>
        <time>2019-12-05T08:23:23Z</time>
      </trkpt>
      <trkpt lat="59.314146" lon="18.073363">
        <ele>35</ele>
        <time>2019-12-05T08:23:24Z</time>
      </trkpt>
      <trkpt lat="59.314103" lon="18.073386">
        <ele>35</ele>
        <time>2019-12-05T08:23:25Z</time>
      </trkpt>
      <trkpt lat="59.314053" lon="18.073415">
        <ele>35</ele>
        <time>2019-12-05T08:23:26Z</time>
      </trkpt>
      <trkpt lat="59.314005" lon="18.07344">
        <ele>35</ele>
        <time>2019-12-05T08:23:27Z</time>
      </trkpt>
      <trkpt lat="59.313955" lon="18.073468">
        <ele>36</ele>
        <time>2019-12-05T08:23:28Z</time>
      </trkpt>
      <trkpt lat="59.313903" lon="18.073508">
        <ele>37</ele>
        <time>2019-12-05T08:23:29Z</time>
      </trkpt>
      <trkpt lat="59.313853" lon="18.073547">
        <ele>37</ele>
        <time>2019-12-05T08:23:30Z</time>
      </trkpt>
      <trkpt lat="59.313803" lon="18.073585">
        <ele>38</ele>
        <time>2019-12-05T08:23:31Z</time>
      </trkpt>
      <trkpt lat="59.313759" lon="18.073621">
        <ele>38</ele>
        <time>2019-12-05T08:23:33Z</time>
      </trkpt>
      <trkpt lat="59.313711" lon="18.073652">
        <ele>39</ele>
        <time>2019-12-05T08:23:33Z</time>
      </trkpt>
      <trkpt lat="59.31367" lon="18.07368">
        <ele>40</ele>
        <time>2019-12-05T08:23:34Z</time>
      </trkpt>
      <trkpt lat="59.313625" lon="18.073719">
        <ele>40</ele>
        <time>2019-12-05T08:23:35Z</time>
      </trkpt>
      <trkpt lat="59.313588" lon="18.073744">
        <ele>40</ele>
        <time>2019-12-05T08:23:36Z</time>
      </trkpt>
      <trkpt lat="59.313551" lon="18.073766">
        <ele>40</ele>
        <time>2019-12-05T08:23:37Z</time>
      </trkpt>
      <trkpt lat="59.313511" lon="18.073782">
        <ele>40</ele>
        <time>2019-12-05T08:23:38Z</time>
      </trkpt>
      <trkpt lat="59.313473" lon="18.073802">
        <ele>41</ele>
        <time>2019-12-05T08:23:39Z</time>
      </trkpt>
      <trkpt lat="59.313435" lon="18.073822">
        <ele>41</ele>
        <time>2019-12-05T08:23:41Z</time>
      </trkpt>
      <trkpt lat="59.313399" lon="18.073841">
        <ele>40</ele>
        <time>2019-12-05T08:23:41Z</time>
      </trkpt>
      <trkpt lat="59.313365" lon="18.073862">
        <ele>40</ele>
        <time>2019-12-05T08:23:42Z</time>
      </trkpt>
      <trkpt lat="59.313336" lon="18.073884">
        <ele>40</ele>
        <time>2019-12-05T08:23:43Z</time>
      </trkpt>
      <trkpt lat="59.313305" lon="18.0739">
        <ele>40</ele>
        <time>2019-12-05T08:23:44Z</time>
      </trkpt>
      <trkpt lat="59.313274" lon="18.073912">
        <ele>40</ele>
        <time>2019-12-05T08:23:46Z</time>
      </trkpt>
      <trkpt lat="59.313243" lon="18.073926">
        <ele>40</ele>
        <time>2019-12-05T08:23:46Z</time>
      </trkpt>
      <trkpt lat="59.313215" lon="18.07394">
        <ele>40</ele>
        <time>2019-12-05T08:23:47Z</time>
      </trkpt>
      <trkpt lat="59.313189" lon="18.073951">
        <ele>40</ele>
        <time>2019-12-05T08:23:48Z</time>
      </trkpt>
      <trkpt lat="59.313165" lon="18.073963">
        <ele>40</ele>
        <time>2019-12-05T08:23:49Z</time>
      </trkpt>
      <trkpt lat="59.313142" lon="18.073976">
        <ele>40</ele>
        <time>2019-12-05T08:23:50Z</time>
      </trkpt>
      <trkpt lat="59.31312" lon="18.073984">
        <ele>40</ele>
        <time>2019-12-05T08:23:51Z</time>
      </trkpt>
      <trkpt lat="59.313101" lon="18.073992">
        <ele>40</ele>
        <time>2019-12-05T08:23:52Z</time>
      </trkpt>
      <trkpt lat="59.31308" lon="18.074005">
        <ele>40</ele>
        <time>2019-12-05T08:23:53Z</time>
      </trkpt>
      <trkpt lat="59.313061" lon="18.074016">
        <ele>40</ele>
        <time>2019-12-05T08:23:54Z</time>
      </trkpt>
      <trkpt lat="59.313036" lon="18.074024">
        <ele>40</ele>
        <time>2019-12-05T08:23:56Z</time>
      </trkpt>
      <trkpt lat="59.313014" lon="18.074038">
        <ele>40</ele>
        <time>2019-12-05T08:24:00Z</time>
      </trkpt>
      <trkpt lat="59.312996" lon="18.074046">
        <ele>39</ele>
        <time>2019-12-05T08:24:02Z</time>
      </trkpt>
      <trkpt lat="59.312977" lon="18.07405">
        <ele>39</ele>
        <time>2019-12-05T08:24:06Z</time>
      </trkpt>
      <trkpt lat="59.312939" lon="18.074054">
        <ele>39</ele>
        <time>2019-12-05T08:24:11Z</time>
      </trkpt>
      <trkpt lat="59.312907" lon="18.074046">
        <ele>39</ele>
        <time>2019-12-05T08:24:12Z</time>
      </trkpt>
      <trkpt lat="59.312871" lon="18.074038">
        <ele>39</ele>
        <time>2019-12-05T08:24:13Z</time>
      </trkpt>
      <trkpt lat="59.312832" lon="18.074026">
        <ele>38</ele>
        <time>2019-12-05T08:24:15Z</time>
      </trkpt>
      <trkpt lat="59.312787" lon="18.074014">
        <ele>38</ele>
        <time>2019-12-05T08:24:15Z</time>
      </trkpt>
      <trkpt lat="59.312742" lon="18.074006">
        <ele>37</ele>
        <time>2019-12-05T08:24:16Z</time>
      </trkpt>
      <trkpt lat="59.312694" lon="18.07402">
        <ele>37</ele>
        <time>2019-12-05T08:24:17Z</time>
      </trkpt>
      <trkpt lat="59.312642" lon="18.074044">
        <ele>37</ele>
        <time>2019-12-05T08:24:19Z</time>
      </trkpt>
      <trkpt lat="59.312587" lon="18.07407">
        <ele>37</ele>
        <time>2019-12-05T08:24:19Z</time>
      </trkpt>
      <trkpt lat="59.312532" lon="18.074096">
        <ele>38</ele>
        <time>2019-12-05T08:24:20Z</time>
      </trkpt>
      <trkpt lat="59.312474" lon="18.074122">
        <ele>38</ele>
        <time>2019-12-05T08:24:21Z</time>
      </trkpt>
      <trkpt lat="59.312417" lon="18.074152">
        <ele>38</ele>
        <time>2019-12-05T08:24:22Z</time>
      </trkpt>
      <trkpt lat="59.312356" lon="18.074182">
        <ele>38</ele>
        <time>2019-12-05T08:24:24Z</time>
      </trkpt>
      <trkpt lat="59.312289" lon="18.074216">
        <ele>37</ele>
        <time>2019-12-05T08:24:24Z</time>
      </trkpt>
      <trkpt lat="59.312221" lon="18.074252">
        <ele>37</ele>
        <time>2019-12-05T08:24:25Z</time>
      </trkpt>
      <trkpt lat="59.312155" lon="18.074288">
        <ele>37</ele>
        <time>2019-12-05T08:24:26Z</time>
      </trkpt>
      <trkpt lat="59.312091" lon="18.074326">
        <ele>36</ele>
        <time>2019-12-05T08:24:27Z</time>
      </trkpt>
      <trkpt lat="59.312029" lon="18.074362">
        <ele>36</ele>
        <time>2019-12-05T08:24:28Z</time>
      </trkpt>
      <trkpt lat="59.311972" lon="18.074392">
        <ele>35</ele>
        <time>2019-12-05T08:24:29Z</time>
      </trkpt>
      <trkpt lat="59.311915" lon="18.07442">
        <ele>35</ele>
        <time>2019-12-05T08:24:30Z</time>
      </trkpt>
      <trkpt lat="59.311861" lon="18.074446">
        <ele>35</ele>
        <time>2019-12-05T08:24:32Z</time>
      </trkpt>
      <trkpt lat="59.311807" lon="18.074474">
        <ele>35</ele>
        <time>2019-12-05T08:24:32Z</time>
      </trkpt>
      <trkpt lat="59.311756" lon="18.0745">
        <ele>35</ele>
        <time>2019-12-05T08:24:33Z</time>
      </trkpt>
      <trkpt lat="59.311703" lon="18.074534">
        <ele>35</ele>
        <time>2019-12-05T08:24:34Z</time>
      </trkpt>
      <trkpt lat="59.311652" lon="18.074558">
        <ele>35</ele>
        <time>2019-12-05T08:24:35Z</time>
      </trkpt>
      <trkpt lat="59.311603" lon="18.074576">
        <ele>35</ele>
        <time>2019-12-05T08:24:36Z</time>
      </trkpt>
      <trkpt lat="59.311554" lon="18.07459">
        <ele>35</ele>
        <time>2019-12-05T08:24:38Z</time>
      </trkpt>
      <trkpt lat="59.311504" lon="18.07461">
        <ele>34</ele>
        <time>2019-12-05T08:24:38Z</time>
      </trkpt>
      <trkpt lat="59.311455" lon="18.07463">
        <ele>34</ele>
        <time>2019-12-05T08:24:39Z</time>
      </trkpt>
      <trkpt lat="59.311414" lon="18.074638">
        <ele>34</ele>
        <time>2019-12-05T08:24:40Z</time>
      </trkpt>
      <trkpt lat="59.311364" lon="18.074662">
        <ele>34</ele>
        <time>2019-12-05T08:24:42Z</time>
      </trkpt>
      <trkpt lat="59.311313" lon="18.074688">
        <ele>34</ele>
        <time>2019-12-05T08:24:42Z</time>
      </trkpt>
      <trkpt lat="59.311261" lon="18.074714">
        <ele>34</ele>
        <time>2019-12-05T08:24:43Z</time>
      </trkpt>
      <trkpt lat="59.311212" lon="18.07474">
        <ele>35</ele>
        <time>2019-12-05T08:24:44Z</time>
      </trkpt>
      <trkpt lat="59.311165" lon="18.074766">
        <ele>35</ele>
        <time>2019-12-05T08:24:45Z</time>
      </trkpt>
      <trkpt lat="59.311119" lon="18.074792">
        <ele>35</ele>
        <time>2019-12-05T08:24:46Z</time>
      </trkpt>
      <trkpt lat="59.311073" lon="18.074822">
        <ele>35</ele>
        <time>2019-12-05T08:24:47Z</time>
      </trkpt>
      <trkpt lat="59.311031" lon="18.074846">
        <ele>35</ele>
        <time>2019-12-05T08:24:48Z</time>
      </trkpt>
      <trkpt lat="59.310988" lon="18.07487">
        <ele>36</ele>
        <time>2019-12-05T08:24:49Z</time>
      </trkpt>
      <trkpt lat="59.310946" lon="18.074892">
        <ele>36</ele>
        <time>2019-12-05T08:24:50Z</time>
      </trkpt>
      <trkpt lat="59.310904" lon="18.074918">
        <ele>36</ele>
        <time>2019-12-05T08:24:51Z</time>
      </trkpt>
      <trkpt lat="59.310861" lon="18.074946">
        <ele>37</ele>
        <time>2019-12-05T08:24:53Z</time>
      </trkpt>
      <trkpt lat="59.310818" lon="18.074976">
        <ele>37</ele>
        <time>2019-12-05T08:24:53Z</time>
      </trkpt>
      <trkpt lat="59.310778" lon="18.075004">
        <ele>37</ele>
        <time>2019-12-05T08:24:54Z</time>
      </trkpt>
      <trkpt lat="59.310744" lon="18.07503">
        <ele>38</ele>
        <time>2019-12-05T08:24:55Z</time>
      </trkpt>
      <trkpt lat="59.310719" lon="18.075046">
        <ele>38</ele>
        <time>2019-12-05T08:24:57Z</time>
      </trkpt>
      <trkpt lat="59.310698" lon="18.07506">
        <ele>39</ele>
        <time>2019-12-05T08:24:57Z</time>
      </trkpt>
      <trkpt lat="59.310669" lon="18.075082">
        <ele>39</ele>
        <time>2019-12-05T08:24:59Z</time>
      </trkpt>
      <trkpt lat="59.310643" lon="18.075098">
        <ele>39</ele>
        <time>2019-12-05T08:25:01Z</time>
      </trkpt>
      <trkpt lat="59.310619" lon="18.075128">
        <ele>40</ele>
        <time>2019-12-05T08:25:03Z</time>
      </trkpt>
      <trkpt lat="59.3106" lon="18.075159">
        <ele>41</ele>
        <time>2019-12-05T08:25:06Z</time>
      </trkpt>
      <trkpt lat="59.31058" lon="18.075175">
        <ele>41</ele>
        <time>2019-12-05T08:25:08Z</time>
      </trkpt>
      <trkpt lat="59.310561" lon="18.075186">
        <ele>42</ele>
        <time>2019-12-05T08:25:09Z</time>
      </trkpt>
      <trkpt lat="59.310538" lon="18.075197">
        <ele>42</ele>
        <time>2019-12-05T08:25:11Z</time>
      </trkpt>
      <trkpt lat="59.310515" lon="18.075205">
        <ele>41</ele>
        <time>2019-12-05T08:25:11Z</time>
      </trkpt>
      <trkpt lat="59.310483" lon="18.075211">
        <ele>41</ele>
        <time>2019-12-05T08:25:12Z</time>
      </trkpt>
      <trkpt lat="59.310443" lon="18.075217">
        <ele>41</ele>
        <time>2019-12-05T08:25:13Z</time>
      </trkpt>
      <trkpt lat="59.310402" lon="18.075229">
        <ele>41</ele>
        <time>2019-12-05T08:25:15Z</time>
      </trkpt>
      <trkpt lat="59.31036" lon="18.075243">
        <ele>41</ele>
        <time>2019-12-05T08:25:16Z</time>
      </trkpt>
      <trkpt lat="59.310311" lon="18.075264">
        <ele>41</ele>
        <time>2019-12-05T08:25:16Z</time>
      </trkpt>
      <trkpt lat="59.310257" lon="18.075292">
        <ele>41</ele>
        <time>2019-12-05T08:25:17Z</time>
      </trkpt>
      <trkpt lat="59.3102" lon="18.075324">
        <ele>41</ele>
        <time>2019-12-05T08:25:18Z</time>
      </trkpt>
      <trkpt lat="59.310143" lon="18.075353">
        <ele>41</ele>
        <time>2019-12-05T08:25:19Z</time>
      </trkpt>
      <trkpt lat="59.310087" lon="18.075383">
        <ele>41</ele>
        <time>2019-12-05T08:25:20Z</time>
      </trkpt>
      <trkpt lat="59.310031" lon="18.075413">
        <ele>42</ele>
        <time>2019-12-05T08:25:21Z</time>
      </trkpt>
      <trkpt lat="59.309973" lon="18.075446">
        <ele>42</ele>
        <time>2019-12-05T08:25:22Z</time>
      </trkpt>
      <trkpt lat="59.309916" lon="18.075478">
        <ele>42</ele>
        <time>2019-12-05T08:25:24Z</time>
      </trkpt>
      <trkpt lat="59.309859" lon="18.075506">
        <ele>43</ele>
        <time>2019-12-05T08:25:24Z</time>
      </trkpt>
      <trkpt lat="59.309798" lon="18.07554">
        <ele>43</ele>
        <time>2019-12-05T08:25:25Z</time>
      </trkpt>
      <trkpt lat="59.309738" lon="18.075573">
        <ele>43</ele>
        <time>2019-12-05T08:25:26Z</time>
      </trkpt>
      <trkpt lat="59.309677" lon="18.075606">
        <ele>43</ele>
        <time>2019-12-05T08:25:27Z</time>
      </trkpt>
      <trkpt lat="59.309616" lon="18.07564">
        <ele>43</ele>
        <time>2019-12-05T08:25:28Z</time>
      </trkpt>
      <trkpt lat="59.309554" lon="18.075673">
        <ele>44</ele>
        <time>2019-12-05T08:25:29Z</time>
      </trkpt>
      <trkpt lat="59.309491" lon="18.075707">
        <ele>44</ele>
        <time>2019-12-05T08:25:30Z</time>
      </trkpt>
      <trkpt lat="59.309426" lon="18.075743">
        <ele>44</ele>
        <time>2019-12-05T08:25:32Z</time>
      </trkpt>
      <trkpt lat="59.309364" lon="18.075775">
        <ele>44</ele>
        <time>2019-12-05T08:25:32Z</time>
      </trkpt>
      <trkpt lat="59.309305" lon="18.075803">
        <ele>44</ele>
        <time>2019-12-05T08:25:33Z</time>
      </trkpt>
      <trkpt lat="59.309247" lon="18.075834">
        <ele>44</ele>
        <time>2019-12-05T08:25:35Z</time>
      </trkpt>
      <trkpt lat="59.309193" lon="18.075848">
        <ele>44</ele>
        <time>2019-12-05T08:25:35Z</time>
      </trkpt>
      <trkpt lat="59.309131" lon="18.075884">
        <ele>45</ele>
        <time>2019-12-05T08:25:36Z</time>
      </trkpt>
      <trkpt lat="59.309068" lon="18.075923">
        <ele>45</ele>
        <time>2019-12-05T08:25:37Z</time>
      </trkpt>
      <trkpt lat="59.309" lon="18.075964">
        <ele>45</ele>
        <time>2019-12-05T08:25:38Z</time>
      </trkpt>
      <trkpt lat="59.308938" lon="18.075993">
        <ele>46</ele>
        <time>2019-12-05T08:25:40Z</time>
      </trkpt>
      <trkpt lat="59.30888" lon="18.076026">
        <ele>46</ele>
        <time>2019-12-05T08:25:40Z</time>
      </trkpt>
      <trkpt lat="59.308818" lon="18.076063">
        <ele>46</ele>
        <time>2019-12-05T08:25:41Z</time>
      </trkpt>
      <trkpt lat="59.308753" lon="18.076095">
        <ele>46</ele>
        <time>2019-12-05T08:25:42Z</time>
      </trkpt>
      <trkpt lat="59.30869" lon="18.076138">
        <ele>46</ele>
        <time>2019-12-05T08:25:43Z</time>
      </trkpt>
      <trkpt lat="59.308632" lon="18.076168">
        <ele>46</ele>
        <time>2019-12-05T08:25:44Z</time>
      </trkpt>
      <trkpt lat="59.308574" lon="18.076201">
        <ele>47</ele>
        <time>2019-12-05T08:25:45Z</time>
      </trkpt>
      <trkpt lat="59.308519" lon="18.076222">
        <ele>48</ele>
        <time>2019-12-05T08:25:46Z</time>
      </trkpt>
      <trkpt lat="59.308465" lon="18.076245">
        <ele>48</ele>
        <time>2019-12-05T08:25:48Z</time>
      </trkpt>
      <trkpt lat="59.308419" lon="18.076264">
        <ele>48</ele>
        <time>2019-12-05T08:25:48Z</time>
      </trkpt>
      <trkpt lat="59.308378" lon="18.076287">
        <ele>49</ele>
        <time>2019-12-05T08:25:49Z</time>
      </trkpt>
      <trkpt lat="59.308332" lon="18.07632">
        <ele>49</ele>
        <time>2019-12-05T08:25:50Z</time>
      </trkpt>
      <trkpt lat="59.308284" lon="18.07636">
        <ele>50</ele>
        <time>2019-12-05T08:25:51Z</time>
      </trkpt>
      <trkpt lat="59.308234" lon="18.076396">
        <ele>50</ele>
        <time>2019-12-05T08:25:52Z</time>
      </trkpt>
      <trkpt lat="59.308185" lon="18.076428">
        <ele>50</ele>
        <time>2019-12-05T08:25:54Z</time>
      </trkpt>
      <trkpt lat="59.30814" lon="18.07645">
        <ele>50</ele>
        <time>2019-12-05T08:25:54Z</time>
      </trkpt>
      <trkpt lat="59.308097" lon="18.076471">
        <ele>50</ele>
        <time>2019-12-05T08:25:55Z</time>
      </trkpt>
      <trkpt lat="59.308054" lon="18.076494">
        <ele>50</ele>
        <time>2019-12-05T08:25:56Z</time>
      </trkpt>
      <trkpt lat="59.308015" lon="18.076513">
        <ele>51</ele>
        <time>2019-12-05T08:25:57Z</time>
      </trkpt>
      <trkpt lat="59.307978" lon="18.076528">
        <ele>51</ele>
        <time>2019-12-05T08:25:59Z</time>
      </trkpt>
      <trkpt lat="59.307947" lon="18.076541">
        <ele>51</ele>
        <time>2019-12-05T08:25:59Z</time>
      </trkpt>
      <trkpt lat="59.307919" lon="18.076556">
        <ele>51</ele>
        <time>2019-12-05T08:26:00Z</time>
      </trkpt>
      <trkpt lat="59.307897" lon="18.076566">
        <ele>50</ele>
        <time>2019-12-05T08:26:01Z</time>
      </trkpt>
      <trkpt lat="59.307879" lon="18.076573">
        <ele>50</ele>
        <time>2019-12-05T08:26:02Z</time>
      </trkpt>
      <trkpt lat="59.307869" lon="18.076574">
        <ele>0</ele>
        <time>2019-12-05T08:26:06Z</time>
      </trkpt>
      <trkpt lat="59.307805" lon="18.076584">
        <ele>48</ele>
        <time>2019-12-05T08:26:34Z</time>
      </trkpt>
      <trkpt lat="59.307765" lon="18.076601">
        <ele>47</ele>
        <time>2019-12-05T08:26:34Z</time>
      </trkpt>
      <trkpt lat="59.307721" lon="18.07662">
        <ele>46</ele>
        <time>2019-12-05T08:26:35Z</time>
      </trkpt>
      <trkpt lat="59.307679" lon="18.076628">
        <ele>45</ele>
        <time>2019-12-05T08:26:36Z</time>
      </trkpt>
      <trkpt lat="59.307633" lon="18.076641">
        <ele>44</ele>
        <time>2019-12-05T08:26:37Z</time>
      </trkpt>
      <trkpt lat="59.307585" lon="18.07666">
        <ele>43</ele>
        <time>2019-12-05T08:26:38Z</time>
      </trkpt>
      <trkpt lat="59.307533" lon="18.07668">
        <ele>43</ele>
        <time>2019-12-05T08:26:39Z</time>
      </trkpt>
      <trkpt lat="59.307474" lon="18.076711">
        <ele>42</ele>
        <time>2019-12-05T08:26:40Z</time>
      </trkpt>
      <trkpt lat="59.307415" lon="18.076736">
        <ele>42</ele>
        <time>2019-12-05T08:26:42Z</time>
      </trkpt>
      <trkpt lat="59.307356" lon="18.076763">
        <ele>42</ele>
        <time>2019-12-05T08:26:42Z</time>
      </trkpt>
      <trkpt lat="59.307296" lon="18.076792">
        <ele>42</ele>
        <time>2019-12-05T08:26:43Z</time>
      </trkpt>
      <trkpt lat="59.307233" lon="18.076825">
        <ele>43</ele>
        <time>2019-12-05T08:26:44Z</time>
      </trkpt>
      <trkpt lat="59.307169" lon="18.076862">
        <ele>43</ele>
        <time>2019-12-05T08:26:45Z</time>
      </trkpt>
      <trkpt lat="59.307107" lon="18.076899">
        <ele>43</ele>
        <time>2019-12-05T08:26:46Z</time>
      </trkpt>
      <trkpt lat="59.307046" lon="18.076936">
        <ele>43</ele>
        <time>2019-12-05T08:26:47Z</time>
      </trkpt>
      <trkpt lat="59.306985" lon="18.076969">
        <ele>43</ele>
        <time>2019-12-05T08:26:48Z</time>
      </trkpt>
      <trkpt lat="59.306924" lon="18.077002">
        <ele>44</ele>
        <time>2019-12-05T08:26:50Z</time>
      </trkpt>
      <trkpt lat="59.306864" lon="18.077032">
        <ele>44</ele>
        <time>2019-12-05T08:26:50Z</time>
      </trkpt>
      <trkpt lat="59.306801" lon="18.077068">
        <ele>44</ele>
        <time>2019-12-05T08:26:51Z</time>
      </trkpt>
      <trkpt lat="59.306737" lon="18.077106">
        <ele>44</ele>
        <time>2019-12-05T08:26:53Z</time>
      </trkpt>
      <trkpt lat="59.306674" lon="18.077141">
        <ele>44</ele>
        <time>2019-12-05T08:26:53Z</time>
      </trkpt>
      <trkpt lat="59.30661" lon="18.077177">
        <ele>44</ele>
        <time>2019-12-05T08:26:54Z</time>
      </trkpt>
      <trkpt lat="59.306551" lon="18.077208">
        <ele>44</ele>
        <time>2019-12-05T08:26:55Z</time>
      </trkpt>
      <trkpt lat="59.306493" lon="18.077227">
        <ele>44</ele>
        <time>2019-12-05T08:26:56Z</time>
      </trkpt>
      <trkpt lat="59.306437" lon="18.077249">
        <ele>44</ele>
        <time>2019-12-05T08:26:58Z</time>
      </trkpt>
      <trkpt lat="59.306382" lon="18.077273">
        <ele>44</ele>
        <time>2019-12-05T08:26:58Z</time>
      </trkpt>
      <trkpt lat="59.306329" lon="18.077299">
        <ele>43</ele>
        <time>2019-12-05T08:26:59Z</time>
      </trkpt>
      <trkpt lat="59.306274" lon="18.077327">
        <ele>43</ele>
        <time>2019-12-05T08:27:00Z</time>
      </trkpt>
      <trkpt lat="59.30622" lon="18.077358">
        <ele>43</ele>
        <time>2019-12-05T08:27:01Z</time>
      </trkpt>
      <trkpt lat="59.30617" lon="18.077388">
        <ele>42</ele>
        <time>2019-12-05T08:27:02Z</time>
      </trkpt>
      <trkpt lat="59.306115" lon="18.077424">
        <ele>42</ele>
        <time>2019-12-05T08:27:03Z</time>
      </trkpt>
      <trkpt lat="59.306062" lon="18.077455">
        <ele>41</ele>
        <time>2019-12-05T08:27:04Z</time>
      </trkpt>
      <trkpt lat="59.306007" lon="18.077481">
        <ele>41</ele>
        <time>2019-12-05T08:27:05Z</time>
      </trkpt>
      <trkpt lat="59.305956" lon="18.077508">
        <ele>40</ele>
        <time>2019-12-05T08:27:07Z</time>
      </trkpt>
      <trkpt lat="59.305906" lon="18.077539">
        <ele>40</ele>
        <time>2019-12-05T08:27:07Z</time>
      </trkpt>
      <trkpt lat="59.30586" lon="18.07757">
        <ele>39</ele>
        <time>2019-12-05T08:27:08Z</time>
      </trkpt>
      <trkpt lat="59.305814" lon="18.077599">
        <ele>39</ele>
        <time>2019-12-05T08:27:09Z</time>
      </trkpt>
      <trkpt lat="59.305767" lon="18.077625">
        <ele>38</ele>
        <time>2019-12-05T08:27:10Z</time>
      </trkpt>
      <trkpt lat="59.305721" lon="18.077651">
        <ele>38</ele>
        <time>2019-12-05T08:27:12Z</time>
      </trkpt>
      <trkpt lat="59.305674" lon="18.077678">
        <ele>38</ele>
        <time>2019-12-05T08:27:12Z</time>
      </trkpt>
      <trkpt lat="59.305627" lon="18.077706">
        <ele>38</ele>
        <time>2019-12-05T08:27:13Z</time>
      </trkpt>
      <trkpt lat="59.30558" lon="18.077733">
        <ele>37</ele>
        <time>2019-12-05T08:27:14Z</time>
      </trkpt>
      <trkpt lat="59.305532" lon="18.077759">
        <ele>37</ele>
        <time>2019-12-05T08:27:15Z</time>
      </trkpt>
      <trkpt lat="59.305484" lon="18.077784">
        <ele>37</ele>
        <time>2019-12-05T08:27:17Z</time>
      </trkpt>
      <trkpt lat="59.305437" lon="18.077811">
        <ele>37</ele>
        <time>2019-12-05T08:27:17Z</time>
      </trkpt>
      <trkpt lat="59.30539" lon="18.077839">
        <ele>36</ele>
        <time>2019-12-05T08:27:18Z</time>
      </trkpt>
      <trkpt lat="59.305343" lon="18.077866">
        <ele>36</ele>
        <time>2019-12-05T08:27:19Z</time>
      </trkpt>
      <trkpt lat="59.305296" lon="18.077891">
        <ele>36</ele>
        <time>2019-12-05T08:27:20Z</time>
      </trkpt>
      <trkpt lat="59.305251" lon="18.077917">
        <ele>35</ele>
        <time>2019-12-05T08:27:21Z</time>
      </trkpt>
      <trkpt lat="59.305207" lon="18.077943">
        <ele>35</ele>
        <time>2019-12-05T08:27:22Z</time>
      </trkpt>
      <trkpt lat="59.305162" lon="18.077967">
        <ele>35</ele>
        <time>2019-12-05T08:27:23Z</time>
      </trkpt>
      <trkpt lat="59.30512" lon="18.077992">
        <ele>35</ele>
        <time>2019-12-05T08:27:24Z</time>
      </trkpt>
      <trkpt lat="59.305079" lon="18.078017">
        <ele>35</ele>
        <time>2019-12-05T08:27:25Z</time>
      </trkpt>
      <trkpt lat="59.305038" lon="18.078042">
        <ele>35</ele>
        <time>2019-12-05T08:27:26Z</time>
      </trkpt>
      <trkpt lat="59.304998" lon="18.078066">
        <ele>35</ele>
        <time>2019-12-05T08:27:28Z</time>
      </trkpt>
      <trkpt lat="59.304959" lon="18.078089">
        <ele>35</ele>
        <time>2019-12-05T08:27:28Z</time>
      </trkpt>
      <trkpt lat="59.304922" lon="18.078112">
        <ele>35</ele>
        <time>2019-12-05T08:27:29Z</time>
      </trkpt>
      <trkpt lat="59.304887" lon="18.078135">
        <ele>35</ele>
        <time>2019-12-05T08:27:31Z</time>
      </trkpt>
      <trkpt lat="59.304851" lon="18.078157">
        <ele>35</ele>
        <time>2019-12-05T08:27:31Z</time>
      </trkpt>
      <trkpt lat="59.304816" lon="18.078178">
        <ele>35</ele>
        <time>2019-12-05T08:27:32Z</time>
      </trkpt>
      <trkpt lat="59.304781" lon="18.078199">
        <ele>35</ele>
        <time>2019-12-05T08:27:33Z</time>
      </trkpt>
      <trkpt lat="59.304747" lon="18.078218">
        <ele>35</ele>
        <time>2019-12-05T08:27:34Z</time>
      </trkpt>
      <trkpt lat="59.304714" lon="18.078238">
        <ele>35</ele>
        <time>2019-12-05T08:27:35Z</time>
      </trkpt>
      <trkpt lat="59.30468" lon="18.078257">
        <ele>35</ele>
        <time>2019-12-05T08:27:36Z</time>
      </trkpt>
      <trkpt lat="59.304649" lon="18.078276">
        <ele>35</ele>
        <time>2019-12-05T08:27:37Z</time>
      </trkpt>
      <trkpt lat="59.304617" lon="18.078295">
        <ele>34</ele>
        <time>2019-12-05T08:27:38Z</time>
      </trkpt>
      <trkpt lat="59.304586" lon="18.078312">
        <ele>34</ele>
        <time>2019-12-05T08:27:39Z</time>
      </trkpt>
      <trkpt lat="59.304553" lon="18.078332">
        <ele>34</ele>
        <time>2019-12-05T08:27:40Z</time>
      </trkpt>
      <trkpt lat="59.304521" lon="18.078351">
        <ele>34</ele>
        <time>2019-12-05T08:27:41Z</time>
      </trkpt>
      <trkpt lat="59.304491" lon="18.078368">
        <ele>33</ele>
        <time>2019-12-05T08:27:43Z</time>
      </trkpt>
      <trkpt lat="59.30446" lon="18.078386">
        <ele>33</ele>
        <time>2019-12-05T08:27:43Z</time>
      </trkpt>
      <trkpt lat="59.304428" lon="18.078403">
        <ele>33</ele>
        <time>2019-12-05T08:27:44Z</time>
      </trkpt>
      <trkpt lat="59.304397" lon="18.078422">
        <ele>33</ele>
        <time>2019-12-05T08:27:45Z</time>
      </trkpt>
      <trkpt lat="59.304367" lon="18.078442">
        <ele>33</ele>
        <time>2019-12-05T08:27:46Z</time>
      </trkpt>
      <trkpt lat="59.304335" lon="18.078462">
        <ele>33</ele>
        <time>2019-12-05T08:27:47Z</time>
      </trkpt>
      <trkpt lat="59.304302" lon="18.078483">
        <ele>33</ele>
        <time>2019-12-05T08:27:48Z</time>
      </trkpt>
      <trkpt lat="59.304268" lon="18.078504">
        <ele>33</ele>
        <time>2019-12-05T08:27:50Z</time>
      </trkpt>
      <trkpt lat="59.304234" lon="18.078524">
        <ele>33</ele>
        <time>2019-12-05T08:27:50Z</time>
      </trkpt>
      <trkpt lat="59.304201" lon="18.078543">
        <ele>33</ele>
        <time>2019-12-05T08:27:51Z</time>
      </trkpt>
      <trkpt lat="59.304167" lon="18.078563">
        <ele>33</ele>
        <time>2019-12-05T08:27:52Z</time>
      </trkpt>
      <trkpt lat="59.304134" lon="18.078584">
        <ele>33</ele>
        <time>2019-12-05T08:27:53Z</time>
      </trkpt>
      <trkpt lat="59.304101" lon="18.078605">
        <ele>33</ele>
        <time>2019-12-05T08:27:54Z</time>
      </trkpt>
      <trkpt lat="59.304067" lon="18.078627">
        <ele>33</ele>
        <time>2019-12-05T08:27:55Z</time>
      </trkpt>
      <trkpt lat="59.304033" lon="18.078649">
        <ele>33</ele>
        <time>2019-12-05T08:27:57Z</time>
      </trkpt>
      <trkpt lat="59.303999" lon="18.07867">
        <ele>33</ele>
        <time>2019-12-05T08:27:57Z</time>
      </trkpt>
      <trkpt lat="59.303965" lon="18.07869">
        <ele>33</ele>
        <time>2019-12-05T08:27:58Z</time>
      </trkpt>
      <trkpt lat="59.303931" lon="18.078711">
        <ele>33</ele>
        <time>2019-12-05T08:27:59Z</time>
      </trkpt>
      <trkpt lat="59.303897" lon="18.078733">
        <ele>33</ele>
        <time>2019-12-05T08:28:00Z</time>
      </trkpt>
      <trkpt lat="59.303863" lon="18.078752">
        <ele>33</ele>
        <time>2019-12-05T08:28:01Z</time>
      </trkpt>
      <trkpt lat="59.303829" lon="18.078772">
        <ele>33</ele>
        <time>2019-12-05T08:28:02Z</time>
      </trkpt>
      <trkpt lat="59.303795" lon="18.078794">
        <ele>33</ele>
        <time>2019-12-05T08:28:03Z</time>
      </trkpt>
      <trkpt lat="59.303761" lon="18.078816">
        <ele>34</ele>
        <time>2019-12-05T08:28:04Z</time>
      </trkpt>
      <trkpt lat="59.303727" lon="18.078836">
        <ele>34</ele>
        <time>2019-12-05T08:28:05Z</time>
      </trkpt>
      <trkpt lat="59.303692" lon="18.078857">
        <ele>34</ele>
        <time>2019-12-05T08:28:06Z</time>
      </trkpt>
      <trkpt lat="59.303656" lon="18.078879">
        <ele>34</ele>
        <time>2019-12-05T08:28:07Z</time>
      </trkpt>
      <trkpt lat="59.30362" lon="18.078901">
        <ele>34</ele>
        <time>2019-12-05T08:28:09Z</time>
      </trkpt>
      <trkpt lat="59.303584" lon="18.078923">
        <ele>34</ele>
        <time>2019-12-05T08:28:09Z</time>
      </trkpt>
      <trkpt lat="59.303548" lon="18.078944">
        <ele>34</ele>
        <time>2019-12-05T08:28:11Z</time>
      </trkpt>
      <trkpt lat="59.303513" lon="18.078966">
        <ele>34</ele>
        <time>2019-12-05T08:28:11Z</time>
      </trkpt>
      <trkpt lat="59.303477" lon="18.07899">
        <ele>34</ele>
        <time>2019-12-05T08:28:12Z</time>
      </trkpt>
      <trkpt lat="59.303443" lon="18.079013">
        <ele>35</ele>
        <time>2019-12-05T08:28:13Z</time>
      </trkpt>
      <trkpt lat="59.303408" lon="18.079035">
        <ele>35</ele>
        <time>2019-12-05T08:28:14Z</time>
      </trkpt>
      <trkpt lat="59.303374" lon="18.079058">
        <ele>35</ele>
        <time>2019-12-05T08:28:15Z</time>
      </trkpt>
      <trkpt lat="59.303338" lon="18.07908">
        <ele>35</ele>
        <time>2019-12-05T08:28:16Z</time>
      </trkpt>
      <trkpt lat="59.303303" lon="18.079101">
        <ele>35</ele>
        <time>2019-12-05T08:28:17Z</time>
      </trkpt>
      <trkpt lat="59.303266" lon="18.079124">
        <ele>35</ele>
        <time>2019-12-05T08:28:18Z</time>
      </trkpt>
      <trkpt lat="59.303228" lon="18.079146">
        <ele>35</ele>
        <time>2019-12-05T08:28:19Z</time>
      </trkpt>
      <trkpt lat="59.30319" lon="18.07917">
        <ele>35</ele>
        <time>2019-12-05T08:28:20Z</time>
      </trkpt>
      <trkpt lat="59.303151" lon="18.079195">
        <ele>35</ele>
        <time>2019-12-05T08:28:21Z</time>
      </trkpt>
      <trkpt lat="59.303112" lon="18.07922">
        <ele>35</ele>
        <time>2019-12-05T08:28:22Z</time>
      </trkpt>
      <trkpt lat="59.303072" lon="18.079245">
        <ele>35</ele>
        <time>2019-12-05T08:28:24Z</time>
      </trkpt>
      <trkpt lat="59.303032" lon="18.079269">
        <ele>35</ele>
        <time>2019-12-05T08:28:24Z</time>
      </trkpt>
      <trkpt lat="59.302992" lon="18.079295">
        <ele>35</ele>
        <time>2019-12-05T08:28:25Z</time>
      </trkpt>
      <trkpt lat="59.302952" lon="18.079321">
        <ele>35</ele>
        <time>2019-12-05T08:28:26Z</time>
      </trkpt>
      <trkpt lat="59.302912" lon="18.079348">
        <ele>35</ele>
        <time>2019-12-05T08:28:28Z</time>
      </trkpt>
      <trkpt lat="59.302871" lon="18.079373">
        <ele>35</ele>
        <time>2019-12-05T08:28:28Z</time>
      </trkpt>
      <trkpt lat="59.30283" lon="18.0794">
        <ele>35</ele>
        <time>2019-12-05T08:28:29Z</time>
      </trkpt>
      <trkpt lat="59.302789" lon="18.079429">
        <ele>35</ele>
        <time>2019-12-05T08:28:30Z</time>
      </trkpt>
      <trkpt lat="59.302748" lon="18.079456">
        <ele>35</ele>
        <time>2019-12-05T08:28:31Z</time>
      </trkpt>
      <trkpt lat="59.302706" lon="18.079483">
        <ele>35</ele>
        <time>2019-12-05T08:28:32Z</time>
      </trkpt>
      <trkpt lat="59.302665" lon="18.079509">
        <ele>35</ele>
        <time>2019-12-05T08:28:33Z</time>
      </trkpt>
      <trkpt lat="59.302623" lon="18.079535">
        <ele>35</ele>
        <time>2019-12-05T08:28:35Z</time>
      </trkpt>
      <trkpt lat="59.30258" lon="18.079559">
        <ele>35</ele>
        <time>2019-12-05T08:28:35Z</time>
      </trkpt>
      <trkpt lat="59.302536" lon="18.079585">
        <ele>35</ele>
        <time>2019-12-05T08:28:36Z</time>
      </trkpt>
      <trkpt lat="59.302493" lon="18.079614">
        <ele>36</ele>
        <time>2019-12-05T08:28:37Z</time>
      </trkpt>
      <trkpt lat="59.302449" lon="18.079643">
        <ele>36</ele>
        <time>2019-12-05T08:28:38Z</time>
      </trkpt>
      <trkpt lat="59.302404" lon="18.079673">
        <ele>36</ele>
        <time>2019-12-05T08:28:39Z</time>
      </trkpt>
      <trkpt lat="59.302359" lon="18.079703">
        <ele>36</ele>
        <time>2019-12-05T08:28:40Z</time>
      </trkpt>
      <trkpt lat="59.302313" lon="18.079733">
        <ele>36</ele>
        <time>2019-12-05T08:28:41Z</time>
      </trkpt>
      <trkpt lat="59.302267" lon="18.079761">
        <ele>36</ele>
        <time>2019-12-05T08:28:42Z</time>
      </trkpt>
      <trkpt lat="59.302221" lon="18.079792">
        <ele>36</ele>
        <time>2019-12-05T08:28:43Z</time>
      </trkpt>
      <trkpt lat="59.302174" lon="18.079819">
        <ele>36</ele>
        <time>2019-12-05T08:28:44Z</time>
      </trkpt>
      <trkpt lat="59.302128" lon="18.079843">
        <ele>36</ele>
        <time>2019-12-05T08:28:46Z</time>
      </trkpt>
      <trkpt lat="59.302082" lon="18.07987">
        <ele>36</ele>
        <time>2019-12-05T08:28:47Z</time>
      </trkpt>
      <trkpt lat="59.302036" lon="18.079902">
        <ele>36</ele>
        <time>2019-12-05T08:28:47Z</time>
      </trkpt>
      <trkpt lat="59.301989" lon="18.079933">
        <ele>36</ele>
        <time>2019-12-05T08:28:48Z</time>
      </trkpt>
      <trkpt lat="59.301941" lon="18.079962">
        <ele>36</ele>
        <time>2019-12-05T08:28:49Z</time>
      </trkpt>
      <trkpt lat="59.301892" lon="18.079989">
        <ele>36</ele>
        <time>2019-12-05T08:28:50Z</time>
      </trkpt>
      <trkpt lat="59.301843" lon="18.080015">
        <ele>36</ele>
        <time>2019-12-05T08:28:51Z</time>
      </trkpt>
      <trkpt lat="59.301794" lon="18.080041">
        <ele>36</ele>
        <time>2019-12-05T08:28:52Z</time>
      </trkpt>
      <trkpt lat="59.301744" lon="18.080067">
        <ele>36</ele>
        <time>2019-12-05T08:28:53Z</time>
      </trkpt>
      <trkpt lat="59.301694" lon="18.080094">
        <ele>36</ele>
        <time>2019-12-05T08:28:54Z</time>
      </trkpt>
      <trkpt lat="59.301645" lon="18.080123">
        <ele>36</ele>
        <time>2019-12-05T08:28:56Z</time>
      </trkpt>
      <trkpt lat="59.301595" lon="18.080155">
        <ele>36</ele>
        <time>2019-12-05T08:28:56Z</time>
      </trkpt>
      <trkpt lat="59.301546" lon="18.08019">
        <ele>36</ele>
        <time>2019-12-05T08:28:57Z</time>
      </trkpt>
      <trkpt lat="59.301498" lon="18.080225">
        <ele>36</ele>
        <time>2019-12-05T08:28:58Z</time>
      </trkpt>
      <trkpt lat="59.30145" lon="18.080256">
        <ele>36</ele>
        <time>2019-12-05T08:28:59Z</time>
      </trkpt>
      <trkpt lat="59.301403" lon="18.080293">
        <ele>36</ele>
        <time>2019-12-05T08:29:00Z</time>
      </trkpt>
      <trkpt lat="59.301354" lon="18.080319">
        <ele>36</ele>
        <time>2019-12-05T08:29:01Z</time>
      </trkpt>
      <trkpt lat="59.301308" lon="18.080336">
        <ele>36</ele>
        <time>2019-12-05T08:29:02Z</time>
      </trkpt>
      <trkpt lat="59.30126" lon="18.08035">
        <ele>36</ele>
        <time>2019-12-05T08:29:03Z</time>
      </trkpt>
      <trkpt lat="59.301214" lon="18.080357">
        <ele>36</ele>
        <time>2019-12-05T08:29:04Z</time>
      </trkpt>
      <trkpt lat="59.301171" lon="18.080355">
        <ele>0</ele>
        <time>2019-12-05T08:29:05Z</time>
      </trkpt>
      <trkpt lat="59.301131" lon="18.080356">
        <ele>36</ele>
        <time>2019-12-05T08:29:06Z</time>
      </trkpt>
      <trkpt lat="59.301092" lon="18.080347">
        <ele>36</ele>
        <time>2019-12-05T08:29:07Z</time>
      </trkpt>
      <trkpt lat="59.30105" lon="18.080348">
        <ele>36</ele>
        <time>2019-12-05T08:29:08Z</time>
      </trkpt>
      <trkpt lat="59.300996" lon="18.080354">
        <ele>36</ele>
        <time>2019-12-05T08:29:09Z</time>
      </trkpt>
      <trkpt lat="59.300944" lon="18.080368">
        <ele>37</ele>
        <time>2019-12-05T08:29:10Z</time>
      </trkpt>
      <trkpt lat="59.30089" lon="18.080382">
        <ele>37</ele>
        <time>2019-12-05T08:29:11Z</time>
      </trkpt>
      <trkpt lat="59.300837" lon="18.0804">
        <ele>37</ele>
        <time>2019-12-05T08:29:12Z</time>
      </trkpt>
      <trkpt lat="59.300786" lon="18.080419">
        <ele>37</ele>
        <time>2019-12-05T08:29:13Z</time>
      </trkpt>
      <trkpt lat="59.300735" lon="18.08044">
        <ele>37</ele>
        <time>2019-12-05T08:29:14Z</time>
      </trkpt>
      <trkpt lat="59.300686" lon="18.080467">
        <ele>37</ele>
        <time>2019-12-05T08:29:16Z</time>
      </trkpt>
      <trkpt lat="59.300636" lon="18.080497">
        <ele>37</ele>
        <time>2019-12-05T08:29:16Z</time>
      </trkpt>
      <trkpt lat="59.300588" lon="18.080527">
        <ele>37</ele>
        <time>2019-12-05T08:29:17Z</time>
      </trkpt>
      <trkpt lat="59.300538" lon="18.080558">
        <ele>37</ele>
        <time>2019-12-05T08:29:18Z</time>
      </trkpt>
      <trkpt lat="59.30049" lon="18.080587">
        <ele>37</ele>
        <time>2019-12-05T08:29:19Z</time>
      </trkpt>
      <trkpt lat="59.300442" lon="18.080615">
        <ele>37</ele>
        <time>2019-12-05T08:29:20Z</time>
      </trkpt>
      <trkpt lat="59.300394" lon="18.080644">
        <ele>37</ele>
        <time>2019-12-05T08:29:21Z</time>
      </trkpt>
      <trkpt lat="59.300346" lon="18.080675">
        <ele>37</ele>
        <time>2019-12-05T08:29:22Z</time>
      </trkpt>
      <trkpt lat="59.300296" lon="18.080703">
        <ele>37</ele>
        <time>2019-12-05T08:29:23Z</time>
      </trkpt>
      <trkpt lat="59.300246" lon="18.080735">
        <ele>37</ele>
        <time>2019-12-05T08:29:25Z</time>
      </trkpt>
      <trkpt lat="59.300194" lon="18.080766">
        <ele>37</ele>
        <time>2019-12-05T08:29:26Z</time>
      </trkpt>
      <trkpt lat="59.300141" lon="18.080796">
        <ele>37</ele>
        <time>2019-12-05T08:29:26Z</time>
      </trkpt>
      <trkpt lat="59.300087" lon="18.080828">
        <ele>37</ele>
        <time>2019-12-05T08:29:27Z</time>
      </trkpt>
      <trkpt lat="59.300036" lon="18.080858">
        <ele>37</ele>
        <time>2019-12-05T08:29:28Z</time>
      </trkpt>
      <trkpt lat="59.299982" lon="18.080886">
        <ele>37</ele>
        <time>2019-12-05T08:29:29Z</time>
      </trkpt>
      <trkpt lat="59.29993" lon="18.080915">
        <ele>37</ele>
        <time>2019-12-05T08:29:30Z</time>
      </trkpt>
      <trkpt lat="59.299874" lon="18.080945">
        <ele>37</ele>
        <time>2019-12-05T08:29:31Z</time>
      </trkpt>
      <trkpt lat="59.29982" lon="18.080975">
        <ele>37</ele>
        <time>2019-12-05T08:29:32Z</time>
      </trkpt>
      <trkpt lat="59.299766" lon="18.081009">
        <ele>37</ele>
        <time>2019-12-05T08:29:33Z</time>
      </trkpt>
      <trkpt lat="59.29971" lon="18.081044">
        <ele>37</ele>
        <time>2019-12-05T08:29:35Z</time>
      </trkpt>
      <trkpt lat="59.299654" lon="18.081077">
        <ele>37</ele>
        <time>2019-12-05T08:29:35Z</time>
      </trkpt>
      <trkpt lat="59.2996" lon="18.08111">
        <ele>37</ele>
        <time>2019-12-05T08:29:36Z</time>
      </trkpt>
      <trkpt lat="59.299543" lon="18.081142">
        <ele>37</ele>
        <time>2019-12-05T08:29:37Z</time>
      </trkpt>
      <trkpt lat="59.299488" lon="18.081172">
        <ele>37</ele>
        <time>2019-12-05T08:29:38Z</time>
      </trkpt>
      <trkpt lat="59.299434" lon="18.081202">
        <ele>37</ele>
        <time>2019-12-05T08:29:39Z</time>
      </trkpt>
      <trkpt lat="59.299384" lon="18.081236">
        <ele>37</ele>
        <time>2019-12-05T08:29:40Z</time>
      </trkpt>
      <trkpt lat="59.299336" lon="18.081272">
        <ele>37</ele>
        <time>2019-12-05T08:29:41Z</time>
      </trkpt>
      <trkpt lat="59.299296" lon="18.081305">
        <ele>37</ele>
        <time>2019-12-05T08:29:42Z</time>
      </trkpt>
      <trkpt lat="59.299263" lon="18.081333">
        <ele>37</ele>
        <time>2019-12-05T08:29:44Z</time>
      </trkpt>
      <trkpt lat="59.29923" lon="18.081357">
        <ele>37</ele>
        <time>2019-12-05T08:29:45Z</time>
      </trkpt>
      <trkpt lat="59.299194" lon="18.081388">
        <ele>37</ele>
        <time>2019-12-05T08:29:45Z</time>
      </trkpt>
      <trkpt lat="59.299162" lon="18.081432">
        <ele>37</ele>
        <time>2019-12-05T08:29:46Z</time>
      </trkpt>
      <trkpt lat="59.29912" lon="18.081491">
        <ele>37</ele>
        <time>2019-12-05T08:29:47Z</time>
      </trkpt>
      <trkpt lat="59.299068" lon="18.081534">
        <ele>36</ele>
        <time>2019-12-05T08:29:48Z</time>
      </trkpt>
      <trkpt lat="59.29901" lon="18.081587">
        <ele>36</ele>
        <time>2019-12-05T08:29:49Z</time>
      </trkpt>
      <trkpt lat="59.29895" lon="18.081635">
        <ele>36</ele>
        <time>2019-12-05T08:29:50Z</time>
      </trkpt>
      <trkpt lat="59.298896" lon="18.081689">
        <ele>36</ele>
        <time>2019-12-05T08:29:51Z</time>
      </trkpt>
      <trkpt lat="59.298842" lon="18.081742">
        <ele>36</ele>
        <time>2019-12-05T08:29:52Z</time>
      </trkpt>
      <trkpt lat="59.29879" lon="18.081791">
        <ele>37</ele>
        <time>2019-12-05T08:29:54Z</time>
      </trkpt>
      <trkpt lat="59.298738" lon="18.08184">
        <ele>37</ele>
        <time>2019-12-05T08:29:54Z</time>
      </trkpt>
      <trkpt lat="59.298688" lon="18.081887">
        <ele>37</ele>
        <time>2019-12-05T08:29:55Z</time>
      </trkpt>
      <trkpt lat="59.298638" lon="18.081938">
        <ele>37</ele>
        <time>2019-12-05T08:29:56Z</time>
      </trkpt>
      <trkpt lat="59.29859" lon="18.08199">
        <ele>37</ele>
        <time>2019-12-05T08:29:57Z</time>
      </trkpt>
      <trkpt lat="59.298538" lon="18.082027">
        <ele>38</ele>
        <time>2019-12-05T08:29:58Z</time>
      </trkpt>
      <trkpt lat="59.298484" lon="18.082061">
        <ele>38</ele>
        <time>2019-12-05T08:29:59Z</time>
      </trkpt>
      <trkpt lat="59.298428" lon="18.082083">
        <ele>38</ele>
        <time>2019-12-05T08:30:00Z</time>
      </trkpt>
      <trkpt lat="59.298379" lon="18.082112">
        <ele>39</ele>
        <time>2019-12-05T08:30:01Z</time>
      </trkpt>
      <trkpt lat="59.298333" lon="18.082146">
        <ele>0</ele>
        <time>2019-12-05T08:30:02Z</time>
      </trkpt>
      <trkpt lat="59.298286" lon="18.082183">
        <ele>39</ele>
        <time>2019-12-05T08:30:03Z</time>
      </trkpt>
      <trkpt lat="59.298235" lon="18.082211">
        <ele>39</ele>
        <time>2019-12-05T08:30:04Z</time>
      </trkpt>
      <trkpt lat="59.298186" lon="18.082241">
        <ele>39</ele>
        <time>2019-12-05T08:30:05Z</time>
      </trkpt>
      <trkpt lat="59.298134" lon="18.082264">
        <ele>39</ele>
        <time>2019-12-05T08:30:06Z</time>
      </trkpt>
      <trkpt lat="59.298081" lon="18.082288">
        <ele>39</ele>
        <time>2019-12-05T08:30:07Z</time>
      </trkpt>
      <trkpt lat="59.298029" lon="18.082317">
        <ele>39</ele>
        <time>2019-12-05T08:30:08Z</time>
      </trkpt>
      <trkpt lat="59.297978" lon="18.082346">
        <ele>39</ele>
        <time>2019-12-05T08:30:09Z</time>
      </trkpt>
      <trkpt lat="59.297928" lon="18.082373">
        <ele>39</ele>
        <time>2019-12-05T08:30:10Z</time>
      </trkpt>
      <trkpt lat="59.297878" lon="18.0824">
        <ele>39</ele>
        <time>2019-12-05T08:30:12Z</time>
      </trkpt>
      <trkpt lat="59.297832" lon="18.082429">
        <ele>39</ele>
        <time>2019-12-05T08:30:12Z</time>
      </trkpt>
      <trkpt lat="59.297784" lon="18.082459">
        <ele>39</ele>
        <time>2019-12-05T08:30:13Z</time>
      </trkpt>
      <trkpt lat="59.297734" lon="18.082487">
        <ele>39</ele>
        <time>2019-12-05T08:30:14Z</time>
      </trkpt>
      <trkpt lat="59.297684" lon="18.082515">
        <ele>39</ele>
        <time>2019-12-05T08:30:15Z</time>
      </trkpt>
      <trkpt lat="59.297635" lon="18.082544">
        <ele>39</ele>
        <time>2019-12-05T08:30:16Z</time>
      </trkpt>
      <trkpt lat="59.297587" lon="18.082573">
        <ele>39</ele>
        <time>2019-12-05T08:30:17Z</time>
      </trkpt>
      <trkpt lat="59.297539" lon="18.082599">
        <ele>39</ele>
        <time>2019-12-05T08:30:18Z</time>
      </trkpt>
      <trkpt lat="59.297492" lon="18.082624">
        <ele>39</ele>
        <time>2019-12-05T08:30:19Z</time>
      </trkpt>
      <trkpt lat="59.297447" lon="18.082651">
        <ele>39</ele>
        <time>2019-12-05T08:30:20Z</time>
      </trkpt>
      <trkpt lat="59.297401" lon="18.082675">
        <ele>0</ele>
        <time>2019-12-05T08:30:21Z</time>
      </trkpt>
      <trkpt lat="59.297355" lon="18.082697">
        <ele>39</ele>
        <time>2019-12-05T08:30:22Z</time>
      </trkpt>
      <trkpt lat="59.297308" lon="18.082713">
        <ele>39</ele>
        <time>2019-12-05T08:30:23Z</time>
      </trkpt>
      <trkpt lat="59.29726" lon="18.082725">
        <ele>39</ele>
        <time>2019-12-05T08:30:24Z</time>
      </trkpt>
      <trkpt lat="59.297212" lon="18.082736">
        <ele>39</ele>
        <time>2019-12-05T08:30:25Z</time>
      </trkpt>
      <trkpt lat="59.297165" lon="18.082747">
        <ele>39</ele>
        <time>2019-12-05T08:30:26Z</time>
      </trkpt>
      <trkpt lat="59.297119" lon="18.082758">
        <ele>39</ele>
        <time>2019-12-05T08:30:27Z</time>
      </trkpt>
      <trkpt lat="59.297074" lon="18.082779">
        <ele>39</ele>
        <time>2019-12-05T08:30:28Z</time>
      </trkpt>
      <trkpt lat="59.297027" lon="18.082804">
        <ele>39</ele>
        <time>2019-12-05T08:30:29Z</time>
      </trkpt>
      <trkpt lat="59.296978" lon="18.082828">
        <ele>39</ele>
        <time>2019-12-05T08:30:30Z</time>
      </trkpt>
      <trkpt lat="59.296929" lon="18.082856">
        <ele>39</ele>
        <time>2019-12-05T08:30:31Z</time>
      </trkpt>
      <trkpt lat="59.296881" lon="18.082897">
        <ele>39</ele>
        <time>2019-12-05T08:30:33Z</time>
      </trkpt>
      <trkpt lat="59.296836" lon="18.082945">
        <ele>39</ele>
        <time>2019-12-05T08:30:33Z</time>
      </trkpt>
      <trkpt lat="59.296792" lon="18.082991">
        <ele>39</ele>
        <time>2019-12-05T08:30:34Z</time>
      </trkpt>
      <trkpt lat="59.296747" lon="18.083033">
        <ele>40</ele>
        <time>2019-12-05T08:30:35Z</time>
      </trkpt>
      <trkpt lat="59.296702" lon="18.08308">
        <ele>40</ele>
        <time>2019-12-05T08:30:37Z</time>
      </trkpt>
      <trkpt lat="59.296659" lon="18.083132">
        <ele>0</ele>
        <time>2019-12-05T08:30:37Z</time>
      </trkpt>
      <trkpt lat="59.296616" lon="18.083178">
        <ele>40</ele>
        <time>2019-12-05T08:30:38Z</time>
      </trkpt>
      <trkpt lat="59.296571" lon="18.083219">
        <ele>40</ele>
        <time>2019-12-05T08:30:39Z</time>
      </trkpt>
      <trkpt lat="59.296524" lon="18.083258">
        <ele>40</ele>
        <time>2019-12-05T08:30:41Z</time>
      </trkpt>
      <trkpt lat="59.296475" lon="18.083294">
        <ele>40</ele>
        <time>2019-12-05T08:30:41Z</time>
      </trkpt>
      <trkpt lat="59.296427" lon="18.083323">
        <ele>40</ele>
        <time>2019-12-05T08:30:43Z</time>
      </trkpt>
      <trkpt lat="59.29638" lon="18.083347">
        <ele>40</ele>
        <time>2019-12-05T08:30:43Z</time>
      </trkpt>
      <trkpt lat="59.296333" lon="18.083372">
        <ele>40</ele>
        <time>2019-12-05T08:30:44Z</time>
      </trkpt>
      <trkpt lat="59.296286" lon="18.083397">
        <ele>40</ele>
        <time>2019-12-05T08:30:45Z</time>
      </trkpt>
      <trkpt lat="59.296237" lon="18.083425">
        <ele>40</ele>
        <time>2019-12-05T08:30:46Z</time>
      </trkpt>
      <trkpt lat="59.296186" lon="18.083452">
        <ele>40</ele>
        <time>2019-12-05T08:30:47Z</time>
      </trkpt>
      <trkpt lat="59.296136" lon="18.083478">
        <ele>40</ele>
        <time>2019-12-05T08:30:48Z</time>
      </trkpt>
      <trkpt lat="59.296089" lon="18.083506">
        <ele>41</ele>
        <time>2019-12-05T08:30:49Z</time>
      </trkpt>
      <trkpt lat="59.296041" lon="18.083536">
        <ele>41</ele>
        <time>2019-12-05T08:30:50Z</time>
      </trkpt>
      <trkpt lat="59.295991" lon="18.083567">
        <ele>41</ele>
        <time>2019-12-05T08:30:51Z</time>
      </trkpt>
      <trkpt lat="59.295943" lon="18.083602">
        <ele>41</ele>
        <time>2019-12-05T08:30:53Z</time>
      </trkpt>
      <trkpt lat="59.295894" lon="18.083637">
        <ele>41</ele>
        <time>2019-12-05T08:30:53Z</time>
      </trkpt>
      <trkpt lat="59.295844" lon="18.083671">
        <ele>41</ele>
        <time>2019-12-05T08:30:54Z</time>
      </trkpt>
      <trkpt lat="59.295794" lon="18.083706">
        <ele>41</ele>
        <time>2019-12-05T08:30:55Z</time>
      </trkpt>
      <trkpt lat="59.295745" lon="18.083739">
        <ele>41</ele>
        <time>2019-12-05T08:30:56Z</time>
      </trkpt>
      <trkpt lat="59.295695" lon="18.083773">
        <ele>41</ele>
        <time>2019-12-05T08:30:57Z</time>
      </trkpt>
      <trkpt lat="59.295643" lon="18.083806">
        <ele>41</ele>
        <time>2019-12-05T08:30:58Z</time>
      </trkpt>
      <trkpt lat="59.295592" lon="18.08384">
        <ele>41</ele>
        <time>2019-12-05T08:31:00Z</time>
      </trkpt>
      <trkpt lat="59.295539" lon="18.083875">
        <ele>41</ele>
        <time>2019-12-05T08:31:00Z</time>
      </trkpt>
      <trkpt lat="59.295486" lon="18.083908">
        <ele>41</ele>
        <time>2019-12-05T08:31:02Z</time>
      </trkpt>
      <trkpt lat="59.295432" lon="18.083941">
        <ele>41</ele>
        <time>2019-12-05T08:31:02Z</time>
      </trkpt>
      <trkpt lat="59.295377" lon="18.083975">
        <ele>41</ele>
        <time>2019-12-05T08:31:03Z</time>
      </trkpt>
      <trkpt lat="59.295321" lon="18.084008">
        <ele>41</ele>
        <time>2019-12-05T08:31:04Z</time>
      </trkpt>
      <trkpt lat="59.295265" lon="18.084042">
        <ele>40</ele>
        <time>2019-12-05T08:31:05Z</time>
      </trkpt>
      <trkpt lat="59.295209" lon="18.084076">
        <ele>40</ele>
        <time>2019-12-05T08:31:06Z</time>
      </trkpt>
      <trkpt lat="59.295153" lon="18.084109">
        <ele>40</ele>
        <time>2019-12-05T08:31:07Z</time>
      </trkpt>
      <trkpt lat="59.295097" lon="18.084142">
        <ele>40</ele>
        <time>2019-12-05T08:31:08Z</time>
      </trkpt>
      <trkpt lat="59.295041" lon="18.084174">
        <ele>40</ele>
        <time>2019-12-05T08:31:10Z</time>
      </trkpt>
      <trkpt lat="59.294984" lon="18.084205">
        <ele>40</ele>
        <time>2019-12-05T08:31:10Z</time>
      </trkpt>
      <trkpt lat="59.294928" lon="18.084237">
        <ele>40</ele>
        <time>2019-12-05T08:31:11Z</time>
      </trkpt>
      <trkpt lat="59.29487" lon="18.084269">
        <ele>40</ele>
        <time>2019-12-05T08:31:12Z</time>
      </trkpt>
      <trkpt lat="59.294811" lon="18.084299">
        <ele>40</ele>
        <time>2019-12-05T08:31:13Z</time>
      </trkpt>
      <trkpt lat="59.294752" lon="18.084329">
        <ele>40</ele>
        <time>2019-12-05T08:31:14Z</time>
      </trkpt>
      <trkpt lat="59.294691" lon="18.084359">
        <ele>40</ele>
        <time>2019-12-05T08:31:15Z</time>
      </trkpt>
      <trkpt lat="59.29463" lon="18.084389">
        <ele>40</ele>
        <time>2019-12-05T08:31:16Z</time>
      </trkpt>
      <trkpt lat="59.294569" lon="18.08442">
        <ele>40</ele>
        <time>2019-12-05T08:31:18Z</time>
      </trkpt>
      <trkpt lat="59.294511" lon="18.084452">
        <ele>40</ele>
        <time>2019-12-05T08:31:19Z</time>
      </trkpt>
      <trkpt lat="59.294452" lon="18.084484">
        <ele>40</ele>
        <time>2019-12-05T08:31:19Z</time>
      </trkpt>
      <trkpt lat="59.294392" lon="18.084515">
        <ele>40</ele>
        <time>2019-12-05T08:31:20Z</time>
      </trkpt>
      <trkpt lat="59.294333" lon="18.084539">
        <ele>40</ele>
        <time>2019-12-05T08:31:21Z</time>
      </trkpt>
      <trkpt lat="59.294271" lon="18.084569">
        <ele>40</ele>
        <time>2019-12-05T08:31:22Z</time>
      </trkpt>
      <trkpt lat="59.294206" lon="18.084617">
        <ele>40</ele>
        <time>2019-12-05T08:31:23Z</time>
      </trkpt>
      <trkpt lat="59.294138" lon="18.084663">
        <ele>40</ele>
        <time>2019-12-05T08:31:24Z</time>
      </trkpt>
      <trkpt lat="59.294062" lon="18.084721">
        <ele>40</ele>
        <time>2019-12-05T08:31:26Z</time>
      </trkpt>
      <trkpt lat="59.293994" lon="18.084757">
        <ele>40</ele>
        <time>2019-12-05T08:31:26Z</time>
      </trkpt>
      <trkpt lat="59.293921" lon="18.084794">
        <ele>41</ele>
        <time>2019-12-05T08:31:27Z</time>
      </trkpt>
      <trkpt lat="59.293849" lon="18.084827">
        <ele>41</ele>
        <time>2019-12-05T08:31:28Z</time>
      </trkpt>
      <trkpt lat="59.293774" lon="18.084858">
        <ele>41</ele>
        <time>2019-12-05T08:31:29Z</time>
      </trkpt>
      <trkpt lat="59.293702" lon="18.084888">
        <ele>41</ele>
        <time>2019-12-05T08:31:30Z</time>
      </trkpt>
      <trkpt lat="59.293633" lon="18.084921">
        <ele>41</ele>
        <time>2019-12-05T08:31:31Z</time>
      </trkpt>
      <trkpt lat="59.293563" lon="18.084948">
        <ele>41</ele>
        <time>2019-12-05T08:31:33Z</time>
      </trkpt>
      <trkpt lat="59.293493" lon="18.084974">
        <ele>41</ele>
        <time>2019-12-05T08:31:33Z</time>
      </trkpt>
      <trkpt lat="59.293424" lon="18.084998">
        <ele>41</ele>
        <time>2019-12-05T08:31:34Z</time>
      </trkpt>
      <trkpt lat="59.293358" lon="18.085021">
        <ele>41</ele>
        <time>2019-12-05T08:31:35Z</time>
      </trkpt>
      <trkpt lat="59.293291" lon="18.085043">
        <ele>42</ele>
        <time>2019-12-05T08:31:36Z</time>
      </trkpt>
      <trkpt lat="59.293226" lon="18.085063">
        <ele>42</ele>
        <time>2019-12-05T08:31:38Z</time>
      </trkpt>
      <trkpt lat="59.293164" lon="18.085081">
        <ele>42</ele>
        <time>2019-12-05T08:31:38Z</time>
      </trkpt>
      <trkpt lat="59.293103" lon="18.085098">
        <ele>42</ele>
        <time>2019-12-05T08:31:40Z</time>
      </trkpt>
      <trkpt lat="59.293044" lon="18.085115">
        <ele>42</ele>
        <time>2019-12-05T08:31:40Z</time>
      </trkpt>
      <trkpt lat="59.29299" lon="18.085132">
        <ele>42</ele>
        <time>2019-12-05T08:31:41Z</time>
      </trkpt>
      <trkpt lat="59.292938" lon="18.085149">
        <ele>43</ele>
        <time>2019-12-05T08:31:42Z</time>
      </trkpt>
      <trkpt lat="59.292891" lon="18.085155">
        <ele>43</ele>
        <time>2019-12-05T08:31:43Z</time>
      </trkpt>
      <trkpt lat="59.292844" lon="18.085152">
        <ele>43</ele>
        <time>2019-12-05T08:31:44Z</time>
      </trkpt>
      <trkpt lat="59.2928" lon="18.085138">
        <ele>43</ele>
        <time>2019-12-05T08:31:45Z</time>
      </trkpt>
      <trkpt lat="59.292757" lon="18.085116">
        <ele>43</ele>
        <time>2019-12-05T08:31:46Z</time>
      </trkpt>
      <trkpt lat="59.292719" lon="18.085082">
        <ele>43</ele>
        <time>2019-12-05T08:31:47Z</time>
      </trkpt>
      <trkpt lat="59.292682" lon="18.085045">
        <ele>43</ele>
        <time>2019-12-05T08:31:48Z</time>
      </trkpt>
      <trkpt lat="59.292642" lon="18.085012">
        <ele>43</ele>
        <time>2019-12-05T08:31:49Z</time>
      </trkpt>
      <trkpt lat="59.292599" lon="18.08499">
        <ele>43</ele>
        <time>2019-12-05T08:31:51Z</time>
      </trkpt>
      <trkpt lat="59.292553" lon="18.084984">
        <ele>43</ele>
        <time>2019-12-05T08:31:51Z</time>
      </trkpt>
      <trkpt lat="59.292508" lon="18.085">
        <ele>43</ele>
        <time>2019-12-05T08:31:52Z</time>
      </trkpt>
      <trkpt lat="59.29246" lon="18.085037">
        <ele>43</ele>
        <time>2019-12-05T08:31:53Z</time>
      </trkpt>
      <trkpt lat="59.292409" lon="18.085081">
        <ele>43</ele>
        <time>2019-12-05T08:31:54Z</time>
      </trkpt>
      <trkpt lat="59.292358" lon="18.085125">
        <ele>43</ele>
        <time>2019-12-05T08:31:55Z</time>
      </trkpt>
      <trkpt lat="59.292305" lon="18.085169">
        <ele>43</ele>
        <time>2019-12-05T08:31:57Z</time>
      </trkpt>
      <trkpt lat="59.292249" lon="18.085215">
        <ele>43</ele>
        <time>2019-12-05T08:31:57Z</time>
      </trkpt>
      <trkpt lat="59.292192" lon="18.085264">
        <ele>43</ele>
        <time>2019-12-05T08:31:58Z</time>
      </trkpt>
      <trkpt lat="59.292137" lon="18.085318">
        <ele>43</ele>
        <time>2019-12-05T08:32:00Z</time>
      </trkpt>
      <trkpt lat="59.292086" lon="18.085378">
        <ele>43</ele>
        <time>2019-12-05T08:32:00Z</time>
      </trkpt>
      <trkpt lat="59.292038" lon="18.085443">
        <ele>43</ele>
        <time>2019-12-05T08:32:01Z</time>
      </trkpt>
      <trkpt lat="59.291995" lon="18.085506">
        <ele>43</ele>
        <time>2019-12-05T08:32:02Z</time>
      </trkpt>
      <trkpt lat="59.291947" lon="18.085573">
        <ele>43</ele>
        <time>2019-12-05T08:32:03Z</time>
      </trkpt>
      <trkpt lat="59.291881" lon="18.08565">
        <ele>43</ele>
        <time>2019-12-05T08:32:04Z</time>
      </trkpt>
      <trkpt lat="59.291823" lon="18.085711">
        <ele>43</ele>
        <time>2019-12-05T08:32:05Z</time>
      </trkpt>
      <trkpt lat="59.291761" lon="18.085752">
        <ele>43</ele>
        <time>2019-12-05T08:32:06Z</time>
      </trkpt>
      <trkpt lat="59.2917" lon="18.085797">
        <ele>43</ele>
        <time>2019-12-05T08:32:08Z</time>
      </trkpt>
      <trkpt lat="59.291639" lon="18.085847">
        <ele>43</ele>
        <time>2019-12-05T08:32:08Z</time>
      </trkpt>
      <trkpt lat="59.291579" lon="18.085901">
        <ele>43</ele>
        <time>2019-12-05T08:32:09Z</time>
      </trkpt>
      <trkpt lat="59.291522" lon="18.085951">
        <ele>43</ele>
        <time>2019-12-05T08:32:10Z</time>
      </trkpt>
      <trkpt lat="59.291465" lon="18.085998">
        <ele>43</ele>
        <time>2019-12-05T08:32:11Z</time>
      </trkpt>
      <trkpt lat="59.291412" lon="18.086065">
        <ele>42</ele>
        <time>2019-12-05T08:32:12Z</time>
      </trkpt>
      <trkpt lat="59.291302" lon="18.086186">
        <ele>42</ele>
        <time>2019-12-05T08:32:14Z</time>
      </trkpt>
      <trkpt lat="59.291249" lon="18.086243">
        <ele>42</ele>
        <time>2019-12-05T08:32:16Z</time>
      </trkpt>
      <trkpt lat="59.291134" lon="18.086341">
        <ele>42</ele>
        <time>2019-12-05T08:32:17Z</time>
      </trkpt>
      <trkpt lat="59.291074" lon="18.08639">
        <ele>42</ele>
        <time>2019-12-05T08:32:18Z</time>
      </trkpt>
      <trkpt lat="59.291014" lon="18.086433">
        <ele>41</ele>
        <time>2019-12-05T08:32:19Z</time>
      </trkpt>
      <trkpt lat="59.290954" lon="18.086462">
        <ele>41</ele>
        <time>2019-12-05T08:32:20Z</time>
      </trkpt>
      <trkpt lat="59.290843" lon="18.086558">
        <ele>41</ele>
        <time>2019-12-05T08:32:22Z</time>
      </trkpt>
      <trkpt lat="59.290735" lon="18.086613">
        <ele>42</ele>
        <time>2019-12-05T08:32:24Z</time>
      </trkpt>
      <trkpt lat="59.290654" lon="18.086583">
        <ele>42</ele>
        <time>2019-12-05T08:32:25Z</time>
      </trkpt>
      <trkpt lat="59.290581" lon="18.08656">
        <ele>43</ele>
        <time>2019-12-05T08:32:26Z</time>
      </trkpt>
      <trkpt lat="59.290503" lon="18.086507">
        <ele>44</ele>
        <time>2019-12-05T08:32:27Z</time>
      </trkpt>
      <trkpt lat="59.290434" lon="18.086487">
        <ele>44</ele>
        <time>2019-12-05T08:32:28Z</time>
      </trkpt>
      <trkpt lat="59.29037" lon="18.086483">
        <ele>44</ele>
        <time>2019-12-05T08:32:29Z</time>
      </trkpt>
      <trkpt lat="59.290309" lon="18.086487">
        <ele>44</ele>
        <time>2019-12-05T08:32:31Z</time>
      </trkpt>
      <trkpt lat="59.290248" lon="18.086493">
        <ele>44</ele>
        <time>2019-12-05T08:32:31Z</time>
      </trkpt>
      <trkpt lat="59.290187" lon="18.086506">
        <ele>44</ele>
        <time>2019-12-05T08:32:32Z</time>
      </trkpt>
      <trkpt lat="59.290124" lon="18.086526">
        <ele>43</ele>
        <time>2019-12-05T08:32:33Z</time>
      </trkpt>
      <trkpt lat="59.290054" lon="18.086532">
        <ele>43</ele>
        <time>2019-12-05T08:32:35Z</time>
      </trkpt>
      <trkpt lat="59.289983" lon="18.086545">
        <ele>42</ele>
        <time>2019-12-05T08:32:35Z</time>
      </trkpt>
      <trkpt lat="59.28991" lon="18.086565">
        <ele>41</ele>
        <time>2019-12-05T08:32:36Z</time>
      </trkpt>
      <trkpt lat="59.289832" lon="18.086585">
        <ele>41</ele>
        <time>2019-12-05T08:32:38Z</time>
      </trkpt>
      <trkpt lat="59.289755" lon="18.086611">
        <ele>40</ele>
        <time>2019-12-05T08:32:38Z</time>
      </trkpt>
      <trkpt lat="59.289677" lon="18.086639">
        <ele>39</ele>
        <time>2019-12-05T08:32:39Z</time>
      </trkpt>
      <trkpt lat="59.289598" lon="18.086669">
        <ele>39</ele>
        <time>2019-12-05T08:32:41Z</time>
      </trkpt>
      <trkpt lat="59.289517" lon="18.086714">
        <ele>38</ele>
        <time>2019-12-05T08:32:41Z</time>
      </trkpt>
      <trkpt lat="59.289436" lon="18.086754">
        <ele>38</ele>
        <time>2019-12-05T08:32:42Z</time>
      </trkpt>
      <trkpt lat="59.289352" lon="18.086797">
        <ele>37</ele>
        <time>2019-12-05T08:32:44Z</time>
      </trkpt>
      <trkpt lat="59.289268" lon="18.086843">
        <ele>37</ele>
        <time>2019-12-05T08:32:44Z</time>
      </trkpt>
      <trkpt lat="59.289185" lon="18.086899">
        <ele>37</ele>
        <time>2019-12-05T08:32:45Z</time>
      </trkpt>
      <trkpt lat="59.2891" lon="18.086958">
        <ele>36</ele>
        <time>2019-12-05T08:32:46Z</time>
      </trkpt>
      <trkpt lat="59.289015" lon="18.08701">
        <ele>36</ele>
        <time>2019-12-05T08:32:47Z</time>
      </trkpt>
      <trkpt lat="59.288928" lon="18.087055">
        <ele>35</ele>
        <time>2019-12-05T08:32:48Z</time>
      </trkpt>
      <trkpt lat="59.28884" lon="18.087099">
        <ele>34</ele>
        <time>2019-12-05T08:32:50Z</time>
      </trkpt>
      <trkpt lat="59.28875" lon="18.087144">
        <ele>34</ele>
        <time>2019-12-05T08:32:50Z</time>
      </trkpt>
      <trkpt lat="59.288659" lon="18.087185">
        <ele>34</ele>
        <time>2019-12-05T08:32:51Z</time>
      </trkpt>
      <trkpt lat="59.288566" lon="18.087216">
        <ele>34</ele>
        <time>2019-12-05T08:32:52Z</time>
      </trkpt>
      <trkpt lat="59.288472" lon="18.087261">
        <ele>34</ele>
        <time>2019-12-05T08:32:54Z</time>
      </trkpt>
      <trkpt lat="59.288378" lon="18.087326">
        <ele>33</ele>
        <time>2019-12-05T08:32:55Z</time>
      </trkpt>
      <trkpt lat="59.288285" lon="18.087371">
        <ele>34</ele>
        <time>2019-12-05T08:32:55Z</time>
      </trkpt>
      <trkpt lat="59.288205" lon="18.087394">
        <ele>34</ele>
        <time>2019-12-05T08:32:56Z</time>
      </trkpt>
      <trkpt lat="59.288141" lon="18.08741">
        <ele>34</ele>
        <time>2019-12-05T08:32:57Z</time>
      </trkpt>
      <trkpt lat="59.288008" lon="18.087472">
        <ele>34</ele>
        <time>2019-12-05T08:32:59Z</time>
      </trkpt>
      <trkpt lat="59.287945" lon="18.087501">
        <ele>34</ele>
        <time>2019-12-05T08:33:00Z</time>
      </trkpt>
      <trkpt lat="59.287892" lon="18.087528">
        <ele>34</ele>
        <time>2019-12-05T08:33:02Z</time>
      </trkpt>
      <trkpt lat="59.287836" lon="18.087561">
        <ele>33</ele>
        <time>2019-12-05T08:33:02Z</time>
      </trkpt>
      <trkpt lat="59.287784" lon="18.0876">
        <ele>33</ele>
        <time>2019-12-05T08:33:03Z</time>
      </trkpt>
      <trkpt lat="59.287731" lon="18.087637">
        <ele>33</ele>
        <time>2019-12-05T08:33:04Z</time>
      </trkpt>
      <trkpt lat="59.287677" lon="18.087671">
        <ele>33</ele>
        <time>2019-12-05T08:33:05Z</time>
      </trkpt>
      <trkpt lat="59.287626" lon="18.087708">
        <ele>33</ele>
        <time>2019-12-05T08:33:06Z</time>
      </trkpt>
      <trkpt lat="59.287575" lon="18.087745">
        <ele>33</ele>
        <time>2019-12-05T08:33:07Z</time>
      </trkpt>
      <trkpt lat="59.287527" lon="18.087781">
        <ele>33</ele>
        <time>2019-12-05T08:33:08Z</time>
      </trkpt>
      <trkpt lat="59.287481" lon="18.087818">
        <ele>33</ele>
        <time>2019-12-05T08:33:09Z</time>
      </trkpt>
      <trkpt lat="59.287435" lon="18.087857">
        <ele>33</ele>
        <time>2019-12-05T08:33:10Z</time>
      </trkpt>
      <trkpt lat="59.287388" lon="18.087897">
        <ele>33</ele>
        <time>2019-12-05T08:33:12Z</time>
      </trkpt>
      <trkpt lat="59.28734" lon="18.087938">
        <ele>33</ele>
        <time>2019-12-05T08:33:13Z</time>
      </trkpt>
      <trkpt lat="59.287291" lon="18.087974">
        <ele>33</ele>
        <time>2019-12-05T08:33:13Z</time>
      </trkpt>
      <trkpt lat="59.287241" lon="18.088004">
        <ele>33</ele>
        <time>2019-12-05T08:33:14Z</time>
      </trkpt>
      <trkpt lat="59.287188" lon="18.088032">
        <ele>33</ele>
        <time>2019-12-05T08:33:15Z</time>
      </trkpt>
      <trkpt lat="59.287134" lon="18.088062">
        <ele>33</ele>
        <time>2019-12-05T08:33:16Z</time>
      </trkpt>
      <trkpt lat="59.287079" lon="18.088092">
        <ele>33</ele>
        <time>2019-12-05T08:33:17Z</time>
      </trkpt>
      <trkpt lat="59.287024" lon="18.088121">
        <ele>33</ele>
        <time>2019-12-05T08:33:18Z</time>
      </trkpt>
      <trkpt lat="59.286968" lon="18.088148">
        <ele>33</ele>
        <time>2019-12-05T08:33:19Z</time>
      </trkpt>
      <trkpt lat="59.286913" lon="18.088177">
        <ele>32</ele>
        <time>2019-12-05T08:33:21Z</time>
      </trkpt>
      <trkpt lat="59.286857" lon="18.088205">
        <ele>33</ele>
        <time>2019-12-05T08:33:21Z</time>
      </trkpt>
      <trkpt lat="59.286801" lon="18.088233">
        <ele>32</ele>
        <time>2019-12-05T08:33:22Z</time>
      </trkpt>
      <trkpt lat="59.286746" lon="18.088262">
        <ele>32</ele>
        <time>2019-12-05T08:33:23Z</time>
      </trkpt>
      <trkpt lat="59.286691" lon="18.088289">
        <ele>32</ele>
        <time>2019-12-05T08:33:24Z</time>
      </trkpt>
      <trkpt lat="59.286636" lon="18.088314">
        <ele>32</ele>
        <time>2019-12-05T08:33:25Z</time>
      </trkpt>
      <trkpt lat="59.286581" lon="18.088339">
        <ele>32</ele>
        <time>2019-12-05T08:33:26Z</time>
      </trkpt>
      <trkpt lat="59.286525" lon="18.088367">
        <ele>32</ele>
        <time>2019-12-05T08:33:27Z</time>
      </trkpt>
      <trkpt lat="59.286469" lon="18.088395">
        <ele>32</ele>
        <time>2019-12-05T08:33:29Z</time>
      </trkpt>
      <trkpt lat="59.286413" lon="18.088422">
        <ele>32</ele>
        <time>2019-12-05T08:33:29Z</time>
      </trkpt>
      <trkpt lat="59.286357" lon="18.088451">
        <ele>32</ele>
        <time>2019-12-05T08:33:30Z</time>
      </trkpt>
      <trkpt lat="59.286302" lon="18.08848">
        <ele>32</ele>
        <time>2019-12-05T08:33:32Z</time>
      </trkpt>
      <trkpt lat="59.286246" lon="18.088511">
        <ele>33</ele>
        <time>2019-12-05T08:33:32Z</time>
      </trkpt>
      <trkpt lat="59.286189" lon="18.088542">
        <ele>33</ele>
        <time>2019-12-05T08:33:33Z</time>
      </trkpt>
      <trkpt lat="59.286132" lon="18.088569">
        <ele>33</ele>
        <time>2019-12-05T08:33:34Z</time>
      </trkpt>
      <trkpt lat="59.286076" lon="18.0886">
        <ele>33</ele>
        <time>2019-12-05T08:33:35Z</time>
      </trkpt>
      <trkpt lat="59.286019" lon="18.088631">
        <ele>33</ele>
        <time>2019-12-05T08:33:36Z</time>
      </trkpt>
      <trkpt lat="59.285962" lon="18.088659">
        <ele>33</ele>
        <time>2019-12-05T08:33:38Z</time>
      </trkpt>
      <trkpt lat="59.285906" lon="18.088687">
        <ele>33</ele>
        <time>2019-12-05T08:33:38Z</time>
      </trkpt>
      <trkpt lat="59.285849" lon="18.088718">
        <ele>33</ele>
        <time>2019-12-05T08:33:39Z</time>
      </trkpt>
      <trkpt lat="59.285793" lon="18.088747">
        <ele>33</ele>
        <time>2019-12-05T08:33:40Z</time>
      </trkpt>
      <trkpt lat="59.285736" lon="18.088778">
        <ele>33</ele>
        <time>2019-12-05T08:33:41Z</time>
      </trkpt>
      <trkpt lat="59.28568" lon="18.088809">
        <ele>33</ele>
        <time>2019-12-05T08:33:42Z</time>
      </trkpt>
      <trkpt lat="59.285623" lon="18.088838">
        <ele>33</ele>
        <time>2019-12-05T08:33:43Z</time>
      </trkpt>
      <trkpt lat="59.285566" lon="18.088865">
        <ele>33</ele>
        <time>2019-12-05T08:33:44Z</time>
      </trkpt>
      <trkpt lat="59.285509" lon="18.088895">
        <ele>33</ele>
        <time>2019-12-05T08:33:45Z</time>
      </trkpt>
      <trkpt lat="59.285451" lon="18.088925">
        <ele>33</ele>
        <time>2019-12-05T08:33:47Z</time>
      </trkpt>
      <trkpt lat="59.285394" lon="18.088955">
        <ele>33</ele>
        <time>2019-12-05T08:33:47Z</time>
      </trkpt>
      <trkpt lat="59.285336" lon="18.088984">
        <ele>33</ele>
        <time>2019-12-05T08:33:48Z</time>
      </trkpt>
      <trkpt lat="59.285278" lon="18.089013">
        <ele>33</ele>
        <time>2019-12-05T08:33:49Z</time>
      </trkpt>
      <trkpt lat="59.285221" lon="18.089041">
        <ele>33</ele>
        <time>2019-12-05T08:33:51Z</time>
      </trkpt>
      <trkpt lat="59.285162" lon="18.089069">
        <ele>33</ele>
        <time>2019-12-05T08:33:51Z</time>
      </trkpt>
      <trkpt lat="59.285103" lon="18.089097">
        <ele>33</ele>
        <time>2019-12-05T08:33:52Z</time>
      </trkpt>
      <trkpt lat="59.285044" lon="18.089128">
        <ele>33</ele>
        <time>2019-12-05T08:33:53Z</time>
      </trkpt>
      <trkpt lat="59.284983" lon="18.08916">
        <ele>33</ele>
        <time>2019-12-05T08:33:55Z</time>
      </trkpt>
      <trkpt lat="59.284924" lon="18.089191">
        <ele>33</ele>
        <time>2019-12-05T08:33:55Z</time>
      </trkpt>
      <trkpt lat="59.284865" lon="18.089217">
        <ele>33</ele>
        <time>2019-12-05T08:33:56Z</time>
      </trkpt>
      <trkpt lat="59.284806" lon="18.089247">
        <ele>33</ele>
        <time>2019-12-05T08:33:57Z</time>
      </trkpt>
      <trkpt lat="59.284747" lon="18.089284">
        <ele>33</ele>
        <time>2019-12-05T08:33:58Z</time>
      </trkpt>
      <trkpt lat="59.284689" lon="18.089321">
        <ele>33</ele>
        <time>2019-12-05T08:33:59Z</time>
      </trkpt>
      <trkpt lat="59.284632" lon="18.089359">
        <ele>33</ele>
        <time>2019-12-05T08:34:00Z</time>
      </trkpt>
      <trkpt lat="59.284573" lon="18.089386">
        <ele>33</ele>
        <time>2019-12-05T08:34:01Z</time>
      </trkpt>
      <trkpt lat="59.284515" lon="18.089402">
        <ele>33</ele>
        <time>2019-12-05T08:34:03Z</time>
      </trkpt>
      <trkpt lat="59.284461" lon="18.089419">
        <ele>34</ele>
        <time>2019-12-05T08:34:03Z</time>
      </trkpt>
      <trkpt lat="59.28441" lon="18.089437">
        <ele>34</ele>
        <time>2019-12-05T08:34:04Z</time>
      </trkpt>
      <trkpt lat="59.284353" lon="18.089465">
        <ele>34</ele>
        <time>2019-12-05T08:34:05Z</time>
      </trkpt>
      <trkpt lat="59.284294" lon="18.089497">
        <ele>34</ele>
        <time>2019-12-05T08:34:06Z</time>
      </trkpt>
      <trkpt lat="59.284233" lon="18.089529">
        <ele>34</ele>
        <time>2019-12-05T08:34:07Z</time>
      </trkpt>
      <trkpt lat="59.284172" lon="18.089559">
        <ele>34</ele>
        <time>2019-12-05T08:34:08Z</time>
      </trkpt>
      <trkpt lat="59.284111" lon="18.089591">
        <ele>34</ele>
        <time>2019-12-05T08:34:10Z</time>
      </trkpt>
      <trkpt lat="59.284051" lon="18.089616">
        <ele>34</ele>
        <time>2019-12-05T08:34:11Z</time>
      </trkpt>
      <trkpt lat="59.28399" lon="18.089647">
        <ele>34</ele>
        <time>2019-12-05T08:34:11Z</time>
      </trkpt>
      <trkpt lat="59.283929" lon="18.089679">
        <ele>34</ele>
        <time>2019-12-05T08:34:12Z</time>
      </trkpt>
      <trkpt lat="59.283869" lon="18.089711">
        <ele>34</ele>
        <time>2019-12-05T08:34:13Z</time>
      </trkpt>
      <trkpt lat="59.28381" lon="18.089743">
        <ele>34</ele>
        <time>2019-12-05T08:34:14Z</time>
      </trkpt>
      <trkpt lat="59.283752" lon="18.089773">
        <ele>34</ele>
        <time>2019-12-05T08:34:15Z</time>
      </trkpt>
      <trkpt lat="59.283691" lon="18.089805">
        <ele>34</ele>
        <time>2019-12-05T08:34:16Z</time>
      </trkpt>
      <trkpt lat="59.283629" lon="18.089836">
        <ele>34</ele>
        <time>2019-12-05T08:34:17Z</time>
      </trkpt>
      <trkpt lat="59.283568" lon="18.089863">
        <ele>34</ele>
        <time>2019-12-05T08:34:19Z</time>
      </trkpt>
      <trkpt lat="59.283507" lon="18.089888">
        <ele>34</ele>
        <time>2019-12-05T08:34:19Z</time>
      </trkpt>
      <trkpt lat="59.283446" lon="18.089911">
        <ele>34</ele>
        <time>2019-12-05T08:34:20Z</time>
      </trkpt>
      <trkpt lat="59.283385" lon="18.089933">
        <ele>34</ele>
        <time>2019-12-05T08:34:21Z</time>
      </trkpt>
      <trkpt lat="59.283324" lon="18.089957">
        <ele>34</ele>
        <time>2019-12-05T08:34:22Z</time>
      </trkpt>
      <trkpt lat="59.283263" lon="18.089983">
        <ele>33</ele>
        <time>2019-12-05T08:34:23Z</time>
      </trkpt>
      <trkpt lat="59.283202" lon="18.09">
        <ele>33</ele>
        <time>2019-12-05T08:34:24Z</time>
      </trkpt>
      <trkpt lat="59.28314" lon="18.090017">
        <ele>33</ele>
        <time>2019-12-05T08:34:25Z</time>
      </trkpt>
      <trkpt lat="59.283078" lon="18.09004">
        <ele>33</ele>
        <time>2019-12-05T08:34:27Z</time>
      </trkpt>
      <trkpt lat="59.283016" lon="18.090066">
        <ele>33</ele>
        <time>2019-12-05T08:34:27Z</time>
      </trkpt>
      <trkpt lat="59.282954" lon="18.090092">
        <ele>33</ele>
        <time>2019-12-05T08:34:29Z</time>
      </trkpt>
      <trkpt lat="59.282889" lon="18.090117">
        <ele>33</ele>
        <time>2019-12-05T08:34:29Z</time>
      </trkpt>
      <trkpt lat="59.282826" lon="18.090141">
        <ele>33</ele>
        <time>2019-12-05T08:34:30Z</time>
      </trkpt>
      <trkpt lat="59.282763" lon="18.09016">
        <ele>33</ele>
        <time>2019-12-05T08:34:31Z</time>
      </trkpt>
      <trkpt lat="59.2827" lon="18.090187">
        <ele>33</ele>
        <time>2019-12-05T08:34:32Z</time>
      </trkpt>
      <trkpt lat="59.282635" lon="18.090215">
        <ele>33</ele>
        <time>2019-12-05T08:34:33Z</time>
      </trkpt>
      <trkpt lat="59.282571" lon="18.090241">
        <ele>33</ele>
        <time>2019-12-05T08:34:35Z</time>
      </trkpt>
      <trkpt lat="59.282506" lon="18.090267">
        <ele>33</ele>
        <time>2019-12-05T08:34:35Z</time>
      </trkpt>
      <trkpt lat="59.282442" lon="18.090291">
        <ele>33</ele>
        <time>2019-12-05T08:34:36Z</time>
      </trkpt>
      <trkpt lat="59.28238" lon="18.090308">
        <ele>33</ele>
        <time>2019-12-05T08:34:37Z</time>
      </trkpt>
      <trkpt lat="59.282318" lon="18.09033">
        <ele>33</ele>
        <time>2019-12-05T08:34:38Z</time>
      </trkpt>
      <trkpt lat="59.282257" lon="18.090355">
        <ele>33</ele>
        <time>2019-12-05T08:34:39Z</time>
      </trkpt>
      <trkpt lat="59.282196" lon="18.090375">
        <ele>33</ele>
        <time>2019-12-05T08:34:40Z</time>
      </trkpt>
      <trkpt lat="59.282136" lon="18.090394">
        <ele>33</ele>
        <time>2019-12-05T08:34:41Z</time>
      </trkpt>
      <trkpt lat="59.282077" lon="18.090408">
        <ele>32</ele>
        <time>2019-12-05T08:34:43Z</time>
      </trkpt>
      <trkpt lat="59.282021" lon="18.090421">
        <ele>32</ele>
        <time>2019-12-05T08:34:43Z</time>
      </trkpt>
      <trkpt lat="59.281967" lon="18.09044">
        <ele>32</ele>
        <time>2019-12-05T08:34:44Z</time>
      </trkpt>
      <trkpt lat="59.281912" lon="18.09046">
        <ele>32</ele>
        <time>2019-12-05T08:34:45Z</time>
      </trkpt>
      <trkpt lat="59.281855" lon="18.090484">
        <ele>32</ele>
        <time>2019-12-05T08:34:46Z</time>
      </trkpt>
      <trkpt lat="59.281798" lon="18.09051">
        <ele>32</ele>
        <time>2019-12-05T08:34:48Z</time>
      </trkpt>
      <trkpt lat="59.281742" lon="18.090531">
        <ele>33</ele>
        <time>2019-12-05T08:34:48Z</time>
      </trkpt>
      <trkpt lat="59.281684" lon="18.090558">
        <ele>33</ele>
        <time>2019-12-05T08:34:49Z</time>
      </trkpt>
      <trkpt lat="59.281627" lon="18.090583">
        <ele>33</ele>
        <time>2019-12-05T08:34:50Z</time>
      </trkpt>
      <trkpt lat="59.281572" lon="18.090602">
        <ele>33</ele>
        <time>2019-12-05T08:34:52Z</time>
      </trkpt>
      <trkpt lat="59.281517" lon="18.090626">
        <ele>33</ele>
        <time>2019-12-05T08:34:52Z</time>
      </trkpt>
      <trkpt lat="59.281463" lon="18.090648">
        <ele>33</ele>
        <time>2019-12-05T08:34:53Z</time>
      </trkpt>
      <trkpt lat="59.281409" lon="18.090668">
        <ele>33</ele>
        <time>2019-12-05T08:34:54Z</time>
      </trkpt>
      <trkpt lat="59.281354" lon="18.090689">
        <ele>33</ele>
        <time>2019-12-05T08:34:55Z</time>
      </trkpt>
      <trkpt lat="59.281299" lon="18.09071">
        <ele>33</ele>
        <time>2019-12-05T08:34:56Z</time>
      </trkpt>
      <trkpt lat="59.281243" lon="18.090728">
        <ele>33</ele>
        <time>2019-12-05T08:34:57Z</time>
      </trkpt>
      <trkpt lat="59.281188" lon="18.090745">
        <ele>32</ele>
        <time>2019-12-05T08:34:58Z</time>
      </trkpt>
      <trkpt lat="59.281133" lon="18.090762">
        <ele>32</ele>
        <time>2019-12-05T08:34:59Z</time>
      </trkpt>
      <trkpt lat="59.281081" lon="18.090782">
        <ele>32</ele>
        <time>2019-12-05T08:35:01Z</time>
      </trkpt>
      <trkpt lat="59.28103" lon="18.090802">
        <ele>32</ele>
        <time>2019-12-05T08:35:01Z</time>
      </trkpt>
      <trkpt lat="59.280978" lon="18.090821">
        <ele>32</ele>
        <time>2019-12-05T08:35:02Z</time>
      </trkpt>
      <trkpt lat="59.280926" lon="18.09084">
        <ele>32</ele>
        <time>2019-12-05T08:35:03Z</time>
      </trkpt>
      <trkpt lat="59.280873" lon="18.090857">
        <ele>32</ele>
        <time>2019-12-05T08:35:04Z</time>
      </trkpt>
      <trkpt lat="59.28082" lon="18.090876">
        <ele>32</ele>
        <time>2019-12-05T08:35:05Z</time>
      </trkpt>
      <trkpt lat="59.280766" lon="18.090894">
        <ele>32</ele>
        <time>2019-12-05T08:35:07Z</time>
      </trkpt>
      <trkpt lat="59.280712" lon="18.09091">
        <ele>32</ele>
        <time>2019-12-05T08:35:07Z</time>
      </trkpt>
      <trkpt lat="59.280659" lon="18.090927">
        <ele>32</ele>
        <time>2019-12-05T08:35:08Z</time>
      </trkpt>
      <trkpt lat="59.280604" lon="18.090948">
        <ele>32</ele>
        <time>2019-12-05T08:35:10Z</time>
      </trkpt>
      <trkpt lat="59.280549" lon="18.09097">
        <ele>32</ele>
        <time>2019-12-05T08:35:10Z</time>
      </trkpt>
      <trkpt lat="59.280495" lon="18.09099">
        <ele>32</ele>
        <time>2019-12-05T08:35:11Z</time>
      </trkpt>
      <trkpt lat="59.280439" lon="18.09101">
        <ele>32</ele>
        <time>2019-12-05T08:35:12Z</time>
      </trkpt>
      <trkpt lat="59.280384" lon="18.091029">
        <ele>32</ele>
        <time>2019-12-05T08:35:13Z</time>
      </trkpt>
      <trkpt lat="59.280328" lon="18.091049">
        <ele>32</ele>
        <time>2019-12-05T08:35:14Z</time>
      </trkpt>
      <trkpt lat="59.280272" lon="18.09107">
        <ele>32</ele>
        <time>2019-12-05T08:35:15Z</time>
      </trkpt>
      <trkpt lat="59.280215" lon="18.091092">
        <ele>32</ele>
        <time>2019-12-05T08:35:16Z</time>
      </trkpt>
      <trkpt lat="59.28016" lon="18.091113">
        <ele>32</ele>
        <time>2019-12-05T08:35:17Z</time>
      </trkpt>
      <trkpt lat="59.280104" lon="18.091135">
        <ele>32</ele>
        <time>2019-12-05T08:35:19Z</time>
      </trkpt>
      <trkpt lat="59.280049" lon="18.091157">
        <ele>32</ele>
        <time>2019-12-05T08:35:19Z</time>
      </trkpt>
      <trkpt lat="59.279993" lon="18.091176">
        <ele>32</ele>
        <time>2019-12-05T08:35:20Z</time>
      </trkpt>
      <trkpt lat="59.279938" lon="18.091195">
        <ele>32</ele>
        <time>2019-12-05T08:35:21Z</time>
      </trkpt>
      <trkpt lat="59.279884" lon="18.091213">
        <ele>32</ele>
        <time>2019-12-05T08:35:22Z</time>
      </trkpt>
      <trkpt lat="59.279831" lon="18.091233">
        <ele>32</ele>
        <time>2019-12-05T08:35:23Z</time>
      </trkpt>
      <trkpt lat="59.279779" lon="18.091255">
        <ele>32</ele>
        <time>2019-12-05T08:35:24Z</time>
      </trkpt>
      <trkpt lat="59.27973" lon="18.091275">
        <ele>32</ele>
        <time>2019-12-05T08:35:26Z</time>
      </trkpt>
      <trkpt lat="59.279683" lon="18.091293">
        <ele>32</ele>
        <time>2019-12-05T08:35:26Z</time>
      </trkpt>
      <trkpt lat="59.279637" lon="18.091304">
        <ele>32</ele>
        <time>2019-12-05T08:35:28Z</time>
      </trkpt>
      <trkpt lat="59.279591" lon="18.09131">
        <ele>32</ele>
        <time>2019-12-05T08:35:28Z</time>
      </trkpt>
      <trkpt lat="59.279549" lon="18.091312">
        <ele>31</ele>
        <time>2019-12-05T08:35:29Z</time>
      </trkpt>
      <trkpt lat="59.279511" lon="18.091316">
        <ele>31</ele>
        <time>2019-12-05T08:35:30Z</time>
      </trkpt>
      <trkpt lat="59.279476" lon="18.091321">
        <ele>31</ele>
        <time>2019-12-05T08:35:31Z</time>
      </trkpt>
      <trkpt lat="59.279443" lon="18.091327">
        <ele>31</ele>
        <time>2019-12-05T08:35:32Z</time>
      </trkpt>
      <trkpt lat="59.27941" lon="18.09133">
        <ele>31</ele>
        <time>2019-12-05T08:35:33Z</time>
      </trkpt>
      <trkpt lat="59.279377" lon="18.091336">
        <ele>30</ele>
        <time>2019-12-05T08:35:34Z</time>
      </trkpt>
      <trkpt lat="59.279345" lon="18.091343">
        <ele>30</ele>
        <time>2019-12-05T08:35:35Z</time>
      </trkpt>
      <trkpt lat="59.279315" lon="18.09135">
        <ele>30</ele>
        <time>2019-12-05T08:35:36Z</time>
      </trkpt>
      <trkpt lat="59.279288" lon="18.091357">
        <ele>30</ele>
        <time>2019-12-05T08:35:37Z</time>
      </trkpt>
      <trkpt lat="59.279262" lon="18.091368">
        <ele>30</ele>
        <time>2019-12-05T08:35:38Z</time>
      </trkpt>
      <trkpt lat="59.279228" lon="18.091386">
        <ele>30</ele>
        <time>2019-12-05T08:35:39Z</time>
      </trkpt>
      <trkpt lat="59.279185" lon="18.091402">
        <ele>30</ele>
        <time>2019-12-05T08:35:40Z</time>
      </trkpt>
      <trkpt lat="59.279143" lon="18.091418">
        <ele>30</ele>
        <time>2019-12-05T08:35:41Z</time>
      </trkpt>
      <trkpt lat="59.279103" lon="18.091449">
        <ele>30</ele>
        <time>2019-12-05T08:35:43Z</time>
      </trkpt>
      <trkpt lat="59.279064" lon="18.091491">
        <ele>30</ele>
        <time>2019-12-05T08:35:43Z</time>
      </trkpt>
      <trkpt lat="59.279021" lon="18.091527">
        <ele>30</ele>
        <time>2019-12-05T08:35:45Z</time>
      </trkpt>
      <trkpt lat="59.278977" lon="18.091554">
        <ele>30</ele>
        <time>2019-12-05T08:35:45Z</time>
      </trkpt>
      <trkpt lat="59.278932" lon="18.091577">
        <ele>30</ele>
        <time>2019-12-05T08:35:46Z</time>
      </trkpt>
      <trkpt lat="59.278885" lon="18.091597">
        <ele>30</ele>
        <time>2019-12-05T08:35:47Z</time>
      </trkpt>
      <trkpt lat="59.278839" lon="18.091615">
        <ele>30</ele>
        <time>2019-12-05T08:35:48Z</time>
      </trkpt>
      <trkpt lat="59.278793" lon="18.091631">
        <ele>30</ele>
        <time>2019-12-05T08:35:49Z</time>
      </trkpt>
      <trkpt lat="59.278744" lon="18.091647">
        <ele>30</ele>
        <time>2019-12-05T08:35:50Z</time>
      </trkpt>
      <trkpt lat="59.278696" lon="18.091665">
        <ele>31</ele>
        <time>2019-12-05T08:35:51Z</time>
      </trkpt>
      <trkpt lat="59.278646" lon="18.091681">
        <ele>31</ele>
        <time>2019-12-05T08:35:53Z</time>
      </trkpt>
      <trkpt lat="59.278596" lon="18.091694">
        <ele>31</ele>
        <time>2019-12-05T08:35:53Z</time>
      </trkpt>
      <trkpt lat="59.278547" lon="18.091703">
        <ele>31</ele>
        <time>2019-12-05T08:35:54Z</time>
      </trkpt>
      <trkpt lat="59.278497" lon="18.091707">
        <ele>31</ele>
        <time>2019-12-05T08:35:55Z</time>
      </trkpt>
      <trkpt lat="59.278448" lon="18.091703">
        <ele>31</ele>
        <time>2019-12-05T08:35:56Z</time>
      </trkpt>
      <trkpt lat="59.278398" lon="18.091697">
        <ele>30</ele>
        <time>2019-12-05T08:35:57Z</time>
      </trkpt>
      <trkpt lat="59.278349" lon="18.091689">
        <ele>30</ele>
        <time>2019-12-05T08:35:58Z</time>
      </trkpt>
      <trkpt lat="59.278301" lon="18.091693">
        <ele>30</ele>
        <time>2019-12-05T08:35:59Z</time>
      </trkpt>
      <trkpt lat="59.278256" lon="18.091722">
        <ele>30</ele>
        <time>2019-12-05T08:36:00Z</time>
      </trkpt>
      <trkpt lat="59.27821" lon="18.091762">
        <ele>30</ele>
        <time>2019-12-05T08:36:01Z</time>
      </trkpt>
      <trkpt lat="59.278165" lon="18.091788">
        <ele>30</ele>
        <time>2019-12-05T08:36:03Z</time>
      </trkpt>
      <trkpt lat="59.27812" lon="18.091799">
        <ele>30</ele>
        <time>2019-12-05T08:36:04Z</time>
      </trkpt>
      <trkpt lat="59.278075" lon="18.091806">
        <ele>30</ele>
        <time>2019-12-05T08:36:04Z</time>
      </trkpt>
      <trkpt lat="59.278029" lon="18.091811">
        <ele>30</ele>
        <time>2019-12-05T08:36:05Z</time>
      </trkpt>
      <trkpt lat="59.277983" lon="18.091816">
        <ele>31</ele>
        <time>2019-12-05T08:36:06Z</time>
      </trkpt>
      <trkpt lat="59.277937" lon="18.09182">
        <ele>31</ele>
        <time>2019-12-05T08:36:07Z</time>
      </trkpt>
      <trkpt lat="59.277892" lon="18.091822">
        <ele>31</ele>
        <time>2019-12-05T08:36:08Z</time>
      </trkpt>
      <trkpt lat="59.277847" lon="18.091825">
        <ele>31</ele>
        <time>2019-12-05T08:36:09Z</time>
      </trkpt>
      <trkpt lat="59.277803" lon="18.091828">
        <ele>31</ele>
        <time>2019-12-05T08:36:10Z</time>
      </trkpt>
      <trkpt lat="59.277759" lon="18.091831">
        <ele>31</ele>
        <time>2019-12-05T08:36:11Z</time>
      </trkpt>
      <trkpt lat="59.277714" lon="18.091837">
        <ele>31</ele>
        <time>2019-12-05T08:36:12Z</time>
      </trkpt>
      <trkpt lat="59.27767" lon="18.091845">
        <ele>31</ele>
        <time>2019-12-05T08:36:14Z</time>
      </trkpt>
      <trkpt lat="59.277626" lon="18.091854">
        <ele>31</ele>
        <time>2019-12-05T08:36:14Z</time>
      </trkpt>
      <trkpt lat="59.277581" lon="18.091865">
        <ele>31</ele>
        <time>2019-12-05T08:36:15Z</time>
      </trkpt>
      <trkpt lat="59.277536" lon="18.091876">
        <ele>31</ele>
        <time>2019-12-05T08:36:16Z</time>
      </trkpt>
      <trkpt lat="59.277491" lon="18.091886">
        <ele>31</ele>
        <time>2019-12-05T08:36:17Z</time>
      </trkpt>
      <trkpt lat="59.277447" lon="18.091897">
        <ele>31</ele>
        <time>2019-12-05T08:36:18Z</time>
      </trkpt>
      <trkpt lat="59.277402" lon="18.091907">
        <ele>32</ele>
        <time>2019-12-05T08:36:19Z</time>
      </trkpt>
      <trkpt lat="59.277356" lon="18.091917">
        <ele>32</ele>
        <time>2019-12-05T08:36:20Z</time>
      </trkpt>
      <trkpt lat="59.277311" lon="18.091929">
        <ele>32</ele>
        <time>2019-12-05T08:36:21Z</time>
      </trkpt>
      <trkpt lat="59.277266" lon="18.091941">
        <ele>32</ele>
        <time>2019-12-05T08:36:23Z</time>
      </trkpt>
      <trkpt lat="59.277222" lon="18.09195">
        <ele>32</ele>
        <time>2019-12-05T08:36:23Z</time>
      </trkpt>
      <trkpt lat="59.277177" lon="18.09196">
        <ele>32</ele>
        <time>2019-12-05T08:36:25Z</time>
      </trkpt>
      <trkpt lat="59.277132" lon="18.091973">
        <ele>32</ele>
        <time>2019-12-05T08:36:25Z</time>
      </trkpt>
      <trkpt lat="59.277087" lon="18.091986">
        <ele>32</ele>
        <time>2019-12-05T08:36:26Z</time>
      </trkpt>
      <trkpt lat="59.277043" lon="18.091999">
        <ele>32</ele>
        <time>2019-12-05T08:36:27Z</time>
      </trkpt>
      <trkpt lat="59.276998" lon="18.092012">
        <ele>32</ele>
        <time>2019-12-05T08:36:28Z</time>
      </trkpt>
      <trkpt lat="59.276953" lon="18.092024">
        <ele>32</ele>
        <time>2019-12-05T08:36:29Z</time>
      </trkpt>
      <trkpt lat="59.276908" lon="18.092037">
        <ele>32</ele>
        <time>2019-12-05T08:36:30Z</time>
      </trkpt>
      <trkpt lat="59.276863" lon="18.092052">
        <ele>32</ele>
        <time>2019-12-05T08:36:31Z</time>
      </trkpt>
      <trkpt lat="59.276818" lon="18.09207">
        <ele>32</ele>
        <time>2019-12-05T08:36:32Z</time>
      </trkpt>
      <trkpt lat="59.276772" lon="18.092088">
        <ele>32</ele>
        <time>2019-12-05T08:36:33Z</time>
      </trkpt>
      <trkpt lat="59.276724" lon="18.092106">
        <ele>32</ele>
        <time>2019-12-05T08:36:34Z</time>
      </trkpt>
      <trkpt lat="59.276676" lon="18.092124">
        <ele>32</ele>
        <time>2019-12-05T08:36:36Z</time>
      </trkpt>
      <trkpt lat="59.276627" lon="18.092141">
        <ele>32</ele>
        <time>2019-12-05T08:36:36Z</time>
      </trkpt>
      <trkpt lat="59.276577" lon="18.092159">
        <ele>32</ele>
        <time>2019-12-05T08:36:37Z</time>
      </trkpt>
      <trkpt lat="59.276526" lon="18.092177">
        <ele>32</ele>
        <time>2019-12-05T08:36:38Z</time>
      </trkpt>
      <trkpt lat="59.276475" lon="18.092195">
        <ele>32</ele>
        <time>2019-12-05T08:36:39Z</time>
      </trkpt>
      <trkpt lat="59.276423" lon="18.092212">
        <ele>32</ele>
        <time>2019-12-05T08:36:40Z</time>
      </trkpt>
      <trkpt lat="59.276369" lon="18.09223">
        <ele>32</ele>
        <time>2019-12-05T08:36:42Z</time>
      </trkpt>
      <trkpt lat="59.276316" lon="18.092247">
        <ele>32</ele>
        <time>2019-12-05T08:36:42Z</time>
      </trkpt>
      <trkpt lat="59.276262" lon="18.092266">
        <ele>32</ele>
        <time>2019-12-05T08:36:43Z</time>
      </trkpt>
      <trkpt lat="59.276209" lon="18.092284">
        <ele>32</ele>
        <time>2019-12-05T08:36:44Z</time>
      </trkpt>
      <trkpt lat="59.276154" lon="18.0923">
        <ele>32</ele>
        <time>2019-12-05T08:36:46Z</time>
      </trkpt>
      <trkpt lat="59.276099" lon="18.092315">
        <ele>32</ele>
        <time>2019-12-05T08:36:46Z</time>
      </trkpt>
      <trkpt lat="59.276044" lon="18.09233">
        <ele>32</ele>
        <time>2019-12-05T08:36:47Z</time>
      </trkpt>
      <trkpt lat="59.27599" lon="18.092346">
        <ele>32</ele>
        <time>2019-12-05T08:36:48Z</time>
      </trkpt>
      <trkpt lat="59.275936" lon="18.092361">
        <ele>32</ele>
        <time>2019-12-05T08:36:49Z</time>
      </trkpt>
      <trkpt lat="59.275881" lon="18.092378">
        <ele>32</ele>
        <time>2019-12-05T08:36:50Z</time>
      </trkpt>
      <trkpt lat="59.275827" lon="18.09239">
        <ele>33</ele>
        <time>2019-12-05T08:36:51Z</time>
      </trkpt>
      <trkpt lat="59.275775" lon="18.092404">
        <ele>33</ele>
        <time>2019-12-05T08:36:52Z</time>
      </trkpt>
      <trkpt lat="59.275723" lon="18.09242">
        <ele>33</ele>
        <time>2019-12-05T08:36:53Z</time>
      </trkpt>
      <trkpt lat="59.275671" lon="18.092434">
        <ele>33</ele>
        <time>2019-12-05T08:36:55Z</time>
      </trkpt>
      <trkpt lat="59.275619" lon="18.092446">
        <ele>33</ele>
        <time>2019-12-05T08:36:55Z</time>
      </trkpt>
      <trkpt lat="59.275568" lon="18.092456">
        <ele>33</ele>
        <time>2019-12-05T08:36:56Z</time>
      </trkpt>
      <trkpt lat="59.275517" lon="18.092465">
        <ele>33</ele>
        <time>2019-12-05T08:36:57Z</time>
      </trkpt>
      <trkpt lat="59.275466" lon="18.092473">
        <ele>33</ele>
        <time>2019-12-05T08:36:58Z</time>
      </trkpt>
      <trkpt lat="59.275414" lon="18.092482">
        <ele>33</ele>
        <time>2019-12-05T08:36:59Z</time>
      </trkpt>
      <trkpt lat="59.275363" lon="18.092492">
        <ele>33</ele>
        <time>2019-12-05T08:37:01Z</time>
      </trkpt>
      <trkpt lat="59.275312" lon="18.092499">
        <ele>33</ele>
        <time>2019-12-05T08:37:01Z</time>
      </trkpt>
      <trkpt lat="59.27526" lon="18.092507">
        <ele>33</ele>
        <time>2019-12-05T08:37:02Z</time>
      </trkpt>
      <trkpt lat="59.275209" lon="18.092516">
        <ele>34</ele>
        <time>2019-12-05T08:37:04Z</time>
      </trkpt>
      <trkpt lat="59.275158" lon="18.092525">
        <ele>34</ele>
        <time>2019-12-05T08:37:04Z</time>
      </trkpt>
      <trkpt lat="59.275107" lon="18.092533">
        <ele>34</ele>
        <time>2019-12-05T08:37:05Z</time>
      </trkpt>
      <trkpt lat="59.275056" lon="18.092536">
        <ele>34</ele>
        <time>2019-12-05T08:37:06Z</time>
      </trkpt>
      <trkpt lat="59.275006" lon="18.092536">
        <ele>34</ele>
        <time>2019-12-05T08:37:07Z</time>
      </trkpt>
      <trkpt lat="59.274957" lon="18.092531">
        <ele>34</ele>
        <time>2019-12-05T08:37:08Z</time>
      </trkpt>
      <trkpt lat="59.274909" lon="18.092516">
        <ele>34</ele>
        <time>2019-12-05T08:37:09Z</time>
      </trkpt>
      <trkpt lat="59.274862" lon="18.092487">
        <ele>34</ele>
        <time>2019-12-05T08:37:10Z</time>
      </trkpt>
      <trkpt lat="59.274818" lon="18.092446">
        <ele>34</ele>
        <time>2019-12-05T08:37:11Z</time>
      </trkpt>
      <trkpt lat="59.274775" lon="18.092394">
        <ele>34</ele>
        <time>2019-12-05T08:37:12Z</time>
      </trkpt>
      <trkpt lat="59.274735" lon="18.092336">
        <ele>34</ele>
        <time>2019-12-05T08:37:13Z</time>
      </trkpt>
      <trkpt lat="59.274696" lon="18.092276">
        <ele>34</ele>
        <time>2019-12-05T08:37:15Z</time>
      </trkpt>
      <trkpt lat="59.274656" lon="18.092215">
        <ele>35</ele>
        <time>2019-12-05T08:37:15Z</time>
      </trkpt>
      <trkpt lat="59.274616" lon="18.092154">
        <ele>35</ele>
        <time>2019-12-05T08:37:16Z</time>
      </trkpt>
      <trkpt lat="59.274575" lon="18.092094">
        <ele>35</ele>
        <time>2019-12-05T08:37:17Z</time>
      </trkpt>
      <trkpt lat="59.274532" lon="18.092041">
        <ele>35</ele>
        <time>2019-12-05T08:37:18Z</time>
      </trkpt>
      <trkpt lat="59.274484" lon="18.092003">
        <ele>35</ele>
        <time>2019-12-05T08:37:20Z</time>
      </trkpt>
      <trkpt lat="59.274437" lon="18.091977">
        <ele>35</ele>
        <time>2019-12-05T08:37:20Z</time>
      </trkpt>
      <trkpt lat="59.27439" lon="18.091952">
        <ele>35</ele>
        <time>2019-12-05T08:37:21Z</time>
      </trkpt>
      <trkpt lat="59.274339" lon="18.091934">
        <ele>35</ele>
        <time>2019-12-05T08:37:22Z</time>
      </trkpt>
      <trkpt lat="59.274288" lon="18.091912">
        <ele>35</ele>
        <time>2019-12-05T08:37:24Z</time>
      </trkpt>
      <trkpt lat="59.274234" lon="18.091872">
        <ele>35</ele>
        <time>2019-12-05T08:37:24Z</time>
      </trkpt>
      <trkpt lat="59.274187" lon="18.091823">
        <ele>35</ele>
        <time>2019-12-05T08:37:25Z</time>
      </trkpt>
      <trkpt lat="59.274146" lon="18.09176">
        <ele>35</ele>
        <time>2019-12-05T08:37:26Z</time>
      </trkpt>
      <trkpt lat="59.274113" lon="18.091686">
        <ele>35</ele>
        <time>2019-12-05T08:37:27Z</time>
      </trkpt>
      <trkpt lat="59.274083" lon="18.091608">
        <ele>35</ele>
        <time>2019-12-05T08:37:28Z</time>
      </trkpt>
      <trkpt lat="59.274052" lon="18.091529">
        <ele>35</ele>
        <time>2019-12-05T08:37:29Z</time>
      </trkpt>
      <trkpt lat="59.274021" lon="18.091451">
        <ele>35</ele>
        <time>2019-12-05T08:37:30Z</time>
      </trkpt>
      <trkpt lat="59.27399" lon="18.091374">
        <ele>35</ele>
        <time>2019-12-05T08:37:31Z</time>
      </trkpt>
      <trkpt lat="59.27396" lon="18.091295">
        <ele>36</ele>
        <time>2019-12-05T08:37:32Z</time>
      </trkpt>
      <trkpt lat="59.273929" lon="18.091217">
        <ele>36</ele>
        <time>2019-12-05T08:37:34Z</time>
      </trkpt>
      <trkpt lat="59.273897" lon="18.091139">
        <ele>36</ele>
        <time>2019-12-05T08:37:34Z</time>
      </trkpt>
      <trkpt lat="59.273865" lon="18.091062">
        <ele>36</ele>
        <time>2019-12-05T08:37:35Z</time>
      </trkpt>
      <trkpt lat="59.273834" lon="18.090985">
        <ele>36</ele>
        <time>2019-12-05T08:37:36Z</time>
      </trkpt>
      <trkpt lat="59.273801" lon="18.090913">
        <ele>36</ele>
        <time>2019-12-05T08:37:37Z</time>
      </trkpt>
      <trkpt lat="59.273763" lon="18.09086">
        <ele>36</ele>
        <time>2019-12-05T08:37:39Z</time>
      </trkpt>
      <trkpt lat="59.273718" lon="18.090836">
        <ele>36</ele>
        <time>2019-12-05T08:37:39Z</time>
      </trkpt>
      <trkpt lat="59.273671" lon="18.09084">
        <ele>37</ele>
        <time>2019-12-05T08:37:40Z</time>
      </trkpt>
      <trkpt lat="59.273625" lon="18.090858">
        <ele>37</ele>
        <time>2019-12-05T08:37:41Z</time>
      </trkpt>
      <trkpt lat="59.273581" lon="18.090881">
        <ele>37</ele>
        <time>2019-12-05T08:37:42Z</time>
      </trkpt>
      <trkpt lat="59.273537" lon="18.090904">
        <ele>37</ele>
        <time>2019-12-05T08:37:43Z</time>
      </trkpt>
      <trkpt lat="59.273493" lon="18.090927">
        <ele>37</ele>
        <time>2019-12-05T08:37:45Z</time>
      </trkpt>
      <trkpt lat="59.27345" lon="18.090954">
        <ele>37</ele>
        <time>2019-12-05T08:37:45Z</time>
      </trkpt>
      <trkpt lat="59.273407" lon="18.090975">
        <ele>37</ele>
        <time>2019-12-05T08:37:46Z</time>
      </trkpt>
      <trkpt lat="59.273365" lon="18.091001">
        <ele>37</ele>
        <time>2019-12-05T08:37:47Z</time>
      </trkpt>
      <trkpt lat="59.273328" lon="18.091021">
        <ele>37</ele>
        <time>2019-12-05T08:37:48Z</time>
      </trkpt>
      <trkpt lat="59.273294" lon="18.09104">
        <ele>37</ele>
        <time>2019-12-05T08:37:49Z</time>
      </trkpt>
      <trkpt lat="59.273252" lon="18.091065">
        <ele>38</ele>
        <time>2019-12-05T08:37:50Z</time>
      </trkpt>
      <trkpt lat="59.273207" lon="18.091092">
        <ele>38</ele>
        <time>2019-12-05T08:37:51Z</time>
      </trkpt>
      <trkpt lat="59.273164" lon="18.091114">
        <ele>38</ele>
        <time>2019-12-05T08:37:52Z</time>
      </trkpt>
      <trkpt lat="59.273124" lon="18.091135">
        <ele>39</ele>
        <time>2019-12-05T08:37:53Z</time>
      </trkpt>
      <trkpt lat="59.273079" lon="18.091162">
        <ele>39</ele>
        <time>2019-12-05T08:37:54Z</time>
      </trkpt>
      <trkpt lat="59.273034" lon="18.091187">
        <ele>39</ele>
        <time>2019-12-05T08:37:56Z</time>
      </trkpt>
      <trkpt lat="59.27299" lon="18.091209">
        <ele>39</ele>
        <time>2019-12-05T08:37:56Z</time>
      </trkpt>
      <trkpt lat="59.272942" lon="18.09124">
        <ele>39</ele>
        <time>2019-12-05T08:37:58Z</time>
      </trkpt>
      <trkpt lat="59.272894" lon="18.091281">
        <ele>40</ele>
        <time>2019-12-05T08:37:58Z</time>
      </trkpt>
      <trkpt lat="59.272845" lon="18.091333">
        <ele>40</ele>
        <time>2019-12-05T08:37:59Z</time>
      </trkpt>
      <trkpt lat="59.272805" lon="18.0914">
        <ele>40</ele>
        <time>2019-12-05T08:38:00Z</time>
      </trkpt>
      <trkpt lat="59.272772" lon="18.091486">
        <ele>40</ele>
        <time>2019-12-05T08:38:01Z</time>
      </trkpt>
      <trkpt lat="59.272743" lon="18.09159">
        <ele>40</ele>
        <time>2019-12-05T08:38:02Z</time>
      </trkpt>
      <trkpt lat="59.272726" lon="18.091695">
        <ele>40</ele>
        <time>2019-12-05T08:38:03Z</time>
      </trkpt>
      <trkpt lat="59.272713" lon="18.091801">
        <ele>40</ele>
        <time>2019-12-05T08:38:05Z</time>
      </trkpt>
      <trkpt lat="59.272704" lon="18.091902">
        <ele>40</ele>
        <time>2019-12-05T08:38:05Z</time>
      </trkpt>
      <trkpt lat="59.272695" lon="18.092002">
        <ele>40</ele>
        <time>2019-12-05T08:38:06Z</time>
      </trkpt>
      <trkpt lat="59.272686" lon="18.092102">
        <ele>40</ele>
        <time>2019-12-05T08:38:07Z</time>
      </trkpt>
      <trkpt lat="59.272677" lon="18.092207">
        <ele>40</ele>
        <time>2019-12-05T08:38:08Z</time>
      </trkpt>
      <trkpt lat="59.272662" lon="18.092315">
        <ele>40</ele>
        <time>2019-12-05T08:38:09Z</time>
      </trkpt>
      <trkpt lat="59.272649" lon="18.092431">
        <ele>39</ele>
        <time>2019-12-05T08:38:10Z</time>
      </trkpt>
      <trkpt lat="59.272635" lon="18.092547">
        <ele>39</ele>
        <time>2019-12-05T08:38:11Z</time>
      </trkpt>
      <trkpt lat="59.272618" lon="18.092662">
        <ele>39</ele>
        <time>2019-12-05T08:38:12Z</time>
      </trkpt>
      <trkpt lat="59.2726" lon="18.092777">
        <ele>39</ele>
        <time>2019-12-05T08:38:14Z</time>
      </trkpt>
      <trkpt lat="59.272582" lon="18.09289">
        <ele>39</ele>
        <time>2019-12-05T08:38:14Z</time>
      </trkpt>
      <trkpt lat="59.272563" lon="18.093002">
        <ele>39</ele>
        <time>2019-12-05T08:38:15Z</time>
      </trkpt>
      <trkpt lat="59.272543" lon="18.093111">
        <ele>39</ele>
        <time>2019-12-05T08:38:17Z</time>
      </trkpt>
      <trkpt lat="59.272526" lon="18.093217">
        <ele>39</ele>
        <time>2019-12-05T08:38:17Z</time>
      </trkpt>
      <trkpt lat="59.272508" lon="18.09332">
        <ele>39</ele>
        <time>2019-12-05T08:38:18Z</time>
      </trkpt>
      <trkpt lat="59.272476" lon="18.093413">
        <ele>39</ele>
        <time>2019-12-05T08:38:19Z</time>
      </trkpt>
      <trkpt lat="59.272426" lon="18.093479">
        <ele>39</ele>
        <time>2019-12-05T08:38:20Z</time>
      </trkpt>
      <trkpt lat="59.272373" lon="18.093513">
        <ele>38</ele>
        <time>2019-12-05T08:38:21Z</time>
      </trkpt>
      <trkpt lat="59.272318" lon="18.093523">
        <ele>38</ele>
        <time>2019-12-05T08:38:23Z</time>
      </trkpt>
      <trkpt lat="59.272261" lon="18.093532">
        <ele>38</ele>
        <time>2019-12-05T08:38:23Z</time>
      </trkpt>
      <trkpt lat="59.272206" lon="18.093543">
        <ele>38</ele>
        <time>2019-12-05T08:38:24Z</time>
      </trkpt>
      <trkpt lat="59.272152" lon="18.093557">
        <ele>38</ele>
        <time>2019-12-05T08:38:25Z</time>
      </trkpt>
      <trkpt lat="59.272098" lon="18.093573">
        <ele>38</ele>
        <time>2019-12-05T08:38:26Z</time>
      </trkpt>
      <trkpt lat="59.272044" lon="18.093593">
        <ele>38</ele>
        <time>2019-12-05T08:38:27Z</time>
      </trkpt>
      <trkpt lat="59.271987" lon="18.093617">
        <ele>38</ele>
        <time>2019-12-05T08:38:28Z</time>
      </trkpt>
      <trkpt lat="59.27193" lon="18.093645">
        <ele>38</ele>
        <time>2019-12-05T08:38:29Z</time>
      </trkpt>
      <trkpt lat="59.27187" lon="18.093675">
        <ele>38</ele>
        <time>2019-12-05T08:38:31Z</time>
      </trkpt>
      <trkpt lat="59.271812" lon="18.093705">
        <ele>38</ele>
        <time>2019-12-05T08:38:31Z</time>
      </trkpt>
      <trkpt lat="59.271752" lon="18.093737">
        <ele>38</ele>
        <time>2019-12-05T08:38:32Z</time>
      </trkpt>
      <trkpt lat="59.271691" lon="18.09377">
        <ele>38</ele>
        <time>2019-12-05T08:38:33Z</time>
      </trkpt>
      <trkpt lat="59.271629" lon="18.093802">
        <ele>38</ele>
        <time>2019-12-05T08:38:34Z</time>
      </trkpt>
      <trkpt lat="59.271565" lon="18.093835">
        <ele>38</ele>
        <time>2019-12-05T08:38:36Z</time>
      </trkpt>
      <trkpt lat="59.271501" lon="18.093863">
        <ele>38</ele>
        <time>2019-12-05T08:38:36Z</time>
      </trkpt>
      <trkpt lat="59.271434" lon="18.093886">
        <ele>38</ele>
        <time>2019-12-05T08:38:37Z</time>
      </trkpt>
      <trkpt lat="59.271365" lon="18.093903">
        <ele>38</ele>
        <time>2019-12-05T08:38:39Z</time>
      </trkpt>
      <trkpt lat="59.271298" lon="18.09392">
        <ele>38</ele>
        <time>2019-12-05T08:38:39Z</time>
      </trkpt>
      <trkpt lat="59.271231" lon="18.093939">
        <ele>38</ele>
        <time>2019-12-05T08:38:40Z</time>
      </trkpt>
      <trkpt lat="59.271167" lon="18.093962">
        <ele>37</ele>
        <time>2019-12-05T08:38:41Z</time>
      </trkpt>
      <trkpt lat="59.271105" lon="18.093991">
        <ele>37</ele>
        <time>2019-12-05T08:38:42Z</time>
      </trkpt>
      <trkpt lat="59.271039" lon="18.094025">
        <ele>38</ele>
        <time>2019-12-05T08:38:43Z</time>
      </trkpt>
      <trkpt lat="59.270976" lon="18.094062">
        <ele>38</ele>
        <time>2019-12-05T08:38:44Z</time>
      </trkpt>
      <trkpt lat="59.270913" lon="18.094099">
        <ele>37</ele>
        <time>2019-12-05T08:38:45Z</time>
      </trkpt>
      <trkpt lat="59.270846" lon="18.094133">
        <ele>38</ele>
        <time>2019-12-05T08:38:47Z</time>
      </trkpt>
      <trkpt lat="59.270777" lon="18.094169">
        <ele>38</ele>
        <time>2019-12-05T08:38:47Z</time>
      </trkpt>
      <trkpt lat="59.270709" lon="18.094203">
        <ele>38</ele>
        <time>2019-12-05T08:38:48Z</time>
      </trkpt>
      <trkpt lat="59.270639" lon="18.094232">
        <ele>38</ele>
        <time>2019-12-05T08:38:49Z</time>
      </trkpt>
      <trkpt lat="59.27057" lon="18.09426">
        <ele>38</ele>
        <time>2019-12-05T08:38:50Z</time>
      </trkpt>
      <trkpt lat="59.270504" lon="18.094287">
        <ele>38</ele>
        <time>2019-12-05T08:38:51Z</time>
      </trkpt>
      <trkpt lat="59.270435" lon="18.094313">
        <ele>37</ele>
        <time>2019-12-05T08:38:52Z</time>
      </trkpt>
      <trkpt lat="59.270366" lon="18.094338">
        <ele>37</ele>
        <time>2019-12-05T08:38:54Z</time>
      </trkpt>
      <trkpt lat="59.270295" lon="18.094363">
        <ele>37</ele>
        <time>2019-12-05T08:38:55Z</time>
      </trkpt>
      <trkpt lat="59.270229" lon="18.094389">
        <ele>37</ele>
        <time>2019-12-05T08:38:55Z</time>
      </trkpt>
      <trkpt lat="59.270161" lon="18.094416">
        <ele>37</ele>
        <time>2019-12-05T08:38:56Z</time>
      </trkpt>
      <trkpt lat="59.270094" lon="18.094441">
        <ele>37</ele>
        <time>2019-12-05T08:38:57Z</time>
      </trkpt>
      <trkpt lat="59.270029" lon="18.094466">
        <ele>37</ele>
        <time>2019-12-05T08:38:58Z</time>
      </trkpt>
      <trkpt lat="59.269967" lon="18.094499">
        <ele>37</ele>
        <time>2019-12-05T08:38:59Z</time>
      </trkpt>
      <trkpt lat="59.269909" lon="18.09454">
        <ele>37</ele>
        <time>2019-12-05T08:39:01Z</time>
      </trkpt>
      <trkpt lat="59.269855" lon="18.094583">
        <ele>36</ele>
        <time>2019-12-05T08:39:01Z</time>
      </trkpt>
      <trkpt lat="59.269796" lon="18.09463">
        <ele>36</ele>
        <time>2019-12-05T08:39:02Z</time>
      </trkpt>
      <trkpt lat="59.26974" lon="18.094678">
        <ele>36</ele>
        <time>2019-12-05T08:39:03Z</time>
      </trkpt>
      <trkpt lat="59.269683" lon="18.094722">
        <ele>36</ele>
        <time>2019-12-05T08:39:04Z</time>
      </trkpt>
      <trkpt lat="59.269622" lon="18.094756">
        <ele>35</ele>
        <time>2019-12-05T08:39:05Z</time>
      </trkpt>
      <trkpt lat="59.26956" lon="18.094785">
        <ele>35</ele>
        <time>2019-12-05T08:39:06Z</time>
      </trkpt>
      <trkpt lat="59.269498" lon="18.09481">
        <ele>35</ele>
        <time>2019-12-05T08:39:07Z</time>
      </trkpt>
      <trkpt lat="59.269435" lon="18.094833">
        <ele>35</ele>
        <time>2019-12-05T08:39:09Z</time>
      </trkpt>
      <trkpt lat="59.269379" lon="18.094856">
        <ele>36</ele>
        <time>2019-12-05T08:39:09Z</time>
      </trkpt>
      <trkpt lat="59.269324" lon="18.094879">
        <ele>36</ele>
        <time>2019-12-05T08:39:10Z</time>
      </trkpt>
      <trkpt lat="59.269269" lon="18.094906">
        <ele>36</ele>
        <time>2019-12-05T08:39:11Z</time>
      </trkpt>
      <trkpt lat="59.269212" lon="18.094933">
        <ele>36</ele>
        <time>2019-12-05T08:39:12Z</time>
      </trkpt>
      <trkpt lat="59.269157" lon="18.094964">
        <ele>36</ele>
        <time>2019-12-05T08:39:14Z</time>
      </trkpt>
      <trkpt lat="59.2691" lon="18.094997">
        <ele>36</ele>
        <time>2019-12-05T08:39:14Z</time>
      </trkpt>
      <trkpt lat="59.269045" lon="18.095027">
        <ele>36</ele>
        <time>2019-12-05T08:39:15Z</time>
      </trkpt>
      <trkpt lat="59.268993" lon="18.095052">
        <ele>36</ele>
        <time>2019-12-05T08:39:16Z</time>
      </trkpt>
      <trkpt lat="59.268938" lon="18.09508">
        <ele>36</ele>
        <time>2019-12-05T08:39:18Z</time>
      </trkpt>
      <trkpt lat="59.268886" lon="18.095108">
        <ele>36</ele>
        <time>2019-12-05T08:39:18Z</time>
      </trkpt>
      <trkpt lat="59.268836" lon="18.095137">
        <ele>36</ele>
        <time>2019-12-05T08:39:19Z</time>
      </trkpt>
      <trkpt lat="59.268779" lon="18.095165">
        <ele>36</ele>
        <time>2019-12-05T08:39:20Z</time>
      </trkpt>
      <trkpt lat="59.268724" lon="18.095196">
        <ele>36</ele>
        <time>2019-12-05T08:39:21Z</time>
      </trkpt>
      <trkpt lat="59.268671" lon="18.09523">
        <ele>36</ele>
        <time>2019-12-05T08:39:22Z</time>
      </trkpt>
      <trkpt lat="59.268617" lon="18.095265">
        <ele>37</ele>
        <time>2019-12-05T08:39:23Z</time>
      </trkpt>
      <trkpt lat="59.268563" lon="18.095299">
        <ele>36</ele>
        <time>2019-12-05T08:39:24Z</time>
      </trkpt>
      <trkpt lat="59.268502" lon="18.095339">
        <ele>36</ele>
        <time>2019-12-05T08:39:26Z</time>
      </trkpt>
      <trkpt lat="59.26844" lon="18.09538">
        <ele>36</ele>
        <time>2019-12-05T08:39:26Z</time>
      </trkpt>
      <trkpt lat="59.268386" lon="18.095416">
        <ele>36</ele>
        <time>2019-12-05T08:39:27Z</time>
      </trkpt>
      <trkpt lat="59.268329" lon="18.095451">
        <ele>36</ele>
        <time>2019-12-05T08:39:28Z</time>
      </trkpt>
      <trkpt lat="59.268271" lon="18.09549">
        <ele>36</ele>
        <time>2019-12-05T08:39:29Z</time>
      </trkpt>
      <trkpt lat="59.268213" lon="18.095531">
        <ele>36</ele>
        <time>2019-12-05T08:39:30Z</time>
      </trkpt>
      <trkpt lat="59.268154" lon="18.095572">
        <ele>36</ele>
        <time>2019-12-05T08:39:31Z</time>
      </trkpt>
      <trkpt lat="59.268095" lon="18.095612">
        <ele>36</ele>
        <time>2019-12-05T08:39:33Z</time>
      </trkpt>
      <trkpt lat="59.268038" lon="18.095651">
        <ele>36</ele>
        <time>2019-12-05T08:39:34Z</time>
      </trkpt>
      <trkpt lat="59.267978" lon="18.095691">
        <ele>36</ele>
        <time>2019-12-05T08:39:35Z</time>
      </trkpt>
      <trkpt lat="59.267914" lon="18.095727">
        <ele>37</ele>
        <time>2019-12-05T08:39:35Z</time>
      </trkpt>
      <trkpt lat="59.267856" lon="18.095758">
        <ele>37</ele>
        <time>2019-12-05T08:39:36Z</time>
      </trkpt>
      <trkpt lat="59.267796" lon="18.095779">
        <ele>37</ele>
        <time>2019-12-05T08:39:37Z</time>
      </trkpt>
      <trkpt lat="59.267734" lon="18.095798">
        <ele>36</ele>
        <time>2019-12-05T08:39:38Z</time>
      </trkpt>
      <trkpt lat="59.267671" lon="18.095816">
        <ele>36</ele>
        <time>2019-12-05T08:39:39Z</time>
      </trkpt>
      <trkpt lat="59.267609" lon="18.095833">
        <ele>36</ele>
        <time>2019-12-05T08:39:40Z</time>
      </trkpt>
      <trkpt lat="59.267548" lon="18.095849">
        <ele>36</ele>
        <time>2019-12-05T08:39:41Z</time>
      </trkpt>
      <trkpt lat="59.267489" lon="18.095863">
        <ele>36</ele>
        <time>2019-12-05T08:39:43Z</time>
      </trkpt>
      <trkpt lat="59.267432" lon="18.095878">
        <ele>36</ele>
        <time>2019-12-05T08:39:43Z</time>
      </trkpt>
      <trkpt lat="59.267375" lon="18.095894">
        <ele>36</ele>
        <time>2019-12-05T08:39:44Z</time>
      </trkpt>
      <trkpt lat="59.26732" lon="18.095909">
        <ele>36</ele>
        <time>2019-12-05T08:39:45Z</time>
      </trkpt>
      <trkpt lat="59.267262" lon="18.095926">
        <ele>36</ele>
        <time>2019-12-05T08:39:46Z</time>
      </trkpt>
      <trkpt lat="59.267204" lon="18.09594">
        <ele>36</ele>
        <time>2019-12-05T08:39:47Z</time>
      </trkpt>
      <trkpt lat="59.26715" lon="18.095955">
        <ele>36</ele>
        <time>2019-12-05T08:39:48Z</time>
      </trkpt>
      <trkpt lat="59.267094" lon="18.095972">
        <ele>36</ele>
        <time>2019-12-05T08:39:49Z</time>
      </trkpt>
      <trkpt lat="59.267039" lon="18.09599">
        <ele>36</ele>
        <time>2019-12-05T08:39:50Z</time>
      </trkpt>
      <trkpt lat="59.266985" lon="18.096011">
        <ele>0</ele>
        <time>2019-12-05T08:39:51Z</time>
      </trkpt>
      <trkpt lat="59.266934" lon="18.096035">
        <ele>36</ele>
        <time>2019-12-05T08:39:52Z</time>
      </trkpt>
      <trkpt lat="59.266883" lon="18.09607">
        <ele>36</ele>
        <time>2019-12-05T08:39:53Z</time>
      </trkpt>
      <trkpt lat="59.266831" lon="18.096116">
        <ele>36</ele>
        <time>2019-12-05T08:39:54Z</time>
      </trkpt>
      <trkpt lat="59.266783" lon="18.096171">
        <ele>36</ele>
        <time>2019-12-05T08:39:55Z</time>
      </trkpt>
      <trkpt lat="59.266736" lon="18.096233">
        <ele>36</ele>
        <time>2019-12-05T08:39:56Z</time>
      </trkpt>
      <trkpt lat="59.266686" lon="18.096296">
        <ele>36</ele>
        <time>2019-12-05T08:39:57Z</time>
      </trkpt>
      <trkpt lat="59.266637" lon="18.096363">
        <ele>36</ele>
        <time>2019-12-05T08:39:58Z</time>
      </trkpt>
      <trkpt lat="59.266589" lon="18.09643">
        <ele>35</ele>
        <time>2019-12-05T08:40:00Z</time>
      </trkpt>
      <trkpt lat="59.266541" lon="18.096499">
        <ele>35</ele>
        <time>2019-12-05T08:40:00Z</time>
      </trkpt>
      <trkpt lat="59.266492" lon="18.096566">
        <ele>35</ele>
        <time>2019-12-05T08:40:01Z</time>
      </trkpt>
      <trkpt lat="59.266442" lon="18.096632">
        <ele>35</ele>
        <time>2019-12-05T08:40:02Z</time>
      </trkpt>
      <trkpt lat="59.266393" lon="18.096699">
        <ele>35</ele>
        <time>2019-12-05T08:40:03Z</time>
      </trkpt>
      <trkpt lat="59.266347" lon="18.096765">
        <ele>35</ele>
        <time>2019-12-05T08:40:04Z</time>
      </trkpt>
      <trkpt lat="59.2663" lon="18.096825">
        <ele>35</ele>
        <time>2019-12-05T08:40:05Z</time>
      </trkpt>
      <trkpt lat="59.266248" lon="18.096874">
        <ele>35</ele>
        <time>2019-12-05T08:40:06Z</time>
      </trkpt>
      <trkpt lat="59.266194" lon="18.096909">
        <ele>35</ele>
        <time>2019-12-05T08:40:07Z</time>
      </trkpt>
      <trkpt lat="59.26614" lon="18.096941">
        <ele>35</ele>
        <time>2019-12-05T08:40:09Z</time>
      </trkpt>
      <trkpt lat="59.266086" lon="18.096973">
        <ele>35</ele>
        <time>2019-12-05T08:40:09Z</time>
      </trkpt>
      <trkpt lat="59.266033" lon="18.097006">
        <ele>35</ele>
        <time>2019-12-05T08:40:11Z</time>
      </trkpt>
      <trkpt lat="59.265979" lon="18.097038">
        <ele>35</ele>
        <time>2019-12-05T08:40:11Z</time>
      </trkpt>
      <trkpt lat="59.265924" lon="18.097071">
        <ele>35</ele>
        <time>2019-12-05T08:40:12Z</time>
      </trkpt>
      <trkpt lat="59.265869" lon="18.097101">
        <ele>35</ele>
        <time>2019-12-05T08:40:13Z</time>
      </trkpt>
      <trkpt lat="59.265814" lon="18.09713">
        <ele>35</ele>
        <time>2019-12-05T08:40:14Z</time>
      </trkpt>
      <trkpt lat="59.265758" lon="18.097156">
        <ele>35</ele>
        <time>2019-12-05T08:40:15Z</time>
      </trkpt>
      <trkpt lat="59.2657" lon="18.097182">
        <ele>35</ele>
        <time>2019-12-05T08:40:16Z</time>
      </trkpt>
      <trkpt lat="59.26564" lon="18.097208">
        <ele>34</ele>
        <time>2019-12-05T08:40:18Z</time>
      </trkpt>
      <trkpt lat="59.265576" lon="18.097234">
        <ele>34</ele>
        <time>2019-12-05T08:40:18Z</time>
      </trkpt>
      <trkpt lat="59.265509" lon="18.097262">
        <ele>34</ele>
        <time>2019-12-05T08:40:19Z</time>
      </trkpt>
      <trkpt lat="59.265438" lon="18.097289">
        <ele>34</ele>
        <time>2019-12-05T08:40:20Z</time>
      </trkpt>
      <trkpt lat="59.265367" lon="18.097313">
        <ele>34</ele>
        <time>2019-12-05T08:40:21Z</time>
      </trkpt>
      <trkpt lat="59.265299" lon="18.09733">
        <ele>34</ele>
        <time>2019-12-05T08:40:22Z</time>
      </trkpt>
      <trkpt lat="59.265231" lon="18.097348">
        <ele>34</ele>
        <time>2019-12-05T08:40:23Z</time>
      </trkpt>
      <trkpt lat="59.265166" lon="18.09737">
        <ele>34</ele>
        <time>2019-12-05T08:40:25Z</time>
      </trkpt>
      <trkpt lat="59.26511" lon="18.097393">
        <ele>34</ele>
        <time>2019-12-05T08:40:25Z</time>
      </trkpt>
      <trkpt lat="59.265055" lon="18.097418">
        <ele>34</ele>
        <time>2019-12-05T08:40:26Z</time>
      </trkpt>
      <trkpt lat="59.265002" lon="18.097443">
        <ele>34</ele>
        <time>2019-12-05T08:40:27Z</time>
      </trkpt>
      <trkpt lat="59.264952" lon="18.097465">
        <ele>34</ele>
        <time>2019-12-05T08:40:28Z</time>
      </trkpt>
      <trkpt lat="59.264906" lon="18.097484">
        <ele>34</ele>
        <time>2019-12-05T08:40:30Z</time>
      </trkpt>
      <trkpt lat="59.26486" lon="18.097503">
        <ele>35</ele>
        <time>2019-12-05T08:40:30Z</time>
      </trkpt>
      <trkpt lat="59.264817" lon="18.097522">
        <ele>35</ele>
        <time>2019-12-05T08:40:31Z</time>
      </trkpt>
      <trkpt lat="59.264773" lon="18.097542">
        <ele>35</ele>
        <time>2019-12-05T08:40:32Z</time>
      </trkpt>
      <trkpt lat="59.264729" lon="18.097561">
        <ele>35</ele>
        <time>2019-12-05T08:40:33Z</time>
      </trkpt>
      <trkpt lat="59.264686" lon="18.097577">
        <ele>35</ele>
        <time>2019-12-05T08:40:35Z</time>
      </trkpt>
      <trkpt lat="59.264643" lon="18.097595">
        <ele>35</ele>
        <time>2019-12-05T08:40:35Z</time>
      </trkpt>
      <trkpt lat="59.2646" lon="18.097614">
        <ele>35</ele>
        <time>2019-12-05T08:40:36Z</time>
      </trkpt>
      <trkpt lat="59.264555" lon="18.097634">
        <ele>35</ele>
        <time>2019-12-05T08:40:37Z</time>
      </trkpt>
      <trkpt lat="59.264509" lon="18.097658">
        <ele>36</ele>
        <time>2019-12-05T08:40:38Z</time>
      </trkpt>
      <trkpt lat="59.264462" lon="18.097682">
        <ele>36</ele>
        <time>2019-12-05T08:40:39Z</time>
      </trkpt>
      <trkpt lat="59.264413" lon="18.097704">
        <ele>36</ele>
        <time>2019-12-05T08:40:40Z</time>
      </trkpt>
      <trkpt lat="59.264363" lon="18.097726">
        <ele>36</ele>
        <time>2019-12-05T08:40:41Z</time>
      </trkpt>
      <trkpt lat="59.264313" lon="18.097749">
        <ele>36</ele>
        <time>2019-12-05T08:40:42Z</time>
      </trkpt>
      <trkpt lat="59.264261" lon="18.097771">
        <ele>36</ele>
        <time>2019-12-05T08:40:43Z</time>
      </trkpt>
      <trkpt lat="59.264209" lon="18.097792">
        <ele>36</ele>
        <time>2019-12-05T08:40:45Z</time>
      </trkpt>
      <trkpt lat="59.264155" lon="18.097809">
        <ele>36</ele>
        <time>2019-12-05T08:40:45Z</time>
      </trkpt>
      <trkpt lat="59.264098" lon="18.097824">
        <ele>36</ele>
        <time>2019-12-05T08:40:46Z</time>
      </trkpt>
      <trkpt lat="59.264042" lon="18.097839">
        <ele>36</ele>
        <time>2019-12-05T08:40:47Z</time>
      </trkpt>
      <trkpt lat="59.263987" lon="18.097856">
        <ele>36</ele>
        <time>2019-12-05T08:40:49Z</time>
      </trkpt>
      <trkpt lat="59.26393" lon="18.097873">
        <ele>36</ele>
        <time>2019-12-05T08:40:49Z</time>
      </trkpt>
      <trkpt lat="59.263869" lon="18.097893">
        <ele>36</ele>
        <time>2019-12-05T08:40:50Z</time>
      </trkpt>
      <trkpt lat="59.263807" lon="18.097915">
        <ele>36</ele>
        <time>2019-12-05T08:40:51Z</time>
      </trkpt>
      <trkpt lat="59.263743" lon="18.097939">
        <ele>36</ele>
        <time>2019-12-05T08:40:52Z</time>
      </trkpt>
      <trkpt lat="59.263677" lon="18.097963">
        <ele>36</ele>
        <time>2019-12-05T08:40:54Z</time>
      </trkpt>
      <trkpt lat="59.263609" lon="18.097986">
        <ele>36</ele>
        <time>2019-12-05T08:40:54Z</time>
      </trkpt>
      <trkpt lat="59.263542" lon="18.098007">
        <ele>35</ele>
        <time>2019-12-05T08:40:55Z</time>
      </trkpt>
      <trkpt lat="59.26347" lon="18.09803">
        <ele>35</ele>
        <time>2019-12-05T08:40:56Z</time>
      </trkpt>
      <trkpt lat="59.263396" lon="18.098051">
        <ele>36</ele>
        <time>2019-12-05T08:40:57Z</time>
      </trkpt>
      <trkpt lat="59.263326" lon="18.098071">
        <ele>36</ele>
        <time>2019-12-05T08:40:58Z</time>
      </trkpt>
      <trkpt lat="59.263256" lon="18.098088">
        <ele>36</ele>
        <time>2019-12-05T08:41:00Z</time>
      </trkpt>
      <trkpt lat="59.263184" lon="18.098102">
        <ele>35</ele>
        <time>2019-12-05T08:41:00Z</time>
      </trkpt>
      <trkpt lat="59.263104" lon="18.098112">
        <ele>35</ele>
        <time>2019-12-05T08:41:01Z</time>
      </trkpt>
      <trkpt lat="59.263024" lon="18.09812">
        <ele>35</ele>
        <time>2019-12-05T08:41:02Z</time>
      </trkpt>
      <trkpt lat="59.262948" lon="18.098122">
        <ele>35</ele>
        <time>2019-12-05T08:41:03Z</time>
      </trkpt>
      <trkpt lat="59.262874" lon="18.098124">
        <ele>35</ele>
        <time>2019-12-05T08:41:04Z</time>
      </trkpt>
      <trkpt lat="59.262801" lon="18.098128">
        <ele>34</ele>
        <time>2019-12-05T08:41:05Z</time>
      </trkpt>
      <trkpt lat="59.262729" lon="18.09813">
        <ele>34</ele>
        <time>2019-12-05T08:41:07Z</time>
      </trkpt>
      <trkpt lat="59.262657" lon="18.098128">
        <ele>34</ele>
        <time>2019-12-05T08:41:08Z</time>
      </trkpt>
      <trkpt lat="59.262585" lon="18.098126">
        <ele>33</ele>
        <time>2019-12-05T08:41:08Z</time>
      </trkpt>
      <trkpt lat="59.262513" lon="18.09812">
        <ele>33</ele>
        <time>2019-12-05T08:41:09Z</time>
      </trkpt>
      <trkpt lat="59.26244" lon="18.098108">
        <ele>33</ele>
        <time>2019-12-05T08:41:10Z</time>
      </trkpt>
      <trkpt lat="59.262369" lon="18.098084">
        <ele>32</ele>
        <time>2019-12-05T08:41:11Z</time>
      </trkpt>
      <trkpt lat="59.262299" lon="18.098044">
        <ele>32</ele>
        <time>2019-12-05T08:41:12Z</time>
      </trkpt>
      <trkpt lat="59.262233" lon="18.097988">
        <ele>32</ele>
        <time>2019-12-05T08:41:14Z</time>
      </trkpt>
      <trkpt lat="59.262174" lon="18.097916">
        <ele>31</ele>
        <time>2019-12-05T08:41:14Z</time>
      </trkpt>
      <trkpt lat="59.262118" lon="18.097836">
        <ele>31</ele>
        <time>2019-12-05T08:41:15Z</time>
      </trkpt>
      <trkpt lat="59.262063" lon="18.097752">
        <ele>31</ele>
        <time>2019-12-05T08:41:16Z</time>
      </trkpt>
      <trkpt lat="59.26201" lon="18.09767">
        <ele>31</ele>
        <time>2019-12-05T08:41:17Z</time>
      </trkpt>
      <trkpt lat="59.261959" lon="18.097588">
        <ele>31</ele>
        <time>2019-12-05T08:41:18Z</time>
      </trkpt>
      <trkpt lat="59.261908" lon="18.097506">
        <ele>30</ele>
        <time>2019-12-05T08:41:19Z</time>
      </trkpt>
      <trkpt lat="59.261858" lon="18.097423">
        <ele>30</ele>
        <time>2019-12-05T08:41:20Z</time>
      </trkpt>
      <trkpt lat="59.261809" lon="18.097342">
        <ele>30</ele>
        <time>2019-12-05T08:41:22Z</time>
      </trkpt>
      <trkpt lat="59.261761" lon="18.09726">
        <ele>30</ele>
        <time>2019-12-05T08:41:22Z</time>
      </trkpt>
      <trkpt lat="59.261713" lon="18.097182">
        <ele>30</ele>
        <time>2019-12-05T08:41:23Z</time>
      </trkpt>
      <trkpt lat="59.261666" lon="18.097104">
        <ele>30</ele>
        <time>2019-12-05T08:41:24Z</time>
      </trkpt>
      <trkpt lat="59.261621" lon="18.097026">
        <ele>30</ele>
        <time>2019-12-05T08:41:25Z</time>
      </trkpt>
      <trkpt lat="59.261576" lon="18.09695">
        <ele>30</ele>
        <time>2019-12-05T08:41:27Z</time>
      </trkpt>
      <trkpt lat="59.261531" lon="18.09688">
        <ele>30</ele>
        <time>2019-12-05T08:41:27Z</time>
      </trkpt>
      <trkpt lat="59.261485" lon="18.096814">
        <ele>29</ele>
        <time>2019-12-05T08:41:28Z</time>
      </trkpt>
      <trkpt lat="59.261438" lon="18.09675">
        <ele>29</ele>
        <time>2019-12-05T08:41:30Z</time>
      </trkpt>
      <trkpt lat="59.261389" lon="18.096694">
        <ele>29</ele>
        <time>2019-12-05T08:41:30Z</time>
      </trkpt>
      <trkpt lat="59.261339" lon="18.096642">
        <ele>29</ele>
        <time>2019-12-05T08:41:31Z</time>
      </trkpt>
      <trkpt lat="59.261289" lon="18.096594">
        <ele>29</ele>
        <time>2019-12-05T08:41:32Z</time>
      </trkpt>
      <trkpt lat="59.261238" lon="18.096552">
        <ele>29</ele>
        <time>2019-12-05T08:41:33Z</time>
      </trkpt>
      <trkpt lat="59.261187" lon="18.096516">
        <ele>29</ele>
        <time>2019-12-05T08:41:34Z</time>
      </trkpt>
      <trkpt lat="59.261137" lon="18.096482">
        <ele>29</ele>
        <time>2019-12-05T08:41:35Z</time>
      </trkpt>
      <trkpt lat="59.261088" lon="18.096452">
        <ele>29</ele>
        <time>2019-12-05T08:41:36Z</time>
      </trkpt>
      <trkpt lat="59.261037" lon="18.096426">
        <ele>28</ele>
        <time>2019-12-05T08:41:37Z</time>
      </trkpt>
      <trkpt lat="59.260985" lon="18.09641">
        <ele>28</ele>
        <time>2019-12-05T08:41:39Z</time>
      </trkpt>
      <trkpt lat="59.260931" lon="18.096406">
        <ele>28</ele>
        <time>2019-12-05T08:41:39Z</time>
      </trkpt>
      <trkpt lat="59.260874" lon="18.09641">
        <ele>28</ele>
        <time>2019-12-05T08:41:40Z</time>
      </trkpt>
      <trkpt lat="59.260815" lon="18.096422">
        <ele>28</ele>
        <time>2019-12-05T08:41:41Z</time>
      </trkpt>
      <trkpt lat="59.260754" lon="18.096436">
        <ele>27</ele>
        <time>2019-12-05T08:41:42Z</time>
      </trkpt>
      <trkpt lat="59.260689" lon="18.096452">
        <ele>27</ele>
        <time>2019-12-05T08:41:43Z</time>
      </trkpt>
      <trkpt lat="59.260623" lon="18.096469">
        <ele>27</ele>
        <time>2019-12-05T08:41:44Z</time>
      </trkpt>
      <trkpt lat="59.260554" lon="18.09649">
        <ele>26</ele>
        <time>2019-12-05T08:41:46Z</time>
      </trkpt>
      <trkpt lat="59.260483" lon="18.096514">
        <ele>26</ele>
        <time>2019-12-05T08:41:47Z</time>
      </trkpt>
      <trkpt lat="59.260416" lon="18.09654">
        <ele>26</ele>
        <time>2019-12-05T08:41:47Z</time>
      </trkpt>
      <trkpt lat="59.260352" lon="18.09657">
        <ele>26</ele>
        <time>2019-12-05T08:41:48Z</time>
      </trkpt>
      <trkpt lat="59.260285" lon="18.096592">
        <ele>26</ele>
        <time>2019-12-05T08:41:49Z</time>
      </trkpt>
      <trkpt lat="59.260216" lon="18.096616">
        <ele>26</ele>
        <time>2019-12-05T08:41:50Z</time>
      </trkpt>
      <trkpt lat="59.260078" lon="18.096714">
        <ele>26</ele>
        <time>2019-12-05T08:41:52Z</time>
      </trkpt>
      <trkpt lat="59.259965" lon="18.096842">
        <ele>26</ele>
        <time>2019-12-05T08:41:54Z</time>
      </trkpt>
      <trkpt lat="59.25992" lon="18.096898">
        <ele>26</ele>
        <time>2019-12-05T08:41:55Z</time>
      </trkpt>
      <trkpt lat="59.259879" lon="18.096956">
        <ele>26</ele>
        <time>2019-12-05T08:41:56Z</time>
      </trkpt>
      <trkpt lat="59.25984" lon="18.097018">
        <ele>26</ele>
        <time>2019-12-05T08:41:57Z</time>
      </trkpt>
      <trkpt lat="59.259804" lon="18.097086">
        <ele>26</ele>
        <time>2019-12-05T08:41:58Z</time>
      </trkpt>
      <trkpt lat="59.259771" lon="18.097162">
        <ele>26</ele>
        <time>2019-12-05T08:41:59Z</time>
      </trkpt>
      <trkpt lat="59.259745" lon="18.097246">
        <ele>26</ele>
        <time>2019-12-05T08:42:00Z</time>
      </trkpt>
      <trkpt lat="59.259721" lon="18.097337">
        <ele>26</ele>
        <time>2019-12-05T08:42:01Z</time>
      </trkpt>
      <trkpt lat="59.259702" lon="18.097436">
        <ele>26</ele>
        <time>2019-12-05T08:42:02Z</time>
      </trkpt>
      <trkpt lat="59.259688" lon="18.097543">
        <ele>26</ele>
        <time>2019-12-05T08:42:04Z</time>
      </trkpt>
      <trkpt lat="59.259676" lon="18.097656">
        <ele>25</ele>
        <time>2019-12-05T08:42:05Z</time>
      </trkpt>
      <trkpt lat="59.259665" lon="18.09777">
        <ele>25</ele>
        <time>2019-12-05T08:42:05Z</time>
      </trkpt>
      <trkpt lat="59.259656" lon="18.097889">
        <ele>25</ele>
        <time>2019-12-05T08:42:06Z</time>
      </trkpt>
      <trkpt lat="59.259648" lon="18.098009">
        <ele>26</ele>
        <time>2019-12-05T08:42:07Z</time>
      </trkpt>
      <trkpt lat="59.259639" lon="18.098132">
        <ele>25</ele>
        <time>2019-12-05T08:42:08Z</time>
      </trkpt>
      <trkpt lat="59.259628" lon="18.098256">
        <ele>25</ele>
        <time>2019-12-05T08:42:09Z</time>
      </trkpt>
      <trkpt lat="59.259619" lon="18.098381">
        <ele>25</ele>
        <time>2019-12-05T08:42:10Z</time>
      </trkpt>
      <trkpt lat="59.259609" lon="18.098505">
        <ele>25</ele>
        <time>2019-12-05T08:42:12Z</time>
      </trkpt>
      <trkpt lat="59.259595" lon="18.098626">
        <ele>25</ele>
        <time>2019-12-05T08:42:12Z</time>
      </trkpt>
      <trkpt lat="59.259571" lon="18.098744">
        <ele>25</ele>
        <time>2019-12-05T08:42:13Z</time>
      </trkpt>
      <trkpt lat="59.259537" lon="18.098854">
        <ele>25</ele>
        <time>2019-12-05T08:42:14Z</time>
      </trkpt>
      <trkpt lat="59.259495" lon="18.098953">
        <ele>24</ele>
        <time>2019-12-05T08:42:15Z</time>
      </trkpt>
      <trkpt lat="59.259446" lon="18.099037">
        <ele>24</ele>
        <time>2019-12-05T08:42:16Z</time>
      </trkpt>
      <trkpt lat="59.259394" lon="18.099107">
        <ele>24</ele>
        <time>2019-12-05T08:42:17Z</time>
      </trkpt>
      <trkpt lat="59.25934" lon="18.099163">
        <ele>24</ele>
        <time>2019-12-05T08:42:18Z</time>
      </trkpt>
      <trkpt lat="59.259286" lon="18.099206">
        <ele>24</ele>
        <time>2019-12-05T08:42:20Z</time>
      </trkpt>
      <trkpt lat="59.25923" lon="18.099232">
        <ele>24</ele>
        <time>2019-12-05T08:42:20Z</time>
      </trkpt>
      <trkpt lat="59.259175" lon="18.099243">
        <ele>25</ele>
        <time>2019-12-05T08:42:21Z</time>
      </trkpt>
      <trkpt lat="59.259122" lon="18.099246">
        <ele>25</ele>
        <time>2019-12-05T08:42:22Z</time>
      </trkpt>
      <trkpt lat="59.259072" lon="18.099247">
        <ele>25</ele>
        <time>2019-12-05T08:42:24Z</time>
      </trkpt>
      <trkpt lat="59.259024" lon="18.099248">
        <ele>25</ele>
        <time>2019-12-05T08:42:24Z</time>
      </trkpt>
      <trkpt lat="59.258976" lon="18.099251">
        <ele>25</ele>
        <time>2019-12-05T08:42:25Z</time>
      </trkpt>
      <trkpt lat="59.258929" lon="18.099254">
        <ele>25</ele>
        <time>2019-12-05T08:42:26Z</time>
      </trkpt>
      <trkpt lat="59.258882" lon="18.099256">
        <ele>25</ele>
        <time>2019-12-05T08:42:27Z</time>
      </trkpt>
      <trkpt lat="59.258832" lon="18.099256">
        <ele>25</ele>
        <time>2019-12-05T08:42:29Z</time>
      </trkpt>
      <trkpt lat="59.25878" lon="18.099258">
        <ele>25</ele>
        <time>2019-12-05T08:42:29Z</time>
      </trkpt>
      <trkpt lat="59.258728" lon="18.099261">
        <ele>25</ele>
        <time>2019-12-05T08:42:30Z</time>
      </trkpt>
      <trkpt lat="59.258674" lon="18.099264">
        <ele>25</ele>
        <time>2019-12-05T08:42:31Z</time>
      </trkpt>
      <trkpt lat="59.25862" lon="18.099265">
        <ele>25</ele>
        <time>2019-12-05T08:42:32Z</time>
      </trkpt>
      <trkpt lat="59.258567" lon="18.099266">
        <ele>25</ele>
        <time>2019-12-05T08:42:33Z</time>
      </trkpt>
      <trkpt lat="59.258512" lon="18.099266">
        <ele>25</ele>
        <time>2019-12-05T08:42:34Z</time>
      </trkpt>
      <trkpt lat="59.258456" lon="18.099263">
        <ele>25</ele>
        <time>2019-12-05T08:42:35Z</time>
      </trkpt>
      <trkpt lat="59.258401" lon="18.099259">
        <ele>26</ele>
        <time>2019-12-05T08:42:36Z</time>
      </trkpt>
      <trkpt lat="59.258346" lon="18.099255">
        <ele>26</ele>
        <time>2019-12-05T08:42:37Z</time>
      </trkpt>
      <trkpt lat="59.25829" lon="18.099253">
        <ele>26</ele>
        <time>2019-12-05T08:42:39Z</time>
      </trkpt>
      <trkpt lat="59.258234" lon="18.099253">
        <ele>26</ele>
        <time>2019-12-05T08:42:39Z</time>
      </trkpt>
      <trkpt lat="59.258177" lon="18.099249">
        <ele>26</ele>
        <time>2019-12-05T08:42:40Z</time>
      </trkpt>
      <trkpt lat="59.258119" lon="18.099239">
        <ele>26</ele>
        <time>2019-12-05T08:42:41Z</time>
      </trkpt>
      <trkpt lat="59.25806" lon="18.099225">
        <ele>26</ele>
        <time>2019-12-05T08:42:43Z</time>
      </trkpt>
      <trkpt lat="59.257999" lon="18.099212">
        <ele>26</ele>
        <time>2019-12-05T08:42:43Z</time>
      </trkpt>
      <trkpt lat="59.257939" lon="18.099198">
        <ele>26</ele>
        <time>2019-12-05T08:42:44Z</time>
      </trkpt>
      <trkpt lat="59.257879" lon="18.099182">
        <ele>26</ele>
        <time>2019-12-05T08:42:45Z</time>
      </trkpt>
      <trkpt lat="59.257817" lon="18.099166">
        <ele>26</ele>
        <time>2019-12-05T08:42:47Z</time>
      </trkpt>
      <trkpt lat="59.257754" lon="18.099156">
        <ele>26</ele>
        <time>2019-12-05T08:42:47Z</time>
      </trkpt>
      <trkpt lat="59.257691" lon="18.099165">
        <ele>26</ele>
        <time>2019-12-05T08:42:48Z</time>
      </trkpt>
      <trkpt lat="59.257629" lon="18.099196">
        <ele>26</ele>
        <time>2019-12-05T08:42:49Z</time>
      </trkpt>
      <trkpt lat="59.257569" lon="18.099244">
        <ele>26</ele>
        <time>2019-12-05T08:42:50Z</time>
      </trkpt>
      <trkpt lat="59.25751" lon="18.099306">
        <ele>25</ele>
        <time>2019-12-05T08:42:51Z</time>
      </trkpt>
      <trkpt lat="59.257456" lon="18.099388">
        <ele>25</ele>
        <time>2019-12-05T08:42:52Z</time>
      </trkpt>
      <trkpt lat="59.257405" lon="18.099492">
        <ele>25</ele>
        <time>2019-12-05T08:42:54Z</time>
      </trkpt>
      <trkpt lat="59.257356" lon="18.09961">
        <ele>25</ele>
        <time>2019-12-05T08:42:54Z</time>
      </trkpt>
      <trkpt lat="59.257312" lon="18.099739">
        <ele>24</ele>
        <time>2019-12-05T08:42:55Z</time>
      </trkpt>
      <trkpt lat="59.257269" lon="18.09987">
        <ele>24</ele>
        <time>2019-12-05T08:42:56Z</time>
      </trkpt>
      <trkpt lat="59.25723" lon="18.099999">
        <ele>24</ele>
        <time>2019-12-05T08:42:57Z</time>
      </trkpt>
      <trkpt lat="59.257192" lon="18.100126">
        <ele>24</ele>
        <time>2019-12-05T08:42:58Z</time>
      </trkpt>
      <trkpt lat="59.257154" lon="18.100255">
        <ele>24</ele>
        <time>2019-12-05T08:42:59Z</time>
      </trkpt>
      <trkpt lat="59.257074" lon="18.100545">
        <ele>24</ele>
        <time>2019-12-05T08:43:02Z</time>
      </trkpt>
      <trkpt lat="59.257025" lon="18.100696">
        <ele>24</ele>
        <time>2019-12-05T08:43:02Z</time>
      </trkpt>
      <trkpt lat="59.25697" lon="18.100988">
        <ele>24</ele>
        <time>2019-12-05T08:43:04Z</time>
      </trkpt>
      <trkpt lat="59.256917" lon="18.10114">
        <ele>25</ele>
        <time>2019-12-05T08:43:07Z</time>
      </trkpt>
      <trkpt lat="59.256873" lon="18.101152">
        <ele>25</ele>
        <time>2019-12-05T08:43:09Z</time>
      </trkpt>
      <trkpt lat="59.256831" lon="18.101146">
        <ele>25</ele>
        <time>2019-12-05T08:43:09Z</time>
      </trkpt>
      <trkpt lat="59.256782" lon="18.101142">
        <ele>25</ele>
        <time>2019-12-05T08:43:10Z</time>
      </trkpt>
      <trkpt lat="59.256737" lon="18.101127">
        <ele>25</ele>
        <time>2019-12-05T08:43:11Z</time>
      </trkpt>
      <trkpt lat="59.256689" lon="18.101117">
        <ele>25</ele>
        <time>2019-12-05T08:43:12Z</time>
      </trkpt>
      <trkpt lat="59.256639" lon="18.101105">
        <ele>25</ele>
        <time>2019-12-05T08:43:13Z</time>
      </trkpt>
      <trkpt lat="59.256585" lon="18.101095">
        <ele>25</ele>
        <time>2019-12-05T08:43:14Z</time>
      </trkpt>
      <trkpt lat="59.256529" lon="18.101089">
        <ele>25</ele>
        <time>2019-12-05T08:43:15Z</time>
      </trkpt>
      <trkpt lat="59.256474" lon="18.101084">
        <ele>25</ele>
        <time>2019-12-05T08:43:16Z</time>
      </trkpt>
      <trkpt lat="59.25642" lon="18.101079">
        <ele>25</ele>
        <time>2019-12-05T08:43:17Z</time>
      </trkpt>
      <trkpt lat="59.256366" lon="18.101075">
        <ele>26</ele>
        <time>2019-12-05T08:43:19Z</time>
      </trkpt>
      <trkpt lat="59.256312" lon="18.101069">
        <ele>26</ele>
        <time>2019-12-05T08:43:19Z</time>
      </trkpt>
      <trkpt lat="59.256258" lon="18.101064">
        <ele>26</ele>
        <time>2019-12-05T08:43:21Z</time>
      </trkpt>
      <trkpt lat="59.256207" lon="18.10106">
        <ele>26</ele>
        <time>2019-12-05T08:43:21Z</time>
      </trkpt>
      <trkpt lat="59.256157" lon="18.101054">
        <ele>26</ele>
        <time>2019-12-05T08:43:22Z</time>
      </trkpt>
      <trkpt lat="59.256106" lon="18.101048">
        <ele>26</ele>
        <time>2019-12-05T08:43:23Z</time>
      </trkpt>
      <trkpt lat="59.256055" lon="18.101041">
        <ele>26</ele>
        <time>2019-12-05T08:43:24Z</time>
      </trkpt>
      <trkpt lat="59.256006" lon="18.101032">
        <ele>26</ele>
        <time>2019-12-05T08:43:25Z</time>
      </trkpt>
      <trkpt lat="59.255957" lon="18.101025">
        <ele>27</ele>
        <time>2019-12-05T08:43:26Z</time>
      </trkpt>
      <trkpt lat="59.255902" lon="18.101021">
        <ele>27</ele>
        <time>2019-12-05T08:43:27Z</time>
      </trkpt>
      <trkpt lat="59.255848" lon="18.101016">
        <ele>27</ele>
        <time>2019-12-05T08:43:29Z</time>
      </trkpt>
      <trkpt lat="59.255796" lon="18.101006">
        <ele>27</ele>
        <time>2019-12-05T08:43:29Z</time>
      </trkpt>
      <trkpt lat="59.255741" lon="18.100993">
        <ele>26</ele>
        <time>2019-12-05T08:43:30Z</time>
      </trkpt>
      <trkpt lat="59.255689" lon="18.10098">
        <ele>26</ele>
        <time>2019-12-05T08:43:31Z</time>
      </trkpt>
      <trkpt lat="59.255636" lon="18.100965">
        <ele>26</ele>
        <time>2019-12-05T08:43:32Z</time>
      </trkpt>
      <trkpt lat="59.255582" lon="18.100954">
        <ele>26</ele>
        <time>2019-12-05T08:43:33Z</time>
      </trkpt>
      <trkpt lat="59.255524" lon="18.100941">
        <ele>26</ele>
        <time>2019-12-05T08:43:34Z</time>
      </trkpt>
      <trkpt lat="59.255466" lon="18.100929">
        <ele>25</ele>
        <time>2019-12-05T08:43:35Z</time>
      </trkpt>
      <trkpt lat="59.255409" lon="18.100917">
        <ele>25</ele>
        <time>2019-12-05T08:43:36Z</time>
      </trkpt>
      <trkpt lat="59.255352" lon="18.100904">
        <ele>25</ele>
        <time>2019-12-05T08:43:38Z</time>
      </trkpt>
      <trkpt lat="59.255297" lon="18.100889">
        <ele>25</ele>
        <time>2019-12-05T08:43:38Z</time>
      </trkpt>
      <trkpt lat="59.255244" lon="18.100876">
        <ele>25</ele>
        <time>2019-12-05T08:43:40Z</time>
      </trkpt>
      <trkpt lat="59.25519" lon="18.100868">
        <ele>25</ele>
        <time>2019-12-05T08:43:40Z</time>
      </trkpt>
      <trkpt lat="59.255137" lon="18.100858">
        <ele>25</ele>
        <time>2019-12-05T08:43:41Z</time>
      </trkpt>
      <trkpt lat="59.255085" lon="18.100847">
        <ele>25</ele>
        <time>2019-12-05T08:43:42Z</time>
      </trkpt>
      <trkpt lat="59.255031" lon="18.100833">
        <ele>25</ele>
        <time>2019-12-05T08:43:43Z</time>
      </trkpt>
      <trkpt lat="59.254977" lon="18.100822">
        <ele>25</ele>
        <time>2019-12-05T08:43:44Z</time>
      </trkpt>
      <trkpt lat="59.254919" lon="18.100812">
        <ele>25</ele>
        <time>2019-12-05T08:43:45Z</time>
      </trkpt>
      <trkpt lat="59.254861" lon="18.100802">
        <ele>25</ele>
        <time>2019-12-05T08:43:47Z</time>
      </trkpt>
      <trkpt lat="59.254806" lon="18.100793">
        <ele>25</ele>
        <time>2019-12-05T08:43:47Z</time>
      </trkpt>
      <trkpt lat="59.25475" lon="18.100783">
        <ele>25</ele>
        <time>2019-12-05T08:43:48Z</time>
      </trkpt>
      <trkpt lat="59.254693" lon="18.100775">
        <ele>25</ele>
        <time>2019-12-05T08:43:49Z</time>
      </trkpt>
      <trkpt lat="59.254638" lon="18.100756">
        <ele>25</ele>
        <time>2019-12-05T08:43:50Z</time>
      </trkpt>
      <trkpt lat="59.254587" lon="18.100727">
        <ele>24</ele>
        <time>2019-12-05T08:43:51Z</time>
      </trkpt>
      <trkpt lat="59.254533" lon="18.100698">
        <ele>24</ele>
        <time>2019-12-05T08:43:52Z</time>
      </trkpt>
      <trkpt lat="59.254477" lon="18.100675">
        <ele>25</ele>
        <time>2019-12-05T08:43:53Z</time>
      </trkpt>
      <trkpt lat="59.254423" lon="18.100655">
        <ele>25</ele>
        <time>2019-12-05T08:43:54Z</time>
      </trkpt>
      <trkpt lat="59.254369" lon="18.100635">
        <ele>25</ele>
        <time>2019-12-05T08:43:56Z</time>
      </trkpt>
      <trkpt lat="59.254314" lon="18.100616">
        <ele>25</ele>
        <time>2019-12-05T08:43:56Z</time>
      </trkpt>
      <trkpt lat="59.254258" lon="18.100601">
        <ele>25</ele>
        <time>2019-12-05T08:43:57Z</time>
      </trkpt>
      <trkpt lat="59.254201" lon="18.100594">
        <ele>25</ele>
        <time>2019-12-05T08:43:59Z</time>
      </trkpt>
      <trkpt lat="59.254144" lon="18.100597">
        <ele>25</ele>
        <time>2019-12-05T08:43:59Z</time>
      </trkpt>
      <trkpt lat="59.254089" lon="18.100602">
        <ele>25</ele>
        <time>2019-12-05T08:44:00Z</time>
      </trkpt>
      <trkpt lat="59.254036" lon="18.100605">
        <ele>25</ele>
        <time>2019-12-05T08:44:01Z</time>
      </trkpt>
      <trkpt lat="59.253983" lon="18.100599">
        <ele>25</ele>
        <time>2019-12-05T08:44:02Z</time>
      </trkpt>
      <trkpt lat="59.253929" lon="18.100581">
        <ele>25</ele>
        <time>2019-12-05T08:44:03Z</time>
      </trkpt>
      <trkpt lat="59.253874" lon="18.100559">
        <ele>25</ele>
        <time>2019-12-05T08:44:05Z</time>
      </trkpt>
      <trkpt lat="59.253819" lon="18.100538">
        <ele>25</ele>
        <time>2019-12-05T08:44:05Z</time>
      </trkpt>
      <trkpt lat="59.253761" lon="18.100516">
        <ele>25</ele>
        <time>2019-12-05T08:44:06Z</time>
      </trkpt>
      <trkpt lat="59.253699" lon="18.100492">
        <ele>24</ele>
        <time>2019-12-05T08:44:07Z</time>
      </trkpt>
      <trkpt lat="59.25364" lon="18.100463">
        <ele>24</ele>
        <time>2019-12-05T08:44:08Z</time>
      </trkpt>
      <trkpt lat="59.253581" lon="18.100433">
        <ele>24</ele>
        <time>2019-12-05T08:44:09Z</time>
      </trkpt>
      <trkpt lat="59.253524" lon="18.100401">
        <ele>24</ele>
        <time>2019-12-05T08:44:10Z</time>
      </trkpt>
      <trkpt lat="59.253468" lon="18.100364">
        <ele>23</ele>
        <time>2019-12-05T08:44:11Z</time>
      </trkpt>
      <trkpt lat="59.253414" lon="18.100324">
        <ele>23</ele>
        <time>2019-12-05T08:44:13Z</time>
      </trkpt>
      <trkpt lat="59.253362" lon="18.100281">
        <ele>23</ele>
        <time>2019-12-05T08:44:13Z</time>
      </trkpt>
      <trkpt lat="59.253309" lon="18.10024">
        <ele>23</ele>
        <time>2019-12-05T08:44:14Z</time>
      </trkpt>
      <trkpt lat="59.253256" lon="18.100204">
        <ele>22</ele>
        <time>2019-12-05T08:44:15Z</time>
      </trkpt>
      <trkpt lat="59.253202" lon="18.100174">
        <ele>22</ele>
        <time>2019-12-05T08:44:16Z</time>
      </trkpt>
      <trkpt lat="59.253146" lon="18.100154">
        <ele>22</ele>
        <time>2019-12-05T08:44:18Z</time>
      </trkpt>
      <trkpt lat="59.253088" lon="18.100143">
        <ele>22</ele>
        <time>2019-12-05T08:44:18Z</time>
      </trkpt>
      <trkpt lat="59.25303" lon="18.10014">
        <ele>22</ele>
        <time>2019-12-05T08:44:19Z</time>
      </trkpt>
      <trkpt lat="59.252974" lon="18.100143">
        <ele>22</ele>
        <time>2019-12-05T08:44:20Z</time>
      </trkpt>
      <trkpt lat="59.252919" lon="18.10015">
        <ele>22</ele>
        <time>2019-12-05T08:44:22Z</time>
      </trkpt>
      <trkpt lat="59.252864" lon="18.100161">
        <ele>22</ele>
        <time>2019-12-05T08:44:22Z</time>
      </trkpt>
      <trkpt lat="59.25281" lon="18.100174">
        <ele>22</ele>
        <time>2019-12-05T08:44:23Z</time>
      </trkpt>
      <trkpt lat="59.252756" lon="18.100189">
        <ele>22</ele>
        <time>2019-12-05T08:44:24Z</time>
      </trkpt>
      <trkpt lat="59.252703" lon="18.100205">
        <ele>22</ele>
        <time>2019-12-05T08:44:25Z</time>
      </trkpt>
      <trkpt lat="59.25265" lon="18.100225">
        <ele>22</ele>
        <time>2019-12-05T08:44:26Z</time>
      </trkpt>
      <trkpt lat="59.252596" lon="18.100247">
        <ele>22</ele>
        <time>2019-12-05T08:44:27Z</time>
      </trkpt>
      <trkpt lat="59.252544" lon="18.100269">
        <ele>22</ele>
        <time>2019-12-05T08:44:28Z</time>
      </trkpt>
      <trkpt lat="59.252492" lon="18.100295">
        <ele>22</ele>
        <time>2019-12-05T08:44:29Z</time>
      </trkpt>
      <trkpt lat="59.252444" lon="18.100322">
        <ele>22</ele>
        <time>2019-12-05T08:44:31Z</time>
      </trkpt>
      <trkpt lat="59.252396" lon="18.10035">
        <ele>22</ele>
        <time>2019-12-05T08:44:31Z</time>
      </trkpt>
      <trkpt lat="59.252351" lon="18.100379">
        <ele>22</ele>
        <time>2019-12-05T08:44:32Z</time>
      </trkpt>
      <trkpt lat="59.252308" lon="18.100406">
        <ele>23</ele>
        <time>2019-12-05T08:44:33Z</time>
      </trkpt>
      <trkpt lat="59.252265" lon="18.100431">
        <ele>23</ele>
        <time>2019-12-05T08:44:34Z</time>
      </trkpt>
      <trkpt lat="59.252225" lon="18.100456">
        <ele>23</ele>
        <time>2019-12-05T08:44:35Z</time>
      </trkpt>
      <trkpt lat="59.252187" lon="18.100479">
        <ele>23</ele>
        <time>2019-12-05T08:44:37Z</time>
      </trkpt>
      <trkpt lat="59.252151" lon="18.100504">
        <ele>23</ele>
        <time>2019-12-05T08:44:37Z</time>
      </trkpt>
      <trkpt lat="59.252116" lon="18.100527">
        <ele>23</ele>
        <time>2019-12-05T08:44:38Z</time>
      </trkpt>
      <trkpt lat="59.252083" lon="18.100548">
        <ele>23</ele>
        <time>2019-12-05T08:44:39Z</time>
      </trkpt>
      <trkpt lat="59.252051" lon="18.100571">
        <ele>24</ele>
        <time>2019-12-05T08:44:40Z</time>
      </trkpt>
      <trkpt lat="59.252021" lon="18.100592">
        <ele>24</ele>
        <time>2019-12-05T08:44:41Z</time>
      </trkpt>
      <trkpt lat="59.251995" lon="18.100612">
        <ele>24</ele>
        <time>2019-12-05T08:44:42Z</time>
      </trkpt>
      <trkpt lat="59.251969" lon="18.100629">
        <ele>24</ele>
        <time>2019-12-05T08:44:43Z</time>
      </trkpt>
      <trkpt lat="59.251947" lon="18.100647">
        <ele>24</ele>
        <time>2019-12-05T08:44:45Z</time>
      </trkpt>
      <trkpt lat="59.251926" lon="18.10066">
        <ele>25</ele>
        <time>2019-12-05T08:44:45Z</time>
      </trkpt>
      <trkpt lat="59.251902" lon="18.100669">
        <ele>25</ele>
        <time>2019-12-05T08:44:46Z</time>
      </trkpt>
      <trkpt lat="59.251877" lon="18.100682">
        <ele>25</ele>
        <time>2019-12-05T08:44:47Z</time>
      </trkpt>
      <trkpt lat="59.251853" lon="18.100699">
        <ele>25</ele>
        <time>2019-12-05T08:44:48Z</time>
      </trkpt>
      <trkpt lat="59.251823" lon="18.100716">
        <ele>25</ele>
        <time>2019-12-05T08:44:49Z</time>
      </trkpt>
      <trkpt lat="59.251792" lon="18.100735">
        <ele>26</ele>
        <time>2019-12-05T08:44:50Z</time>
      </trkpt>
      <trkpt lat="59.25176" lon="18.100755">
        <ele>26</ele>
        <time>2019-12-05T08:44:51Z</time>
      </trkpt>
      <trkpt lat="59.251726" lon="18.100776">
        <ele>26</ele>
        <time>2019-12-05T08:44:52Z</time>
      </trkpt>
      <trkpt lat="59.251692" lon="18.1008">
        <ele>26</ele>
        <time>2019-12-05T08:44:53Z</time>
      </trkpt>
      <trkpt lat="59.25166" lon="18.100822">
        <ele>26</ele>
        <time>2019-12-05T08:44:54Z</time>
      </trkpt>
      <trkpt lat="59.251628" lon="18.100841">
        <ele>26</ele>
        <time>2019-12-05T08:44:56Z</time>
      </trkpt>
      <trkpt lat="59.251595" lon="18.10086">
        <ele>27</ele>
        <time>2019-12-05T08:44:56Z</time>
      </trkpt>
      <trkpt lat="59.251564" lon="18.100879">
        <ele>27</ele>
        <time>2019-12-05T08:44:57Z</time>
      </trkpt>
      <trkpt lat="59.251534" lon="18.100898">
        <ele>27</ele>
        <time>2019-12-05T08:44:58Z</time>
      </trkpt>
      <trkpt lat="59.251503" lon="18.100914">
        <ele>27</ele>
        <time>2019-12-05T08:44:59Z</time>
      </trkpt>
      <trkpt lat="59.251468" lon="18.100926">
        <ele>27</ele>
        <time>2019-12-05T08:45:01Z</time>
      </trkpt>
      <trkpt lat="59.251434" lon="18.100935">
        <ele>28</ele>
        <time>2019-12-05T08:45:01Z</time>
      </trkpt>
      <trkpt lat="59.251397" lon="18.100939">
        <ele>27</ele>
        <time>2019-12-05T08:45:02Z</time>
      </trkpt>
      <trkpt lat="59.25136" lon="18.100933">
        <ele>27</ele>
        <time>2019-12-05T08:45:03Z</time>
      </trkpt>
      <trkpt lat="59.251324" lon="18.100924">
        <ele>27</ele>
        <time>2019-12-05T08:45:04Z</time>
      </trkpt>
      <trkpt lat="59.251288" lon="18.10091">
        <ele>27</ele>
        <time>2019-12-05T08:45:05Z</time>
      </trkpt>
      <trkpt lat="59.251254" lon="18.10089">
        <ele>28</ele>
        <time>2019-12-05T08:45:06Z</time>
      </trkpt>
      <trkpt lat="59.25122" lon="18.100867">
        <ele>28</ele>
        <time>2019-12-05T08:45:07Z</time>
      </trkpt>
      <trkpt lat="59.251188" lon="18.100845">
        <ele>28</ele>
        <time>2019-12-05T08:45:08Z</time>
      </trkpt>
      <trkpt lat="59.251156" lon="18.100819">
        <ele>28</ele>
        <time>2019-12-05T08:45:09Z</time>
      </trkpt>
      <trkpt lat="59.251126" lon="18.100793">
        <ele>28</ele>
        <time>2019-12-05T08:45:10Z</time>
      </trkpt>
      <trkpt lat="59.251095" lon="18.100767">
        <ele>28</ele>
        <time>2019-12-05T08:45:11Z</time>
      </trkpt>
      <trkpt lat="59.251066" lon="18.100738">
        <ele>28</ele>
        <time>2019-12-05T08:45:12Z</time>
      </trkpt>
      <trkpt lat="59.251039" lon="18.10071">
        <ele>29</ele>
        <time>2019-12-05T08:45:13Z</time>
      </trkpt>
      <trkpt lat="59.25101" lon="18.100681">
        <ele>29</ele>
        <time>2019-12-05T08:45:15Z</time>
      </trkpt>
      <trkpt lat="59.250984" lon="18.10065">
        <ele>29</ele>
        <time>2019-12-05T08:45:16Z</time>
      </trkpt>
      <trkpt lat="59.250956" lon="18.100616">
        <ele>29</ele>
        <time>2019-12-05T08:45:16Z</time>
      </trkpt>
      <trkpt lat="59.25093" lon="18.100579">
        <ele>29</ele>
        <time>2019-12-05T08:45:17Z</time>
      </trkpt>
      <trkpt lat="59.250906" lon="18.10054">
        <ele>30</ele>
        <time>2019-12-05T08:45:18Z</time>
      </trkpt>
      <trkpt lat="59.250882" lon="18.100497">
        <ele>30</ele>
        <time>2019-12-05T08:45:19Z</time>
      </trkpt>
      <trkpt lat="59.250858" lon="18.100451">
        <ele>30</ele>
        <time>2019-12-05T08:45:20Z</time>
      </trkpt>
      <trkpt lat="59.250836" lon="18.100404">
        <ele>30</ele>
        <time>2019-12-05T08:45:21Z</time>
      </trkpt>
      <trkpt lat="59.250812" lon="18.100357">
        <ele>30</ele>
        <time>2019-12-05T08:45:22Z</time>
      </trkpt>
      <trkpt lat="59.250792" lon="18.100307">
        <ele>30</ele>
        <time>2019-12-05T08:45:23Z</time>
      </trkpt>
      <trkpt lat="59.250772" lon="18.100256">
        <ele>30</ele>
        <time>2019-12-05T08:45:24Z</time>
      </trkpt>
      <trkpt lat="59.250752" lon="18.100201">
        <ele>30</ele>
        <time>2019-12-05T08:45:25Z</time>
      </trkpt>
      <trkpt lat="59.250732" lon="18.100147">
        <ele>30</ele>
        <time>2019-12-05T08:45:26Z</time>
      </trkpt>
      <trkpt lat="59.25071" lon="18.100099">
        <ele>31</ele>
        <time>2019-12-05T08:45:27Z</time>
      </trkpt>
      <trkpt lat="59.250684" lon="18.100054">
        <ele>31</ele>
        <time>2019-12-05T08:45:28Z</time>
      </trkpt>
      <trkpt lat="59.250656" lon="18.100009">
        <ele>31</ele>
        <time>2019-12-05T08:45:29Z</time>
      </trkpt>
      <trkpt lat="59.250628" lon="18.099964">
        <ele>31</ele>
        <time>2019-12-05T08:45:31Z</time>
      </trkpt>
      <trkpt lat="59.250597" lon="18.099919">
        <ele>31</ele>
        <time>2019-12-05T08:45:31Z</time>
      </trkpt>
      <trkpt lat="59.250565" lon="18.099875">
        <ele>30</ele>
        <time>2019-12-05T08:45:32Z</time>
      </trkpt>
      <trkpt lat="59.250526" lon="18.09983">
        <ele>30</ele>
        <time>2019-12-05T08:45:34Z</time>
      </trkpt>
      <trkpt lat="59.250488" lon="18.099791">
        <ele>30</ele>
        <time>2019-12-05T08:45:34Z</time>
      </trkpt>
      <trkpt lat="59.250446" lon="18.099759">
        <ele>30</ele>
        <time>2019-12-05T08:45:35Z</time>
      </trkpt>
      <trkpt lat="59.250402" lon="18.099732">
        <ele>30</ele>
        <time>2019-12-05T08:45:36Z</time>
      </trkpt>
      <trkpt lat="59.250356" lon="18.099708">
        <ele>30</ele>
        <time>2019-12-05T08:45:37Z</time>
      </trkpt>
      <trkpt lat="59.250306" lon="18.099686">
        <ele>30</ele>
        <time>2019-12-05T08:45:38Z</time>
      </trkpt>
      <trkpt lat="59.250257" lon="18.099666">
        <ele>29</ele>
        <time>2019-12-05T08:45:39Z</time>
      </trkpt>
      <trkpt lat="59.250202" lon="18.099643">
        <ele>29</ele>
        <time>2019-12-05T08:45:41Z</time>
      </trkpt>
      <trkpt lat="59.250146" lon="18.099619">
        <ele>29</ele>
        <time>2019-12-05T08:45:41Z</time>
      </trkpt>
      <trkpt lat="59.250089" lon="18.099595">
        <ele>29</ele>
        <time>2019-12-05T08:45:42Z</time>
      </trkpt>
      <trkpt lat="59.250032" lon="18.099575">
        <ele>28</ele>
        <time>2019-12-05T08:45:43Z</time>
      </trkpt>
      <trkpt lat="59.249974" lon="18.099552">
        <ele>28</ele>
        <time>2019-12-05T08:45:44Z</time>
      </trkpt>
      <trkpt lat="59.249916" lon="18.099527">
        <ele>28</ele>
        <time>2019-12-05T08:45:45Z</time>
      </trkpt>
      <trkpt lat="59.249858" lon="18.099503">
        <ele>28</ele>
        <time>2019-12-05T08:45:46Z</time>
      </trkpt>
      <trkpt lat="59.2498" lon="18.099482">
        <ele>28</ele>
        <time>2019-12-05T08:45:47Z</time>
      </trkpt>
      <trkpt lat="59.249736" lon="18.099465">
        <ele>27</ele>
        <time>2019-12-05T08:45:49Z</time>
      </trkpt>
      <trkpt lat="59.24967" lon="18.099456">
        <ele>28</ele>
        <time>2019-12-05T08:45:49Z</time>
      </trkpt>
      <trkpt lat="59.249607" lon="18.099456">
        <ele>28</ele>
        <time>2019-12-05T08:45:50Z</time>
      </trkpt>
      <trkpt lat="59.249546" lon="18.099467">
        <ele>28</ele>
        <time>2019-12-05T08:45:51Z</time>
      </trkpt>
      <trkpt lat="59.249488" lon="18.099484">
        <ele>28</ele>
        <time>2019-12-05T08:45:53Z</time>
      </trkpt>
      <trkpt lat="59.249432" lon="18.099503">
        <ele>28</ele>
        <time>2019-12-05T08:45:53Z</time>
      </trkpt>
      <trkpt lat="59.24938" lon="18.099524">
        <ele>28</ele>
        <time>2019-12-05T08:45:54Z</time>
      </trkpt>
      <trkpt lat="59.249332" lon="18.099551">
        <ele>28</ele>
        <time>2019-12-05T08:45:55Z</time>
      </trkpt>
      <trkpt lat="59.249287" lon="18.099579">
        <ele>28</ele>
        <time>2019-12-05T08:45:56Z</time>
      </trkpt>
      <trkpt lat="59.249243" lon="18.099601">
        <ele>28</ele>
        <time>2019-12-05T08:45:57Z</time>
      </trkpt>
      <trkpt lat="59.2492" lon="18.099623">
        <ele>29</ele>
        <time>2019-12-05T08:45:59Z</time>
      </trkpt>
      <trkpt lat="59.249157" lon="18.099646">
        <ele>29</ele>
        <time>2019-12-05T08:45:59Z</time>
      </trkpt>
      <trkpt lat="59.249114" lon="18.099671">
        <ele>29</ele>
        <time>2019-12-05T08:46:00Z</time>
      </trkpt>
      <trkpt lat="59.249073" lon="18.099698">
        <ele>29</ele>
        <time>2019-12-05T08:46:01Z</time>
      </trkpt>
      <trkpt lat="59.249032" lon="18.099727">
        <ele>29</ele>
        <time>2019-12-05T08:46:02Z</time>
      </trkpt>
      <trkpt lat="59.248989" lon="18.099756">
        <ele>29</ele>
        <time>2019-12-05T08:46:03Z</time>
      </trkpt>
      <trkpt lat="59.248949" lon="18.099791">
        <ele>29</ele>
        <time>2019-12-05T08:46:04Z</time>
      </trkpt>
      <trkpt lat="59.248908" lon="18.099831">
        <ele>29</ele>
        <time>2019-12-05T08:46:05Z</time>
      </trkpt>
      <trkpt lat="59.248869" lon="18.099874">
        <ele>29</ele>
        <time>2019-12-05T08:46:06Z</time>
      </trkpt>
      <trkpt lat="59.248829" lon="18.099916">
        <ele>29</ele>
        <time>2019-12-05T08:46:07Z</time>
      </trkpt>
      <trkpt lat="59.248789" lon="18.099963">
        <ele>29</ele>
        <time>2019-12-05T08:46:08Z</time>
      </trkpt>
      <trkpt lat="59.24875" lon="18.100016">
        <ele>29</ele>
        <time>2019-12-05T08:46:10Z</time>
      </trkpt>
      <trkpt lat="59.248712" lon="18.100073">
        <ele>29</ele>
        <time>2019-12-05T08:46:10Z</time>
      </trkpt>
      <trkpt lat="59.248672" lon="18.100131">
        <ele>28</ele>
        <time>2019-12-05T08:46:12Z</time>
      </trkpt>
      <trkpt lat="59.24863" lon="18.10019">
        <ele>28</ele>
        <time>2019-12-05T08:46:12Z</time>
      </trkpt>
      <trkpt lat="59.248588" lon="18.100251">
        <ele>28</ele>
        <time>2019-12-05T08:46:13Z</time>
      </trkpt>
      <trkpt lat="59.248546" lon="18.100307">
        <ele>28</ele>
        <time>2019-12-05T08:46:14Z</time>
      </trkpt>
      <trkpt lat="59.248503" lon="18.100362">
        <ele>28</ele>
        <time>2019-12-05T08:46:15Z</time>
      </trkpt>
      <trkpt lat="59.248456" lon="18.100414">
        <ele>28</ele>
        <time>2019-12-05T08:46:16Z</time>
      </trkpt>
      <trkpt lat="59.24841" lon="18.100465">
        <ele>28</ele>
        <time>2019-12-05T08:46:17Z</time>
      </trkpt>
      <trkpt lat="59.248368" lon="18.100508">
        <ele>28</ele>
        <time>2019-12-05T08:46:18Z</time>
      </trkpt>
      <trkpt lat="59.248326" lon="18.100544">
        <ele>28</ele>
        <time>2019-12-05T08:46:20Z</time>
      </trkpt>
      <trkpt lat="59.248285" lon="18.100579">
        <ele>28</ele>
        <time>2019-12-05T08:46:20Z</time>
      </trkpt>
      <trkpt lat="59.248247" lon="18.100615">
        <ele>28</ele>
        <time>2019-12-05T08:46:21Z</time>
      </trkpt>
      <trkpt lat="59.248212" lon="18.100659">
        <ele>28</ele>
        <time>2019-12-05T08:46:22Z</time>
      </trkpt>
      <trkpt lat="59.248176" lon="18.100706">
        <ele>28</ele>
        <time>2019-12-05T08:46:23Z</time>
      </trkpt>
      <trkpt lat="59.24814" lon="18.100755">
        <ele>28</ele>
        <time>2019-12-05T08:46:24Z</time>
      </trkpt>
      <trkpt lat="59.248105" lon="18.100809">
        <ele>28</ele>
        <time>2019-12-05T08:46:25Z</time>
      </trkpt>
      <trkpt lat="59.248073" lon="18.100867">
        <ele>28</ele>
        <time>2019-12-05T08:46:26Z</time>
      </trkpt>
      <trkpt lat="59.248045" lon="18.100931">
        <ele>29</ele>
        <time>2019-12-05T08:46:27Z</time>
      </trkpt>
      <trkpt lat="59.24802" lon="18.100998">
        <ele>29</ele>
        <time>2019-12-05T08:46:28Z</time>
      </trkpt>
      <trkpt lat="59.247993" lon="18.101065">
        <ele>29</ele>
        <time>2019-12-05T08:46:29Z</time>
      </trkpt>
      <trkpt lat="59.247969" lon="18.101133">
        <ele>0</ele>
        <time>2019-12-05T08:46:30Z</time>
      </trkpt>
      <trkpt lat="59.247947" lon="18.101201">
        <ele>29</ele>
        <time>2019-12-05T08:46:31Z</time>
      </trkpt>
      <trkpt lat="59.247923" lon="18.10127">
        <ele>30</ele>
        <time>2019-12-05T08:46:32Z</time>
      </trkpt>
      <trkpt lat="59.247901" lon="18.101343">
        <ele>30</ele>
        <time>2019-12-05T08:46:33Z</time>
      </trkpt>
      <trkpt lat="59.247879" lon="18.101414">
        <ele>31</ele>
        <time>2019-12-05T08:46:34Z</time>
      </trkpt>
      <trkpt lat="59.247861" lon="18.10149">
        <ele>31</ele>
        <time>2019-12-05T08:46:35Z</time>
      </trkpt>
      <trkpt lat="59.247836" lon="18.10156">
        <ele>30</ele>
        <time>2019-12-05T08:46:36Z</time>
      </trkpt>
      <trkpt lat="59.247811" lon="18.101631">
        <ele>30</ele>
        <time>2019-12-05T08:46:37Z</time>
      </trkpt>
      <trkpt lat="59.247789" lon="18.101704">
        <ele>30</ele>
        <time>2019-12-05T08:46:38Z</time>
      </trkpt>
      <trkpt lat="59.247767" lon="18.101781">
        <ele>30</ele>
        <time>2019-12-05T08:46:39Z</time>
      </trkpt>
      <trkpt lat="59.247747" lon="18.101862">
        <ele>30</ele>
        <time>2019-12-05T08:46:40Z</time>
      </trkpt>
      <trkpt lat="59.247728" lon="18.101946">
        <ele>30</ele>
        <time>2019-12-05T08:46:41Z</time>
      </trkpt>
      <trkpt lat="59.247707" lon="18.102032">
        <ele>30</ele>
        <time>2019-12-05T08:46:43Z</time>
      </trkpt>
      <trkpt lat="59.247687" lon="18.102118">
        <ele>30</ele>
        <time>2019-12-05T08:46:43Z</time>
      </trkpt>
      <trkpt lat="59.247667" lon="18.102207">
        <ele>30</ele>
        <time>2019-12-05T08:46:44Z</time>
      </trkpt>
      <trkpt lat="59.247644" lon="18.102296">
        <ele>30</ele>
        <time>2019-12-05T08:46:45Z</time>
      </trkpt>
      <trkpt lat="59.247621" lon="18.102385">
        <ele>30</ele>
        <time>2019-12-05T08:46:46Z</time>
      </trkpt>
      <trkpt lat="59.247597" lon="18.102472">
        <ele>30</ele>
        <time>2019-12-05T08:46:47Z</time>
      </trkpt>
      <trkpt lat="59.247572" lon="18.10256">
        <ele>30</ele>
        <time>2019-12-05T08:46:48Z</time>
      </trkpt>
      <trkpt lat="59.247548" lon="18.102649">
        <ele>30</ele>
        <time>2019-12-05T08:46:50Z</time>
      </trkpt>
      <trkpt lat="59.247524" lon="18.102739">
        <ele>30</ele>
        <time>2019-12-05T08:46:50Z</time>
      </trkpt>
      <trkpt lat="59.247496" lon="18.102828">
        <ele>29</ele>
        <time>2019-12-05T08:46:52Z</time>
      </trkpt>
      <trkpt lat="59.247465" lon="18.102918">
        <ele>29</ele>
        <time>2019-12-05T08:46:52Z</time>
      </trkpt>
      <trkpt lat="59.24743" lon="18.103008">
        <ele>29</ele>
        <time>2019-12-05T08:46:53Z</time>
      </trkpt>
      <trkpt lat="59.24739" lon="18.103097">
        <ele>29</ele>
        <time>2019-12-05T08:46:54Z</time>
      </trkpt>
      <trkpt lat="59.247346" lon="18.103184">
        <ele>29</ele>
        <time>2019-12-05T08:46:55Z</time>
      </trkpt>
      <trkpt lat="59.247297" lon="18.103268">
        <ele>29</ele>
        <time>2019-12-05T08:46:56Z</time>
      </trkpt>
      <trkpt lat="59.247244" lon="18.103349">
        <ele>29</ele>
        <time>2019-12-05T08:46:57Z</time>
      </trkpt>
      <trkpt lat="59.24719" lon="18.103429">
        <ele>28</ele>
        <time>2019-12-05T08:46:58Z</time>
      </trkpt>
      <trkpt lat="59.24714" lon="18.103516">
        <ele>28</ele>
        <time>2019-12-05T08:47:00Z</time>
      </trkpt>
      <trkpt lat="59.247093" lon="18.103611">
        <ele>28</ele>
        <time>2019-12-05T08:47:00Z</time>
      </trkpt>
      <trkpt lat="59.247053" lon="18.103717">
        <ele>28</ele>
        <time>2019-12-05T08:47:01Z</time>
      </trkpt>
      <trkpt lat="59.247021" lon="18.103832">
        <ele>27</ele>
        <time>2019-12-05T08:47:02Z</time>
      </trkpt>
      <trkpt lat="59.246996" lon="18.103955">
        <ele>27</ele>
        <time>2019-12-05T08:47:03Z</time>
      </trkpt>
      <trkpt lat="59.246974" lon="18.104083">
        <ele>27</ele>
        <time>2019-12-05T08:47:04Z</time>
      </trkpt>
      <trkpt lat="59.246959" lon="18.104209">
        <ele>27</ele>
        <time>2019-12-05T08:47:05Z</time>
      </trkpt>
      <trkpt lat="59.246953" lon="18.104332">
        <ele>27</ele>
        <time>2019-12-05T08:47:06Z</time>
      </trkpt>
      <trkpt lat="59.246951" lon="18.104449">
        <ele>27</ele>
        <time>2019-12-05T08:47:08Z</time>
      </trkpt>
      <trkpt lat="59.246953" lon="18.104568">
        <ele>27</ele>
        <time>2019-12-05T08:47:09Z</time>
      </trkpt>
      <trkpt lat="59.246941" lon="18.104667">
        <ele>27</ele>
        <time>2019-12-05T08:47:09Z</time>
      </trkpt>
      <trkpt lat="59.246922" lon="18.104754">
        <ele>27</ele>
        <time>2019-12-05T08:47:10Z</time>
      </trkpt>
      <trkpt lat="59.246898" lon="18.104844">
        <ele>26</ele>
        <time>2019-12-05T08:47:11Z</time>
      </trkpt>
      <trkpt lat="59.246866" lon="18.104914">
        <ele>26</ele>
        <time>2019-12-05T08:47:12Z</time>
      </trkpt>
      <trkpt lat="59.246827" lon="18.10497">
        <ele>26</ele>
        <time>2019-12-05T08:47:13Z</time>
      </trkpt>
      <trkpt lat="59.246788" lon="18.105021">
        <ele>26</ele>
        <time>2019-12-05T08:47:14Z</time>
      </trkpt>
      <trkpt lat="59.24675" lon="18.105069">
        <ele>26</ele>
        <time>2019-12-05T08:47:15Z</time>
      </trkpt>
      <trkpt lat="59.246714" lon="18.105118">
        <ele>26</ele>
        <time>2019-12-05T08:47:16Z</time>
      </trkpt>
      <trkpt lat="59.246681" lon="18.105164">
        <ele>25</ele>
        <time>2019-12-05T08:47:18Z</time>
      </trkpt>
      <trkpt lat="59.246649" lon="18.105209">
        <ele>25</ele>
        <time>2019-12-05T08:47:18Z</time>
      </trkpt>
      <trkpt lat="59.246617" lon="18.10525">
        <ele>25</ele>
        <time>2019-12-05T08:47:19Z</time>
      </trkpt>
      <trkpt lat="59.246586" lon="18.105292">
        <ele>25</ele>
        <time>2019-12-05T08:47:20Z</time>
      </trkpt>
      <trkpt lat="59.246551" lon="18.105329">
        <ele>25</ele>
        <time>2019-12-05T08:47:21Z</time>
      </trkpt>
      <trkpt lat="59.246516" lon="18.105354">
        <ele>26</ele>
        <time>2019-12-05T08:47:22Z</time>
      </trkpt>
      <trkpt lat="59.24648" lon="18.105369">
        <ele>26</ele>
        <time>2019-12-05T08:47:23Z</time>
      </trkpt>
      <trkpt lat="59.246444" lon="18.105378">
        <ele>26</ele>
        <time>2019-12-05T08:47:24Z</time>
      </trkpt>
      <trkpt lat="59.246406" lon="18.105385">
        <ele>26</ele>
        <time>2019-12-05T08:47:25Z</time>
      </trkpt>
      <trkpt lat="59.246367" lon="18.105393">
        <ele>26</ele>
        <time>2019-12-05T08:47:26Z</time>
      </trkpt>
      <trkpt lat="59.24633" lon="18.1054">
        <ele>27</ele>
        <time>2019-12-05T08:47:28Z</time>
      </trkpt>
      <trkpt lat="59.246294" lon="18.105411">
        <ele>27</ele>
        <time>2019-12-05T08:47:28Z</time>
      </trkpt>
      <trkpt lat="59.246255" lon="18.105424">
        <ele>27</ele>
        <time>2019-12-05T08:47:29Z</time>
      </trkpt>
      <trkpt lat="59.246217" lon="18.105445">
        <ele>27</ele>
        <time>2019-12-05T08:47:31Z</time>
      </trkpt>
      <trkpt lat="59.246179" lon="18.105474">
        <ele>27</ele>
        <time>2019-12-05T08:47:31Z</time>
      </trkpt>
      <trkpt lat="59.246148" lon="18.105512">
        <ele>27</ele>
        <time>2019-12-05T08:47:32Z</time>
      </trkpt>
      <trkpt lat="59.246118" lon="18.105555">
        <ele>28</ele>
        <time>2019-12-05T08:47:33Z</time>
      </trkpt>
      <trkpt lat="59.24609" lon="18.105599">
        <ele>28</ele>
        <time>2019-12-05T08:47:34Z</time>
      </trkpt>
      <trkpt lat="59.246061" lon="18.105646">
        <ele>28</ele>
        <time>2019-12-05T08:47:35Z</time>
      </trkpt>
      <trkpt lat="59.246031" lon="18.10569">
        <ele>28</ele>
        <time>2019-12-05T08:47:36Z</time>
      </trkpt>
      <trkpt lat="59.246001" lon="18.105734">
        <ele>28</ele>
        <time>2019-12-05T08:47:37Z</time>
      </trkpt>
      <trkpt lat="59.245971" lon="18.105777">
        <ele>28</ele>
        <time>2019-12-05T08:47:38Z</time>
      </trkpt>
      <trkpt lat="59.24594" lon="18.105823">
        <ele>28</ele>
        <time>2019-12-05T08:47:39Z</time>
      </trkpt>
      <trkpt lat="59.245909" lon="18.105869">
        <ele>28</ele>
        <time>2019-12-05T08:47:41Z</time>
      </trkpt>
      <trkpt lat="59.245878" lon="18.105916">
        <ele>28</ele>
        <time>2019-12-05T08:47:41Z</time>
      </trkpt>
      <trkpt lat="59.245847" lon="18.105959">
        <ele>28</ele>
        <time>2019-12-05T08:47:42Z</time>
      </trkpt>
      <trkpt lat="59.245816" lon="18.106001">
        <ele>28</ele>
        <time>2019-12-05T08:47:43Z</time>
      </trkpt>
      <trkpt lat="59.245787" lon="18.106045">
        <ele>29</ele>
        <time>2019-12-05T08:47:45Z</time>
      </trkpt>
      <trkpt lat="59.245762" lon="18.106089">
        <ele>29</ele>
        <time>2019-12-05T08:47:45Z</time>
      </trkpt>
      <trkpt lat="59.245735" lon="18.106131">
        <ele>29</ele>
        <time>2019-12-05T08:47:47Z</time>
      </trkpt>
      <trkpt lat="59.245706" lon="18.10617">
        <ele>29</ele>
        <time>2019-12-05T08:47:47Z</time>
      </trkpt>
      <trkpt lat="59.245679" lon="18.106211">
        <ele>29</ele>
        <time>2019-12-05T08:47:48Z</time>
      </trkpt>
      <trkpt lat="59.245651" lon="18.106251">
        <ele>29</ele>
        <time>2019-12-05T08:47:49Z</time>
      </trkpt>
      <trkpt lat="59.245624" lon="18.106291">
        <ele>29</ele>
        <time>2019-12-05T08:47:50Z</time>
      </trkpt>
      <trkpt lat="59.245598" lon="18.106332">
        <ele>29</ele>
        <time>2019-12-05T08:47:51Z</time>
      </trkpt>
      <trkpt lat="59.245572" lon="18.106374">
        <ele>29</ele>
        <time>2019-12-05T08:47:52Z</time>
      </trkpt>
      <trkpt lat="59.245546" lon="18.106417">
        <ele>30</ele>
        <time>2019-12-05T08:47:53Z</time>
      </trkpt>
      <trkpt lat="59.245522" lon="18.106462">
        <ele>30</ele>
        <time>2019-12-05T08:47:54Z</time>
      </trkpt>
      <trkpt lat="59.245497" lon="18.106511">
        <ele>30</ele>
        <time>2019-12-05T08:47:55Z</time>
      </trkpt>
      <trkpt lat="59.24547" lon="18.106559">
        <ele>30</ele>
        <time>2019-12-05T08:47:56Z</time>
      </trkpt>
      <trkpt lat="59.245443" lon="18.106607">
        <ele>30</ele>
        <time>2019-12-05T08:47:57Z</time>
      </trkpt>
      <trkpt lat="59.245416" lon="18.106659">
        <ele>30</ele>
        <time>2019-12-05T08:47:59Z</time>
      </trkpt>
      <trkpt lat="59.245388" lon="18.10671">
        <ele>30</ele>
        <time>2019-12-05T08:47:59Z</time>
      </trkpt>
      <trkpt lat="59.24536" lon="18.10676">
        <ele>30</ele>
        <time>2019-12-05T08:48:00Z</time>
      </trkpt>
      <trkpt lat="59.245331" lon="18.106811">
        <ele>30</ele>
        <time>2019-12-05T08:48:01Z</time>
      </trkpt>
      <trkpt lat="59.245301" lon="18.106864">
        <ele>30</ele>
        <time>2019-12-05T08:48:02Z</time>
      </trkpt>
      <trkpt lat="59.245272" lon="18.106911">
        <ele>31</ele>
        <time>2019-12-05T08:48:03Z</time>
      </trkpt>
      <trkpt lat="59.245243" lon="18.106959">
        <ele>31</ele>
        <time>2019-12-05T08:48:04Z</time>
      </trkpt>
      <trkpt lat="59.245215" lon="18.107007">
        <ele>31</ele>
        <time>2019-12-05T08:48:06Z</time>
      </trkpt>
      <trkpt lat="59.245188" lon="18.107054">
        <ele>31</ele>
        <time>2019-12-05T08:48:06Z</time>
      </trkpt>
      <trkpt lat="59.245164" lon="18.107102">
        <ele>31</ele>
        <time>2019-12-05T08:48:07Z</time>
      </trkpt>
      <trkpt lat="59.245137" lon="18.107148">
        <ele>31</ele>
        <time>2019-12-05T08:48:08Z</time>
      </trkpt>
      <trkpt lat="59.24511" lon="18.107192">
        <ele>31</ele>
        <time>2019-12-05T08:48:09Z</time>
      </trkpt>
      <trkpt lat="59.245084" lon="18.107239">
        <ele>31</ele>
        <time>2019-12-05T08:48:10Z</time>
      </trkpt>
      <trkpt lat="59.245059" lon="18.107282">
        <ele>31</ele>
        <time>2019-12-05T08:48:11Z</time>
      </trkpt>
      <trkpt lat="59.245033" lon="18.107326">
        <ele>31</ele>
        <time>2019-12-05T08:48:13Z</time>
      </trkpt>
      <trkpt lat="59.245006" lon="18.107369">
        <ele>31</ele>
        <time>2019-12-05T08:48:13Z</time>
      </trkpt>
      <trkpt lat="59.244979" lon="18.107413">
        <ele>31</ele>
        <time>2019-12-05T08:48:14Z</time>
      </trkpt>
      <trkpt lat="59.24495" lon="18.107458">
        <ele>32</ele>
        <time>2019-12-05T08:48:15Z</time>
      </trkpt>
      <trkpt lat="59.244922" lon="18.107504">
        <ele>32</ele>
        <time>2019-12-05T08:48:16Z</time>
      </trkpt>
      <trkpt lat="59.244895" lon="18.107553">
        <ele>32</ele>
        <time>2019-12-05T08:48:17Z</time>
      </trkpt>
      <trkpt lat="59.244866" lon="18.107603">
        <ele>32</ele>
        <time>2019-12-05T08:48:18Z</time>
      </trkpt>
      <trkpt lat="59.244838" lon="18.107655">
        <ele>32</ele>
        <time>2019-12-05T08:48:19Z</time>
      </trkpt>
      <trkpt lat="59.244809" lon="18.10771">
        <ele>32</ele>
        <time>2019-12-05T08:48:20Z</time>
      </trkpt>
      <trkpt lat="59.24478" lon="18.107766">
        <ele>32</ele>
        <time>2019-12-05T08:48:21Z</time>
      </trkpt>
      <trkpt lat="59.244751" lon="18.107825">
        <ele>32</ele>
        <time>2019-12-05T08:48:22Z</time>
      </trkpt>
      <trkpt lat="59.24472" lon="18.107884">
        <ele>32</ele>
        <time>2019-12-05T08:48:23Z</time>
      </trkpt>
      <trkpt lat="59.244688" lon="18.107945">
        <ele>0</ele>
        <time>2019-12-05T08:48:24Z</time>
      </trkpt>
      <trkpt lat="59.244655" lon="18.108007">
        <ele>32</ele>
        <time>2019-12-05T08:48:25Z</time>
      </trkpt>
      <trkpt lat="59.244621" lon="18.108068">
        <ele>31</ele>
        <time>2019-12-05T08:48:26Z</time>
      </trkpt>
      <trkpt lat="59.244586" lon="18.108135">
        <ele>31</ele>
        <time>2019-12-05T08:48:27Z</time>
      </trkpt>
      <trkpt lat="59.244551" lon="18.108201">
        <ele>31</ele>
        <time>2019-12-05T08:48:28Z</time>
      </trkpt>
      <trkpt lat="59.244516" lon="18.10827">
        <ele>31</ele>
        <time>2019-12-05T08:48:29Z</time>
      </trkpt>
      <trkpt lat="59.244479" lon="18.108338">
        <ele>31</ele>
        <time>2019-12-05T08:48:30Z</time>
      </trkpt>
      <trkpt lat="59.244441" lon="18.108408">
        <ele>31</ele>
        <time>2019-12-05T08:48:31Z</time>
      </trkpt>
      <trkpt lat="59.244404" lon="18.10848">
        <ele>31</ele>
        <time>2019-12-05T08:48:32Z</time>
      </trkpt>
      <trkpt lat="59.244366" lon="18.108551">
        <ele>31</ele>
        <time>2019-12-05T08:48:33Z</time>
      </trkpt>
      <trkpt lat="59.244328" lon="18.108625">
        <ele>31</ele>
        <time>2019-12-05T08:48:35Z</time>
      </trkpt>
      <trkpt lat="59.244291" lon="18.108701">
        <ele>30</ele>
        <time>2019-12-05T08:48:35Z</time>
      </trkpt>
      <trkpt lat="59.244253" lon="18.108776">
        <ele>30</ele>
        <time>2019-12-05T08:48:36Z</time>
      </trkpt>
      <trkpt lat="59.244215" lon="18.108852">
        <ele>30</ele>
        <time>2019-12-05T08:48:37Z</time>
      </trkpt>
      <trkpt lat="59.244177" lon="18.108933">
        <ele>30</ele>
        <time>2019-12-05T08:48:38Z</time>
      </trkpt>
      <trkpt lat="59.244138" lon="18.109017">
        <ele>30</ele>
        <time>2019-12-05T08:48:39Z</time>
      </trkpt>
      <trkpt lat="59.244102" lon="18.109105">
        <ele>30</ele>
        <time>2019-12-05T08:48:40Z</time>
      </trkpt>
      <trkpt lat="59.244069" lon="18.109199">
        <ele>30</ele>
        <time>2019-12-05T08:48:41Z</time>
      </trkpt>
      <trkpt lat="59.244038" lon="18.1093">
        <ele>30</ele>
        <time>2019-12-05T08:48:42Z</time>
      </trkpt>
      <trkpt lat="59.244012" lon="18.109406">
        <ele>0</ele>
        <time>2019-12-05T08:48:43Z</time>
      </trkpt>
      <trkpt lat="59.243987" lon="18.109512">
        <ele>30</ele>
        <time>2019-12-05T08:48:44Z</time>
      </trkpt>
      <trkpt lat="59.243967" lon="18.109624">
        <ele>30</ele>
        <time>2019-12-05T08:48:45Z</time>
      </trkpt>
      <trkpt lat="59.24395" lon="18.109738">
        <ele>30</ele>
        <time>2019-12-05T08:48:46Z</time>
      </trkpt>
      <trkpt lat="59.243936" lon="18.109855">
        <ele>30</ele>
        <time>2019-12-05T08:48:47Z</time>
      </trkpt>
      <trkpt lat="59.243927" lon="18.109976">
        <ele>30</ele>
        <time>2019-12-05T08:48:48Z</time>
      </trkpt>
      <trkpt lat="59.243919" lon="18.110098">
        <ele>30</ele>
        <time>2019-12-05T08:48:49Z</time>
      </trkpt>
      <trkpt lat="59.243913" lon="18.110225">
        <ele>30</ele>
        <time>2019-12-05T08:48:50Z</time>
      </trkpt>
      <trkpt lat="59.24391" lon="18.110353">
        <ele>29</ele>
        <time>2019-12-05T08:48:52Z</time>
      </trkpt>
      <trkpt lat="59.243909" lon="18.110482">
        <ele>29</ele>
        <time>2019-12-05T08:48:52Z</time>
      </trkpt>
      <trkpt lat="59.243908" lon="18.110612">
        <ele>29</ele>
        <time>2019-12-05T08:48:53Z</time>
      </trkpt>
      <trkpt lat="59.243907" lon="18.110743">
        <ele>29</ele>
        <time>2019-12-05T08:48:54Z</time>
      </trkpt>
      <trkpt lat="59.243906" lon="18.110874">
        <ele>29</ele>
        <time>2019-12-05T08:48:55Z</time>
      </trkpt>
      <trkpt lat="59.243904" lon="18.111007">
        <ele>28</ele>
        <time>2019-12-05T08:48:56Z</time>
      </trkpt>
      <trkpt lat="59.243901" lon="18.111143">
        <ele>28</ele>
        <time>2019-12-05T08:48:57Z</time>
      </trkpt>
      <trkpt lat="59.243899" lon="18.111282">
        <ele>28</ele>
        <time>2019-12-05T08:48:59Z</time>
      </trkpt>
      <trkpt lat="59.243898" lon="18.11142">
        <ele>28</ele>
        <time>2019-12-05T08:48:59Z</time>
      </trkpt>
      <trkpt lat="59.243899" lon="18.11156">
        <ele>28</ele>
        <time>2019-12-05T08:49:00Z</time>
      </trkpt>
      <trkpt lat="59.243898" lon="18.111699">
        <ele>27</ele>
        <time>2019-12-05T08:49:01Z</time>
      </trkpt>
      <trkpt lat="59.243898" lon="18.11184">
        <ele>27</ele>
        <time>2019-12-05T08:49:03Z</time>
      </trkpt>
      <trkpt lat="59.243898" lon="18.111981">
        <ele>26</ele>
        <time>2019-12-05T08:49:03Z</time>
      </trkpt>
      <trkpt lat="59.243898" lon="18.112123">
        <ele>26</ele>
        <time>2019-12-05T08:49:04Z</time>
      </trkpt>
      <trkpt lat="59.243897" lon="18.112264">
        <ele>26</ele>
        <time>2019-12-05T08:49:06Z</time>
      </trkpt>
      <trkpt lat="59.243895" lon="18.112403">
        <ele>26</ele>
        <time>2019-12-05T08:49:06Z</time>
      </trkpt>
      <trkpt lat="59.243892" lon="18.11254">
        <ele>26</ele>
        <time>2019-12-05T08:49:07Z</time>
      </trkpt>
      <trkpt lat="59.243889" lon="18.112677">
        <ele>26</ele>
        <time>2019-12-05T08:49:08Z</time>
      </trkpt>
      <trkpt lat="59.243885" lon="18.112813">
        <ele>26</ele>
        <time>2019-12-05T08:49:09Z</time>
      </trkpt>
      <trkpt lat="59.243879" lon="18.112949">
        <ele>26</ele>
        <time>2019-12-05T08:49:10Z</time>
      </trkpt>
      <trkpt lat="59.24387" lon="18.113083">
        <ele>26</ele>
        <time>2019-12-05T08:49:11Z</time>
      </trkpt>
      <trkpt lat="59.243859" lon="18.113216">
        <ele>26</ele>
        <time>2019-12-05T08:49:13Z</time>
      </trkpt>
      <trkpt lat="59.243849" lon="18.11335">
        <ele>26</ele>
        <time>2019-12-05T08:49:13Z</time>
      </trkpt>
      <trkpt lat="59.243837" lon="18.113481">
        <ele>26</ele>
        <time>2019-12-05T08:49:14Z</time>
      </trkpt>
      <trkpt lat="59.243824" lon="18.113612">
        <ele>26</ele>
        <time>2019-12-05T08:49:15Z</time>
      </trkpt>
      <trkpt lat="59.243809" lon="18.113742">
        <ele>26</ele>
        <time>2019-12-05T08:49:16Z</time>
      </trkpt>
      <trkpt lat="59.243794" lon="18.113868">
        <ele>26</ele>
        <time>2019-12-05T08:49:17Z</time>
      </trkpt>
      <trkpt lat="59.243778" lon="18.113991">
        <ele>26</ele>
        <time>2019-12-05T08:49:18Z</time>
      </trkpt>
      <trkpt lat="59.24376" lon="18.11411">
        <ele>26</ele>
        <time>2019-12-05T08:49:19Z</time>
      </trkpt>
      <trkpt lat="59.243742" lon="18.114228">
        <ele>26</ele>
        <time>2019-12-05T08:49:21Z</time>
      </trkpt>
      <trkpt lat="59.243724" lon="18.114343">
        <ele>26</ele>
        <time>2019-12-05T08:49:22Z</time>
      </trkpt>
      <trkpt lat="59.243706" lon="18.114458">
        <ele>26</ele>
        <time>2019-12-05T08:49:22Z</time>
      </trkpt>
      <trkpt lat="59.243687" lon="18.114569">
        <ele>26</ele>
        <time>2019-12-05T08:49:23Z</time>
      </trkpt>
      <trkpt lat="59.243667" lon="18.11468">
        <ele>26</ele>
        <time>2019-12-05T08:49:24Z</time>
      </trkpt>
      <trkpt lat="59.243646" lon="18.114789">
        <ele>26</ele>
        <time>2019-12-05T08:49:25Z</time>
      </trkpt>
      <trkpt lat="59.243625" lon="18.114899">
        <ele>26</ele>
        <time>2019-12-05T08:49:26Z</time>
      </trkpt>
      <trkpt lat="59.243607" lon="18.115013">
        <ele>26</ele>
        <time>2019-12-05T08:49:27Z</time>
      </trkpt>
      <trkpt lat="59.243594" lon="18.115136">
        <ele>26</ele>
        <time>2019-12-05T08:49:29Z</time>
      </trkpt>
      <trkpt lat="59.243583" lon="18.115258">
        <ele>26</ele>
        <time>2019-12-05T08:49:29Z</time>
      </trkpt>
      <trkpt lat="59.243571" lon="18.115384">
        <ele>25</ele>
        <time>2019-12-05T08:49:30Z</time>
      </trkpt>
      <trkpt lat="59.243555" lon="18.115512">
        <ele>25</ele>
        <time>2019-12-05T08:49:31Z</time>
      </trkpt>
      <trkpt lat="59.243533" lon="18.115637">
        <ele>25</ele>
        <time>2019-12-05T08:49:32Z</time>
      </trkpt>
      <trkpt lat="59.243503" lon="18.115757">
        <ele>25</ele>
        <time>2019-12-05T08:49:33Z</time>
      </trkpt>
      <trkpt lat="59.243469" lon="18.115871">
        <ele>24</ele>
        <time>2019-12-05T08:49:34Z</time>
      </trkpt>
      <trkpt lat="59.243434" lon="18.115981">
        <ele>24</ele>
        <time>2019-12-05T08:49:36Z</time>
      </trkpt>
      <trkpt lat="59.243399" lon="18.116092">
        <ele>24</ele>
        <time>2019-12-05T08:49:36Z</time>
      </trkpt>
      <trkpt lat="59.243364" lon="18.116203">
        <ele>24</ele>
        <time>2019-12-05T08:49:37Z</time>
      </trkpt>
      <trkpt lat="59.24333" lon="18.116313">
        <ele>24</ele>
        <time>2019-12-05T08:49:38Z</time>
      </trkpt>
      <trkpt lat="59.243296" lon="18.116421">
        <ele>23</ele>
        <time>2019-12-05T08:49:39Z</time>
      </trkpt>
      <trkpt lat="59.243262" lon="18.116528">
        <ele>23</ele>
        <time>2019-12-05T08:49:41Z</time>
      </trkpt>
      <trkpt lat="59.24323" lon="18.116634">
        <ele>23</ele>
        <time>2019-12-05T08:49:41Z</time>
      </trkpt>
      <trkpt lat="59.243198" lon="18.11674">
        <ele>23</ele>
        <time>2019-12-05T08:49:42Z</time>
      </trkpt>
      <trkpt lat="59.243166" lon="18.116846">
        <ele>23</ele>
        <time>2019-12-05T08:49:44Z</time>
      </trkpt>
      <trkpt lat="59.243133" lon="18.116951">
        <ele>23</ele>
        <time>2019-12-05T08:49:44Z</time>
      </trkpt>
      <trkpt lat="59.2431" lon="18.117054">
        <ele>22</ele>
        <time>2019-12-05T08:49:45Z</time>
      </trkpt>
      <trkpt lat="59.243066" lon="18.117158">
        <ele>22</ele>
        <time>2019-12-05T08:49:46Z</time>
      </trkpt>
      <trkpt lat="59.243032" lon="18.117262">
        <ele>22</ele>
        <time>2019-12-05T08:49:47Z</time>
      </trkpt>
      <trkpt lat="59.242999" lon="18.117368">
        <ele>22</ele>
        <time>2019-12-05T08:49:48Z</time>
      </trkpt>
      <trkpt lat="59.242967" lon="18.117475">
        <ele>22</ele>
        <time>2019-12-05T08:49:49Z</time>
      </trkpt>
      <trkpt lat="59.242935" lon="18.117581">
        <ele>22</ele>
        <time>2019-12-05T08:49:50Z</time>
      </trkpt>
      <trkpt lat="59.242903" lon="18.117686">
        <ele>22</ele>
        <time>2019-12-05T08:49:52Z</time>
      </trkpt>
      <trkpt lat="59.242871" lon="18.117791">
        <ele>22</ele>
        <time>2019-12-05T08:49:52Z</time>
      </trkpt>
      <trkpt lat="59.242839" lon="18.117895">
        <ele>22</ele>
        <time>2019-12-05T08:49:53Z</time>
      </trkpt>
      <trkpt lat="59.242806" lon="18.117996">
        <ele>22</ele>
        <time>2019-12-05T08:49:54Z</time>
      </trkpt>
      <trkpt lat="59.242775" lon="18.118095">
        <ele>22</ele>
        <time>2019-12-05T08:49:55Z</time>
      </trkpt>
      <trkpt lat="59.242744" lon="18.118191">
        <ele>22</ele>
        <time>2019-12-05T08:49:56Z</time>
      </trkpt>
      <trkpt lat="59.242714" lon="18.118286">
        <ele>22</ele>
        <time>2019-12-05T08:49:57Z</time>
      </trkpt>
      <trkpt lat="59.242685" lon="18.118378">
        <ele>22</ele>
        <time>2019-12-05T08:49:58Z</time>
      </trkpt>
      <trkpt lat="59.242655" lon="18.118469">
        <ele>22</ele>
        <time>2019-12-05T08:50:00Z</time>
      </trkpt>
      <trkpt lat="59.242624" lon="18.11856">
        <ele>22</ele>
        <time>2019-12-05T08:50:01Z</time>
      </trkpt>
      <trkpt lat="59.242592" lon="18.11865">
        <ele>22</ele>
        <time>2019-12-05T08:50:01Z</time>
      </trkpt>
      <trkpt lat="59.242558" lon="18.118738">
        <ele>22</ele>
        <time>2019-12-05T08:50:02Z</time>
      </trkpt>
      <trkpt lat="59.242523" lon="18.118823">
        <ele>22</ele>
        <time>2019-12-05T08:50:03Z</time>
      </trkpt>
      <trkpt lat="59.242486" lon="18.118901">
        <ele>23</ele>
        <time>2019-12-05T08:50:04Z</time>
      </trkpt>
      <trkpt lat="59.242444" lon="18.118968">
        <ele>23</ele>
        <time>2019-12-05T08:50:05Z</time>
      </trkpt>
      <trkpt lat="59.242402" lon="18.119027">
        <ele>23</ele>
        <time>2019-12-05T08:50:06Z</time>
      </trkpt>
      <trkpt lat="59.242358" lon="18.119076">
        <ele>23</ele>
        <time>2019-12-05T08:50:07Z</time>
      </trkpt>
      <trkpt lat="59.242314" lon="18.11912">
        <ele>23</ele>
        <time>2019-12-05T08:50:08Z</time>
      </trkpt>
      <trkpt lat="59.242272" lon="18.11916">
        <ele>23</ele>
        <time>2019-12-05T08:50:10Z</time>
      </trkpt>
      <trkpt lat="59.242232" lon="18.119196">
        <ele>23</ele>
        <time>2019-12-05T08:50:10Z</time>
      </trkpt>
      <trkpt lat="59.242192" lon="18.11923">
        <ele>23</ele>
        <time>2019-12-05T08:50:11Z</time>
      </trkpt>
      <trkpt lat="59.24215" lon="18.119261">
        <ele>23</ele>
        <time>2019-12-05T08:50:12Z</time>
      </trkpt>
      <trkpt lat="59.242108" lon="18.119289">
        <ele>23</ele>
        <time>2019-12-05T08:50:13Z</time>
      </trkpt>
      <trkpt lat="59.242068" lon="18.119312">
        <ele>23</ele>
        <time>2019-12-05T08:50:14Z</time>
      </trkpt>
      <trkpt lat="59.242027" lon="18.119331">
        <ele>24</ele>
        <time>2019-12-05T08:50:15Z</time>
      </trkpt>
      <trkpt lat="59.241991" lon="18.119351">
        <ele>24</ele>
        <time>2019-12-05T08:50:16Z</time>
      </trkpt>
      <trkpt lat="59.241954" lon="18.119372">
        <ele>24</ele>
        <time>2019-12-05T08:50:17Z</time>
      </trkpt>
      <trkpt lat="59.241917" lon="18.119397">
        <ele>24</ele>
        <time>2019-12-05T08:50:19Z</time>
      </trkpt>
      <trkpt lat="59.24188" lon="18.119424">
        <ele>24</ele>
        <time>2019-12-05T08:50:19Z</time>
      </trkpt>
      <trkpt lat="59.241844" lon="18.119446">
        <ele>24</ele>
        <time>2019-12-05T08:50:20Z</time>
      </trkpt>
      <trkpt lat="59.241808" lon="18.119455">
        <ele>24</ele>
        <time>2019-12-05T08:50:21Z</time>
      </trkpt>
      <trkpt lat="59.241768" lon="18.119438">
        <ele>24</ele>
        <time>2019-12-05T08:50:23Z</time>
      </trkpt>
      <trkpt lat="59.241727" lon="18.1194">
        <ele>24</ele>
        <time>2019-12-05T08:50:23Z</time>
      </trkpt>
      <trkpt lat="59.241684" lon="18.11936">
        <ele>24</ele>
        <time>2019-12-05T08:50:24Z</time>
      </trkpt>
      <trkpt lat="59.241638" lon="18.11933">
        <ele>24</ele>
        <time>2019-12-05T08:50:25Z</time>
      </trkpt>
      <trkpt lat="59.241588" lon="18.119313">
        <ele>24</ele>
        <time>2019-12-05T08:50:26Z</time>
      </trkpt>
      <trkpt lat="59.24154" lon="18.119305">
        <ele>24</ele>
        <time>2019-12-05T08:50:27Z</time>
      </trkpt>
      <trkpt lat="59.241492" lon="18.119295">
        <ele>24</ele>
        <time>2019-12-05T08:50:28Z</time>
      </trkpt>
      <trkpt lat="59.241447" lon="18.11928">
        <ele>23</ele>
        <time>2019-12-05T08:50:29Z</time>
      </trkpt>
      <trkpt lat="59.241398" lon="18.119261">
        <ele>23</ele>
        <time>2019-12-05T08:50:30Z</time>
      </trkpt>
      <trkpt lat="59.24135" lon="18.119228">
        <ele>23</ele>
        <time>2019-12-05T08:50:31Z</time>
      </trkpt>
      <trkpt lat="59.24129" lon="18.119197">
        <ele>23</ele>
        <time>2019-12-05T08:50:33Z</time>
      </trkpt>
      <trkpt lat="59.241238" lon="18.119199">
        <ele>23</ele>
        <time>2019-12-05T08:50:33Z</time>
      </trkpt>
      <trkpt lat="59.241194" lon="18.119233">
        <ele>23</ele>
        <time>2019-12-05T08:50:34Z</time>
      </trkpt>
      <trkpt lat="59.24116" lon="18.119282">
        <ele>23</ele>
        <time>2019-12-05T08:50:35Z</time>
      </trkpt>
      <trkpt lat="59.241145" lon="18.119342">
        <ele>23</ele>
        <time>2019-12-05T08:50:36Z</time>
      </trkpt>
      <trkpt lat="59.241145" lon="18.11941">
        <ele>23</ele>
        <time>2019-12-05T08:50:38Z</time>
      </trkpt>
      <trkpt lat="59.241152" lon="18.119479">
        <ele>23</ele>
        <time>2019-12-05T08:50:38Z</time>
      </trkpt>
      <trkpt lat="59.24116" lon="18.119558">
        <ele>23</ele>
        <time>2019-12-05T08:50:39Z</time>
      </trkpt>
      <trkpt lat="59.241164" lon="18.11964">
        <ele>23</ele>
        <time>2019-12-05T08:50:40Z</time>
      </trkpt>
      <trkpt lat="59.241162" lon="18.119716">
        <ele>23</ele>
        <time>2019-12-05T08:50:41Z</time>
      </trkpt>
      <trkpt lat="59.24115" lon="18.119753">
        <ele>23</ele>
        <time>2019-12-05T08:50:42Z</time>
      </trkpt>
      <trkpt lat="59.241126" lon="18.119758">
        <ele>23</ele>
        <time>2019-12-05T08:50:43Z</time>
      </trkpt>
      <trkpt lat="59.241094" lon="18.119755">
        <ele>23</ele>
        <time>2019-12-05T08:50:44Z</time>
      </trkpt>
      <trkpt lat="59.241064" lon="18.119738">
        <ele>22</ele>
        <time>2019-12-05T08:50:46Z</time>
      </trkpt>
      <trkpt lat="59.24102" lon="18.119698">
        <ele>22</ele>
        <time>2019-12-05T08:50:46Z</time>
      </trkpt>
      <trkpt lat="59.24097" lon="18.119652">
        <ele>22</ele>
        <time>2019-12-05T08:50:47Z</time>
      </trkpt>
      <trkpt lat="59.24093" lon="18.119612">
        <ele>22</ele>
        <time>2019-12-05T08:50:48Z</time>
      </trkpt>
      <trkpt lat="59.240879" lon="18.119571">
        <ele>22</ele>
        <time>2019-12-05T08:50:49Z</time>
      </trkpt>
      <trkpt lat="59.240826" lon="18.119546">
        <ele>22</ele>
        <time>2019-12-05T08:50:50Z</time>
      </trkpt>
      <trkpt lat="59.240771" lon="18.119534">
        <ele>22</ele>
        <time>2019-12-05T08:50:51Z</time>
      </trkpt>
      <trkpt lat="59.240718" lon="18.11953">
        <ele>22</ele>
        <time>2019-12-05T08:50:52Z</time>
      </trkpt>
      <trkpt lat="59.240668" lon="18.119533">
        <ele>22</ele>
        <time>2019-12-05T08:50:53Z</time>
      </trkpt>
      <trkpt lat="59.240616" lon="18.119545">
        <ele>22</ele>
        <time>2019-12-05T08:50:54Z</time>
      </trkpt>
      <trkpt lat="59.240568" lon="18.119546">
        <ele>22</ele>
        <time>2019-12-05T08:50:56Z</time>
      </trkpt>
      <trkpt lat="59.24052" lon="18.119519">
        <ele>22</ele>
        <time>2019-12-05T08:50:57Z</time>
      </trkpt>
      <trkpt lat="59.240482" lon="18.119471">
        <ele>22</ele>
        <time>2019-12-05T08:50:57Z</time>
      </trkpt>
      <trkpt lat="59.240448" lon="18.119419">
        <ele>22</ele>
        <time>2019-12-05T08:50:58Z</time>
      </trkpt>
      <trkpt lat="59.240408" lon="18.119387">
        <ele>22</ele>
        <time>2019-12-05T08:50:59Z</time>
      </trkpt>
      <trkpt lat="59.240366" lon="18.119377">
        <ele>22</ele>
        <time>2019-12-05T08:51:00Z</time>
      </trkpt>
      <trkpt lat="59.240324" lon="18.119382">
        <ele>22</ele>
        <time>2019-12-05T08:51:01Z</time>
      </trkpt>
      <trkpt lat="59.240278" lon="18.119397">
        <ele>22</ele>
        <time>2019-12-05T08:51:02Z</time>
      </trkpt>
      <trkpt lat="59.240232" lon="18.119416">
        <ele>22</ele>
        <time>2019-12-05T08:51:03Z</time>
      </trkpt>
      <trkpt lat="59.240185" lon="18.119439">
        <ele>22</ele>
        <time>2019-12-05T08:51:04Z</time>
      </trkpt>
      <trkpt lat="59.240137" lon="18.119461">
        <ele>22</ele>
        <time>2019-12-05T08:51:05Z</time>
      </trkpt>
      <trkpt lat="59.240089" lon="18.119485">
        <ele>22</ele>
        <time>2019-12-05T08:51:07Z</time>
      </trkpt>
      <trkpt lat="59.240041" lon="18.119508">
        <ele>22</ele>
        <time>2019-12-05T08:51:07Z</time>
      </trkpt>
      <trkpt lat="59.239991" lon="18.119528">
        <ele>22</ele>
        <time>2019-12-05T08:51:08Z</time>
      </trkpt>
      <trkpt lat="59.239942" lon="18.119546">
        <ele>22</ele>
        <time>2019-12-05T08:51:09Z</time>
      </trkpt>
      <trkpt lat="59.239893" lon="18.119563">
        <ele>22</ele>
        <time>2019-12-05T08:51:10Z</time>
      </trkpt>
      <trkpt lat="59.239844" lon="18.119578">
        <ele>22</ele>
        <time>2019-12-05T08:51:11Z</time>
      </trkpt>
      <trkpt lat="59.239797" lon="18.119596">
        <ele>22</ele>
        <time>2019-12-05T08:51:12Z</time>
      </trkpt>
      <trkpt lat="59.23975" lon="18.119619">
        <ele>22</ele>
        <time>2019-12-05T08:51:13Z</time>
      </trkpt>
      <trkpt lat="59.239704" lon="18.119639">
        <ele>22</ele>
        <time>2019-12-05T08:51:14Z</time>
      </trkpt>
      <trkpt lat="59.239657" lon="18.119657">
        <ele>22</ele>
        <time>2019-12-05T08:51:16Z</time>
      </trkpt>
      <trkpt lat="59.239612" lon="18.119673">
        <ele>22</ele>
        <time>2019-12-05T08:51:17Z</time>
      </trkpt>
      <trkpt lat="59.239567" lon="18.11969">
        <ele>22</ele>
        <time>2019-12-05T08:51:17Z</time>
      </trkpt>
      <trkpt lat="59.239522" lon="18.119708">
        <ele>23</ele>
        <time>2019-12-05T08:51:18Z</time>
      </trkpt>
      <trkpt lat="59.239477" lon="18.119725">
        <ele>23</ele>
        <time>2019-12-05T08:51:19Z</time>
      </trkpt>
      <trkpt lat="59.239432" lon="18.119741">
        <ele>23</ele>
        <time>2019-12-05T08:51:20Z</time>
      </trkpt>
      <trkpt lat="59.239386" lon="18.119756">
        <ele>23</ele>
        <time>2019-12-05T08:51:21Z</time>
      </trkpt>
      <trkpt lat="59.239341" lon="18.119771">
        <ele>23</ele>
        <time>2019-12-05T08:51:22Z</time>
      </trkpt>
      <trkpt lat="59.239296" lon="18.119785">
        <ele>23</ele>
        <time>2019-12-05T08:51:23Z</time>
      </trkpt>
      <trkpt lat="59.239251" lon="18.119797">
        <ele>23</ele>
        <time>2019-12-05T08:51:24Z</time>
      </trkpt>
      <trkpt lat="59.239206" lon="18.119809">
        <ele>23</ele>
        <time>2019-12-05T08:51:25Z</time>
      </trkpt>
      <trkpt lat="59.23916" lon="18.119815">
        <ele>23</ele>
        <time>2019-12-05T08:51:26Z</time>
      </trkpt>
      <trkpt lat="59.239114" lon="18.119822">
        <ele>23</ele>
        <time>2019-12-05T08:51:28Z</time>
      </trkpt>
      <trkpt lat="59.239068" lon="18.119828">
        <ele>23</ele>
        <time>2019-12-05T08:51:28Z</time>
      </trkpt>
      <trkpt lat="59.23902" lon="18.119831">
        <ele>23</ele>
        <time>2019-12-05T08:51:29Z</time>
      </trkpt>
      <trkpt lat="59.238973" lon="18.119831">
        <ele>23</ele>
        <time>2019-12-05T08:51:30Z</time>
      </trkpt>
      <trkpt lat="59.238927" lon="18.11983">
        <ele>23</ele>
        <time>2019-12-05T08:51:31Z</time>
      </trkpt>
      <trkpt lat="59.238881" lon="18.119828">
        <ele>23</ele>
        <time>2019-12-05T08:51:32Z</time>
      </trkpt>
      <trkpt lat="59.238836" lon="18.119823">
        <ele>23</ele>
        <time>2019-12-05T08:51:33Z</time>
      </trkpt>
      <trkpt lat="59.238791" lon="18.119818">
        <ele>23</ele>
        <time>2019-12-05T08:51:35Z</time>
      </trkpt>
      <trkpt lat="59.238747" lon="18.119812">
        <ele>23</ele>
        <time>2019-12-05T08:51:35Z</time>
      </trkpt>
      <trkpt lat="59.238704" lon="18.119805">
        <ele>23</ele>
        <time>2019-12-05T08:51:36Z</time>
      </trkpt>
      <trkpt lat="59.23866" lon="18.119798">
        <ele>23</ele>
        <time>2019-12-05T08:51:37Z</time>
      </trkpt>
      <trkpt lat="59.238618" lon="18.119791">
        <ele>23</ele>
        <time>2019-12-05T08:51:39Z</time>
      </trkpt>
      <trkpt lat="59.238577" lon="18.119786">
        <ele>23</ele>
        <time>2019-12-05T08:51:39Z</time>
      </trkpt>
      <trkpt lat="59.238536" lon="18.119781">
        <ele>23</ele>
        <time>2019-12-05T08:51:40Z</time>
      </trkpt>
      <trkpt lat="59.238496" lon="18.119775">
        <ele>24</ele>
        <time>2019-12-05T08:51:41Z</time>
      </trkpt>
      <trkpt lat="59.238454" lon="18.119769">
        <ele>24</ele>
        <time>2019-12-05T08:51:42Z</time>
      </trkpt>
      <trkpt lat="59.238413" lon="18.119763">
        <ele>24</ele>
        <time>2019-12-05T08:51:43Z</time>
      </trkpt>
      <trkpt lat="59.238371" lon="18.119756">
        <ele>24</ele>
        <time>2019-12-05T08:51:44Z</time>
      </trkpt>
      <trkpt lat="59.238331" lon="18.119749">
        <ele>24</ele>
        <time>2019-12-05T08:51:45Z</time>
      </trkpt>
      <trkpt lat="59.23829" lon="18.119742">
        <ele>24</ele>
        <time>2019-12-05T08:51:46Z</time>
      </trkpt>
      <trkpt lat="59.238248" lon="18.119734">
        <ele>25</ele>
        <time>2019-12-05T08:51:47Z</time>
      </trkpt>
      <trkpt lat="59.238206" lon="18.119729">
        <ele>25</ele>
        <time>2019-12-05T08:51:48Z</time>
      </trkpt>
      <trkpt lat="59.238164" lon="18.119724">
        <ele>25</ele>
        <time>2019-12-05T08:51:49Z</time>
      </trkpt>
      <trkpt lat="59.238123" lon="18.119717">
        <ele>25</ele>
        <time>2019-12-05T08:51:51Z</time>
      </trkpt>
      <trkpt lat="59.238082" lon="18.119709">
        <ele>25</ele>
        <time>2019-12-05T08:51:51Z</time>
      </trkpt>
      <trkpt lat="59.23804" lon="18.119701">
        <ele>25</ele>
        <time>2019-12-05T08:51:52Z</time>
      </trkpt>
      <trkpt lat="59.237999" lon="18.119695">
        <ele>25</ele>
        <time>2019-12-05T08:51:54Z</time>
      </trkpt>
      <trkpt lat="59.237959" lon="18.11969">
        <ele>25</ele>
        <time>2019-12-05T08:51:54Z</time>
      </trkpt>
      <trkpt lat="59.237918" lon="18.119684">
        <ele>25</ele>
        <time>2019-12-05T08:51:55Z</time>
      </trkpt>
      <trkpt lat="59.237876" lon="18.119678">
        <ele>25</ele>
        <time>2019-12-05T08:51:56Z</time>
      </trkpt>
      <trkpt lat="59.237834" lon="18.119675">
        <ele>25</ele>
        <time>2019-12-05T08:51:57Z</time>
      </trkpt>
      <trkpt lat="59.237791" lon="18.119671">
        <ele>25</ele>
        <time>2019-12-05T08:51:58Z</time>
      </trkpt>
      <trkpt lat="59.237748" lon="18.119664">
        <ele>25</ele>
        <time>2019-12-05T08:51:59Z</time>
      </trkpt>
      <trkpt lat="59.237706" lon="18.119657">
        <ele>25</ele>
        <time>2019-12-05T08:52:00Z</time>
      </trkpt>
      <trkpt lat="59.237664" lon="18.119651">
        <ele>25</ele>
        <time>2019-12-05T08:52:01Z</time>
      </trkpt>
      <trkpt lat="59.237624" lon="18.119645">
        <ele>25</ele>
        <time>2019-12-05T08:52:03Z</time>
      </trkpt>
      <trkpt lat="59.237583" lon="18.119639">
        <ele>25</ele>
        <time>2019-12-05T08:52:03Z</time>
      </trkpt>
      <trkpt lat="59.237541" lon="18.119635">
        <ele>25</ele>
        <time>2019-12-05T08:52:04Z</time>
      </trkpt>
      <trkpt lat="59.237499" lon="18.119631">
        <ele>25</ele>
        <time>2019-12-05T08:52:05Z</time>
      </trkpt>
      <trkpt lat="59.237456" lon="18.119625">
        <ele>25</ele>
        <time>2019-12-05T08:52:06Z</time>
      </trkpt>
      <trkpt lat="59.237413" lon="18.119619">
        <ele>25</ele>
        <time>2019-12-05T08:52:07Z</time>
      </trkpt>
      <trkpt lat="59.23737" lon="18.119613">
        <ele>25</ele>
        <time>2019-12-05T08:52:08Z</time>
      </trkpt>
      <trkpt lat="59.237328" lon="18.119604">
        <ele>25</ele>
        <time>2019-12-05T08:52:09Z</time>
      </trkpt>
      <trkpt lat="59.237287" lon="18.119596">
        <ele>26</ele>
        <time>2019-12-05T08:52:10Z</time>
      </trkpt>
      <trkpt lat="59.237245" lon="18.119589">
        <ele>26</ele>
        <time>2019-12-05T08:52:11Z</time>
      </trkpt>
      <trkpt lat="59.237203" lon="18.119583">
        <ele>26</ele>
        <time>2019-12-05T08:52:13Z</time>
      </trkpt>
      <trkpt lat="59.237162" lon="18.119576">
        <ele>26</ele>
        <time>2019-12-05T08:52:13Z</time>
      </trkpt>
      <trkpt lat="59.23712" lon="18.119568">
        <ele>26</ele>
        <time>2019-12-05T08:52:15Z</time>
      </trkpt>
      <trkpt lat="59.237076" lon="18.11956">
        <ele>26</ele>
        <time>2019-12-05T08:52:15Z</time>
      </trkpt>
      <trkpt lat="59.237031" lon="18.119553">
        <ele>26</ele>
        <time>2019-12-05T08:52:16Z</time>
      </trkpt>
      <trkpt lat="59.236988" lon="18.119547">
        <ele>26</ele>
        <time>2019-12-05T08:52:17Z</time>
      </trkpt>
      <trkpt lat="59.236945" lon="18.119542">
        <ele>26</ele>
        <time>2019-12-05T08:52:18Z</time>
      </trkpt>
      <trkpt lat="59.236901" lon="18.119539">
        <ele>26</ele>
        <time>2019-12-05T08:52:19Z</time>
      </trkpt>
      <trkpt lat="59.236854" lon="18.119534">
        <ele>26</ele>
        <time>2019-12-05T08:52:20Z</time>
      </trkpt>
      <trkpt lat="59.236808" lon="18.119531">
        <ele>26</ele>
        <time>2019-12-05T08:52:21Z</time>
      </trkpt>
      <trkpt lat="59.23676" lon="18.119527">
        <ele>26</ele>
        <time>2019-12-05T08:52:22Z</time>
      </trkpt>
      <trkpt lat="59.236715" lon="18.119526">
        <ele>26</ele>
        <time>2019-12-05T08:52:23Z</time>
      </trkpt>
      <trkpt lat="59.236671" lon="18.119526">
        <ele>26</ele>
        <time>2019-12-05T08:52:24Z</time>
      </trkpt>
      <trkpt lat="59.236627" lon="18.119527">
        <ele>26</ele>
        <time>2019-12-05T08:52:26Z</time>
      </trkpt>
      <trkpt lat="59.236583" lon="18.11953">
        <ele>26</ele>
        <time>2019-12-05T08:52:26Z</time>
      </trkpt>
      <trkpt lat="59.236539" lon="18.119533">
        <ele>26</ele>
        <time>2019-12-05T08:52:27Z</time>
      </trkpt>
      <trkpt lat="59.236495" lon="18.119539">
        <ele>26</ele>
        <time>2019-12-05T08:52:28Z</time>
      </trkpt>
      <trkpt lat="59.236451" lon="18.119545">
        <ele>26</ele>
        <time>2019-12-05T08:52:29Z</time>
      </trkpt>
      <trkpt lat="59.236407" lon="18.119549">
        <ele>26</ele>
        <time>2019-12-05T08:52:30Z</time>
      </trkpt>
      <trkpt lat="59.236365" lon="18.119554">
        <ele>26</ele>
        <time>2019-12-05T08:52:32Z</time>
      </trkpt>
      <trkpt lat="59.236323" lon="18.119562">
        <ele>26</ele>
        <time>2019-12-05T08:52:32Z</time>
      </trkpt>
      <trkpt lat="59.236281" lon="18.11957">
        <ele>26</ele>
        <time>2019-12-05T08:52:33Z</time>
      </trkpt>
      <trkpt lat="59.236237" lon="18.119577">
        <ele>26</ele>
        <time>2019-12-05T08:52:34Z</time>
      </trkpt>
      <trkpt lat="59.236193" lon="18.119586">
        <ele>26</ele>
        <time>2019-12-05T08:52:35Z</time>
      </trkpt>
      <trkpt lat="59.236149" lon="18.119596">
        <ele>26</ele>
        <time>2019-12-05T08:52:37Z</time>
      </trkpt>
      <trkpt lat="59.236105" lon="18.119607">
        <ele>26</ele>
        <time>2019-12-05T08:52:37Z</time>
      </trkpt>
      <trkpt lat="59.236061" lon="18.119619">
        <ele>26</ele>
        <time>2019-12-05T08:52:38Z</time>
      </trkpt>
      <trkpt lat="59.236016" lon="18.119632">
        <ele>27</ele>
        <time>2019-12-05T08:52:39Z</time>
      </trkpt>
      <trkpt lat="59.23597" lon="18.119644">
        <ele>27</ele>
        <time>2019-12-05T08:52:40Z</time>
      </trkpt>
      <trkpt lat="59.235924" lon="18.119657">
        <ele>27</ele>
        <time>2019-12-05T08:52:41Z</time>
      </trkpt>
      <trkpt lat="59.235877" lon="18.11967">
        <ele>27</ele>
        <time>2019-12-05T08:52:42Z</time>
      </trkpt>
      <trkpt lat="59.235831" lon="18.119688">
        <ele>27</ele>
        <time>2019-12-05T08:52:43Z</time>
      </trkpt>
      <trkpt lat="59.235787" lon="18.119713">
        <ele>27</ele>
        <time>2019-12-05T08:52:44Z</time>
      </trkpt>
      <trkpt lat="59.235742" lon="18.119741">
        <ele>27</ele>
        <time>2019-12-05T08:52:45Z</time>
      </trkpt>
      <trkpt lat="59.235697" lon="18.119768">
        <ele>27</ele>
        <time>2019-12-05T08:52:46Z</time>
      </trkpt>
      <trkpt lat="59.235653" lon="18.119796">
        <ele>27</ele>
        <time>2019-12-05T08:52:48Z</time>
      </trkpt>
      <trkpt lat="59.235609" lon="18.119828">
        <ele>27</ele>
        <time>2019-12-05T08:52:48Z</time>
      </trkpt>
      <trkpt lat="59.235565" lon="18.11986">
        <ele>27</ele>
        <time>2019-12-05T08:52:49Z</time>
      </trkpt>
      <trkpt lat="59.23552" lon="18.119891">
        <ele>27</ele>
        <time>2019-12-05T08:52:51Z</time>
      </trkpt>
      <trkpt lat="59.235474" lon="18.119921">
        <ele>27</ele>
        <time>2019-12-05T08:52:51Z</time>
      </trkpt>
      <trkpt lat="59.235427" lon="18.119946">
        <ele>27</ele>
        <time>2019-12-05T08:52:52Z</time>
      </trkpt>
      <trkpt lat="59.235378" lon="18.11997">
        <ele>27</ele>
        <time>2019-12-05T08:52:53Z</time>
      </trkpt>
      <trkpt lat="59.235328" lon="18.119994">
        <ele>27</ele>
        <time>2019-12-05T08:52:54Z</time>
      </trkpt>
      <trkpt lat="59.235279" lon="18.120019">
        <ele>27</ele>
        <time>2019-12-05T08:52:55Z</time>
      </trkpt>
      <trkpt lat="59.23523" lon="18.12004">
        <ele>27</ele>
        <time>2019-12-05T08:52:56Z</time>
      </trkpt>
      <trkpt lat="59.235181" lon="18.120054">
        <ele>27</ele>
        <time>2019-12-05T08:52:58Z</time>
      </trkpt>
      <trkpt lat="59.235132" lon="18.120063">
        <ele>27</ele>
        <time>2019-12-05T08:52:58Z</time>
      </trkpt>
      <trkpt lat="59.235085" lon="18.120072">
        <ele>27</ele>
        <time>2019-12-05T08:52:59Z</time>
      </trkpt>
      <trkpt lat="59.235039" lon="18.120083">
        <ele>27</ele>
        <time>2019-12-05T08:53:00Z</time>
      </trkpt>
      <trkpt lat="59.234994" lon="18.120098">
        <ele>27</ele>
        <time>2019-12-05T08:53:01Z</time>
      </trkpt>
      <trkpt lat="59.234948" lon="18.120118">
        <ele>27</ele>
        <time>2019-12-05T08:53:02Z</time>
      </trkpt>
      <trkpt lat="59.234903" lon="18.120143">
        <ele>26</ele>
        <time>2019-12-05T08:53:03Z</time>
      </trkpt>
      <trkpt lat="59.234858" lon="18.120171">
        <ele>26</ele>
        <time>2019-12-05T08:53:04Z</time>
      </trkpt>
      <trkpt lat="59.234813" lon="18.120201">
        <ele>26</ele>
        <time>2019-12-05T08:53:05Z</time>
      </trkpt>
      <trkpt lat="59.234769" lon="18.120231">
        <ele>26</ele>
        <time>2019-12-05T08:53:06Z</time>
      </trkpt>
      <trkpt lat="59.234725" lon="18.12026">
        <ele>27</ele>
        <time>2019-12-05T08:53:07Z</time>
      </trkpt>
      <trkpt lat="59.234683" lon="18.120288">
        <ele>27</ele>
        <time>2019-12-05T08:53:09Z</time>
      </trkpt>
      <trkpt lat="59.234644" lon="18.120316">
        <ele>27</ele>
        <time>2019-12-05T08:53:10Z</time>
      </trkpt>
      <trkpt lat="59.234606" lon="18.120342">
        <ele>27</ele>
        <time>2019-12-05T08:53:10Z</time>
      </trkpt>
      <trkpt lat="59.234569" lon="18.120367">
        <ele>27</ele>
        <time>2019-12-05T08:53:11Z</time>
      </trkpt>
      <trkpt lat="59.234534" lon="18.120392">
        <ele>27</ele>
        <time>2019-12-05T08:53:12Z</time>
      </trkpt>
      <trkpt lat="59.234498" lon="18.120416">
        <ele>27</ele>
        <time>2019-12-05T08:53:13Z</time>
      </trkpt>
      <trkpt lat="59.234464" lon="18.120439">
        <ele>27</ele>
        <time>2019-12-05T08:53:14Z</time>
      </trkpt>
      <trkpt lat="59.234429" lon="18.120461">
        <ele>27</ele>
        <time>2019-12-05T08:53:15Z</time>
      </trkpt>
      <trkpt lat="59.234394" lon="18.120483">
        <ele>27</ele>
        <time>2019-12-05T08:53:16Z</time>
      </trkpt>
      <trkpt lat="59.234359" lon="18.120506">
        <ele>27</ele>
        <time>2019-12-05T08:53:17Z</time>
      </trkpt>
      <trkpt lat="59.234325" lon="18.12053">
        <ele>27</ele>
        <time>2019-12-05T08:53:18Z</time>
      </trkpt>
      <trkpt lat="59.23429" lon="18.120555">
        <ele>27</ele>
        <time>2019-12-05T08:53:19Z</time>
      </trkpt>
      <trkpt lat="59.234255" lon="18.12058">
        <ele>28</ele>
        <time>2019-12-05T08:53:20Z</time>
      </trkpt>
      <trkpt lat="59.234219" lon="18.120605">
        <ele>28</ele>
        <time>2019-12-05T08:53:22Z</time>
      </trkpt>
      <trkpt lat="59.234183" lon="18.120631">
        <ele>28</ele>
        <time>2019-12-05T08:53:22Z</time>
      </trkpt>
      <trkpt lat="59.234148" lon="18.120655">
        <ele>28</ele>
        <time>2019-12-05T08:53:23Z</time>
      </trkpt>
      <trkpt lat="59.234113" lon="18.120678">
        <ele>28</ele>
        <time>2019-12-05T08:53:24Z</time>
      </trkpt>
      <trkpt lat="59.234078" lon="18.120701">
        <ele>29</ele>
        <time>2019-12-05T08:53:25Z</time>
      </trkpt>
      <trkpt lat="59.234044" lon="18.120724">
        <ele>29</ele>
        <time>2019-12-05T08:53:26Z</time>
      </trkpt>
      <trkpt lat="59.23401" lon="18.120747">
        <ele>29</ele>
        <time>2019-12-05T08:53:27Z</time>
      </trkpt>
      <trkpt lat="59.233977" lon="18.120769">
        <ele>29</ele>
        <time>2019-12-05T08:53:29Z</time>
      </trkpt>
      <trkpt lat="59.233943" lon="18.120786">
        <ele>29</ele>
        <time>2019-12-05T08:53:29Z</time>
      </trkpt>
      <trkpt lat="59.233912" lon="18.120804">
        <ele>30</ele>
        <time>2019-12-05T08:53:30Z</time>
      </trkpt>
      <trkpt lat="59.233883" lon="18.120825">
        <ele>30</ele>
        <time>2019-12-05T08:53:31Z</time>
      </trkpt>
      <trkpt lat="59.233855" lon="18.120846">
        <ele>30</ele>
        <time>2019-12-05T08:53:32Z</time>
      </trkpt>
      <trkpt lat="59.233826" lon="18.120865">
        <ele>30</ele>
        <time>2019-12-05T08:53:33Z</time>
      </trkpt>
      <trkpt lat="59.233796" lon="18.120882">
        <ele>30</ele>
        <time>2019-12-05T08:53:34Z</time>
      </trkpt>
      <trkpt lat="59.233766" lon="18.120903">
        <ele>31</ele>
        <time>2019-12-05T08:53:35Z</time>
      </trkpt>
      <trkpt lat="59.233737" lon="18.120924">
        <ele>31</ele>
        <time>2019-12-05T08:53:37Z</time>
      </trkpt>
      <trkpt lat="59.233708" lon="18.120944">
        <ele>31</ele>
        <time>2019-12-05T08:53:37Z</time>
      </trkpt>
      <trkpt lat="59.233682" lon="18.120961">
        <ele>31</ele>
        <time>2019-12-05T08:53:38Z</time>
      </trkpt>
      <trkpt lat="59.233657" lon="18.120979">
        <ele>32</ele>
        <time>2019-12-05T08:53:39Z</time>
      </trkpt>
      <trkpt lat="59.233627" lon="18.120999">
        <ele>32</ele>
        <time>2019-12-05T08:53:40Z</time>
      </trkpt>
      <trkpt lat="59.233597" lon="18.121022">
        <ele>32</ele>
        <time>2019-12-05T08:53:41Z</time>
      </trkpt>
      <trkpt lat="59.233567" lon="18.121043">
        <ele>32</ele>
        <time>2019-12-05T08:53:42Z</time>
      </trkpt>
      <trkpt lat="59.233537" lon="18.121064">
        <ele>33</ele>
        <time>2019-12-05T08:53:43Z</time>
      </trkpt>
      <trkpt lat="59.233508" lon="18.121086">
        <ele>33</ele>
        <time>2019-12-05T08:53:44Z</time>
      </trkpt>
      <trkpt lat="59.233479" lon="18.121106">
        <ele>33</ele>
        <time>2019-12-05T08:53:45Z</time>
      </trkpt>
      <trkpt lat="59.23345" lon="18.12113">
        <ele>34</ele>
        <time>2019-12-05T08:53:46Z</time>
      </trkpt>
      <trkpt lat="59.23342" lon="18.121156">
        <ele>34</ele>
        <time>2019-12-05T08:53:48Z</time>
      </trkpt>
      <trkpt lat="59.233391" lon="18.121176">
        <ele>34</ele>
        <time>2019-12-05T08:53:48Z</time>
      </trkpt>
      <trkpt lat="59.23336" lon="18.121198">
        <ele>34</ele>
        <time>2019-12-05T08:53:49Z</time>
      </trkpt>
      <trkpt lat="59.233329" lon="18.121219">
        <ele>34</ele>
        <time>2019-12-05T08:53:50Z</time>
      </trkpt>
      <trkpt lat="59.2333" lon="18.121238">
        <ele>35</ele>
        <time>2019-12-05T08:53:51Z</time>
      </trkpt>
      <trkpt lat="59.233269" lon="18.121263">
        <ele>35</ele>
        <time>2019-12-05T08:53:53Z</time>
      </trkpt>
      <trkpt lat="59.233241" lon="18.121287">
        <ele>35</ele>
        <time>2019-12-05T08:53:53Z</time>
      </trkpt>
      <trkpt lat="59.233212" lon="18.12131">
        <ele>35</ele>
        <time>2019-12-05T08:53:54Z</time>
      </trkpt>
      <trkpt lat="59.233184" lon="18.12133">
        <ele>36</ele>
        <time>2019-12-05T08:53:55Z</time>
      </trkpt>
      <trkpt lat="59.233155" lon="18.121349">
        <ele>36</ele>
        <time>2019-12-05T08:53:56Z</time>
      </trkpt>
      <trkpt lat="59.233129" lon="18.121366">
        <ele>36</ele>
        <time>2019-12-05T08:53:57Z</time>
      </trkpt>
      <trkpt lat="59.233104" lon="18.121378">
        <ele>37</ele>
        <time>2019-12-05T08:53:58Z</time>
      </trkpt>
      <trkpt lat="59.233076" lon="18.121385">
        <ele>37</ele>
        <time>2019-12-05T08:53:59Z</time>
      </trkpt>
      <trkpt lat="59.233047" lon="18.121385">
        <ele>37</ele>
        <time>2019-12-05T08:54:00Z</time>
      </trkpt>
      <trkpt lat="59.233018" lon="18.121378">
        <ele>37</ele>
        <time>2019-12-05T08:54:01Z</time>
      </trkpt>
      <trkpt lat="59.232989" lon="18.12137">
        <ele>38</ele>
        <time>2019-12-05T08:54:02Z</time>
      </trkpt>
      <trkpt lat="59.232961" lon="18.121356">
        <ele>38</ele>
        <time>2019-12-05T08:54:03Z</time>
      </trkpt>
      <trkpt lat="59.232929" lon="18.121334">
        <ele>38</ele>
        <time>2019-12-05T08:54:04Z</time>
      </trkpt>
      <trkpt lat="59.232901" lon="18.121308">
        <ele>38</ele>
        <time>2019-12-05T08:54:05Z</time>
      </trkpt>
      <trkpt lat="59.232873" lon="18.121278">
        <ele>38</ele>
        <time>2019-12-05T08:54:07Z</time>
      </trkpt>
      <trkpt lat="59.232845" lon="18.121244">
        <ele>38</ele>
        <time>2019-12-05T08:54:07Z</time>
      </trkpt>
      <trkpt lat="59.232819" lon="18.121208">
        <ele>38</ele>
        <time>2019-12-05T08:54:08Z</time>
      </trkpt>
      <trkpt lat="59.232794" lon="18.121174">
        <ele>38</ele>
        <time>2019-12-05T08:54:10Z</time>
      </trkpt>
      <trkpt lat="59.23277" lon="18.121144">
        <ele>38</ele>
        <time>2019-12-05T08:54:10Z</time>
      </trkpt>
      <trkpt lat="59.232746" lon="18.121118">
        <ele>38</ele>
        <time>2019-12-05T08:54:11Z</time>
      </trkpt>
      <trkpt lat="59.232722" lon="18.12109">
        <ele>38</ele>
        <time>2019-12-05T08:54:12Z</time>
      </trkpt>
      <trkpt lat="59.232697" lon="18.121064">
        <ele>38</ele>
        <time>2019-12-05T08:54:13Z</time>
      </trkpt>
      <trkpt lat="59.232672" lon="18.121046">
        <ele>38</ele>
        <time>2019-12-05T08:54:14Z</time>
      </trkpt>
      <trkpt lat="59.232652" lon="18.121034">
        <ele>38</ele>
        <time>2019-12-05T08:54:15Z</time>
      </trkpt>
      <trkpt lat="59.232626" lon="18.12101">
        <ele>38</ele>
        <time>2019-12-05T08:54:17Z</time>
      </trkpt>
      <trkpt lat="59.23262" lon="18.121004">
        <ele>0</ele>
        <time>2019-12-05T08:54:22Z</time>
      </trkpt>
      <trkpt lat="59.232576" lon="18.120894">
        <ele>38</ele>
        <time>2019-12-05T08:54:32Z</time>
      </trkpt>
      <trkpt lat="59.232552" lon="18.120836">
        <ele>38</ele>
        <time>2019-12-05T08:54:32Z</time>
      </trkpt>
      <trkpt lat="59.23253" lon="18.120772">
        <ele>38</ele>
        <time>2019-12-05T08:54:33Z</time>
      </trkpt>
      <trkpt lat="59.232508" lon="18.1207">
        <ele>38</ele>
        <time>2019-12-05T08:54:34Z</time>
      </trkpt>
      <trkpt lat="59.232486" lon="18.120624">
        <ele>38</ele>
        <time>2019-12-05T08:54:35Z</time>
      </trkpt>
      <trkpt lat="59.232465" lon="18.120544">
        <ele>38</ele>
        <time>2019-12-05T08:54:36Z</time>
      </trkpt>
      <trkpt lat="59.23244" lon="18.120466">
        <ele>38</ele>
        <time>2019-12-05T08:54:37Z</time>
      </trkpt>
      <trkpt lat="59.232409" lon="18.120396">
        <ele>38</ele>
        <time>2019-12-05T08:54:38Z</time>
      </trkpt>
      <trkpt lat="59.23237" lon="18.120344">
        <ele>38</ele>
        <time>2019-12-05T08:54:40Z</time>
      </trkpt>
      <trkpt lat="59.232326" lon="18.120304">
        <ele>38</ele>
        <time>2019-12-05T08:54:40Z</time>
      </trkpt>
      <trkpt lat="59.232275" lon="18.120282">
        <ele>38</ele>
        <time>2019-12-05T08:54:41Z</time>
      </trkpt>
      <trkpt lat="59.232222" lon="18.12027">
        <ele>38</ele>
        <time>2019-12-05T08:54:42Z</time>
      </trkpt>
      <trkpt lat="59.23217" lon="18.120266">
        <ele>38</ele>
        <time>2019-12-05T08:54:43Z</time>
      </trkpt>
      <trkpt lat="59.23212" lon="18.120264">
        <ele>38</ele>
        <time>2019-12-05T08:54:44Z</time>
      </trkpt>
      <trkpt lat="59.232071" lon="18.120268">
        <ele>38</ele>
        <time>2019-12-05T08:54:45Z</time>
      </trkpt>
      <trkpt lat="59.232027" lon="18.120274">
        <ele>38</ele>
        <time>2019-12-05T08:54:46Z</time>
      </trkpt>
      <trkpt lat="59.231986" lon="18.120282">
        <ele>39</ele>
        <time>2019-12-05T08:54:47Z</time>
      </trkpt>
      <trkpt lat="59.231949" lon="18.12029">
        <ele>39</ele>
        <time>2019-12-05T08:54:48Z</time>
      </trkpt>
      <trkpt lat="59.231914" lon="18.1203">
        <ele>39</ele>
        <time>2019-12-05T08:54:49Z</time>
      </trkpt>
      <trkpt lat="59.231874" lon="18.120316">
        <ele>0</ele>
        <time>2019-12-05T08:54:50Z</time>
      </trkpt>
      <trkpt lat="59.231835" lon="18.120334">
        <ele>39</ele>
        <time>2019-12-05T08:54:51Z</time>
      </trkpt>
      <trkpt lat="59.231799" lon="18.120354">
        <ele>39</ele>
        <time>2019-12-05T08:54:52Z</time>
      </trkpt>
      <trkpt lat="59.231766" lon="18.120372">
        <ele>39</ele>
        <time>2019-12-05T08:54:53Z</time>
      </trkpt>
      <trkpt lat="59.231732" lon="18.120388">
        <ele>40</ele>
        <time>2019-12-05T08:54:54Z</time>
      </trkpt>
      <trkpt lat="59.231695" lon="18.120406">
        <ele>40</ele>
        <time>2019-12-05T08:54:55Z</time>
      </trkpt>
      <trkpt lat="59.231656" lon="18.120424">
        <ele>40</ele>
        <time>2019-12-05T08:54:56Z</time>
      </trkpt>
      <trkpt lat="59.231615" lon="18.120446">
        <ele>40</ele>
        <time>2019-12-05T08:54:57Z</time>
      </trkpt>
      <trkpt lat="59.231572" lon="18.120474">
        <ele>40</ele>
        <time>2019-12-05T08:54:58Z</time>
      </trkpt>
      <trkpt lat="59.231528" lon="18.120506">
        <ele>40</ele>
        <time>2019-12-05T08:54:59Z</time>
      </trkpt>
      <trkpt lat="59.231484" lon="18.120538">
        <ele>40</ele>
        <time>2019-12-05T08:55:00Z</time>
      </trkpt>
      <trkpt lat="59.231438" lon="18.12057">
        <ele>40</ele>
        <time>2019-12-05T08:55:02Z</time>
      </trkpt>
      <trkpt lat="59.231389" lon="18.120601">
        <ele>40</ele>
        <time>2019-12-05T08:55:02Z</time>
      </trkpt>
      <trkpt lat="59.231341" lon="18.120635">
        <ele>40</ele>
        <time>2019-12-05T08:55:03Z</time>
      </trkpt>
      <trkpt lat="59.231293" lon="18.120671">
        <ele>40</ele>
        <time>2019-12-05T08:55:04Z</time>
      </trkpt>
      <trkpt lat="59.231245" lon="18.120707">
        <ele>40</ele>
        <time>2019-12-05T08:55:05Z</time>
      </trkpt>
      <trkpt lat="59.231196" lon="18.120742">
        <ele>40</ele>
        <time>2019-12-05T08:55:06Z</time>
      </trkpt>
      <trkpt lat="59.231147" lon="18.120777">
        <ele>40</ele>
        <time>2019-12-05T08:55:07Z</time>
      </trkpt>
      <trkpt lat="59.231097" lon="18.120815">
        <ele>40</ele>
        <time>2019-12-05T08:55:08Z</time>
      </trkpt>
      <trkpt lat="59.231043" lon="18.120857">
        <ele>40</ele>
        <time>2019-12-05T08:55:10Z</time>
      </trkpt>
      <trkpt lat="59.230987" lon="18.120899">
        <ele>40</ele>
        <time>2019-12-05T08:55:11Z</time>
      </trkpt>
      <trkpt lat="59.230929" lon="18.12094">
        <ele>40</ele>
        <time>2019-12-05T08:55:12Z</time>
      </trkpt>
      <trkpt lat="59.230869" lon="18.120979">
        <ele>40</ele>
        <time>2019-12-05T08:55:12Z</time>
      </trkpt>
      <trkpt lat="59.230808" lon="18.121013">
        <ele>40</ele>
        <time>2019-12-05T08:55:13Z</time>
      </trkpt>
      <trkpt lat="59.230746" lon="18.121048">
        <ele>40</ele>
        <time>2019-12-05T08:55:14Z</time>
      </trkpt>
      <trkpt lat="59.230682" lon="18.12108">
        <ele>39</ele>
        <time>2019-12-05T08:55:15Z</time>
      </trkpt>
      <trkpt lat="59.230618" lon="18.121104">
        <ele>39</ele>
        <time>2019-12-05T08:55:16Z</time>
      </trkpt>
      <trkpt lat="59.230552" lon="18.121116">
        <ele>39</ele>
        <time>2019-12-05T08:55:17Z</time>
      </trkpt>
      <trkpt lat="59.230486" lon="18.121121">
        <ele>39</ele>
        <time>2019-12-05T08:55:19Z</time>
      </trkpt>
      <trkpt lat="59.230419" lon="18.121128">
        <ele>39</ele>
        <time>2019-12-05T08:55:19Z</time>
      </trkpt>
      <trkpt lat="59.230353" lon="18.121138">
        <ele>39</ele>
        <time>2019-12-05T08:55:20Z</time>
      </trkpt>
      <trkpt lat="59.230289" lon="18.121161">
        <ele>39</ele>
        <time>2019-12-05T08:55:21Z</time>
      </trkpt>
      <trkpt lat="59.230228" lon="18.121198">
        <ele>38</ele>
        <time>2019-12-05T08:55:22Z</time>
      </trkpt>
      <trkpt lat="59.230168" lon="18.121245">
        <ele>38</ele>
        <time>2019-12-05T08:55:23Z</time>
      </trkpt>
      <trkpt lat="59.23011" lon="18.121296">
        <ele>38</ele>
        <time>2019-12-05T08:55:24Z</time>
      </trkpt>
      <trkpt lat="59.23005" lon="18.121351">
        <ele>38</ele>
        <time>2019-12-05T08:55:25Z</time>
      </trkpt>
      <trkpt lat="59.229989" lon="18.121409">
        <ele>37</ele>
        <time>2019-12-05T08:55:27Z</time>
      </trkpt>
      <trkpt lat="59.229928" lon="18.121468">
        <ele>37</ele>
        <time>2019-12-05T08:55:27Z</time>
      </trkpt>
      <trkpt lat="59.229868" lon="18.121528">
        <ele>37</ele>
        <time>2019-12-05T08:55:29Z</time>
      </trkpt>
      <trkpt lat="59.229815" lon="18.121595">
        <ele>37</ele>
        <time>2019-12-05T08:55:29Z</time>
      </trkpt>
      <trkpt lat="59.229774" lon="18.12168">
        <ele>37</ele>
        <time>2019-12-05T08:55:30Z</time>
      </trkpt>
      <trkpt lat="59.229753" lon="18.121786">
        <ele>36</ele>
        <time>2019-12-05T08:55:31Z</time>
      </trkpt>
      <trkpt lat="59.229754" lon="18.1219">
        <ele>36</ele>
        <time>2019-12-05T08:55:32Z</time>
      </trkpt>
      <trkpt lat="59.229771" lon="18.12201">
        <ele>36</ele>
        <time>2019-12-05T08:55:33Z</time>
      </trkpt>
      <trkpt lat="59.229796" lon="18.122113">
        <ele>36</ele>
        <time>2019-12-05T08:55:35Z</time>
      </trkpt>
      <trkpt lat="59.229822" lon="18.122209">
        <ele>36</ele>
        <time>2019-12-05T08:55:35Z</time>
      </trkpt>
      <trkpt lat="59.229849" lon="18.122299">
        <ele>36</ele>
        <time>2019-12-05T08:55:36Z</time>
      </trkpt>
      <trkpt lat="59.229877" lon="18.122384">
        <ele>36</ele>
        <time>2019-12-05T08:55:37Z</time>
      </trkpt>
      <trkpt lat="59.229904" lon="18.122469">
        <ele>36</ele>
        <time>2019-12-05T08:55:38Z</time>
      </trkpt>
      <trkpt lat="59.229931" lon="18.122554">
        <ele>36</ele>
        <time>2019-12-05T08:55:39Z</time>
      </trkpt>
      <trkpt lat="59.229955" lon="18.122638">
        <ele>36</ele>
        <time>2019-12-05T08:55:40Z</time>
      </trkpt>
      <trkpt lat="59.229977" lon="18.122722">
        <ele>36</ele>
        <time>2019-12-05T08:55:41Z</time>
      </trkpt>
      <trkpt lat="59.229997" lon="18.122808">
        <ele>36</ele>
        <time>2019-12-05T08:55:42Z</time>
      </trkpt>
      <trkpt lat="59.230012" lon="18.122895">
        <ele>36</ele>
        <time>2019-12-05T08:55:43Z</time>
      </trkpt>
      <trkpt lat="59.230023" lon="18.122982">
        <ele>36</ele>
        <time>2019-12-05T08:55:45Z</time>
      </trkpt>
      <trkpt lat="59.23003" lon="18.123067">
        <ele>36</ele>
        <time>2019-12-05T08:55:45Z</time>
      </trkpt>
      <trkpt lat="59.230031" lon="18.12315">
        <ele>36</ele>
        <time>2019-12-05T08:55:46Z</time>
      </trkpt>
      <trkpt lat="59.230027" lon="18.123231">
        <ele>36</ele>
        <time>2019-12-05T08:55:48Z</time>
      </trkpt>
      <trkpt lat="59.230018" lon="18.123308">
        <ele>36</ele>
        <time>2019-12-05T08:55:48Z</time>
      </trkpt>
      <trkpt lat="59.230002" lon="18.123382">
        <ele>36</ele>
        <time>2019-12-05T08:55:49Z</time>
      </trkpt>
      <trkpt lat="59.229979" lon="18.123448">
        <ele>36</ele>
        <time>2019-12-05T08:55:50Z</time>
      </trkpt>
      <trkpt lat="59.229947" lon="18.123503">
        <ele>36</ele>
        <time>2019-12-05T08:55:51Z</time>
      </trkpt>
      <trkpt lat="59.22991" lon="18.123548">
        <ele>36</ele>
        <time>2019-12-05T08:55:52Z</time>
      </trkpt>
      <trkpt lat="59.22987" lon="18.123589">
        <ele>37</ele>
        <time>2019-12-05T08:55:53Z</time>
      </trkpt>
      <trkpt lat="59.229829" lon="18.123628">
        <ele>37</ele>
        <time>2019-12-05T08:55:54Z</time>
      </trkpt>
      <trkpt lat="59.229788" lon="18.123667">
        <ele>37</ele>
        <time>2019-12-05T08:55:55Z</time>
      </trkpt>
      <trkpt lat="59.229746" lon="18.123705">
        <ele>37</ele>
        <time>2019-12-05T08:55:57Z</time>
      </trkpt>
      <trkpt lat="59.229704" lon="18.123745">
        <ele>37</ele>
        <time>2019-12-05T08:55:57Z</time>
      </trkpt>
      <trkpt lat="59.229662" lon="18.123786">
        <ele>37</ele>
        <time>2019-12-05T08:55:58Z</time>
      </trkpt>
      <trkpt lat="59.22962" lon="18.123827">
        <ele>37</ele>
        <time>2019-12-05T08:55:59Z</time>
      </trkpt>
      <trkpt lat="59.229576" lon="18.123869">
        <ele>37</ele>
        <time>2019-12-05T08:56:00Z</time>
      </trkpt>
      <trkpt lat="59.229532" lon="18.12391">
        <ele>37</ele>
        <time>2019-12-05T08:56:01Z</time>
      </trkpt>
      <trkpt lat="59.229487" lon="18.123952">
        <ele>37</ele>
        <time>2019-12-05T08:56:02Z</time>
      </trkpt>
      <trkpt lat="59.229442" lon="18.123995">
        <ele>37</ele>
        <time>2019-12-05T08:56:03Z</time>
      </trkpt>
      <trkpt lat="59.229396" lon="18.124044">
        <ele>37</ele>
        <time>2019-12-05T08:56:04Z</time>
      </trkpt>
      <trkpt lat="59.229352" lon="18.124103">
        <ele>37</ele>
        <time>2019-12-05T08:56:05Z</time>
      </trkpt>
      <trkpt lat="59.229315" lon="18.124182">
        <ele>0</ele>
        <time>2019-12-05T08:56:06Z</time>
      </trkpt>
      <trkpt lat="59.22929" lon="18.124278">
        <ele>37</ele>
        <time>2019-12-05T08:56:07Z</time>
      </trkpt>
      <trkpt lat="59.229275" lon="18.124383">
        <ele>37</ele>
        <time>2019-12-05T08:56:08Z</time>
      </trkpt>
      <trkpt lat="59.229266" lon="18.124491">
        <ele>37</ele>
        <time>2019-12-05T08:56:09Z</time>
      </trkpt>
      <trkpt lat="59.229262" lon="18.124604">
        <ele>37</ele>
        <time>2019-12-05T08:56:10Z</time>
      </trkpt>
      <trkpt lat="59.229257" lon="18.124711">
        <ele>37</ele>
        <time>2019-12-05T08:56:11Z</time>
      </trkpt>
      <trkpt lat="59.22924" lon="18.124814">
        <ele>37</ele>
        <time>2019-12-05T08:56:12Z</time>
      </trkpt>
      <trkpt lat="59.229211" lon="18.124916">
        <ele>36</ele>
        <time>2019-12-05T08:56:13Z</time>
      </trkpt>
      <trkpt lat="59.229179" lon="18.125016">
        <ele>36</ele>
        <time>2019-12-05T08:56:15Z</time>
      </trkpt>
      <trkpt lat="59.229149" lon="18.125123">
        <ele>36</ele>
        <time>2019-12-05T08:56:15Z</time>
      </trkpt>
      <trkpt lat="59.229114" lon="18.125227">
        <ele>36</ele>
        <time>2019-12-05T08:56:16Z</time>
      </trkpt>
      <trkpt lat="59.229081" lon="18.125333">
        <ele>36</ele>
        <time>2019-12-05T08:56:17Z</time>
      </trkpt>
      <trkpt lat="59.229043" lon="18.125439">
        <ele>35</ele>
        <time>2019-12-05T08:56:18Z</time>
      </trkpt>
      <trkpt lat="59.228998" lon="18.125545">
        <ele>35</ele>
        <time>2019-12-05T08:56:19Z</time>
      </trkpt>
      <trkpt lat="59.228953" lon="18.125648">
        <ele>36</ele>
        <time>2019-12-05T08:56:20Z</time>
      </trkpt>
      <trkpt lat="59.228911" lon="18.125744">
        <ele>36</ele>
        <time>2019-12-05T08:56:21Z</time>
      </trkpt>
      <trkpt lat="59.22887" lon="18.125836">
        <ele>36</ele>
        <time>2019-12-05T08:56:23Z</time>
      </trkpt>
      <trkpt lat="59.228829" lon="18.125917">
        <ele>36</ele>
        <time>2019-12-05T08:56:23Z</time>
      </trkpt>
      <trkpt lat="59.228791" lon="18.12599">
        <ele>36</ele>
        <time>2019-12-05T08:56:24Z</time>
      </trkpt>
      <trkpt lat="59.228759" lon="18.12606">
        <ele>36</ele>
        <time>2019-12-05T08:56:26Z</time>
      </trkpt>
      <trkpt lat="59.228732" lon="18.126125">
        <ele>36</ele>
        <time>2019-12-05T08:56:26Z</time>
      </trkpt>
      <trkpt lat="59.228704" lon="18.12619">
        <ele>36</ele>
        <time>2019-12-05T08:56:27Z</time>
      </trkpt>
      <trkpt lat="59.228675" lon="18.126253">
        <ele>36</ele>
        <time>2019-12-05T08:56:28Z</time>
      </trkpt>
      <trkpt lat="59.228644" lon="18.126309">
        <ele>36</ele>
        <time>2019-12-05T08:56:29Z</time>
      </trkpt>
      <trkpt lat="59.228612" lon="18.126355">
        <ele>36</ele>
        <time>2019-12-05T08:56:30Z</time>
      </trkpt>
      <trkpt lat="59.228578" lon="18.126387">
        <ele>36</ele>
        <time>2019-12-05T08:56:31Z</time>
      </trkpt>
      <trkpt lat="59.228541" lon="18.126404">
        <ele>36</ele>
        <time>2019-12-05T08:56:32Z</time>
      </trkpt>
      <trkpt lat="59.228503" lon="18.126404">
        <ele>36</ele>
        <time>2019-12-05T08:56:33Z</time>
      </trkpt>
      <trkpt lat="59.228466" lon="18.126399">
        <ele>36</ele>
        <time>2019-12-05T08:56:35Z</time>
      </trkpt>
      <trkpt lat="59.228429" lon="18.126393">
        <ele>36</ele>
        <time>2019-12-05T08:56:35Z</time>
      </trkpt>
      <trkpt lat="59.228393" lon="18.126385">
        <ele>37</ele>
        <time>2019-12-05T08:56:36Z</time>
      </trkpt>
      <trkpt lat="59.228358" lon="18.12638">
        <ele>37</ele>
        <time>2019-12-05T08:56:37Z</time>
      </trkpt>
      <trkpt lat="59.228321" lon="18.126382">
        <ele>37</ele>
        <time>2019-12-05T08:56:38Z</time>
      </trkpt>
      <trkpt lat="59.228283" lon="18.126387">
        <ele>37</ele>
        <time>2019-12-05T08:56:39Z</time>
      </trkpt>
      <trkpt lat="59.228246" lon="18.126394">
        <ele>37</ele>
        <time>2019-12-05T08:56:40Z</time>
      </trkpt>
      <trkpt lat="59.228207" lon="18.126402">
        <ele>37</ele>
        <time>2019-12-05T08:56:41Z</time>
      </trkpt>
      <trkpt lat="59.228169" lon="18.12641">
        <ele>37</ele>
        <time>2019-12-05T08:56:42Z</time>
      </trkpt>
      <trkpt lat="59.228132" lon="18.126417">
        <ele>37</ele>
        <time>2019-12-05T08:56:43Z</time>
      </trkpt>
      <trkpt lat="59.228097" lon="18.126423">
        <ele>37</ele>
        <time>2019-12-05T08:56:45Z</time>
      </trkpt>
      <trkpt lat="59.228061" lon="18.12643">
        <ele>37</ele>
        <time>2019-12-05T08:56:45Z</time>
      </trkpt>
      <trkpt lat="59.228026" lon="18.126438">
        <ele>37</ele>
        <time>2019-12-05T08:56:46Z</time>
      </trkpt>
      <trkpt lat="59.227989" lon="18.126448">
        <ele>38</ele>
        <time>2019-12-05T08:56:48Z</time>
      </trkpt>
      <trkpt lat="59.227952" lon="18.126457">
        <ele>38</ele>
        <time>2019-12-05T08:56:48Z</time>
      </trkpt>
      <trkpt lat="59.227914" lon="18.126466">
        <ele>38</ele>
        <time>2019-12-05T08:56:49Z</time>
      </trkpt>
      <trkpt lat="59.227879" lon="18.126476">
        <ele>38</ele>
        <time>2019-12-05T08:56:50Z</time>
      </trkpt>
      <trkpt lat="59.227844" lon="18.126494">
        <ele>38</ele>
        <time>2019-12-05T08:56:51Z</time>
      </trkpt>
      <trkpt lat="59.227811" lon="18.126524">
        <ele>39</ele>
        <time>2019-12-05T08:56:52Z</time>
      </trkpt>
      <trkpt lat="59.227787" lon="18.126571">
        <ele>39</ele>
        <time>2019-12-05T08:56:53Z</time>
      </trkpt>
      <trkpt lat="59.227765" lon="18.126629">
        <ele>39</ele>
        <time>2019-12-05T08:56:54Z</time>
      </trkpt>
      <trkpt lat="59.227747" lon="18.126696">
        <ele>39</ele>
        <time>2019-12-05T08:56:55Z</time>
      </trkpt>
      <trkpt lat="59.227735" lon="18.126769">
        <ele>39</ele>
        <time>2019-12-05T08:56:56Z</time>
      </trkpt>
      <trkpt lat="59.227725" lon="18.126843">
        <ele>40</ele>
        <time>2019-12-05T08:56:57Z</time>
      </trkpt>
      <trkpt lat="59.227717" lon="18.126915">
        <ele>40</ele>
        <time>2019-12-05T08:56:58Z</time>
      </trkpt>
      <trkpt lat="59.227708" lon="18.126987">
        <ele>40</ele>
        <time>2019-12-05T08:56:59Z</time>
      </trkpt>
      <trkpt lat="59.227695" lon="18.127054">
        <ele>41</ele>
        <time>2019-12-05T08:57:00Z</time>
      </trkpt>
      <trkpt lat="59.227679" lon="18.127119">
        <ele>41</ele>
        <time>2019-12-05T08:57:02Z</time>
      </trkpt>
      <trkpt lat="59.227658" lon="18.127186">
        <ele>41</ele>
        <time>2019-12-05T08:57:02Z</time>
      </trkpt>
      <trkpt lat="59.227634" lon="18.127255">
        <ele>41</ele>
        <time>2019-12-05T08:57:04Z</time>
      </trkpt>
      <trkpt lat="59.227609" lon="18.127327">
        <ele>41</ele>
        <time>2019-12-05T08:57:04Z</time>
      </trkpt>
      <trkpt lat="59.227582" lon="18.127402">
        <ele>41</ele>
        <time>2019-12-05T08:57:05Z</time>
      </trkpt>
      <trkpt lat="59.227555" lon="18.127481">
        <ele>41</ele>
        <time>2019-12-05T08:57:06Z</time>
      </trkpt>
      <trkpt lat="59.227526" lon="18.127562">
        <ele>41</ele>
        <time>2019-12-05T08:57:07Z</time>
      </trkpt>
      <trkpt lat="59.227496" lon="18.127644">
        <ele>41</ele>
        <time>2019-12-05T08:57:08Z</time>
      </trkpt>
      <trkpt lat="59.227465" lon="18.127728">
        <ele>40</ele>
        <time>2019-12-05T08:57:09Z</time>
      </trkpt>
      <trkpt lat="59.227433" lon="18.127811">
        <ele>40</ele>
        <time>2019-12-05T08:57:10Z</time>
      </trkpt>
      <trkpt lat="59.227402" lon="18.127896">
        <ele>40</ele>
        <time>2019-12-05T08:57:12Z</time>
      </trkpt>
      <trkpt lat="59.227371" lon="18.127982">
        <ele>40</ele>
        <time>2019-12-05T08:57:12Z</time>
      </trkpt>
      <trkpt lat="59.227339" lon="18.12807">
        <ele>40</ele>
        <time>2019-12-05T08:57:13Z</time>
      </trkpt>
      <trkpt lat="59.227308" lon="18.128158">
        <ele>40</ele>
        <time>2019-12-05T08:57:14Z</time>
      </trkpt>
      <trkpt lat="59.227276" lon="18.128244">
        <ele>40</ele>
        <time>2019-12-05T08:57:15Z</time>
      </trkpt>
      <trkpt lat="59.227244" lon="18.128328">
        <ele>40</ele>
        <time>2019-12-05T08:57:16Z</time>
      </trkpt>
      <trkpt lat="59.227212" lon="18.128415">
        <ele>40</ele>
        <time>2019-12-05T08:57:17Z</time>
      </trkpt>
      <trkpt lat="59.227182" lon="18.128503">
        <ele>40</ele>
        <time>2019-12-05T08:57:18Z</time>
      </trkpt>
      <trkpt lat="59.227153" lon="18.128589">
        <ele>41</ele>
        <time>2019-12-05T08:57:19Z</time>
      </trkpt>
      <trkpt lat="59.227125" lon="18.128672">
        <ele>41</ele>
        <time>2019-12-05T08:57:21Z</time>
      </trkpt>
      <trkpt lat="59.227097" lon="18.128755">
        <ele>41</ele>
        <time>2019-12-05T08:57:21Z</time>
      </trkpt>
      <trkpt lat="59.227065" lon="18.128841">
        <ele>41</ele>
        <time>2019-12-05T08:57:23Z</time>
      </trkpt>
      <trkpt lat="59.227034" lon="18.128931">
        <ele>41</ele>
        <time>2019-12-05T08:57:23Z</time>
      </trkpt>
      <trkpt lat="59.227003" lon="18.12902">
        <ele>41</ele>
        <time>2019-12-05T08:57:24Z</time>
      </trkpt>
      <trkpt lat="59.22697" lon="18.12911">
        <ele>41</ele>
        <time>2019-12-05T08:57:25Z</time>
      </trkpt>
      <trkpt lat="59.226939" lon="18.1292">
        <ele>41</ele>
        <time>2019-12-05T08:57:26Z</time>
      </trkpt>
      <trkpt lat="59.226906" lon="18.12929">
        <ele>40</ele>
        <time>2019-12-05T08:57:27Z</time>
      </trkpt>
      <trkpt lat="59.22687" lon="18.129381">
        <ele>40</ele>
        <time>2019-12-05T08:57:28Z</time>
      </trkpt>
      <trkpt lat="59.226834" lon="18.129473">
        <ele>40</ele>
        <time>2019-12-05T08:57:30Z</time>
      </trkpt>
      <trkpt lat="59.226799" lon="18.129569">
        <ele>40</ele>
        <time>2019-12-05T08:57:30Z</time>
      </trkpt>
      <trkpt lat="59.226767" lon="18.129664">
        <ele>40</ele>
        <time>2019-12-05T08:57:31Z</time>
      </trkpt>
      <trkpt lat="59.226733" lon="18.129758">
        <ele>40</ele>
        <time>2019-12-05T08:57:32Z</time>
      </trkpt>
      <trkpt lat="59.226699" lon="18.129851">
        <ele>40</ele>
        <time>2019-12-05T08:57:33Z</time>
      </trkpt>
      <trkpt lat="59.226665" lon="18.129945">
        <ele>40</ele>
        <time>2019-12-05T08:57:34Z</time>
      </trkpt>
      <trkpt lat="59.22663" lon="18.130038">
        <ele>40</ele>
        <time>2019-12-05T08:57:35Z</time>
      </trkpt>
      <trkpt lat="59.226595" lon="18.13013">
        <ele>39</ele>
        <time>2019-12-05T08:57:36Z</time>
      </trkpt>
      <trkpt lat="59.22656" lon="18.130221">
        <ele>39</ele>
        <time>2019-12-05T08:57:37Z</time>
      </trkpt>
      <trkpt lat="59.226523" lon="18.130308">
        <ele>39</ele>
        <time>2019-12-05T08:57:39Z</time>
      </trkpt>
      <trkpt lat="59.226485" lon="18.13039">
        <ele>39</ele>
        <time>2019-12-05T08:57:39Z</time>
      </trkpt>
      <trkpt lat="59.226443" lon="18.130467">
        <ele>39</ele>
        <time>2019-12-05T08:57:40Z</time>
      </trkpt>
      <trkpt lat="59.226398" lon="18.130539">
        <ele>39</ele>
        <time>2019-12-05T08:57:42Z</time>
      </trkpt>
      <trkpt lat="59.226351" lon="18.130606">
        <ele>39</ele>
        <time>2019-12-05T08:57:42Z</time>
      </trkpt>
      <trkpt lat="59.226301" lon="18.130673">
        <ele>39</ele>
        <time>2019-12-05T08:57:43Z</time>
      </trkpt>
      <trkpt lat="59.226249" lon="18.130741">
        <ele>39</ele>
        <time>2019-12-05T08:57:44Z</time>
      </trkpt>
      <trkpt lat="59.226198" lon="18.130809">
        <ele>39</ele>
        <time>2019-12-05T08:57:45Z</time>
      </trkpt>
      <trkpt lat="59.226148" lon="18.130878">
        <ele>39</ele>
        <time>2019-12-05T08:57:47Z</time>
      </trkpt>
      <trkpt lat="59.2261" lon="18.130953">
        <ele>39</ele>
        <time>2019-12-05T08:57:47Z</time>
      </trkpt>
      <trkpt lat="59.226052" lon="18.131028">
        <ele>39</ele>
        <time>2019-12-05T08:57:48Z</time>
      </trkpt>
      <trkpt lat="59.226001" lon="18.131098">
        <ele>38</ele>
        <time>2019-12-05T08:57:49Z</time>
      </trkpt>
      <trkpt lat="59.225951" lon="18.13117">
        <ele>38</ele>
        <time>2019-12-05T08:57:50Z</time>
      </trkpt>
      <trkpt lat="59.225901" lon="18.131243">
        <ele>38</ele>
        <time>2019-12-05T08:57:51Z</time>
      </trkpt>
      <trkpt lat="59.225853" lon="18.131318">
        <ele>38</ele>
        <time>2019-12-05T08:57:52Z</time>
      </trkpt>
      <trkpt lat="59.225806" lon="18.131396">
        <ele>37</ele>
        <time>2019-12-05T08:57:53Z</time>
      </trkpt>
      <trkpt lat="59.225769" lon="18.131486">
        <ele>37</ele>
        <time>2019-12-05T08:57:55Z</time>
      </trkpt>
      <trkpt lat="59.225749" lon="18.131594">
        <ele>37</ele>
        <time>2019-12-05T08:57:55Z</time>
      </trkpt>
      <trkpt lat="59.225738" lon="18.131708">
        <ele>37</ele>
        <time>2019-12-05T08:57:56Z</time>
      </trkpt>
      <trkpt lat="59.225726" lon="18.131815">
        <ele>37</ele>
        <time>2019-12-05T08:57:57Z</time>
      </trkpt>
      <trkpt lat="59.22571" lon="18.131919">
        <ele>37</ele>
        <time>2019-12-05T08:57:58Z</time>
      </trkpt>
      <trkpt lat="59.225686" lon="18.132012">
        <ele>37</ele>
        <time>2019-12-05T08:57:59Z</time>
      </trkpt>
      <trkpt lat="59.225654" lon="18.132094">
        <ele>37</ele>
        <time>2019-12-05T08:58:01Z</time>
      </trkpt>
      <trkpt lat="59.225618" lon="18.132162">
        <ele>37</ele>
        <time>2019-12-05T08:58:01Z</time>
      </trkpt>
      <trkpt lat="59.225576" lon="18.132219">
        <ele>37</ele>
        <time>2019-12-05T08:58:02Z</time>
      </trkpt>
      <trkpt lat="59.225533" lon="18.132273">
        <ele>37</ele>
        <time>2019-12-05T08:58:04Z</time>
      </trkpt>
      <trkpt lat="59.22549" lon="18.13233">
        <ele>37</ele>
        <time>2019-12-05T08:58:04Z</time>
      </trkpt>
      <trkpt lat="59.225444" lon="18.132385">
        <ele>37</ele>
        <time>2019-12-05T08:58:05Z</time>
      </trkpt>
      <trkpt lat="59.225394" lon="18.132442">
        <ele>36</ele>
        <time>2019-12-05T08:58:06Z</time>
      </trkpt>
      <trkpt lat="59.225343" lon="18.132504">
        <ele>37</ele>
        <time>2019-12-05T08:58:07Z</time>
      </trkpt>
      <trkpt lat="59.225293" lon="18.132568">
        <ele>36</ele>
        <time>2019-12-05T08:58:08Z</time>
      </trkpt>
      <trkpt lat="59.225243" lon="18.132641">
        <ele>36</ele>
        <time>2019-12-05T08:58:09Z</time>
      </trkpt>
      <trkpt lat="59.225191" lon="18.132724">
        <ele>36</ele>
        <time>2019-12-05T08:58:10Z</time>
      </trkpt>
      <trkpt lat="59.225136" lon="18.132813">
        <ele>36</ele>
        <time>2019-12-05T08:58:12Z</time>
      </trkpt>
      <trkpt lat="59.22508" lon="18.132906">
        <ele>37</ele>
        <time>2019-12-05T08:58:12Z</time>
      </trkpt>
      <trkpt lat="59.225021" lon="18.133">
        <ele>36</ele>
        <time>2019-12-05T08:58:13Z</time>
      </trkpt>
      <trkpt lat="59.224958" lon="18.133101">
        <ele>36</ele>
        <time>2019-12-05T08:58:14Z</time>
      </trkpt>
      <trkpt lat="59.224896" lon="18.133207">
        <ele>36</ele>
        <time>2019-12-05T08:58:15Z</time>
      </trkpt>
      <trkpt lat="59.224834" lon="18.133321">
        <ele>36</ele>
        <time>2019-12-05T08:58:16Z</time>
      </trkpt>
      <trkpt lat="59.224773" lon="18.133437">
        <ele>35</ele>
        <time>2019-12-05T08:58:18Z</time>
      </trkpt>
      <trkpt lat="59.224716" lon="18.133564">
        <ele>35</ele>
        <time>2019-12-05T08:58:18Z</time>
      </trkpt>
      <trkpt lat="59.22466" lon="18.133695">
        <ele>34</ele>
        <time>2019-12-05T08:58:20Z</time>
      </trkpt>
      <trkpt lat="59.224606" lon="18.13383">
        <ele>33</ele>
        <time>2019-12-05T08:58:20Z</time>
      </trkpt>
      <trkpt lat="59.224551" lon="18.133965">
        <ele>33</ele>
        <time>2019-12-05T08:58:21Z</time>
      </trkpt>
      <trkpt lat="59.224498" lon="18.134101">
        <ele>32</ele>
        <time>2019-12-05T08:58:22Z</time>
      </trkpt>
      <trkpt lat="59.224446" lon="18.134234">
        <ele>32</ele>
        <time>2019-12-05T08:58:24Z</time>
      </trkpt>
      <trkpt lat="59.224395" lon="18.134364">
        <ele>31</ele>
        <time>2019-12-05T08:58:24Z</time>
      </trkpt>
      <trkpt lat="59.224346" lon="18.134491">
        <ele>31</ele>
        <time>2019-12-05T08:58:25Z</time>
      </trkpt>
      <trkpt lat="59.224299" lon="18.134613">
        <ele>31</ele>
        <time>2019-12-05T08:58:26Z</time>
      </trkpt>
      <trkpt lat="59.224253" lon="18.134731">
        <ele>31</ele>
        <time>2019-12-05T08:58:27Z</time>
      </trkpt>
      <trkpt lat="59.22421" lon="18.134846">
        <ele>31</ele>
        <time>2019-12-05T08:58:28Z</time>
      </trkpt>
      <trkpt lat="59.224168" lon="18.134961">
        <ele>31</ele>
        <time>2019-12-05T08:58:29Z</time>
      </trkpt>
      <trkpt lat="59.224126" lon="18.135076">
        <ele>31</ele>
        <time>2019-12-05T08:58:31Z</time>
      </trkpt>
      <trkpt lat="59.224084" lon="18.135186">
        <ele>31</ele>
        <time>2019-12-05T08:58:31Z</time>
      </trkpt>
      <trkpt lat="59.224043" lon="18.135294">
        <ele>31</ele>
        <time>2019-12-05T08:58:32Z</time>
      </trkpt>
      <trkpt lat="59.224004" lon="18.135399">
        <ele>31</ele>
        <time>2019-12-05T08:58:33Z</time>
      </trkpt>
      <trkpt lat="59.223965" lon="18.135495">
        <ele>31</ele>
        <time>2019-12-05T08:58:34Z</time>
      </trkpt>
      <trkpt lat="59.223928" lon="18.135586">
        <ele>31</ele>
        <time>2019-12-05T08:58:35Z</time>
      </trkpt>
      <trkpt lat="59.223893" lon="18.135674">
        <ele>31</ele>
        <time>2019-12-05T08:58:36Z</time>
      </trkpt>
      <trkpt lat="59.223858" lon="18.13576">
        <ele>31</ele>
        <time>2019-12-05T08:58:37Z</time>
      </trkpt>
      <trkpt lat="59.223824" lon="18.135844">
        <ele>31</ele>
        <time>2019-12-05T08:58:39Z</time>
      </trkpt>
      <trkpt lat="59.22379" lon="18.135927">
        <ele>31</ele>
        <time>2019-12-05T08:58:39Z</time>
      </trkpt>
      <trkpt lat="59.223756" lon="18.136012">
        <ele>32</ele>
        <time>2019-12-05T08:58:40Z</time>
      </trkpt>
      <trkpt lat="59.223723" lon="18.136095">
        <ele>32</ele>
        <time>2019-12-05T08:58:41Z</time>
      </trkpt>
      <trkpt lat="59.223689" lon="18.136179">
        <ele>32</ele>
        <time>2019-12-05T08:58:42Z</time>
      </trkpt>
      <trkpt lat="59.223655" lon="18.136261">
        <ele>32</ele>
        <time>2019-12-05T08:58:43Z</time>
      </trkpt>
      <trkpt lat="59.22362" lon="18.136343">
        <ele>32</ele>
        <time>2019-12-05T08:58:44Z</time>
      </trkpt>
      <trkpt lat="59.223583" lon="18.136423">
        <ele>32</ele>
        <time>2019-12-05T08:58:45Z</time>
      </trkpt>
      <trkpt lat="59.223546" lon="18.136503">
        <ele>32</ele>
        <time>2019-12-05T08:58:46Z</time>
      </trkpt>
      <trkpt lat="59.223508" lon="18.136584">
        <ele>32</ele>
        <time>2019-12-05T08:58:48Z</time>
      </trkpt>
      <trkpt lat="59.223469" lon="18.136662">
        <ele>32</ele>
        <time>2019-12-05T08:58:48Z</time>
      </trkpt>
      <trkpt lat="59.223429" lon="18.136737">
        <ele>32</ele>
        <time>2019-12-05T08:58:49Z</time>
      </trkpt>
      <trkpt lat="59.223387" lon="18.13681">
        <ele>32</ele>
        <time>2019-12-05T08:58:50Z</time>
      </trkpt>
      <trkpt lat="59.223344" lon="18.136881">
        <ele>32</ele>
        <time>2019-12-05T08:58:51Z</time>
      </trkpt>
      <trkpt lat="59.223299" lon="18.136949">
        <ele>32</ele>
        <time>2019-12-05T08:58:52Z</time>
      </trkpt>
      <trkpt lat="59.223255" lon="18.137016">
        <ele>32</ele>
        <time>2019-12-05T08:58:53Z</time>
      </trkpt>
      <trkpt lat="59.223212" lon="18.137082">
        <ele>32</ele>
        <time>2019-12-05T08:58:54Z</time>
      </trkpt>
      <trkpt lat="59.223171" lon="18.137143">
        <ele>32</ele>
        <time>2019-12-05T08:58:55Z</time>
      </trkpt>
      <trkpt lat="59.223128" lon="18.137201">
        <ele>32</ele>
        <time>2019-12-05T08:58:57Z</time>
      </trkpt>
      <trkpt lat="59.223085" lon="18.137257">
        <ele>32</ele>
        <time>2019-12-05T08:58:58Z</time>
      </trkpt>
      <trkpt lat="59.22304" lon="18.13731">
        <ele>32</ele>
        <time>2019-12-05T08:58:58Z</time>
      </trkpt>
      <trkpt lat="59.222995" lon="18.137359">
        <ele>32</ele>
        <time>2019-12-05T08:58:59Z</time>
      </trkpt>
      <trkpt lat="59.222952" lon="18.137406">
        <ele>32</ele>
        <time>2019-12-05T08:59:00Z</time>
      </trkpt>
      <trkpt lat="59.222909" lon="18.13745">
        <ele>32</ele>
        <time>2019-12-05T08:59:01Z</time>
      </trkpt>
      <trkpt lat="59.222866" lon="18.137494">
        <ele>32</ele>
        <time>2019-12-05T08:59:02Z</time>
      </trkpt>
      <trkpt lat="59.222819" lon="18.137534">
        <ele>32</ele>
        <time>2019-12-05T08:59:03Z</time>
      </trkpt>
      <trkpt lat="59.222772" lon="18.137572">
        <ele>32</ele>
        <time>2019-12-05T08:59:04Z</time>
      </trkpt>
      <trkpt lat="59.222725" lon="18.13761">
        <ele>32</ele>
        <time>2019-12-05T08:59:05Z</time>
      </trkpt>
      <trkpt lat="59.222677" lon="18.13765">
        <ele>32</ele>
        <time>2019-12-05T08:59:07Z</time>
      </trkpt>
      <trkpt lat="59.222629" lon="18.13769">
        <ele>32</ele>
        <time>2019-12-05T08:59:07Z</time>
      </trkpt>
      <trkpt lat="59.22258" lon="18.137725">
        <ele>32</ele>
        <time>2019-12-05T08:59:08Z</time>
      </trkpt>
      <trkpt lat="59.222532" lon="18.137757">
        <ele>32</ele>
        <time>2019-12-05T08:59:09Z</time>
      </trkpt>
      <trkpt lat="59.222484" lon="18.137787">
        <ele>32</ele>
        <time>2019-12-05T08:59:10Z</time>
      </trkpt>
      <trkpt lat="59.222435" lon="18.137817">
        <ele>32</ele>
        <time>2019-12-05T08:59:11Z</time>
      </trkpt>
      <trkpt lat="59.222386" lon="18.137843">
        <ele>32</ele>
        <time>2019-12-05T08:59:12Z</time>
      </trkpt>
      <trkpt lat="59.222337" lon="18.137869">
        <ele>32</ele>
        <time>2019-12-05T08:59:13Z</time>
      </trkpt>
      <trkpt lat="59.222289" lon="18.137895">
        <ele>32</ele>
        <time>2019-12-05T08:59:14Z</time>
      </trkpt>
      <trkpt lat="59.22224" lon="18.13792">
        <ele>32</ele>
        <time>2019-12-05T08:59:15Z</time>
      </trkpt>
      <trkpt lat="59.222194" lon="18.137948">
        <ele>0</ele>
        <time>2019-12-05T08:59:16Z</time>
      </trkpt>
      <trkpt lat="59.222148" lon="18.137973">
        <ele>32</ele>
        <time>2019-12-05T08:59:17Z</time>
      </trkpt>
      <trkpt lat="59.222103" lon="18.137998">
        <ele>33</ele>
        <time>2019-12-05T08:59:18Z</time>
      </trkpt>
      <trkpt lat="59.22206" lon="18.13802">
        <ele>33</ele>
        <time>2019-12-05T08:59:19Z</time>
      </trkpt>
      <trkpt lat="59.222015" lon="18.13804">
        <ele>33</ele>
        <time>2019-12-05T08:59:20Z</time>
      </trkpt>
      <trkpt lat="59.22197" lon="18.138059">
        <ele>33</ele>
        <time>2019-12-05T08:59:21Z</time>
      </trkpt>
      <trkpt lat="59.221925" lon="18.138075">
        <ele>33</ele>
        <time>2019-12-05T08:59:22Z</time>
      </trkpt>
      <trkpt lat="59.221879" lon="18.138093">
        <ele>33</ele>
        <time>2019-12-05T08:59:23Z</time>
      </trkpt>
      <trkpt lat="59.221833" lon="18.138111">
        <ele>33</ele>
        <time>2019-12-05T08:59:24Z</time>
      </trkpt>
      <trkpt lat="59.221787" lon="18.138131">
        <ele>33</ele>
        <time>2019-12-05T08:59:25Z</time>
      </trkpt>
      <trkpt lat="59.22174" lon="18.138151">
        <ele>33</ele>
        <time>2019-12-05T08:59:26Z</time>
      </trkpt>
      <trkpt lat="59.221692" lon="18.13817">
        <ele>33</ele>
        <time>2019-12-05T08:59:28Z</time>
      </trkpt>
      <trkpt lat="59.221645" lon="18.138189">
        <ele>33</ele>
        <time>2019-12-05T08:59:28Z</time>
      </trkpt>
      <trkpt lat="59.221597" lon="18.13821">
        <ele>33</ele>
        <time>2019-12-05T08:59:29Z</time>
      </trkpt>
      <trkpt lat="59.221548" lon="18.138232">
        <ele>33</ele>
        <time>2019-12-05T08:59:30Z</time>
      </trkpt>
      <trkpt lat="59.221497" lon="18.138252">
        <ele>32</ele>
        <time>2019-12-05T08:59:31Z</time>
      </trkpt>
      <trkpt lat="59.221445" lon="18.138273">
        <ele>32</ele>
        <time>2019-12-05T08:59:32Z</time>
      </trkpt>
      <trkpt lat="59.221392" lon="18.138294">
        <ele>32</ele>
        <time>2019-12-05T08:59:33Z</time>
      </trkpt>
      <trkpt lat="59.221339" lon="18.138316">
        <ele>32</ele>
        <time>2019-12-05T08:59:34Z</time>
      </trkpt>
      <trkpt lat="59.221286" lon="18.138337">
        <ele>32</ele>
        <time>2019-12-05T08:59:36Z</time>
      </trkpt>
      <trkpt lat="59.221233" lon="18.138357">
        <ele>32</ele>
        <time>2019-12-05T08:59:37Z</time>
      </trkpt>
      <trkpt lat="59.221181" lon="18.138377">
        <ele>32</ele>
        <time>2019-12-05T08:59:37Z</time>
      </trkpt>
      <trkpt lat="59.221129" lon="18.138396">
        <ele>32</ele>
        <time>2019-12-05T08:59:38Z</time>
      </trkpt>
      <trkpt lat="59.221077" lon="18.138414">
        <ele>32</ele>
        <time>2019-12-05T08:59:39Z</time>
      </trkpt>
      <trkpt lat="59.221024" lon="18.138433">
        <ele>32</ele>
        <time>2019-12-05T08:59:40Z</time>
      </trkpt>
      <trkpt lat="59.22097" lon="18.138452">
        <ele>32</ele>
        <time>2019-12-05T08:59:41Z</time>
      </trkpt>
      <trkpt lat="59.220916" lon="18.138472">
        <ele>31</ele>
        <time>2019-12-05T08:59:42Z</time>
      </trkpt>
      <trkpt lat="59.220861" lon="18.138495">
        <ele>31</ele>
        <time>2019-12-05T08:59:43Z</time>
      </trkpt>
      <trkpt lat="59.220805" lon="18.138519">
        <ele>31</ele>
        <time>2019-12-05T08:59:44Z</time>
      </trkpt>
      <trkpt lat="59.220749" lon="18.138544">
        <ele>31</ele>
        <time>2019-12-05T08:59:46Z</time>
      </trkpt>
      <trkpt lat="59.220691" lon="18.13857">
        <ele>31</ele>
        <time>2019-12-05T08:59:46Z</time>
      </trkpt>
      <trkpt lat="59.220632" lon="18.138601">
        <ele>31</ele>
        <time>2019-12-05T08:59:47Z</time>
      </trkpt>
      <trkpt lat="59.220572" lon="18.138637">
        <ele>30</ele>
        <time>2019-12-05T08:59:48Z</time>
      </trkpt>
      <trkpt lat="59.22051" lon="18.138676">
        <ele>30</ele>
        <time>2019-12-05T08:59:49Z</time>
      </trkpt>
      <trkpt lat="59.220448" lon="18.138719">
        <ele>30</ele>
        <time>2019-12-05T08:59:50Z</time>
      </trkpt>
      <trkpt lat="59.220384" lon="18.138764">
        <ele>30</ele>
        <time>2019-12-05T08:59:51Z</time>
      </trkpt>
      <trkpt lat="59.220319" lon="18.138813">
        <ele>30</ele>
        <time>2019-12-05T08:59:52Z</time>
      </trkpt>
      <trkpt lat="59.220253" lon="18.138871">
        <ele>30</ele>
        <time>2019-12-05T08:59:54Z</time>
      </trkpt>
      <trkpt lat="59.220187" lon="18.13894">
        <ele>30</ele>
        <time>2019-12-05T08:59:55Z</time>
      </trkpt>
      <trkpt lat="59.220121" lon="18.139017">
        <ele>29</ele>
        <time>2019-12-05T08:59:55Z</time>
      </trkpt>
      <trkpt lat="59.220053" lon="18.139095">
        <ele>29</ele>
        <time>2019-12-05T08:59:56Z</time>
      </trkpt>
      <trkpt lat="59.219985" lon="18.139181">
        <ele>29</ele>
        <time>2019-12-05T08:59:57Z</time>
      </trkpt>
      <trkpt lat="59.219919" lon="18.139271">
        <ele>29</ele>
        <time>2019-12-05T08:59:58Z</time>
      </trkpt>
      <trkpt lat="59.219852" lon="18.139361">
        <ele>29</ele>
        <time>2019-12-05T09:00:00Z</time>
      </trkpt>
      <trkpt lat="59.219782" lon="18.139446">
        <ele>28</ele>
        <time>2019-12-05T09:00:01Z</time>
      </trkpt>
      <trkpt lat="59.219712" lon="18.13953">
        <ele>28</ele>
        <time>2019-12-05T09:00:01Z</time>
      </trkpt>
      <trkpt lat="59.219641" lon="18.139614">
        <ele>28</ele>
        <time>2019-12-05T09:00:02Z</time>
      </trkpt>
      <trkpt lat="59.219569" lon="18.1397">
        <ele>28</ele>
        <time>2019-12-05T09:00:03Z</time>
      </trkpt>
      <trkpt lat="59.219496" lon="18.139784">
        <ele>27</ele>
        <time>2019-12-05T09:00:04Z</time>
      </trkpt>
      <trkpt lat="59.219425" lon="18.139864">
        <ele>27</ele>
        <time>2019-12-05T09:00:06Z</time>
      </trkpt>
      <trkpt lat="59.219357" lon="18.139942">
        <ele>26</ele>
        <time>2019-12-05T09:00:06Z</time>
      </trkpt>
      <trkpt lat="59.219292" lon="18.14002">
        <ele>26</ele>
        <time>2019-12-05T09:00:07Z</time>
      </trkpt>
      <trkpt lat="59.21923" lon="18.140098">
        <ele>26</ele>
        <time>2019-12-05T09:00:08Z</time>
      </trkpt>
      <trkpt lat="59.219169" lon="18.140172">
        <ele>26</ele>
        <time>2019-12-05T09:00:09Z</time>
      </trkpt>
      <trkpt lat="59.219109" lon="18.140244">
        <ele>25</ele>
        <time>2019-12-05T09:00:10Z</time>
      </trkpt>
      <trkpt lat="59.219051" lon="18.140314">
        <ele>25</ele>
        <time>2019-12-05T09:00:11Z</time>
      </trkpt>
      <trkpt lat="59.218994" lon="18.140382">
        <ele>25</ele>
        <time>2019-12-05T09:00:13Z</time>
      </trkpt>
      <trkpt lat="59.218938" lon="18.140448">
        <ele>25</ele>
        <time>2019-12-05T09:00:14Z</time>
      </trkpt>
      <trkpt lat="59.218884" lon="18.140514">
        <ele>25</ele>
        <time>2019-12-05T09:00:14Z</time>
      </trkpt>
      <trkpt lat="59.218831" lon="18.140578">
        <ele>25</ele>
        <time>2019-12-05T09:00:15Z</time>
      </trkpt>
      <trkpt lat="59.218783" lon="18.14064">
        <ele>24</ele>
        <time>2019-12-05T09:00:16Z</time>
      </trkpt>
      <trkpt lat="59.218738" lon="18.140706">
        <ele>24</ele>
        <time>2019-12-05T09:00:17Z</time>
      </trkpt>
      <trkpt lat="59.218699" lon="18.140782">
        <ele>24</ele>
        <time>2019-12-05T09:00:18Z</time>
      </trkpt>
      <trkpt lat="59.218668" lon="18.140868">
        <ele>24</ele>
        <time>2019-12-05T09:00:19Z</time>
      </trkpt>
      <trkpt lat="59.218645" lon="18.140962">
        <ele>24</ele>
        <time>2019-12-05T09:00:20Z</time>
      </trkpt>
      <trkpt lat="59.218629" lon="18.141062">
        <ele>24</ele>
        <time>2019-12-05T09:00:22Z</time>
      </trkpt>
      <trkpt lat="59.218617" lon="18.141162">
        <ele>24</ele>
        <time>2019-12-05T09:00:22Z</time>
      </trkpt>
      <trkpt lat="59.218606" lon="18.14126">
        <ele>24</ele>
        <time>2019-12-05T09:00:23Z</time>
      </trkpt>
      <trkpt lat="59.2186" lon="18.141352">
        <ele>24</ele>
        <time>2019-12-05T09:00:24Z</time>
      </trkpt>
      <trkpt lat="59.218596" lon="18.141438">
        <ele>24</ele>
        <time>2019-12-05T09:00:25Z</time>
      </trkpt>
      <trkpt lat="59.218583" lon="18.141512">
        <ele>24</ele>
        <time>2019-12-05T09:00:26Z</time>
      </trkpt>
      <trkpt lat="59.21856" lon="18.14156">
        <ele>24</ele>
        <time>2019-12-05T09:00:27Z</time>
      </trkpt>
      <trkpt lat="59.218535" lon="18.141576">
        <ele>24</ele>
        <time>2019-12-05T09:00:28Z</time>
      </trkpt>
      <trkpt lat="59.218512" lon="18.141582">
        <ele>24</ele>
        <time>2019-12-05T09:00:29Z</time>
      </trkpt>
      <trkpt lat="59.218487" lon="18.141588">
        <ele>24</ele>
        <time>2019-12-05T09:00:30Z</time>
      </trkpt>
      <trkpt lat="59.218458" lon="18.141594">
        <ele>24</ele>
        <time>2019-12-05T09:00:31Z</time>
      </trkpt>
      <trkpt lat="59.218426" lon="18.141604">
        <ele>24</ele>
        <time>2019-12-05T09:00:33Z</time>
      </trkpt>
      <trkpt lat="59.218392" lon="18.141622">
        <ele>24</ele>
        <time>2019-12-05T09:00:33Z</time>
      </trkpt>
      <trkpt lat="59.218358" lon="18.14164">
        <ele>23</ele>
        <time>2019-12-05T09:00:35Z</time>
      </trkpt>
      <trkpt lat="59.21832" lon="18.141648">
        <ele>23</ele>
        <time>2019-12-05T09:00:35Z</time>
      </trkpt>
      <trkpt lat="59.218282" lon="18.141624">
        <ele>23</ele>
        <time>2019-12-05T09:00:36Z</time>
      </trkpt>
      <trkpt lat="59.218249" lon="18.141576">
        <ele>23</ele>
        <time>2019-12-05T09:00:37Z</time>
      </trkpt>
      <trkpt lat="59.218215" lon="18.141528">
        <ele>23</ele>
        <time>2019-12-05T09:00:38Z</time>
      </trkpt>
      <trkpt lat="59.218177" lon="18.141498">
        <ele>23</ele>
        <time>2019-12-05T09:00:39Z</time>
      </trkpt>
      <trkpt lat="59.218136" lon="18.141488">
        <ele>23</ele>
        <time>2019-12-05T09:00:40Z</time>
      </trkpt>
      <trkpt lat="59.218096" lon="18.1415">
        <ele>24</ele>
        <time>2019-12-05T09:00:41Z</time>
      </trkpt>
      <trkpt lat="59.218056" lon="18.141526">
        <ele>23</ele>
        <time>2019-12-05T09:00:42Z</time>
      </trkpt>
      <trkpt lat="59.218017" lon="18.14156">
        <ele>23</ele>
        <time>2019-12-05T09:00:43Z</time>
      </trkpt>
      <trkpt lat="59.217979" lon="18.141598">
        <ele>23</ele>
        <time>2019-12-05T09:00:44Z</time>
      </trkpt>
      <trkpt lat="59.217942" lon="18.141642">
        <ele>23</ele>
        <time>2019-12-05T09:00:45Z</time>
      </trkpt>
      <trkpt lat="59.217904" lon="18.141686">
        <ele>23</ele>
        <time>2019-12-05T09:00:47Z</time>
      </trkpt>
      <trkpt lat="59.217865" lon="18.14173">
        <ele>23</ele>
        <time>2019-12-05T09:00:47Z</time>
      </trkpt>
      <trkpt lat="59.217825" lon="18.141778">
        <ele>23</ele>
        <time>2019-12-05T09:00:48Z</time>
      </trkpt>
      <trkpt lat="59.217784" lon="18.141826">
        <ele>23</ele>
        <time>2019-12-05T09:00:49Z</time>
      </trkpt>
      <trkpt lat="59.21774" lon="18.141872">
        <ele>23</ele>
        <time>2019-12-05T09:00:50Z</time>
      </trkpt>
      <trkpt lat="59.217696" lon="18.141918">
        <ele>23</ele>
        <time>2019-12-05T09:00:52Z</time>
      </trkpt>
      <trkpt lat="59.21765" lon="18.141964">
        <ele>23</ele>
        <time>2019-12-05T09:00:52Z</time>
      </trkpt>
      <trkpt lat="59.217603" lon="18.142012">
        <ele>23</ele>
        <time>2019-12-05T09:00:53Z</time>
      </trkpt>
      <trkpt lat="59.217556" lon="18.14206">
        <ele>23</ele>
        <time>2019-12-05T09:00:54Z</time>
      </trkpt>
      <trkpt lat="59.217511" lon="18.142112">
        <ele>23</ele>
        <time>2019-12-05T09:00:55Z</time>
      </trkpt>
      <trkpt lat="59.217467" lon="18.142164">
        <ele>23</ele>
        <time>2019-12-05T09:00:57Z</time>
      </trkpt>
      <trkpt lat="59.217423" lon="18.142216">
        <ele>23</ele>
        <time>2019-12-05T09:00:57Z</time>
      </trkpt>
      <trkpt lat="59.217379" lon="18.142268">
        <ele>23</ele>
        <time>2019-12-05T09:00:58Z</time>
      </trkpt>
      <trkpt lat="59.217335" lon="18.14232">
        <ele>23</ele>
        <time>2019-12-05T09:00:59Z</time>
      </trkpt>
      <trkpt lat="59.217291" lon="18.142372">
        <ele>23</ele>
        <time>2019-12-05T09:01:00Z</time>
      </trkpt>
      <trkpt lat="59.217247" lon="18.142424">
        <ele>23</ele>
        <time>2019-12-05T09:01:01Z</time>
      </trkpt>
      <trkpt lat="59.217202" lon="18.142478">
        <ele>23</ele>
        <time>2019-12-05T09:01:02Z</time>
      </trkpt>
      <trkpt lat="59.217157" lon="18.142532">
        <ele>23</ele>
        <time>2019-12-05T09:01:03Z</time>
      </trkpt>
      <trkpt lat="59.217112" lon="18.142586">
        <ele>23</ele>
        <time>2019-12-05T09:01:04Z</time>
      </trkpt>
      <trkpt lat="59.217066" lon="18.142639">
        <ele>23</ele>
        <time>2019-12-05T09:01:05Z</time>
      </trkpt>
      <trkpt lat="59.217021" lon="18.142692">
        <ele>23</ele>
        <time>2019-12-05T09:01:07Z</time>
      </trkpt>
      <trkpt lat="59.216976" lon="18.142745">
        <ele>23</ele>
        <time>2019-12-05T09:01:07Z</time>
      </trkpt>
      <trkpt lat="59.21693" lon="18.142802">
        <ele>24</ele>
        <time>2019-12-05T09:01:08Z</time>
      </trkpt>
      <trkpt lat="59.216883" lon="18.142859">
        <ele>24</ele>
        <time>2019-12-05T09:01:09Z</time>
      </trkpt>
      <trkpt lat="59.216835" lon="18.142915">
        <ele>24</ele>
        <time>2019-12-05T09:01:11Z</time>
      </trkpt>
      <trkpt lat="59.216787" lon="18.142972">
        <ele>24</ele>
        <time>2019-12-05T09:01:11Z</time>
      </trkpt>
      <trkpt lat="59.216739" lon="18.143027">
        <ele>24</ele>
        <time>2019-12-05T09:01:12Z</time>
      </trkpt>
      <trkpt lat="59.216691" lon="18.143082">
        <ele>23</ele>
        <time>2019-12-05T09:01:13Z</time>
      </trkpt>
      <trkpt lat="59.216644" lon="18.143136">
        <ele>23</ele>
        <time>2019-12-05T09:01:14Z</time>
      </trkpt>
      <trkpt lat="59.216597" lon="18.143189">
        <ele>23</ele>
        <time>2019-12-05T09:01:16Z</time>
      </trkpt>
      <trkpt lat="59.216549" lon="18.143245">
        <ele>23</ele>
        <time>2019-12-05T09:01:16Z</time>
      </trkpt>
      <trkpt lat="59.2165" lon="18.143302">
        <ele>23</ele>
        <time>2019-12-05T09:01:17Z</time>
      </trkpt>
      <trkpt lat="59.216452" lon="18.143357">
        <ele>23</ele>
        <time>2019-12-05T09:01:18Z</time>
      </trkpt>
      <trkpt lat="59.216405" lon="18.143412">
        <ele>23</ele>
        <time>2019-12-05T09:01:19Z</time>
      </trkpt>
      <trkpt lat="59.216359" lon="18.143468">
        <ele>23</ele>
        <time>2019-12-05T09:01:20Z</time>
      </trkpt>
      <trkpt lat="59.216314" lon="18.143523">
        <ele>23</ele>
        <time>2019-12-05T09:01:21Z</time>
      </trkpt>
      <trkpt lat="59.216268" lon="18.143576">
        <ele>23</ele>
        <time>2019-12-05T09:01:22Z</time>
      </trkpt>
      <trkpt lat="59.216224" lon="18.143629">
        <ele>23</ele>
        <time>2019-12-05T09:01:23Z</time>
      </trkpt>
      <trkpt lat="59.216182" lon="18.14368">
        <ele>23</ele>
        <time>2019-12-05T09:01:25Z</time>
      </trkpt>
      <trkpt lat="59.21614" lon="18.143727">
        <ele>23</ele>
        <time>2019-12-05T09:01:25Z</time>
      </trkpt>
      <trkpt lat="59.2161" lon="18.143774">
        <ele>24</ele>
        <time>2019-12-05T09:01:26Z</time>
      </trkpt>
      <trkpt lat="59.21606" lon="18.143822">
        <ele>24</ele>
        <time>2019-12-05T09:01:27Z</time>
      </trkpt>
      <trkpt lat="59.216021" lon="18.143869">
        <ele>24</ele>
        <time>2019-12-05T09:01:28Z</time>
      </trkpt>
      <trkpt lat="59.215982" lon="18.143916">
        <ele>24</ele>
        <time>2019-12-05T09:01:30Z</time>
      </trkpt>
      <trkpt lat="59.215942" lon="18.143962">
        <ele>24</ele>
        <time>2019-12-05T09:01:30Z</time>
      </trkpt>
      <trkpt lat="59.215903" lon="18.144008">
        <ele>24</ele>
        <time>2019-12-05T09:01:31Z</time>
      </trkpt>
      <trkpt lat="59.215865" lon="18.144053">
        <ele>24</ele>
        <time>2019-12-05T09:01:32Z</time>
      </trkpt>
      <trkpt lat="59.215826" lon="18.144097">
        <ele>24</ele>
        <time>2019-12-05T09:01:33Z</time>
      </trkpt>
      <trkpt lat="59.215786" lon="18.14414">
        <ele>24</ele>
        <time>2019-12-05T09:01:34Z</time>
      </trkpt>
      <trkpt lat="59.215747" lon="18.144185">
        <ele>24</ele>
        <time>2019-12-05T09:01:36Z</time>
      </trkpt>
      <trkpt lat="59.215707" lon="18.144229">
        <ele>24</ele>
        <time>2019-12-05T09:01:36Z</time>
      </trkpt>
      <trkpt lat="59.215666" lon="18.144272">
        <ele>24</ele>
        <time>2019-12-05T09:01:37Z</time>
      </trkpt>
      <trkpt lat="59.215626" lon="18.144316">
        <ele>24</ele>
        <time>2019-12-05T09:01:38Z</time>
      </trkpt>
      <trkpt lat="59.215587" lon="18.144361">
        <ele>25</ele>
        <time>2019-12-05T09:01:39Z</time>
      </trkpt>
      <trkpt lat="59.215549" lon="18.144406">
        <ele>25</ele>
        <time>2019-12-05T09:01:40Z</time>
      </trkpt>
      <trkpt lat="59.215511" lon="18.144454">
        <ele>25</ele>
        <time>2019-12-05T09:01:41Z</time>
      </trkpt>
      <trkpt lat="59.215472" lon="18.144499">
        <ele>25</ele>
        <time>2019-12-05T09:01:42Z</time>
      </trkpt>
      <trkpt lat="59.215433" lon="18.144545">
        <ele>25</ele>
        <time>2019-12-05T09:01:43Z</time>
      </trkpt>
      <trkpt lat="59.215395" lon="18.144589">
        <ele>25</ele>
        <time>2019-12-05T09:01:44Z</time>
      </trkpt>
      <trkpt lat="59.215355" lon="18.144634">
        <ele>25</ele>
        <time>2019-12-05T09:01:45Z</time>
      </trkpt>
      <trkpt lat="59.215316" lon="18.144681">
        <ele>25</ele>
        <time>2019-12-05T09:01:47Z</time>
      </trkpt>
      <trkpt lat="59.215276" lon="18.144727">
        <ele>25</ele>
        <time>2019-12-05T09:01:47Z</time>
      </trkpt>
      <trkpt lat="59.215235" lon="18.14477">
        <ele>25</ele>
        <time>2019-12-05T09:01:49Z</time>
      </trkpt>
      <trkpt lat="59.215198" lon="18.144814">
        <ele>26</ele>
        <time>2019-12-05T09:01:49Z</time>
      </trkpt>
      <trkpt lat="59.21516" lon="18.144856">
        <ele>26</ele>
        <time>2019-12-05T09:01:50Z</time>
      </trkpt>
      <trkpt lat="59.215123" lon="18.144898">
        <ele>26</ele>
        <time>2019-12-05T09:01:51Z</time>
      </trkpt>
      <trkpt lat="59.215088" lon="18.14494">
        <ele>26</ele>
        <time>2019-12-05T09:01:52Z</time>
      </trkpt>
      <trkpt lat="59.215052" lon="18.144983">
        <ele>26</ele>
        <time>2019-12-05T09:01:53Z</time>
      </trkpt>
      <trkpt lat="59.215018" lon="18.145027">
        <ele>26</ele>
        <time>2019-12-05T09:01:54Z</time>
      </trkpt>
      <trkpt lat="59.214982" lon="18.145069">
        <ele>26</ele>
        <time>2019-12-05T09:01:55Z</time>
      </trkpt>
      <trkpt lat="59.214946" lon="18.145111">
        <ele>26</ele>
        <time>2019-12-05T09:01:56Z</time>
      </trkpt>
      <trkpt lat="59.214911" lon="18.145157">
        <ele>26</ele>
        <time>2019-12-05T09:01:57Z</time>
      </trkpt>
      <trkpt lat="59.214876" lon="18.145203">
        <ele>26</ele>
        <time>2019-12-05T09:01:59Z</time>
      </trkpt>
      <trkpt lat="59.21484" lon="18.145247">
        <ele>26</ele>
        <time>2019-12-05T09:01:59Z</time>
      </trkpt>
      <trkpt lat="59.214802" lon="18.145288">
        <ele>26</ele>
        <time>2019-12-05T09:02:00Z</time>
      </trkpt>
      <trkpt lat="59.214766" lon="18.145331">
        <ele>27</ele>
        <time>2019-12-05T09:02:01Z</time>
      </trkpt>
      <trkpt lat="59.214728" lon="18.145374">
        <ele>27</ele>
        <time>2019-12-05T09:02:02Z</time>
      </trkpt>
      <trkpt lat="59.21469" lon="18.145419">
        <ele>27</ele>
        <time>2019-12-05T09:02:03Z</time>
      </trkpt>
      <trkpt lat="59.214653" lon="18.145464">
        <ele>27</ele>
        <time>2019-12-05T09:02:04Z</time>
      </trkpt>
      <trkpt lat="59.214614" lon="18.145507">
        <ele>27</ele>
        <time>2019-12-05T09:02:05Z</time>
      </trkpt>
      <trkpt lat="59.214576" lon="18.145552">
        <ele>27</ele>
        <time>2019-12-05T09:02:06Z</time>
      </trkpt>
      <trkpt lat="59.214538" lon="18.145599">
        <ele>27</ele>
        <time>2019-12-05T09:02:08Z</time>
      </trkpt>
      <trkpt lat="59.214502" lon="18.145645">
        <ele>27</ele>
        <time>2019-12-05T09:02:08Z</time>
      </trkpt>
      <trkpt lat="59.214467" lon="18.145688">
        <ele>27</ele>
        <time>2019-12-05T09:02:10Z</time>
      </trkpt>
      <trkpt lat="59.21443" lon="18.145732">
        <ele>27</ele>
        <time>2019-12-05T09:02:10Z</time>
      </trkpt>
      <trkpt lat="59.214396" lon="18.145774">
        <ele>27</ele>
        <time>2019-12-05T09:02:11Z</time>
      </trkpt>
      <trkpt lat="59.214362" lon="18.145817">
        <ele>27</ele>
        <time>2019-12-05T09:02:12Z</time>
      </trkpt>
      <trkpt lat="59.21433" lon="18.14586">
        <ele>27</ele>
        <time>2019-12-05T09:02:13Z</time>
      </trkpt>
      <trkpt lat="59.214296" lon="18.145902">
        <ele>27</ele>
        <time>2019-12-05T09:02:14Z</time>
      </trkpt>
      <trkpt lat="59.214263" lon="18.145941">
        <ele>27</ele>
        <time>2019-12-05T09:02:15Z</time>
      </trkpt>
      <trkpt lat="59.21423" lon="18.145981">
        <ele>27</ele>
        <time>2019-12-05T09:02:16Z</time>
      </trkpt>
      <trkpt lat="59.214197" lon="18.14602">
        <ele>27</ele>
        <time>2019-12-05T09:02:17Z</time>
      </trkpt>
      <trkpt lat="59.214162" lon="18.146059">
        <ele>28</ele>
        <time>2019-12-05T09:02:18Z</time>
      </trkpt>
      <trkpt lat="59.214128" lon="18.1461">
        <ele>28</ele>
        <time>2019-12-05T09:02:19Z</time>
      </trkpt>
      <trkpt lat="59.214094" lon="18.146141">
        <ele>28</ele>
        <time>2019-12-05T09:02:20Z</time>
      </trkpt>
      <trkpt lat="59.214058" lon="18.146178">
        <ele>28</ele>
        <time>2019-12-05T09:02:21Z</time>
      </trkpt>
      <trkpt lat="59.214022" lon="18.146214">
        <ele>28</ele>
        <time>2019-12-05T09:02:23Z</time>
      </trkpt>
      <trkpt lat="59.213988" lon="18.146251">
        <ele>28</ele>
        <time>2019-12-05T09:02:23Z</time>
      </trkpt>
      <trkpt lat="59.213952" lon="18.146291">
        <ele>28</ele>
        <time>2019-12-05T09:02:24Z</time>
      </trkpt>
      <trkpt lat="59.21392" lon="18.146333">
        <ele>28</ele>
        <time>2019-12-05T09:02:25Z</time>
      </trkpt>
      <trkpt lat="59.213885" lon="18.146375">
        <ele>28</ele>
        <time>2019-12-05T09:02:27Z</time>
      </trkpt>
      <trkpt lat="59.213851" lon="18.146414">
        <ele>28</ele>
        <time>2019-12-05T09:02:27Z</time>
      </trkpt>
      <trkpt lat="59.213816" lon="18.146451">
        <ele>28</ele>
        <time>2019-12-05T09:02:28Z</time>
      </trkpt>
      <trkpt lat="59.213778" lon="18.146486">
        <ele>28</ele>
        <time>2019-12-05T09:02:29Z</time>
      </trkpt>
      <trkpt lat="59.213741" lon="18.146521">
        <ele>28</ele>
        <time>2019-12-05T09:02:30Z</time>
      </trkpt>
      <trkpt lat="59.213702" lon="18.146555">
        <ele>29</ele>
        <time>2019-12-05T09:02:31Z</time>
      </trkpt>
      <trkpt lat="59.213666" lon="18.146589">
        <ele>29</ele>
        <time>2019-12-05T09:02:32Z</time>
      </trkpt>
      <trkpt lat="59.213628" lon="18.146625">
        <ele>29</ele>
        <time>2019-12-05T09:02:33Z</time>
      </trkpt>
      <trkpt lat="59.213592" lon="18.14666">
        <ele>29</ele>
        <time>2019-12-05T09:02:35Z</time>
      </trkpt>
      <trkpt lat="59.213554" lon="18.146692">
        <ele>29</ele>
        <time>2019-12-05T09:02:35Z</time>
      </trkpt>
      <trkpt lat="59.213516" lon="18.14672">
        <ele>29</ele>
        <time>2019-12-05T09:02:36Z</time>
      </trkpt>
      <trkpt lat="59.21348" lon="18.146747">
        <ele>29</ele>
        <time>2019-12-05T09:02:37Z</time>
      </trkpt>
      <trkpt lat="59.213442" lon="18.146774">
        <ele>29</ele>
        <time>2019-12-05T09:02:38Z</time>
      </trkpt>
      <trkpt lat="59.213404" lon="18.146801">
        <ele>29</ele>
        <time>2019-12-05T09:02:39Z</time>
      </trkpt>
      <trkpt lat="59.213366" lon="18.146828">
        <ele>29</ele>
        <time>2019-12-05T09:02:41Z</time>
      </trkpt>
      <trkpt lat="59.21333" lon="18.146852">
        <ele>30</ele>
        <time>2019-12-05T09:02:41Z</time>
      </trkpt>
      <trkpt lat="59.213292" lon="18.146876">
        <ele>30</ele>
        <time>2019-12-05T09:02:42Z</time>
      </trkpt>
      <trkpt lat="59.213256" lon="18.1469">
        <ele>30</ele>
        <time>2019-12-05T09:02:43Z</time>
      </trkpt>
      <trkpt lat="59.21322" lon="18.146922">
        <ele>30</ele>
        <time>2019-12-05T09:02:44Z</time>
      </trkpt>
      <trkpt lat="59.213184" lon="18.146942">
        <ele>30</ele>
        <time>2019-12-05T09:02:46Z</time>
      </trkpt>
      <trkpt lat="59.213148" lon="18.146959">
        <ele>30</ele>
        <time>2019-12-05T09:02:46Z</time>
      </trkpt>
      <trkpt lat="59.213112" lon="18.146974">
        <ele>30</ele>
        <time>2019-12-05T09:02:48Z</time>
      </trkpt>
      <trkpt lat="59.213078" lon="18.146992">
        <ele>31</ele>
        <time>2019-12-05T09:02:48Z</time>
      </trkpt>
      <trkpt lat="59.213043" lon="18.14701">
        <ele>31</ele>
        <time>2019-12-05T09:02:49Z</time>
      </trkpt>
      <trkpt lat="59.213008" lon="18.147026">
        <ele>31</ele>
        <time>2019-12-05T09:02:50Z</time>
      </trkpt>
      <trkpt lat="59.212978" lon="18.147038">
        <ele>31</ele>
        <time>2019-12-05T09:02:51Z</time>
      </trkpt>
      <trkpt lat="59.212948" lon="18.147048">
        <ele>31</ele>
        <time>2019-12-05T09:02:52Z</time>
      </trkpt>
      <trkpt lat="59.212918" lon="18.147058">
        <ele>31</ele>
        <time>2019-12-05T09:02:53Z</time>
      </trkpt>
      <trkpt lat="59.212888" lon="18.147067">
        <ele>31</ele>
        <time>2019-12-05T09:02:54Z</time>
      </trkpt>
      <trkpt lat="59.212858" lon="18.147076">
        <ele>31</ele>
        <time>2019-12-05T09:02:55Z</time>
      </trkpt>
      <trkpt lat="59.212829" lon="18.147085">
        <ele>32</ele>
        <time>2019-12-05T09:02:56Z</time>
      </trkpt>
      <trkpt lat="59.212798" lon="18.147093">
        <ele>32</ele>
        <time>2019-12-05T09:02:57Z</time>
      </trkpt>
      <trkpt lat="59.212768" lon="18.1471">
        <ele>32</ele>
        <time>2019-12-05T09:02:58Z</time>
      </trkpt>
      <trkpt lat="59.21274" lon="18.147108">
        <ele>32</ele>
        <time>2019-12-05T09:02:59Z</time>
      </trkpt>
      <trkpt lat="59.21271" lon="18.147113">
        <ele>32</ele>
        <time>2019-12-05T09:03:00Z</time>
      </trkpt>
      <trkpt lat="59.212682" lon="18.147118">
        <ele>32</ele>
        <time>2019-12-05T09:03:01Z</time>
      </trkpt>
      <trkpt lat="59.212653" lon="18.147124">
        <ele>32</ele>
        <time>2019-12-05T09:03:02Z</time>
      </trkpt>
      <trkpt lat="59.212625" lon="18.147131">
        <ele>32</ele>
        <time>2019-12-05T09:03:04Z</time>
      </trkpt>
      <trkpt lat="59.212596" lon="18.147137">
        <ele>32</ele>
        <time>2019-12-05T09:03:05Z</time>
      </trkpt>
      <trkpt lat="59.212567" lon="18.14714">
        <ele>32</ele>
        <time>2019-12-05T09:03:05Z</time>
      </trkpt>
      <trkpt lat="59.212538" lon="18.147145">
        <ele>33</ele>
        <time>2019-12-05T09:03:06Z</time>
      </trkpt>
      <trkpt lat="59.21251" lon="18.147151">
        <ele>33</ele>
        <time>2019-12-05T09:03:07Z</time>
      </trkpt>
      <trkpt lat="59.212482" lon="18.147157">
        <ele>33</ele>
        <time>2019-12-05T09:03:08Z</time>
      </trkpt>
      <trkpt lat="59.212454" lon="18.147161">
        <ele>33</ele>
        <time>2019-12-05T09:03:09Z</time>
      </trkpt>
      <trkpt lat="59.212426" lon="18.147165">
        <ele>33</ele>
        <time>2019-12-05T09:03:10Z</time>
      </trkpt>
      <trkpt lat="59.212398" lon="18.147167">
        <ele>33</ele>
        <time>2019-12-05T09:03:11Z</time>
      </trkpt>
      <trkpt lat="59.212371" lon="18.147168">
        <ele>34</ele>
        <time>2019-12-05T09:03:12Z</time>
      </trkpt>
      <trkpt lat="59.212344" lon="18.147169">
        <ele>34</ele>
        <time>2019-12-05T09:03:13Z</time>
      </trkpt>
      <trkpt lat="59.212316" lon="18.14717">
        <ele>34</ele>
        <time>2019-12-05T09:03:14Z</time>
      </trkpt>
      <trkpt lat="59.212289" lon="18.147172">
        <ele>34</ele>
        <time>2019-12-05T09:03:15Z</time>
      </trkpt>
      <trkpt lat="59.212262" lon="18.147174">
        <ele>34</ele>
        <time>2019-12-05T09:03:16Z</time>
      </trkpt>
      <trkpt lat="59.212235" lon="18.147175">
        <ele>34</ele>
        <time>2019-12-05T09:03:17Z</time>
      </trkpt>
      <trkpt lat="59.212208" lon="18.147174">
        <ele>35</ele>
        <time>2019-12-05T09:03:18Z</time>
      </trkpt>
      <trkpt lat="59.212179" lon="18.14717">
        <ele>35</ele>
        <time>2019-12-05T09:03:19Z</time>
      </trkpt>
      <trkpt lat="59.21215" lon="18.147167">
        <ele>35</ele>
        <time>2019-12-05T09:03:20Z</time>
      </trkpt>
      <trkpt lat="59.212123" lon="18.147163">
        <ele>35</ele>
        <time>2019-12-05T09:03:22Z</time>
      </trkpt>
      <trkpt lat="59.212096" lon="18.147159">
        <ele>35</ele>
        <time>2019-12-05T09:03:22Z</time>
      </trkpt>
      <trkpt lat="59.212068" lon="18.147157">
        <ele>35</ele>
        <time>2019-12-05T09:03:24Z</time>
      </trkpt>
      <trkpt lat="59.212041" lon="18.147156">
        <ele>35</ele>
        <time>2019-12-05T09:03:24Z</time>
      </trkpt>
      <trkpt lat="59.212014" lon="18.147155">
        <ele>35</ele>
        <time>2019-12-05T09:03:25Z</time>
      </trkpt>
      <trkpt lat="59.21199" lon="18.147154">
        <ele>36</ele>
        <time>2019-12-05T09:03:26Z</time>
      </trkpt>
      <trkpt lat="59.211968" lon="18.147151">
        <ele>36</ele>
        <time>2019-12-05T09:03:27Z</time>
      </trkpt>
      <trkpt lat="59.211944" lon="18.147149">
        <ele>36</ele>
        <time>2019-12-05T09:03:28Z</time>
      </trkpt>
      <trkpt lat="59.211922" lon="18.147148">
        <ele>36</ele>
        <time>2019-12-05T09:03:29Z</time>
      </trkpt>
      <trkpt lat="59.211899" lon="18.147145">
        <ele>36</ele>
        <time>2019-12-05T09:03:30Z</time>
      </trkpt>
      <trkpt lat="59.211876" lon="18.147142">
        <ele>37</ele>
        <time>2019-12-05T09:03:31Z</time>
      </trkpt>
      <trkpt lat="59.211854" lon="18.147142">
        <ele>37</ele>
        <time>2019-12-05T09:03:32Z</time>
      </trkpt>
      <trkpt lat="59.21183" lon="18.14714">
        <ele>37</ele>
        <time>2019-12-05T09:03:33Z</time>
      </trkpt>
      <trkpt lat="59.211806" lon="18.147134">
        <ele>37</ele>
        <time>2019-12-05T09:03:34Z</time>
      </trkpt>
      <trkpt lat="59.211783" lon="18.147124">
        <ele>37</ele>
        <time>2019-12-05T09:03:35Z</time>
      </trkpt>
      <trkpt lat="59.211762" lon="18.147117">
        <ele>38</ele>
        <time>2019-12-05T09:03:36Z</time>
      </trkpt>
      <trkpt lat="59.211743" lon="18.147107">
        <ele>38</ele>
        <time>2019-12-05T09:03:37Z</time>
      </trkpt>
      <trkpt lat="59.21172" lon="18.147096">
        <ele>38</ele>
        <time>2019-12-05T09:03:38Z</time>
      </trkpt>
      <trkpt lat="59.211694" lon="18.147082">
        <ele>38</ele>
        <time>2019-12-05T09:03:39Z</time>
      </trkpt>
      <trkpt lat="59.211672" lon="18.147072">
        <ele>38</ele>
        <time>2019-12-05T09:03:40Z</time>
      </trkpt>
      <trkpt lat="59.21165" lon="18.147061">
        <ele>39</ele>
        <time>2019-12-05T09:03:41Z</time>
      </trkpt>
      <trkpt lat="59.211629" lon="18.147051">
        <ele>0</ele>
        <time>2019-12-05T09:03:42Z</time>
      </trkpt>
      <trkpt lat="59.211607" lon="18.147042">
        <ele>39</ele>
        <time>2019-12-05T09:03:43Z</time>
      </trkpt>
      <trkpt lat="59.211584" lon="18.147038">
        <ele>39</ele>
        <time>2019-12-05T09:03:44Z</time>
      </trkpt>
      <trkpt lat="59.21156" lon="18.147034">
        <ele>39</ele>
        <time>2019-12-05T09:03:45Z</time>
      </trkpt>
      <trkpt lat="59.211539" lon="18.147026">
        <ele>39</ele>
        <time>2019-12-05T09:03:46Z</time>
      </trkpt>
      <trkpt lat="59.211516" lon="18.147018">
        <ele>40</ele>
        <time>2019-12-05T09:03:47Z</time>
      </trkpt>
      <trkpt lat="59.211496" lon="18.14701">
        <ele>40</ele>
        <time>2019-12-05T09:03:48Z</time>
      </trkpt>
      <trkpt lat="59.211474" lon="18.146999">
        <ele>40</ele>
        <time>2019-12-05T09:03:49Z</time>
      </trkpt>
      <trkpt lat="59.211452" lon="18.146988">
        <ele>40</ele>
        <time>2019-12-05T09:03:50Z</time>
      </trkpt>
      <trkpt lat="59.211428" lon="18.146976">
        <ele>40</ele>
        <time>2019-12-05T09:03:51Z</time>
      </trkpt>
      <trkpt lat="59.211406" lon="18.146964">
        <ele>41</ele>
        <time>2019-12-05T09:03:52Z</time>
      </trkpt>
      <trkpt lat="59.211383" lon="18.146949">
        <ele>41</ele>
        <time>2019-12-05T09:03:53Z</time>
      </trkpt>
      <trkpt lat="59.211359" lon="18.146936">
        <ele>41</ele>
        <time>2019-12-05T09:03:54Z</time>
      </trkpt>
      <trkpt lat="59.211336" lon="18.146927">
        <ele>41</ele>
        <time>2019-12-05T09:03:55Z</time>
      </trkpt>
      <trkpt lat="59.211312" lon="18.146912">
        <ele>41</ele>
        <time>2019-12-05T09:03:56Z</time>
      </trkpt>
      <trkpt lat="59.211289" lon="18.146893">
        <ele>41</ele>
        <time>2019-12-05T09:03:57Z</time>
      </trkpt>
      <trkpt lat="59.211262" lon="18.146875">
        <ele>42</ele>
        <time>2019-12-05T09:03:58Z</time>
      </trkpt>
      <trkpt lat="59.211236" lon="18.146859">
        <ele>42</ele>
        <time>2019-12-05T09:03:59Z</time>
      </trkpt>
      <trkpt lat="59.21121" lon="18.146845">
        <ele>42</ele>
        <time>2019-12-05T09:04:00Z</time>
      </trkpt>
      <trkpt lat="59.211185" lon="18.146832">
        <ele>42</ele>
        <time>2019-12-05T09:04:02Z</time>
      </trkpt>
      <trkpt lat="59.211161" lon="18.146817">
        <ele>42</ele>
        <time>2019-12-05T09:04:02Z</time>
      </trkpt>
      <trkpt lat="59.211138" lon="18.1468">
        <ele>42</ele>
        <time>2019-12-05T09:04:04Z</time>
      </trkpt>
      <trkpt lat="59.211114" lon="18.146784">
        <ele>42</ele>
        <time>2019-12-05T09:04:04Z</time>
      </trkpt>
      <trkpt lat="59.211091" lon="18.146766">
        <ele>42</ele>
        <time>2019-12-05T09:04:05Z</time>
      </trkpt>
      <trkpt lat="59.211066" lon="18.146744">
        <ele>42</ele>
        <time>2019-12-05T09:04:06Z</time>
      </trkpt>
      <trkpt lat="59.211041" lon="18.146721">
        <ele>42</ele>
        <time>2019-12-05T09:04:07Z</time>
      </trkpt>
      <trkpt lat="59.211016" lon="18.146699">
        <ele>42</ele>
        <time>2019-12-05T09:04:08Z</time>
      </trkpt>
      <trkpt lat="59.210993" lon="18.146677">
        <ele>42</ele>
        <time>2019-12-05T09:04:09Z</time>
      </trkpt>
      <trkpt lat="59.210969" lon="18.146654">
        <ele>42</ele>
        <time>2019-12-05T09:04:10Z</time>
      </trkpt>
      <trkpt lat="59.210945" lon="18.146633">
        <ele>42</ele>
        <time>2019-12-05T09:04:11Z</time>
      </trkpt>
      <trkpt lat="59.210921" lon="18.146612">
        <ele>42</ele>
        <time>2019-12-05T09:04:12Z</time>
      </trkpt>
      <trkpt lat="59.210897" lon="18.146592">
        <ele>43</ele>
        <time>2019-12-05T09:04:13Z</time>
      </trkpt>
      <trkpt lat="59.210875" lon="18.146572">
        <ele>43</ele>
        <time>2019-12-05T09:04:14Z</time>
      </trkpt>
      <trkpt lat="59.210854" lon="18.146548">
        <ele>43</ele>
        <time>2019-12-05T09:04:15Z</time>
      </trkpt>
      <trkpt lat="59.210832" lon="18.146524">
        <ele>43</ele>
        <time>2019-12-05T09:04:16Z</time>
      </trkpt>
      <trkpt lat="59.210811" lon="18.146502">
        <ele>43</ele>
        <time>2019-12-05T09:04:17Z</time>
      </trkpt>
      <trkpt lat="59.21079" lon="18.146481">
        <ele>43</ele>
        <time>2019-12-05T09:04:18Z</time>
      </trkpt>
      <trkpt lat="59.210768" lon="18.146458">
        <ele>43</ele>
        <time>2019-12-05T09:04:19Z</time>
      </trkpt>
      <trkpt lat="59.210744" lon="18.146435">
        <ele>43</ele>
        <time>2019-12-05T09:04:21Z</time>
      </trkpt>
      <trkpt lat="59.210719" lon="18.14641">
        <ele>43</ele>
        <time>2019-12-05T09:04:21Z</time>
      </trkpt>
      <trkpt lat="59.210696" lon="18.146385">
        <ele>43</ele>
        <time>2019-12-05T09:04:23Z</time>
      </trkpt>
      <trkpt lat="59.210672" lon="18.146361">
        <ele>43</ele>
        <time>2019-12-05T09:04:23Z</time>
      </trkpt>
      <trkpt lat="59.210649" lon="18.146337">
        <ele>44</ele>
        <time>2019-12-05T09:04:24Z</time>
      </trkpt>
      <trkpt lat="59.210627" lon="18.146312">
        <ele>44</ele>
        <time>2019-12-05T09:04:25Z</time>
      </trkpt>
      <trkpt lat="59.210602" lon="18.146288">
        <ele>44</ele>
        <time>2019-12-05T09:04:26Z</time>
      </trkpt>
      <trkpt lat="59.210576" lon="18.146261">
        <ele>44</ele>
        <time>2019-12-05T09:04:27Z</time>
      </trkpt>
      <trkpt lat="59.21055" lon="18.146234">
        <ele>44</ele>
        <time>2019-12-05T09:04:28Z</time>
      </trkpt>
      <trkpt lat="59.210525" lon="18.146207">
        <ele>44</ele>
        <time>2019-12-05T09:04:29Z</time>
      </trkpt>
      <trkpt lat="59.2105" lon="18.146179">
        <ele>44</ele>
        <time>2019-12-05T09:04:30Z</time>
      </trkpt>
      <trkpt lat="59.210477" lon="18.146149">
        <ele>44</ele>
        <time>2019-12-05T09:04:31Z</time>
      </trkpt>
      <trkpt lat="59.210454" lon="18.146119">
        <ele>45</ele>
        <time>2019-12-05T09:04:32Z</time>
      </trkpt>
      <trkpt lat="59.21043" lon="18.146093">
        <ele>45</ele>
        <time>2019-12-05T09:04:33Z</time>
      </trkpt>
      <trkpt lat="59.210407" lon="18.146066">
        <ele>45</ele>
        <time>2019-12-05T09:04:34Z</time>
      </trkpt>
      <trkpt lat="59.210383" lon="18.146037">
        <ele>45</ele>
        <time>2019-12-05T09:04:35Z</time>
      </trkpt>
      <trkpt lat="59.210358" lon="18.146009">
        <ele>45</ele>
        <time>2019-12-05T09:04:36Z</time>
      </trkpt>
      <trkpt lat="59.210333" lon="18.145981">
        <ele>45</ele>
        <time>2019-12-05T09:04:37Z</time>
      </trkpt>
      <trkpt lat="59.210307" lon="18.145953">
        <ele>46</ele>
        <time>2019-12-05T09:04:38Z</time>
      </trkpt>
      <trkpt lat="59.210279" lon="18.145928">
        <ele>46</ele>
        <time>2019-12-05T09:04:40Z</time>
      </trkpt>
      <trkpt lat="59.210251" lon="18.145907">
        <ele>46</ele>
        <time>2019-12-05T09:04:41Z</time>
      </trkpt>
      <trkpt lat="59.210222" lon="18.145889">
        <ele>46</ele>
        <time>2019-12-05T09:04:41Z</time>
      </trkpt>
      <trkpt lat="59.210193" lon="18.145872">
        <ele>46</ele>
        <time>2019-12-05T09:04:42Z</time>
      </trkpt>
      <trkpt lat="59.210165" lon="18.14585">
        <ele>46</ele>
        <time>2019-12-05T09:04:43Z</time>
      </trkpt>
      <trkpt lat="59.210141" lon="18.145823">
        <ele>46</ele>
        <time>2019-12-05T09:04:44Z</time>
      </trkpt>
      <trkpt lat="59.210118" lon="18.14579">
        <ele>47</ele>
        <time>2019-12-05T09:04:45Z</time>
      </trkpt>
      <trkpt lat="59.210095" lon="18.145753">
        <ele>47</ele>
        <time>2019-12-05T09:04:46Z</time>
      </trkpt>
      <trkpt lat="59.210073" lon="18.145714">
        <ele>47</ele>
        <time>2019-12-05T09:04:47Z</time>
      </trkpt>
      <trkpt lat="59.210052" lon="18.145674">
        <ele>47</ele>
        <time>2019-12-05T09:04:48Z</time>
      </trkpt>
      <trkpt lat="59.210032" lon="18.145633">
        <ele>47</ele>
        <time>2019-12-05T09:04:49Z</time>
      </trkpt>
      <trkpt lat="59.210014" lon="18.145588">
        <ele>48</ele>
        <time>2019-12-05T09:04:50Z</time>
      </trkpt>
      <trkpt lat="59.209997" lon="18.14554">
        <ele>48</ele>
        <time>2019-12-05T09:04:51Z</time>
      </trkpt>
      <trkpt lat="59.209979" lon="18.145491">
        <ele>48</ele>
        <time>2019-12-05T09:04:52Z</time>
      </trkpt>
      <trkpt lat="59.20996" lon="18.145442">
        <ele>48</ele>
        <time>2019-12-05T09:04:53Z</time>
      </trkpt>
      <trkpt lat="59.209941" lon="18.145392">
        <ele>48</ele>
        <time>2019-12-05T09:04:54Z</time>
      </trkpt>
      <trkpt lat="59.209922" lon="18.145342">
        <ele>48</ele>
        <time>2019-12-05T09:04:55Z</time>
      </trkpt>
      <trkpt lat="59.209903" lon="18.145292">
        <ele>48</ele>
        <time>2019-12-05T09:04:57Z</time>
      </trkpt>
      <trkpt lat="59.209884" lon="18.145242">
        <ele>48</ele>
        <time>2019-12-05T09:04:57Z</time>
      </trkpt>
      <trkpt lat="59.209863" lon="18.145194">
        <ele>48</ele>
        <time>2019-12-05T09:04:59Z</time>
      </trkpt>
      <trkpt lat="59.20984" lon="18.145147">
        <ele>48</ele>
        <time>2019-12-05T09:04:59Z</time>
      </trkpt>
      <trkpt lat="59.209816" lon="18.145101">
        <ele>48</ele>
        <time>2019-12-05T09:05:00Z</time>
      </trkpt>
      <trkpt lat="59.20979" lon="18.145059">
        <ele>48</ele>
        <time>2019-12-05T09:05:01Z</time>
      </trkpt>
      <trkpt lat="59.209763" lon="18.145019">
        <ele>48</ele>
        <time>2019-12-05T09:05:02Z</time>
      </trkpt>
      <trkpt lat="59.209735" lon="18.144978">
        <ele>48</ele>
        <time>2019-12-05T09:05:03Z</time>
      </trkpt>
      <trkpt lat="59.209708" lon="18.144942">
        <ele>48</ele>
        <time>2019-12-05T09:05:04Z</time>
      </trkpt>
      <trkpt lat="59.209678" lon="18.144913">
        <ele>49</ele>
        <time>2019-12-05T09:05:05Z</time>
      </trkpt>
      <trkpt lat="59.209646" lon="18.144897">
        <ele>49</ele>
        <time>2019-12-05T09:05:06Z</time>
      </trkpt>
      <trkpt lat="59.209613" lon="18.144884">
        <ele>49</ele>
        <time>2019-12-05T09:05:07Z</time>
      </trkpt>
      <trkpt lat="59.20958" lon="18.144851">
        <ele>49</ele>
        <time>2019-12-05T09:05:08Z</time>
      </trkpt>
      <trkpt lat="59.209552" lon="18.144801">
        <ele>49</ele>
        <time>2019-12-05T09:05:09Z</time>
      </trkpt>
      <trkpt lat="59.209526" lon="18.144745">
        <ele>49</ele>
        <time>2019-12-05T09:05:10Z</time>
      </trkpt>
      <trkpt lat="59.209507" lon="18.14468">
        <ele>49</ele>
        <time>2019-12-05T09:05:12Z</time>
      </trkpt>
      <trkpt lat="59.2095" lon="18.14461">
        <ele>49</ele>
        <time>2019-12-05T09:05:12Z</time>
      </trkpt>
      <trkpt lat="59.2095" lon="18.14454">
        <ele>49</ele>
        <time>2019-12-05T09:05:13Z</time>
      </trkpt>
      <trkpt lat="59.209496" lon="18.144471">
        <ele>49</ele>
        <time>2019-12-05T09:05:14Z</time>
      </trkpt>
      <trkpt lat="59.209488" lon="18.144403">
        <ele>49</ele>
        <time>2019-12-05T09:05:15Z</time>
      </trkpt>
      <trkpt lat="59.209477" lon="18.144335">
        <ele>49</ele>
        <time>2019-12-05T09:05:16Z</time>
      </trkpt>
      <trkpt lat="59.209462" lon="18.144269">
        <ele>49</ele>
        <time>2019-12-05T09:05:18Z</time>
      </trkpt>
      <trkpt lat="59.209445" lon="18.144206">
        <ele>49</ele>
        <time>2019-12-05T09:05:18Z</time>
      </trkpt>
      <trkpt lat="59.209427" lon="18.144144">
        <ele>49</ele>
        <time>2019-12-05T09:05:19Z</time>
      </trkpt>
      <trkpt lat="59.209406" lon="18.144082">
        <ele>49</ele>
        <time>2019-12-05T09:05:20Z</time>
      </trkpt>
      <trkpt lat="59.209383" lon="18.144021">
        <ele>50</ele>
        <time>2019-12-05T09:05:21Z</time>
      </trkpt>
      <trkpt lat="59.20936" lon="18.143961">
        <ele>50</ele>
        <time>2019-12-05T09:05:22Z</time>
      </trkpt>
      <trkpt lat="59.209335" lon="18.143901">
        <ele>50</ele>
        <time>2019-12-05T09:05:23Z</time>
      </trkpt>
      <trkpt lat="59.209309" lon="18.143841">
        <ele>50</ele>
        <time>2019-12-05T09:05:25Z</time>
      </trkpt>
      <trkpt lat="59.209284" lon="18.143779">
        <ele>50</ele>
        <time>2019-12-05T09:05:25Z</time>
      </trkpt>
      <trkpt lat="59.20926" lon="18.143716">
        <ele>50</ele>
        <time>2019-12-05T09:05:26Z</time>
      </trkpt>
      <trkpt lat="59.209235" lon="18.143653">
        <ele>50</ele>
        <time>2019-12-05T09:05:27Z</time>
      </trkpt>
      <trkpt lat="59.20921" lon="18.14359">
        <ele>50</ele>
        <time>2019-12-05T09:05:28Z</time>
      </trkpt>
      <trkpt lat="59.209185" lon="18.143528">
        <ele>50</ele>
        <time>2019-12-05T09:05:29Z</time>
      </trkpt>
      <trkpt lat="59.209161" lon="18.143466">
        <ele>50</ele>
        <time>2019-12-05T09:05:30Z</time>
      </trkpt>
      <trkpt lat="59.209135" lon="18.143407">
        <ele>51</ele>
        <time>2019-12-05T09:05:31Z</time>
      </trkpt>
      <trkpt lat="59.209111" lon="18.143348">
        <ele>51</ele>
        <time>2019-12-05T09:05:32Z</time>
      </trkpt>
      <trkpt lat="59.209087" lon="18.143289">
        <ele>51</ele>
        <time>2019-12-05T09:05:33Z</time>
      </trkpt>
      <trkpt lat="59.209062" lon="18.14323">
        <ele>51</ele>
        <time>2019-12-05T09:05:34Z</time>
      </trkpt>
      <trkpt lat="59.209036" lon="18.14317">
        <ele>51</ele>
        <time>2019-12-05T09:05:35Z</time>
      </trkpt>
      <trkpt lat="59.20901" lon="18.143109">
        <ele>51</ele>
        <time>2019-12-05T09:05:37Z</time>
      </trkpt>
      <trkpt lat="59.208985" lon="18.143048">
        <ele>51</ele>
        <time>2019-12-05T09:05:38Z</time>
      </trkpt>
      <trkpt lat="59.208958" lon="18.142988">
        <ele>51</ele>
        <time>2019-12-05T09:05:38Z</time>
      </trkpt>
      <trkpt lat="59.208932" lon="18.142926">
        <ele>51</ele>
        <time>2019-12-05T09:05:39Z</time>
      </trkpt>
      <trkpt lat="59.208905" lon="18.142862">
        <ele>51</ele>
        <time>2019-12-05T09:05:40Z</time>
      </trkpt>
      <trkpt lat="59.208879" lon="18.142796">
        <ele>51</ele>
        <time>2019-12-05T09:05:41Z</time>
      </trkpt>
      <trkpt lat="59.208853" lon="18.14273">
        <ele>51</ele>
        <time>2019-12-05T09:05:42Z</time>
      </trkpt>
      <trkpt lat="59.208827" lon="18.142664">
        <ele>51</ele>
        <time>2019-12-05T09:05:43Z</time>
      </trkpt>
      <trkpt lat="59.208799" lon="18.142598">
        <ele>51</ele>
        <time>2019-12-05T09:05:44Z</time>
      </trkpt>
      <trkpt lat="59.208771" lon="18.14253">
        <ele>51</ele>
        <time>2019-12-05T09:05:45Z</time>
      </trkpt>
      <trkpt lat="59.208743" lon="18.142461">
        <ele>51</ele>
        <time>2019-12-05T09:05:46Z</time>
      </trkpt>
      <trkpt lat="59.208713" lon="18.142391">
        <ele>52</ele>
        <time>2019-12-05T09:05:47Z</time>
      </trkpt>
      <trkpt lat="59.208683" lon="18.14232">
        <ele>52</ele>
        <time>2019-12-05T09:05:49Z</time>
      </trkpt>
      <trkpt lat="59.208651" lon="18.142248">
        <ele>52</ele>
        <time>2019-12-05T09:05:49Z</time>
      </trkpt>
      <trkpt lat="59.208619" lon="18.142175">
        <ele>52</ele>
        <time>2019-12-05T09:05:50Z</time>
      </trkpt>
      <trkpt lat="59.208585" lon="18.142101">
        <ele>52</ele>
        <time>2019-12-05T09:05:51Z</time>
      </trkpt>
      <trkpt lat="59.208549" lon="18.142027">
        <ele>52</ele>
        <time>2019-12-05T09:05:52Z</time>
      </trkpt>
      <trkpt lat="59.208512" lon="18.141952">
        <ele>52</ele>
        <time>2019-12-05T09:05:53Z</time>
      </trkpt>
      <trkpt lat="59.208472" lon="18.141876">
        <ele>52</ele>
        <time>2019-12-05T09:05:54Z</time>
      </trkpt>
      <trkpt lat="59.20843" lon="18.141795">
        <ele>52</ele>
        <time>2019-12-05T09:05:56Z</time>
      </trkpt>
      <trkpt lat="59.208386" lon="18.141708">
        <ele>52</ele>
        <time>2019-12-05T09:05:56Z</time>
      </trkpt>
      <trkpt lat="59.20834" lon="18.141622">
        <ele>52</ele>
        <time>2019-12-05T09:05:58Z</time>
      </trkpt>
      <trkpt lat="59.208292" lon="18.141541">
        <ele>52</ele>
        <time>2019-12-05T09:05:58Z</time>
      </trkpt>
      <trkpt lat="59.208241" lon="18.141461">
        <ele>51</ele>
        <time>2019-12-05T09:05:59Z</time>
      </trkpt>
      <trkpt lat="59.208189" lon="18.141381">
        <ele>51</ele>
        <time>2019-12-05T09:06:00Z</time>
      </trkpt>
      <trkpt lat="59.208136" lon="18.141305">
        <ele>51</ele>
        <time>2019-12-05T09:06:01Z</time>
      </trkpt>
      <trkpt lat="59.208081" lon="18.141234">
        <ele>51</ele>
        <time>2019-12-05T09:06:02Z</time>
      </trkpt>
      <trkpt lat="59.208027" lon="18.141164">
        <ele>51</ele>
        <time>2019-12-05T09:06:03Z</time>
      </trkpt>
      <trkpt lat="59.207972" lon="18.141096">
        <ele>51</ele>
        <time>2019-12-05T09:06:04Z</time>
      </trkpt>
      <trkpt lat="59.207916" lon="18.141032">
        <ele>51</ele>
        <time>2019-12-05T09:06:06Z</time>
      </trkpt>
      <trkpt lat="59.207859" lon="18.140972">
        <ele>51</ele>
        <time>2019-12-05T09:06:06Z</time>
      </trkpt>
      <trkpt lat="59.207805" lon="18.140913">
        <ele>51</ele>
        <time>2019-12-05T09:06:07Z</time>
      </trkpt>
      <trkpt lat="59.207751" lon="18.140855">
        <ele>50</ele>
        <time>2019-12-05T09:06:08Z</time>
      </trkpt>
      <trkpt lat="59.207691" lon="18.140797">
        <ele>50</ele>
        <time>2019-12-05T09:06:09Z</time>
      </trkpt>
      <trkpt lat="59.207628" lon="18.14074">
        <ele>50</ele>
        <time>2019-12-05T09:06:10Z</time>
      </trkpt>
      <trkpt lat="59.207564" lon="18.140684">
        <ele>50</ele>
        <time>2019-12-05T09:06:11Z</time>
      </trkpt>
      <trkpt lat="59.207498" lon="18.140634">
        <ele>49</ele>
        <time>2019-12-05T09:06:13Z</time>
      </trkpt>
      <trkpt lat="59.207434" lon="18.140592">
        <ele>49</ele>
        <time>2019-12-05T09:06:13Z</time>
      </trkpt>
      <trkpt lat="59.20737" lon="18.140553">
        <ele>49</ele>
        <time>2019-12-05T09:06:15Z</time>
      </trkpt>
      <trkpt lat="59.207311" lon="18.14052">
        <ele>49</ele>
        <time>2019-12-05T09:06:15Z</time>
      </trkpt>
      <trkpt lat="59.207254" lon="18.140489">
        <ele>49</ele>
        <time>2019-12-05T09:06:16Z</time>
      </trkpt>
      <trkpt lat="59.207201" lon="18.14046">
        <ele>49</ele>
        <time>2019-12-05T09:06:17Z</time>
      </trkpt>
      <trkpt lat="59.207147" lon="18.140439">
        <ele>49</ele>
        <time>2019-12-05T09:06:18Z</time>
      </trkpt>
      <trkpt lat="59.207082" lon="18.140413">
        <ele>49</ele>
        <time>2019-12-05T09:06:19Z</time>
      </trkpt>
      <trkpt lat="59.207012" lon="18.140394">
        <ele>48</ele>
        <time>2019-12-05T09:06:21Z</time>
      </trkpt>
      <trkpt lat="59.206938" lon="18.140381">
        <ele>48</ele>
        <time>2019-12-05T09:06:21Z</time>
      </trkpt>
      <trkpt lat="59.206862" lon="18.14037">
        <ele>47</ele>
        <time>2019-12-05T09:06:22Z</time>
      </trkpt>
      <trkpt lat="59.20679" lon="18.140361">
        <ele>47</ele>
        <time>2019-12-05T09:06:23Z</time>
      </trkpt>
      <trkpt lat="59.206719" lon="18.140352">
        <ele>46</ele>
        <time>2019-12-05T09:06:24Z</time>
      </trkpt>
      <trkpt lat="59.206652" lon="18.140346">
        <ele>46</ele>
        <time>2019-12-05T09:06:25Z</time>
      </trkpt>
      <trkpt lat="59.206586" lon="18.140345">
        <ele>46</ele>
        <time>2019-12-05T09:06:26Z</time>
      </trkpt>
      <trkpt lat="59.20652" lon="18.140351">
        <ele>46</ele>
        <time>2019-12-05T09:06:28Z</time>
      </trkpt>
      <trkpt lat="59.206454" lon="18.140367">
        <ele>45</ele>
        <time>2019-12-05T09:06:28Z</time>
      </trkpt>
      <trkpt lat="59.20639" lon="18.140405">
        <ele>45</ele>
        <time>2019-12-05T09:06:29Z</time>
      </trkpt>
      <trkpt lat="59.206336" lon="18.140469">
        <ele>45</ele>
        <time>2019-12-05T09:06:30Z</time>
      </trkpt>
      <trkpt lat="59.206287" lon="18.140553">
        <ele>44</ele>
        <time>2019-12-05T09:06:31Z</time>
      </trkpt>
      <trkpt lat="59.20624" lon="18.140645">
        <ele>44</ele>
        <time>2019-12-05T09:06:32Z</time>
      </trkpt>
      <trkpt lat="59.20619" lon="18.140733">
        <ele>44</ele>
        <time>2019-12-05T09:06:34Z</time>
      </trkpt>
      <trkpt lat="59.206131" lon="18.140803">
        <ele>44</ele>
        <time>2019-12-05T09:06:34Z</time>
      </trkpt>
      <trkpt lat="59.206069" lon="18.14085">
        <ele>44</ele>
        <time>2019-12-05T09:06:36Z</time>
      </trkpt>
      <trkpt lat="59.206006" lon="18.140888">
        <ele>44</ele>
        <time>2019-12-05T09:06:36Z</time>
      </trkpt>
      <trkpt lat="59.205942" lon="18.140922">
        <ele>44</ele>
        <time>2019-12-05T09:06:37Z</time>
      </trkpt>
      <trkpt lat="59.20588" lon="18.140952">
        <ele>44</ele>
        <time>2019-12-05T09:06:38Z</time>
      </trkpt>
      <trkpt lat="59.205819" lon="18.140989">
        <ele>43</ele>
        <time>2019-12-05T09:06:39Z</time>
      </trkpt>
      <trkpt lat="59.20576" lon="18.14103">
        <ele>43</ele>
        <time>2019-12-05T09:06:40Z</time>
      </trkpt>
      <trkpt lat="59.205703" lon="18.141076">
        <ele>43</ele>
        <time>2019-12-05T09:06:41Z</time>
      </trkpt>
      <trkpt lat="59.205647" lon="18.141122">
        <ele>43</ele>
        <time>2019-12-05T09:06:42Z</time>
      </trkpt>
      <trkpt lat="59.205592" lon="18.141169">
        <ele>43</ele>
        <time>2019-12-05T09:06:44Z</time>
      </trkpt>
      <trkpt lat="59.205538" lon="18.141216">
        <ele>43</ele>
        <time>2019-12-05T09:06:44Z</time>
      </trkpt>
      <trkpt lat="59.205486" lon="18.141262">
        <ele>43</ele>
        <time>2019-12-05T09:06:45Z</time>
      </trkpt>
      <trkpt lat="59.205435" lon="18.141309">
        <ele>43</ele>
        <time>2019-12-05T09:06:46Z</time>
      </trkpt>
      <trkpt lat="59.205383" lon="18.141355">
        <ele>42</ele>
        <time>2019-12-05T09:06:47Z</time>
      </trkpt>
      <trkpt lat="59.205329" lon="18.141402">
        <ele>42</ele>
        <time>2019-12-05T09:06:48Z</time>
      </trkpt>
      <trkpt lat="59.205273" lon="18.141448">
        <ele>42</ele>
        <time>2019-12-05T09:06:49Z</time>
      </trkpt>
      <trkpt lat="59.205214" lon="18.141497">
        <ele>42</ele>
        <time>2019-12-05T09:06:50Z</time>
      </trkpt>
      <trkpt lat="59.205155" lon="18.141546">
        <ele>41</ele>
        <time>2019-12-05T09:06:52Z</time>
      </trkpt>
      <trkpt lat="59.205092" lon="18.141594">
        <ele>41</ele>
        <time>2019-12-05T09:06:53Z</time>
      </trkpt>
      <trkpt lat="59.20503" lon="18.14164">
        <ele>41</ele>
        <time>2019-12-05T09:06:53Z</time>
      </trkpt>
      <trkpt lat="59.204969" lon="18.141685">
        <ele>41</ele>
        <time>2019-12-05T09:06:54Z</time>
      </trkpt>
      <trkpt lat="59.204911" lon="18.141726">
        <ele>41</ele>
        <time>2019-12-05T09:06:55Z</time>
      </trkpt>
      <trkpt lat="59.204851" lon="18.141764">
        <ele>41</ele>
        <time>2019-12-05T09:06:56Z</time>
      </trkpt>
      <trkpt lat="59.204791" lon="18.141802">
        <ele>40</ele>
        <time>2019-12-05T09:06:57Z</time>
      </trkpt>
      <trkpt lat="59.204729" lon="18.141838">
        <ele>40</ele>
        <time>2019-12-05T09:06:58Z</time>
      </trkpt>
      <trkpt lat="59.204667" lon="18.141871">
        <ele>40</ele>
        <time>2019-12-05T09:07:00Z</time>
      </trkpt>
      <trkpt lat="59.204603" lon="18.141905">
        <ele>40</ele>
        <time>2019-12-05T09:07:00Z</time>
      </trkpt>
      <trkpt lat="59.204537" lon="18.141935">
        <ele>40</ele>
        <time>2019-12-05T09:07:01Z</time>
      </trkpt>
      <trkpt lat="59.204472" lon="18.141962">
        <ele>40</ele>
        <time>2019-12-05T09:07:02Z</time>
      </trkpt>
      <trkpt lat="59.204409" lon="18.141989">
        <ele>40</ele>
        <time>2019-12-05T09:07:03Z</time>
      </trkpt>
      <trkpt lat="59.204344" lon="18.142016">
        <ele>40</ele>
        <time>2019-12-05T09:07:04Z</time>
      </trkpt>
      <trkpt lat="59.204282" lon="18.142043">
        <ele>40</ele>
        <time>2019-12-05T09:07:05Z</time>
      </trkpt>
      <trkpt lat="59.204217" lon="18.142068">
        <ele>40</ele>
        <time>2019-12-05T09:07:07Z</time>
      </trkpt>
      <trkpt lat="59.204154" lon="18.142092">
        <ele>40</ele>
        <time>2019-12-05T09:07:07Z</time>
      </trkpt>
      <trkpt lat="59.204092" lon="18.142115">
        <ele>39</ele>
        <time>2019-12-05T09:07:08Z</time>
      </trkpt>
      <trkpt lat="59.20403" lon="18.142137">
        <ele>39</ele>
        <time>2019-12-05T09:07:09Z</time>
      </trkpt>
      <trkpt lat="59.203968" lon="18.142159">
        <ele>39</ele>
        <time>2019-12-05T09:07:10Z</time>
      </trkpt>
      <trkpt lat="59.203908" lon="18.142179">
        <ele>39</ele>
        <time>2019-12-05T09:07:12Z</time>
      </trkpt>
      <trkpt lat="59.203849" lon="18.142195">
        <ele>39</ele>
        <time>2019-12-05T09:07:12Z</time>
      </trkpt>
      <trkpt lat="59.20379" lon="18.14221">
        <ele>39</ele>
        <time>2019-12-05T09:07:13Z</time>
      </trkpt>
      <trkpt lat="59.203732" lon="18.142226">
        <ele>39</ele>
        <time>2019-12-05T09:07:15Z</time>
      </trkpt>
      <trkpt lat="59.203676" lon="18.142238">
        <ele>39</ele>
        <time>2019-12-05T09:07:15Z</time>
      </trkpt>
      <trkpt lat="59.203619" lon="18.142247">
        <ele>39</ele>
        <time>2019-12-05T09:07:16Z</time>
      </trkpt>
      <trkpt lat="59.203562" lon="18.142253">
        <ele>39</ele>
        <time>2019-12-05T09:07:17Z</time>
      </trkpt>
      <trkpt lat="59.203506" lon="18.142258">
        <ele>38</ele>
        <time>2019-12-05T09:07:18Z</time>
      </trkpt>
      <trkpt lat="59.20345" lon="18.14226">
        <ele>38</ele>
        <time>2019-12-05T09:07:19Z</time>
      </trkpt>
      <trkpt lat="59.203394" lon="18.142262">
        <ele>38</ele>
        <time>2019-12-05T09:07:20Z</time>
      </trkpt>
      <trkpt lat="59.203339" lon="18.14226">
        <ele>38</ele>
        <time>2019-12-05T09:07:21Z</time>
      </trkpt>
      <trkpt lat="59.203285" lon="18.142255">
        <ele>38</ele>
        <time>2019-12-05T09:07:22Z</time>
      </trkpt>
      <trkpt lat="59.203229" lon="18.14225">
        <ele>38</ele>
        <time>2019-12-05T09:07:24Z</time>
      </trkpt>
      <trkpt lat="59.203173" lon="18.142241">
        <ele>38</ele>
        <time>2019-12-05T09:07:24Z</time>
      </trkpt>
      <trkpt lat="59.203118" lon="18.142228">
        <ele>38</ele>
        <time>2019-12-05T09:07:25Z</time>
      </trkpt>
      <trkpt lat="59.203064" lon="18.142214">
        <ele>38</ele>
        <time>2019-12-05T09:07:26Z</time>
      </trkpt>
      <trkpt lat="59.20301" lon="18.142203">
        <ele>38</ele>
        <time>2019-12-05T09:07:27Z</time>
      </trkpt>
      <trkpt lat="59.202957" lon="18.142193">
        <ele>38</ele>
        <time>2019-12-05T09:07:28Z</time>
      </trkpt>
      <trkpt lat="59.202904" lon="18.142185">
        <ele>37</ele>
        <time>2019-12-05T09:07:29Z</time>
      </trkpt>
      <trkpt lat="59.202851" lon="18.142178">
        <ele>37</ele>
        <time>2019-12-05T09:07:31Z</time>
      </trkpt>
      <trkpt lat="59.202798" lon="18.142175">
        <ele>37</ele>
        <time>2019-12-05T09:07:31Z</time>
      </trkpt>
      <trkpt lat="59.202746" lon="18.142176">
        <ele>37</ele>
        <time>2019-12-05T09:07:32Z</time>
      </trkpt>
      <trkpt lat="59.202692" lon="18.142181">
        <ele>37</ele>
        <time>2019-12-05T09:07:34Z</time>
      </trkpt>
      <trkpt lat="59.202637" lon="18.142188">
        <ele>37</ele>
        <time>2019-12-05T09:07:34Z</time>
      </trkpt>
      <trkpt lat="59.202581" lon="18.142198">
        <ele>37</ele>
        <time>2019-12-05T09:07:35Z</time>
      </trkpt>
      <trkpt lat="59.202525" lon="18.14221">
        <ele>37</ele>
        <time>2019-12-05T09:07:36Z</time>
      </trkpt>
      <trkpt lat="59.202465" lon="18.142223">
        <ele>37</ele>
        <time>2019-12-05T09:07:37Z</time>
      </trkpt>
      <trkpt lat="59.202404" lon="18.142229">
        <ele>37</ele>
        <time>2019-12-05T09:07:38Z</time>
      </trkpt>
      <trkpt lat="59.202342" lon="18.142227">
        <ele>37</ele>
        <time>2019-12-05T09:07:39Z</time>
      </trkpt>
      <trkpt lat="59.202277" lon="18.142214">
        <ele>37</ele>
        <time>2019-12-05T09:07:40Z</time>
      </trkpt>
      <trkpt lat="59.202214" lon="18.142192">
        <ele>36</ele>
        <time>2019-12-05T09:07:42Z</time>
      </trkpt>
      <trkpt lat="59.20215" lon="18.142165">
        <ele>36</ele>
        <time>2019-12-05T09:07:42Z</time>
      </trkpt>
      <trkpt lat="59.202085" lon="18.142138">
        <ele>36</ele>
        <time>2019-12-05T09:07:43Z</time>
      </trkpt>
      <trkpt lat="59.20202" lon="18.142109">
        <ele>35</ele>
        <time>2019-12-05T09:07:44Z</time>
      </trkpt>
      <trkpt lat="59.201956" lon="18.142078">
        <ele>35</ele>
        <time>2019-12-05T09:07:45Z</time>
      </trkpt>
      <trkpt lat="59.201892" lon="18.142048">
        <ele>35</ele>
        <time>2019-12-05T09:07:46Z</time>
      </trkpt>
      <trkpt lat="59.20183" lon="18.142019">
        <ele>35</ele>
        <time>2019-12-05T09:07:47Z</time>
      </trkpt>
      <trkpt lat="59.201767" lon="18.14199">
        <ele>35</ele>
        <time>2019-12-05T09:07:48Z</time>
      </trkpt>
      <trkpt lat="59.201706" lon="18.141963">
        <ele>0</ele>
        <time>2019-12-05T09:07:49Z</time>
      </trkpt>
      <trkpt lat="59.201647" lon="18.141936">
        <ele>35</ele>
        <time>2019-12-05T09:07:50Z</time>
      </trkpt>
      <trkpt lat="59.201588" lon="18.141908">
        <ele>34</ele>
        <time>2019-12-05T09:07:51Z</time>
      </trkpt>
      <trkpt lat="59.20153" lon="18.141877">
        <ele>34</ele>
        <time>2019-12-05T09:07:52Z</time>
      </trkpt>
      <trkpt lat="59.201472" lon="18.141842">
        <ele>34</ele>
        <time>2019-12-05T09:07:53Z</time>
      </trkpt>
      <trkpt lat="59.201412" lon="18.141803">
        <ele>34</ele>
        <time>2019-12-05T09:07:54Z</time>
      </trkpt>
      <trkpt lat="59.201354" lon="18.141759">
        <ele>34</ele>
        <time>2019-12-05T09:07:55Z</time>
      </trkpt>
      <trkpt lat="59.201294" lon="18.141711">
        <ele>33</ele>
        <time>2019-12-05T09:07:56Z</time>
      </trkpt>
      <trkpt lat="59.201236" lon="18.141661">
        <ele>33</ele>
        <time>2019-12-05T09:07:58Z</time>
      </trkpt>
      <trkpt lat="59.201176" lon="18.14161">
        <ele>33</ele>
        <time>2019-12-05T09:07:58Z</time>
      </trkpt>
      <trkpt lat="59.201114" lon="18.141557">
        <ele>33</ele>
        <time>2019-12-05T09:07:59Z</time>
      </trkpt>
      <trkpt lat="59.201052" lon="18.141502">
        <ele>33</ele>
        <time>2019-12-05T09:08:00Z</time>
      </trkpt>
      <trkpt lat="59.200991" lon="18.14145">
        <ele>33</ele>
        <time>2019-12-05T09:08:01Z</time>
      </trkpt>
      <trkpt lat="59.20093" lon="18.141401">
        <ele>32</ele>
        <time>2019-12-05T09:08:02Z</time>
      </trkpt>
      <trkpt lat="59.200869" lon="18.141353">
        <ele>32</ele>
        <time>2019-12-05T09:08:03Z</time>
      </trkpt>
      <trkpt lat="59.20081" lon="18.141313">
        <ele>32</ele>
        <time>2019-12-05T09:08:05Z</time>
      </trkpt>
      <trkpt lat="59.200746" lon="18.141289">
        <ele>32</ele>
        <time>2019-12-05T09:08:05Z</time>
      </trkpt>
      <trkpt lat="59.200683" lon="18.141293">
        <ele>32</ele>
        <time>2019-12-05T09:08:06Z</time>
      </trkpt>
      <trkpt lat="59.200618" lon="18.141327">
        <ele>32</ele>
        <time>2019-12-05T09:08:07Z</time>
      </trkpt>
      <trkpt lat="59.200554" lon="18.141384">
        <ele>31</ele>
        <time>2019-12-05T09:08:09Z</time>
      </trkpt>
      <trkpt lat="59.200491" lon="18.141452">
        <ele>31</ele>
        <time>2019-12-05T09:08:09Z</time>
      </trkpt>
      <trkpt lat="59.200427" lon="18.141523">
        <ele>31</ele>
        <time>2019-12-05T09:08:10Z</time>
      </trkpt>
      <trkpt lat="59.20036" lon="18.141594">
        <ele>30</ele>
        <time>2019-12-05T09:08:12Z</time>
      </trkpt>
      <trkpt lat="59.200293" lon="18.141668">
        <ele>29</ele>
        <time>2019-12-05T09:08:12Z</time>
      </trkpt>
      <trkpt lat="59.200223" lon="18.141741">
        <ele>29</ele>
        <time>2019-12-05T09:08:13Z</time>
      </trkpt>
      <trkpt lat="59.200154" lon="18.141819">
        <ele>28</ele>
        <time>2019-12-05T09:08:14Z</time>
      </trkpt>
      <trkpt lat="59.200083" lon="18.1419">
        <ele>28</ele>
        <time>2019-12-05T09:08:15Z</time>
      </trkpt>
      <trkpt lat="59.200013" lon="18.141984">
        <ele>27</ele>
        <time>2019-12-05T09:08:16Z</time>
      </trkpt>
      <trkpt lat="59.199943" lon="18.142075">
        <ele>26</ele>
        <time>2019-12-05T09:08:18Z</time>
      </trkpt>
      <trkpt lat="59.199876" lon="18.142174">
        <ele>26</ele>
        <time>2019-12-05T09:08:18Z</time>
      </trkpt>
      <trkpt lat="59.199812" lon="18.142285">
        <ele>25</ele>
        <time>2019-12-05T09:08:19Z</time>
      </trkpt>
      <trkpt lat="59.199758" lon="18.142407">
        <ele>25</ele>
        <time>2019-12-05T09:08:20Z</time>
      </trkpt>
      <trkpt lat="59.199712" lon="18.142531">
        <ele>25</ele>
        <time>2019-12-05T09:08:21Z</time>
      </trkpt>
      <trkpt lat="59.19967" lon="18.14266">
        <ele>25</ele>
        <time>2019-12-05T09:08:22Z</time>
      </trkpt>
      <trkpt lat="59.199621" lon="18.14277">
        <ele>25</ele>
        <time>2019-12-05T09:08:23Z</time>
      </trkpt>
      <trkpt lat="59.199563" lon="18.14286">
        <ele>25</ele>
        <time>2019-12-05T09:08:25Z</time>
      </trkpt>
      <trkpt lat="59.199498" lon="18.142928">
        <ele>25</ele>
        <time>2019-12-05T09:08:25Z</time>
      </trkpt>
      <trkpt lat="59.199428" lon="18.142971">
        <ele>25</ele>
        <time>2019-12-05T09:08:26Z</time>
      </trkpt>
      <trkpt lat="59.199356" lon="18.142995">
        <ele>25</ele>
        <time>2019-12-05T09:08:28Z</time>
      </trkpt>
      <trkpt lat="59.199287" lon="18.143">
        <ele>25</ele>
        <time>2019-12-05T09:08:28Z</time>
      </trkpt>
      <trkpt lat="59.19922" lon="18.142997">
        <ele>25</ele>
        <time>2019-12-05T09:08:29Z</time>
      </trkpt>
      <trkpt lat="59.199153" lon="18.142993">
        <ele>25</ele>
        <time>2019-12-05T09:08:30Z</time>
      </trkpt>
      <trkpt lat="59.199088" lon="18.14299">
        <ele>25</ele>
        <time>2019-12-05T09:08:32Z</time>
      </trkpt>
      <trkpt lat="59.199022" lon="18.142986">
        <ele>24</ele>
        <time>2019-12-05T09:08:32Z</time>
      </trkpt>
      <trkpt lat="59.198958" lon="18.142983">
        <ele>24</ele>
        <time>2019-12-05T09:08:33Z</time>
      </trkpt>
      <trkpt lat="59.198895" lon="18.142982">
        <ele>24</ele>
        <time>2019-12-05T09:08:34Z</time>
      </trkpt>
      <trkpt lat="59.198833" lon="18.142977">
        <ele>24</ele>
        <time>2019-12-05T09:08:35Z</time>
      </trkpt>
      <trkpt lat="59.198772" lon="18.142971">
        <ele>23</ele>
        <time>2019-12-05T09:08:36Z</time>
      </trkpt>
      <trkpt lat="59.198714" lon="18.142964">
        <ele>23</ele>
        <time>2019-12-05T09:08:37Z</time>
      </trkpt>
      <trkpt lat="59.198656" lon="18.142953">
        <ele>23</ele>
        <time>2019-12-05T09:08:38Z</time>
      </trkpt>
      <trkpt lat="59.198598" lon="18.142942">
        <ele>23</ele>
        <time>2019-12-05T09:08:40Z</time>
      </trkpt>
      <trkpt lat="59.198541" lon="18.142922">
        <ele>23</ele>
        <time>2019-12-05T09:08:40Z</time>
      </trkpt>
      <trkpt lat="59.198484" lon="18.142895">
        <ele>22</ele>
        <time>2019-12-05T09:08:41Z</time>
      </trkpt>
      <trkpt lat="59.198428" lon="18.142864">
        <ele>22</ele>
        <time>2019-12-05T09:08:42Z</time>
      </trkpt>
      <trkpt lat="59.198373" lon="18.142831">
        <ele>22</ele>
        <time>2019-12-05T09:08:43Z</time>
      </trkpt>
      <trkpt lat="59.198319" lon="18.142798">
        <ele>22</ele>
        <time>2019-12-05T09:08:44Z</time>
      </trkpt>
      <trkpt lat="59.198265" lon="18.142765">
        <ele>22</ele>
        <time>2019-12-05T09:08:45Z</time>
      </trkpt>
      <trkpt lat="59.198211" lon="18.142729">
        <ele>22</ele>
        <time>2019-12-05T09:08:47Z</time>
      </trkpt>
      <trkpt lat="59.198158" lon="18.142689">
        <ele>22</ele>
        <time>2019-12-05T09:08:47Z</time>
      </trkpt>
      <trkpt lat="59.198106" lon="18.142649">
        <ele>22</ele>
        <time>2019-12-05T09:08:49Z</time>
      </trkpt>
      <trkpt lat="59.198055" lon="18.142609">
        <ele>22</ele>
        <time>2019-12-05T09:08:49Z</time>
      </trkpt>
      <trkpt lat="59.198004" lon="18.142567">
        <ele>22</ele>
        <time>2019-12-05T09:08:50Z</time>
      </trkpt>
      <trkpt lat="59.197953" lon="18.142526">
        <ele>22</ele>
        <time>2019-12-05T09:08:51Z</time>
      </trkpt>
      <trkpt lat="59.197902" lon="18.142487">
        <ele>22</ele>
        <time>2019-12-05T09:08:52Z</time>
      </trkpt>
      <trkpt lat="59.197852" lon="18.142449">
        <ele>23</ele>
        <time>2019-12-05T09:08:53Z</time>
      </trkpt>
      <trkpt lat="59.197802" lon="18.142411">
        <ele>23</ele>
        <time>2019-12-05T09:08:54Z</time>
      </trkpt>
      <trkpt lat="59.197752" lon="18.142378">
        <ele>23</ele>
        <time>2019-12-05T09:08:55Z</time>
      </trkpt>
      <trkpt lat="59.197703" lon="18.142348">
        <ele>23</ele>
        <time>2019-12-05T09:08:56Z</time>
      </trkpt>
      <trkpt lat="59.197656" lon="18.142317">
        <ele>23</ele>
        <time>2019-12-05T09:08:58Z</time>
      </trkpt>
      <trkpt lat="59.197611" lon="18.142289">
        <ele>23</ele>
        <time>2019-12-05T09:08:58Z</time>
      </trkpt>
      <trkpt lat="59.197569" lon="18.142262">
        <ele>23</ele>
        <time>2019-12-05T09:08:59Z</time>
      </trkpt>
      <trkpt lat="59.19753" lon="18.142232">
        <ele>23</ele>
        <time>2019-12-05T09:09:00Z</time>
      </trkpt>
      <trkpt lat="59.197494" lon="18.142201">
        <ele>23</ele>
        <time>2019-12-05T09:09:01Z</time>
      </trkpt>
      <trkpt lat="59.197458" lon="18.142171">
        <ele>23</ele>
        <time>2019-12-05T09:09:02Z</time>
      </trkpt>
      <trkpt lat="59.197423" lon="18.142144">
        <ele>23</ele>
        <time>2019-12-05T09:09:03Z</time>
      </trkpt>
      <trkpt lat="59.197389" lon="18.142118">
        <ele>23</ele>
        <time>2019-12-05T09:09:04Z</time>
      </trkpt>
      <trkpt lat="59.197358" lon="18.142092">
        <ele>24</ele>
        <time>2019-12-05T09:09:06Z</time>
      </trkpt>
      <trkpt lat="59.197327" lon="18.142063">
        <ele>24</ele>
        <time>2019-12-05T09:09:06Z</time>
      </trkpt>
      <trkpt lat="59.197296" lon="18.142034">
        <ele>24</ele>
        <time>2019-12-05T09:09:07Z</time>
      </trkpt>
      <trkpt lat="59.197268" lon="18.142004">
        <ele>24</ele>
        <time>2019-12-05T09:09:08Z</time>
      </trkpt>
      <trkpt lat="59.197239" lon="18.14197">
        <ele>24</ele>
        <time>2019-12-05T09:09:09Z</time>
      </trkpt>
      <trkpt lat="59.19721" lon="18.141934">
        <ele>24</ele>
        <time>2019-12-05T09:09:10Z</time>
      </trkpt>
      <trkpt lat="59.197184" lon="18.141894">
        <ele>25</ele>
        <time>2019-12-05T09:09:12Z</time>
      </trkpt>
      <trkpt lat="59.19716" lon="18.141853">
        <ele>25</ele>
        <time>2019-12-05T09:09:12Z</time>
      </trkpt>
      <trkpt lat="59.197143" lon="18.141808">
        <ele>25</ele>
        <time>2019-12-05T09:09:13Z</time>
      </trkpt>
      <trkpt lat="59.197128" lon="18.141763">
        <ele>25</ele>
        <time>2019-12-05T09:09:14Z</time>
      </trkpt>
      <trkpt lat="59.19711" lon="18.141722">
        <ele>25</ele>
        <time>2019-12-05T09:09:15Z</time>
      </trkpt>
      <trkpt lat="59.197091" lon="18.141686">
        <ele>25</ele>
        <time>2019-12-05T09:09:16Z</time>
      </trkpt>
      <trkpt lat="59.197072" lon="18.141652">
        <ele>26</ele>
        <time>2019-12-05T09:09:17Z</time>
      </trkpt>
      <trkpt lat="59.19705" lon="18.141624">
        <ele>26</ele>
        <time>2019-12-05T09:09:18Z</time>
      </trkpt>
      <trkpt lat="59.197028" lon="18.141602">
        <ele>26</ele>
        <time>2019-12-05T09:09:19Z</time>
      </trkpt>
      <trkpt lat="59.197002" lon="18.141578">
        <ele>26</ele>
        <time>2019-12-05T09:09:20Z</time>
      </trkpt>
      <trkpt lat="59.196974" lon="18.141547">
        <ele>26</ele>
        <time>2019-12-05T09:09:21Z</time>
      </trkpt>
      <trkpt lat="59.196948" lon="18.141513">
        <ele>26</ele>
        <time>2019-12-05T09:09:22Z</time>
      </trkpt>
      <trkpt lat="59.196924" lon="18.141474">
        <ele>27</ele>
        <time>2019-12-05T09:09:23Z</time>
      </trkpt>
      <trkpt lat="59.1969" lon="18.141434">
        <ele>27</ele>
        <time>2019-12-05T09:09:25Z</time>
      </trkpt>
      <trkpt lat="59.196878" lon="18.141393">
        <ele>27</ele>
        <time>2019-12-05T09:09:25Z</time>
      </trkpt>
      <trkpt lat="59.196857" lon="18.14135">
        <ele>27</ele>
        <time>2019-12-05T09:09:26Z</time>
      </trkpt>
      <trkpt lat="59.196835" lon="18.14131">
        <ele>27</ele>
        <time>2019-12-05T09:09:27Z</time>
      </trkpt>
      <trkpt lat="59.196812" lon="18.141269">
        <ele>27</ele>
        <time>2019-12-05T09:09:29Z</time>
      </trkpt>
      <trkpt lat="59.196787" lon="18.141233">
        <ele>27</ele>
        <time>2019-12-05T09:09:29Z</time>
      </trkpt>
      <trkpt lat="59.196762" lon="18.1412">
        <ele>27</ele>
        <time>2019-12-05T09:09:30Z</time>
      </trkpt>
      <trkpt lat="59.196736" lon="18.141169">
        <ele>27</ele>
        <time>2019-12-05T09:09:31Z</time>
      </trkpt>
      <trkpt lat="59.196711" lon="18.141136">
        <ele>28</ele>
        <time>2019-12-05T09:09:32Z</time>
      </trkpt>
      <trkpt lat="59.196685" lon="18.141102">
        <ele>28</ele>
        <time>2019-12-05T09:09:33Z</time>
      </trkpt>
      <trkpt lat="59.196659" lon="18.14107">
        <ele>28</ele>
        <time>2019-12-05T09:09:34Z</time>
      </trkpt>
      <trkpt lat="59.196633" lon="18.141041">
        <ele>28</ele>
        <time>2019-12-05T09:09:35Z</time>
      </trkpt>
      <trkpt lat="59.196606" lon="18.141015">
        <ele>28</ele>
        <time>2019-12-05T09:09:36Z</time>
      </trkpt>
      <trkpt lat="59.196579" lon="18.14099">
        <ele>28</ele>
        <time>2019-12-05T09:09:37Z</time>
      </trkpt>
      <trkpt lat="59.196552" lon="18.14097">
        <ele>28</ele>
        <time>2019-12-05T09:09:38Z</time>
      </trkpt>
      <trkpt lat="59.196524" lon="18.140951">
        <ele>28</ele>
        <time>2019-12-05T09:09:39Z</time>
      </trkpt>
      <trkpt lat="59.196497" lon="18.14093">
        <ele>29</ele>
        <time>2019-12-05T09:09:40Z</time>
      </trkpt>
      <trkpt lat="59.19647" lon="18.140911">
        <ele>29</ele>
        <time>2019-12-05T09:09:41Z</time>
      </trkpt>
      <trkpt lat="59.196443" lon="18.140892">
        <ele>29</ele>
        <time>2019-12-05T09:09:42Z</time>
      </trkpt>
      <trkpt lat="59.196415" lon="18.140877">
        <ele>29</ele>
        <time>2019-12-05T09:09:44Z</time>
      </trkpt>
      <trkpt lat="59.196387" lon="18.140863">
        <ele>29</ele>
        <time>2019-12-05T09:09:44Z</time>
      </trkpt>
      <trkpt lat="59.196358" lon="18.140851">
        <ele>29</ele>
        <time>2019-12-05T09:09:46Z</time>
      </trkpt>
      <trkpt lat="59.196329" lon="18.140838">
        <ele>29</ele>
        <time>2019-12-05T09:09:46Z</time>
      </trkpt>
      <trkpt lat="59.196299" lon="18.140825">
        <ele>29</ele>
        <time>2019-12-05T09:09:47Z</time>
      </trkpt>
      <trkpt lat="59.19627" lon="18.140812">
        <ele>29</ele>
        <time>2019-12-05T09:09:48Z</time>
      </trkpt>
      <trkpt lat="59.196243" lon="18.1408">
        <ele>29</ele>
        <time>2019-12-05T09:09:49Z</time>
      </trkpt>
      <trkpt lat="59.196214" lon="18.140792">
        <ele>29</ele>
        <time>2019-12-05T09:09:50Z</time>
      </trkpt>
      <trkpt lat="59.196183" lon="18.140784">
        <ele>29</ele>
        <time>2019-12-05T09:09:51Z</time>
      </trkpt>
      <trkpt lat="59.196155" lon="18.140776">
        <ele>29</ele>
        <time>2019-12-05T09:09:52Z</time>
      </trkpt>
      <trkpt lat="59.196126" lon="18.140769">
        <ele>29</ele>
        <time>2019-12-05T09:09:53Z</time>
      </trkpt>
      <trkpt lat="59.196099" lon="18.140762">
        <ele>29</ele>
        <time>2019-12-05T09:09:54Z</time>
      </trkpt>
      <trkpt lat="59.196072" lon="18.140754">
        <ele>29</ele>
        <time>2019-12-05T09:09:55Z</time>
      </trkpt>
      <trkpt lat="59.196046" lon="18.140747">
        <ele>29</ele>
        <time>2019-12-05T09:09:56Z</time>
      </trkpt>
      <trkpt lat="59.196019" lon="18.140738">
        <ele>29</ele>
        <time>2019-12-05T09:09:57Z</time>
      </trkpt>
      <trkpt lat="59.195988" lon="18.14073">
        <ele>29</ele>
        <time>2019-12-05T09:09:58Z</time>
      </trkpt>
      <trkpt lat="59.195957" lon="18.140722">
        <ele>29</ele>
        <time>2019-12-05T09:09:59Z</time>
      </trkpt>
      <trkpt lat="59.195927" lon="18.140716">
        <ele>29</ele>
        <time>2019-12-05T09:10:00Z</time>
      </trkpt>
      <trkpt lat="59.195896" lon="18.140708">
        <ele>29</ele>
        <time>2019-12-05T09:10:01Z</time>
      </trkpt>
      <trkpt lat="59.195867" lon="18.140703">
        <ele>0</ele>
        <time>2019-12-05T09:10:02Z</time>
      </trkpt>
      <trkpt lat="59.195838" lon="18.140698">
        <ele>29</ele>
        <time>2019-12-05T09:10:03Z</time>
      </trkpt>
      <trkpt lat="59.195808" lon="18.140691">
        <ele>29</ele>
        <time>2019-12-05T09:10:04Z</time>
      </trkpt>
      <trkpt lat="59.195779" lon="18.140686">
        <ele>29</ele>
        <time>2019-12-05T09:10:05Z</time>
      </trkpt>
      <trkpt lat="59.195749" lon="18.140684">
        <ele>29</ele>
        <time>2019-12-05T09:10:06Z</time>
      </trkpt>
      <trkpt lat="59.19572" lon="18.14068">
        <ele>29</ele>
        <time>2019-12-05T09:10:07Z</time>
      </trkpt>
      <trkpt lat="59.195692" lon="18.140675">
        <ele>29</ele>
        <time>2019-12-05T09:10:08Z</time>
      </trkpt>
      <trkpt lat="59.195664" lon="18.140669">
        <ele>30</ele>
        <time>2019-12-05T09:10:09Z</time>
      </trkpt>
      <trkpt lat="59.195637" lon="18.140663">
        <ele>30</ele>
        <time>2019-12-05T09:10:11Z</time>
      </trkpt>
      <trkpt lat="59.195611" lon="18.140657">
        <ele>30</ele>
        <time>2019-12-05T09:10:11Z</time>
      </trkpt>
      <trkpt lat="59.195586" lon="18.140652">
        <ele>30</ele>
        <time>2019-12-05T09:10:12Z</time>
      </trkpt>
      <trkpt lat="59.19556" lon="18.140648">
        <ele>30</ele>
        <time>2019-12-05T09:10:13Z</time>
      </trkpt>
      <trkpt lat="59.195534" lon="18.140643">
        <ele>30</ele>
        <time>2019-12-05T09:10:14Z</time>
      </trkpt>
      <trkpt lat="59.195507" lon="18.140638">
        <ele>30</ele>
        <time>2019-12-05T09:10:15Z</time>
      </trkpt>
      <trkpt lat="59.195479" lon="18.140633">
        <ele>31</ele>
        <time>2019-12-05T09:10:16Z</time>
      </trkpt>
      <trkpt lat="59.195452" lon="18.140628">
        <ele>31</ele>
        <time>2019-12-05T09:10:17Z</time>
      </trkpt>
      <trkpt lat="59.195423" lon="18.140626">
        <ele>31</ele>
        <time>2019-12-05T09:10:18Z</time>
      </trkpt>
      <trkpt lat="59.195395" lon="18.140626">
        <ele>31</ele>
        <time>2019-12-05T09:10:19Z</time>
      </trkpt>
      <trkpt lat="59.195364" lon="18.140627">
        <ele>31</ele>
        <time>2019-12-05T09:10:21Z</time>
      </trkpt>
      <trkpt lat="59.195334" lon="18.140629">
        <ele>31</ele>
        <time>2019-12-05T09:10:22Z</time>
      </trkpt>
      <trkpt lat="59.195303" lon="18.140632">
        <ele>31</ele>
        <time>2019-12-05T09:10:22Z</time>
      </trkpt>
      <trkpt lat="59.195273" lon="18.140635">
        <ele>31</ele>
        <time>2019-12-05T09:10:23Z</time>
      </trkpt>
      <trkpt lat="59.195244" lon="18.140638">
        <ele>31</ele>
        <time>2019-12-05T09:10:24Z</time>
      </trkpt>
      <trkpt lat="59.195215" lon="18.140644">
        <ele>31</ele>
        <time>2019-12-05T09:10:25Z</time>
      </trkpt>
      <trkpt lat="59.195188" lon="18.140652">
        <ele>32</ele>
        <time>2019-12-05T09:10:26Z</time>
      </trkpt>
      <trkpt lat="59.195162" lon="18.14066">
        <ele>32</ele>
        <time>2019-12-05T09:10:27Z</time>
      </trkpt>
      <trkpt lat="59.195135" lon="18.140669">
        <ele>32</ele>
        <time>2019-12-05T09:10:28Z</time>
      </trkpt>
      <trkpt lat="59.195108" lon="18.14068">
        <ele>32</ele>
        <time>2019-12-05T09:10:29Z</time>
      </trkpt>
      <trkpt lat="59.195082" lon="18.140694">
        <ele>32</ele>
        <time>2019-12-05T09:10:30Z</time>
      </trkpt>
      <trkpt lat="59.195057" lon="18.140709">
        <ele>32</ele>
        <time>2019-12-05T09:10:31Z</time>
      </trkpt>
      <trkpt lat="59.195032" lon="18.140725">
        <ele>33</ele>
        <time>2019-12-05T09:10:32Z</time>
      </trkpt>
      <trkpt lat="59.195008" lon="18.140742">
        <ele>33</ele>
        <time>2019-12-05T09:10:33Z</time>
      </trkpt>
      <trkpt lat="59.194981" lon="18.14076">
        <ele>33</ele>
        <time>2019-12-05T09:10:34Z</time>
      </trkpt>
      <trkpt lat="59.194956" lon="18.140779">
        <ele>33</ele>
        <time>2019-12-05T09:10:35Z</time>
      </trkpt>
      <trkpt lat="59.194931" lon="18.140798">
        <ele>34</ele>
        <time>2019-12-05T09:10:36Z</time>
      </trkpt>
      <trkpt lat="59.194905" lon="18.140816">
        <ele>34</ele>
        <time>2019-12-05T09:10:37Z</time>
      </trkpt>
      <trkpt lat="59.194881" lon="18.140835">
        <ele>34</ele>
        <time>2019-12-05T09:10:39Z</time>
      </trkpt>
      <trkpt lat="59.194857" lon="18.140858">
        <ele>34</ele>
        <time>2019-12-05T09:10:39Z</time>
      </trkpt>
      <trkpt lat="59.194833" lon="18.140879">
        <ele>34</ele>
        <time>2019-12-05T09:10:41Z</time>
      </trkpt>
      <trkpt lat="59.194809" lon="18.1409">
        <ele>35</ele>
        <time>2019-12-05T09:10:41Z</time>
      </trkpt>
      <trkpt lat="59.194786" lon="18.140921">
        <ele>35</ele>
        <time>2019-12-05T09:10:42Z</time>
      </trkpt>
      <trkpt lat="59.194763" lon="18.140943">
        <ele>35</ele>
        <time>2019-12-05T09:10:43Z</time>
      </trkpt>
      <trkpt lat="59.194739" lon="18.140966">
        <ele>35</ele>
        <time>2019-12-05T09:10:44Z</time>
      </trkpt>
      <trkpt lat="59.194715" lon="18.140991">
        <ele>35</ele>
        <time>2019-12-05T09:10:45Z</time>
      </trkpt>
      <trkpt lat="59.19469" lon="18.141014">
        <ele>36</ele>
        <time>2019-12-05T09:10:46Z</time>
      </trkpt>
      <trkpt lat="59.194665" lon="18.141037">
        <ele>36</ele>
        <time>2019-12-05T09:10:47Z</time>
      </trkpt>
      <trkpt lat="59.19464" lon="18.141062">
        <ele>36</ele>
        <time>2019-12-05T09:10:48Z</time>
      </trkpt>
      <trkpt lat="59.194615" lon="18.141088">
        <ele>36</ele>
        <time>2019-12-05T09:10:49Z</time>
      </trkpt>
      <trkpt lat="59.19459" lon="18.141112">
        <ele>37</ele>
        <time>2019-12-05T09:10:50Z</time>
      </trkpt>
      <trkpt lat="59.194566" lon="18.141139">
        <ele>37</ele>
        <time>2019-12-05T09:10:51Z</time>
      </trkpt>
      <trkpt lat="59.194542" lon="18.141165">
        <ele>37</ele>
        <time>2019-12-05T09:10:52Z</time>
      </trkpt>
      <trkpt lat="59.194514" lon="18.141195">
        <ele>38</ele>
        <time>2019-12-05T09:10:53Z</time>
      </trkpt>
      <trkpt lat="59.194486" lon="18.141227">
        <ele>38</ele>
        <time>2019-12-05T09:10:54Z</time>
      </trkpt>
      <trkpt lat="59.194456" lon="18.141255">
        <ele>38</ele>
        <time>2019-12-05T09:10:55Z</time>
      </trkpt>
      <trkpt lat="59.194424" lon="18.141287">
        <ele>38</ele>
        <time>2019-12-05T09:10:57Z</time>
      </trkpt>
      <trkpt lat="59.194393" lon="18.141319">
        <ele>39</ele>
        <time>2019-12-05T09:10:57Z</time>
      </trkpt>
      <trkpt lat="59.194362" lon="18.141349">
        <ele>39</ele>
        <time>2019-12-05T09:10:58Z</time>
      </trkpt>
      <trkpt lat="59.194332" lon="18.141376">
        <ele>39</ele>
        <time>2019-12-05T09:11:00Z</time>
      </trkpt>
      <trkpt lat="59.194303" lon="18.141404">
        <ele>39</ele>
        <time>2019-12-05T09:11:00Z</time>
      </trkpt>
      <trkpt lat="59.194273" lon="18.141434">
        <ele>39</ele>
        <time>2019-12-05T09:11:01Z</time>
      </trkpt>
      <trkpt lat="59.194242" lon="18.141464">
        <ele>39</ele>
        <time>2019-12-05T09:11:02Z</time>
      </trkpt>
      <trkpt lat="59.194212" lon="18.141491">
        <ele>39</ele>
        <time>2019-12-05T09:11:03Z</time>
      </trkpt>
      <trkpt lat="59.194183" lon="18.141518">
        <ele>39</ele>
        <time>2019-12-05T09:11:04Z</time>
      </trkpt>
      <trkpt lat="59.194154" lon="18.141546">
        <ele>39</ele>
        <time>2019-12-05T09:11:05Z</time>
      </trkpt>
      <trkpt lat="59.194125" lon="18.141574">
        <ele>39</ele>
        <time>2019-12-05T09:11:06Z</time>
      </trkpt>
      <trkpt lat="59.194096" lon="18.1416">
        <ele>39</ele>
        <time>2019-12-05T09:11:07Z</time>
      </trkpt>
      <trkpt lat="59.194066" lon="18.141625">
        <ele>40</ele>
        <time>2019-12-05T09:11:08Z</time>
      </trkpt>
      <trkpt lat="59.194038" lon="18.141649">
        <ele>40</ele>
        <time>2019-12-05T09:11:09Z</time>
      </trkpt>
      <trkpt lat="59.194008" lon="18.141675">
        <ele>40</ele>
        <time>2019-12-05T09:11:10Z</time>
      </trkpt>
      <trkpt lat="59.19398" lon="18.141701">
        <ele>40</ele>
        <time>2019-12-05T09:11:12Z</time>
      </trkpt>
      <trkpt lat="59.193954" lon="18.141729">
        <ele>40</ele>
        <time>2019-12-05T09:11:12Z</time>
      </trkpt>
      <trkpt lat="59.193926" lon="18.141759">
        <ele>40</ele>
        <time>2019-12-05T09:11:13Z</time>
      </trkpt>
      <trkpt lat="59.193899" lon="18.141786">
        <ele>40</ele>
        <time>2019-12-05T09:11:14Z</time>
      </trkpt>
      <trkpt lat="59.193872" lon="18.141815">
        <ele>40</ele>
        <time>2019-12-05T09:11:15Z</time>
      </trkpt>
      <trkpt lat="59.193848" lon="18.141845">
        <ele>40</ele>
        <time>2019-12-05T09:11:16Z</time>
      </trkpt>
      <trkpt lat="59.193822" lon="18.14187">
        <ele>40</ele>
        <time>2019-12-05T09:11:17Z</time>
      </trkpt>
      <trkpt lat="59.193794" lon="18.141891">
        <ele>40</ele>
        <time>2019-12-05T09:11:19Z</time>
      </trkpt>
      <trkpt lat="59.193767" lon="18.14191">
        <ele>40</ele>
        <time>2019-12-05T09:11:19Z</time>
      </trkpt>
      <trkpt lat="59.193744" lon="18.141931">
        <ele>41</ele>
        <time>2019-12-05T09:11:20Z</time>
      </trkpt>
      <trkpt lat="59.193724" lon="18.141952">
        <ele>41</ele>
        <time>2019-12-05T09:11:21Z</time>
      </trkpt>
      <trkpt lat="59.193702" lon="18.14197">
        <ele>41</ele>
        <time>2019-12-05T09:11:22Z</time>
      </trkpt>
      <trkpt lat="59.19368" lon="18.141987">
        <ele>41</ele>
        <time>2019-12-05T09:11:23Z</time>
      </trkpt>
      <trkpt lat="59.19366" lon="18.142001">
        <ele>41</ele>
        <time>2019-12-05T09:11:24Z</time>
      </trkpt>
      <trkpt lat="59.193644" lon="18.142013">
        <ele>41</ele>
        <time>2019-12-05T09:11:25Z</time>
      </trkpt>
      <trkpt lat="59.193622" lon="18.142025">
        <ele>41</ele>
        <time>2019-12-05T09:11:27Z</time>
      </trkpt>
      <trkpt lat="59.193622" lon="18.142025">
        <ele>0</ele>
        <time>2019-12-05T09:11:31Z</time>
      </trkpt>
      <trkpt lat="59.193608" lon="18.142087">
        <ele>44</ele>
        <time>2019-12-05T09:12:19Z</time>
      </trkpt>
      <trkpt lat="59.193592" lon="18.142114">
        <ele>44</ele>
        <time>2019-12-05T09:12:19Z</time>
      </trkpt>
      <trkpt lat="59.193572" lon="18.142137">
        <ele>45</ele>
        <time>2019-12-05T09:12:20Z</time>
      </trkpt>
      <trkpt lat="59.193546" lon="18.142158">
        <ele>45</ele>
        <time>2019-12-05T09:12:21Z</time>
      </trkpt>
      <trkpt lat="59.193517" lon="18.142181">
        <ele>45</ele>
        <time>2019-12-05T09:12:23Z</time>
      </trkpt>
      <trkpt lat="59.193483" lon="18.142208">
        <ele>45</ele>
        <time>2019-12-05T09:12:23Z</time>
      </trkpt>
      <trkpt lat="59.193445" lon="18.142235">
        <ele>45</ele>
        <time>2019-12-05T09:12:24Z</time>
      </trkpt>
      <trkpt lat="59.193405" lon="18.14226">
        <ele>45</ele>
        <time>2019-12-05T09:12:25Z</time>
      </trkpt>
      <trkpt lat="59.193363" lon="18.142285">
        <ele>45</ele>
        <time>2019-12-05T09:12:26Z</time>
      </trkpt>
      <trkpt lat="59.193321" lon="18.142312">
        <ele>45</ele>
        <time>2019-12-05T09:12:27Z</time>
      </trkpt>
      <trkpt lat="59.193277" lon="18.142341">
        <ele>45</ele>
        <time>2019-12-05T09:12:28Z</time>
      </trkpt>
      <trkpt lat="59.193235" lon="18.142373">
        <ele>45</ele>
        <time>2019-12-05T09:12:29Z</time>
      </trkpt>
      <trkpt lat="59.193191" lon="18.142408">
        <ele>45</ele>
        <time>2019-12-05T09:12:30Z</time>
      </trkpt>
      <trkpt lat="59.193148" lon="18.142447">
        <ele>45</ele>
        <time>2019-12-05T09:12:31Z</time>
      </trkpt>
      <trkpt lat="59.193106" lon="18.14249">
        <ele>45</ele>
        <time>2019-12-05T09:12:32Z</time>
      </trkpt>
      <trkpt lat="59.193061" lon="18.142532">
        <ele>45</ele>
        <time>2019-12-05T09:12:34Z</time>
      </trkpt>
      <trkpt lat="59.193015" lon="18.142572">
        <ele>45</ele>
        <time>2019-12-05T09:12:34Z</time>
      </trkpt>
      <trkpt lat="59.192969" lon="18.142614">
        <ele>45</ele>
        <time>2019-12-05T09:12:35Z</time>
      </trkpt>
      <trkpt lat="59.192924" lon="18.142658">
        <ele>45</ele>
        <time>2019-12-05T09:12:36Z</time>
      </trkpt>
      <trkpt lat="59.192879" lon="18.142704">
        <ele>45</ele>
        <time>2019-12-05T09:12:38Z</time>
      </trkpt>
      <trkpt lat="59.192832" lon="18.142754">
        <ele>45</ele>
        <time>2019-12-05T09:12:38Z</time>
      </trkpt>
      <trkpt lat="59.192785" lon="18.142805">
        <ele>44</ele>
        <time>2019-12-05T09:12:39Z</time>
      </trkpt>
      <trkpt lat="59.192737" lon="18.142855">
        <ele>44</ele>
        <time>2019-12-05T09:12:40Z</time>
      </trkpt>
      <trkpt lat="59.192688" lon="18.142906">
        <ele>44</ele>
        <time>2019-12-05T09:12:41Z</time>
      </trkpt>
      <trkpt lat="59.192638" lon="18.142958">
        <ele>44</ele>
        <time>2019-12-05T09:12:42Z</time>
      </trkpt>
      <trkpt lat="59.192587" lon="18.14301">
        <ele>44</ele>
        <time>2019-12-05T09:12:44Z</time>
      </trkpt>
      <trkpt lat="59.192534" lon="18.143064">
        <ele>44</ele>
        <time>2019-12-05T09:12:44Z</time>
      </trkpt>
      <trkpt lat="59.192479" lon="18.143119">
        <ele>44</ele>
        <time>2019-12-05T09:12:45Z</time>
      </trkpt>
      <trkpt lat="59.192422" lon="18.143175">
        <ele>44</ele>
        <time>2019-12-05T09:12:46Z</time>
      </trkpt>
      <trkpt lat="59.192364" lon="18.143234">
        <ele>43</ele>
        <time>2019-12-05T09:12:47Z</time>
      </trkpt>
      <trkpt lat="59.192305" lon="18.143297">
        <ele>43</ele>
        <time>2019-12-05T09:12:48Z</time>
      </trkpt>
      <trkpt lat="59.192245" lon="18.143362">
        <ele>43</ele>
        <time>2019-12-05T09:12:49Z</time>
      </trkpt>
      <trkpt lat="59.192185" lon="18.143426">
        <ele>43</ele>
        <time>2019-12-05T09:12:51Z</time>
      </trkpt>
      <trkpt lat="59.192128" lon="18.143487">
        <ele>42</ele>
        <time>2019-12-05T09:12:51Z</time>
      </trkpt>
      <trkpt lat="59.192074" lon="18.143538">
        <ele>42</ele>
        <time>2019-12-05T09:12:52Z</time>
      </trkpt>
      <trkpt lat="59.192025" lon="18.143583">
        <ele>42</ele>
        <time>2019-12-05T09:12:53Z</time>
      </trkpt>
      <trkpt lat="59.191985" lon="18.143623">
        <ele>42</ele>
        <time>2019-12-05T09:12:54Z</time>
      </trkpt>
      <trkpt lat="59.191952" lon="18.143658">
        <ele>42</ele>
        <time>2019-12-05T09:12:55Z</time>
      </trkpt>
      <trkpt lat="59.191926" lon="18.143688">
        <ele>42</ele>
        <time>2019-12-05T09:12:57Z</time>
      </trkpt>
      <trkpt lat="59.191899" lon="18.143709">
        <ele>42</ele>
        <time>2019-12-05T09:12:57Z</time>
      </trkpt>
      <trkpt lat="59.191872" lon="18.143718">
        <ele>42</ele>
        <time>2019-12-05T09:12:58Z</time>
      </trkpt>
      <trkpt lat="59.191844" lon="18.143728">
        <ele>42</ele>
        <time>2019-12-05T09:12:59Z</time>
      </trkpt>
      <trkpt lat="59.191811" lon="18.143748">
        <ele>41</ele>
        <time>2019-12-05T09:13:00Z</time>
      </trkpt>
      <trkpt lat="59.191775" lon="18.143775">
        <ele>41</ele>
        <time>2019-12-05T09:13:01Z</time>
      </trkpt>
      <trkpt lat="59.191737" lon="18.143806">
        <ele>41</ele>
        <time>2019-12-05T09:13:02Z</time>
      </trkpt>
      <trkpt lat="59.191694" lon="18.143837">
        <ele>41</ele>
        <time>2019-12-05T09:13:04Z</time>
      </trkpt>
      <trkpt lat="59.191646" lon="18.143866">
        <ele>40</ele>
        <time>2019-12-05T09:13:04Z</time>
      </trkpt>
      <trkpt lat="59.191595" lon="18.143891">
        <ele>40</ele>
        <time>2019-12-05T09:13:05Z</time>
      </trkpt>
      <trkpt lat="59.19154" lon="18.143918">
        <ele>40</ele>
        <time>2019-12-05T09:13:06Z</time>
      </trkpt>
      <trkpt lat="59.191485" lon="18.143945">
        <ele>40</ele>
        <time>2019-12-05T09:13:07Z</time>
      </trkpt>
      <trkpt lat="59.191428" lon="18.143973">
        <ele>39</ele>
        <time>2019-12-05T09:13:08Z</time>
      </trkpt>
      <trkpt lat="59.191374" lon="18.144013">
        <ele>39</ele>
        <time>2019-12-05T09:13:09Z</time>
      </trkpt>
      <trkpt lat="59.191319" lon="18.144066">
        <ele>39</ele>
        <time>2019-12-05T09:13:10Z</time>
      </trkpt>
      <trkpt lat="59.191264" lon="18.144114">
        <ele>38</ele>
        <time>2019-12-05T09:13:12Z</time>
      </trkpt>
      <trkpt lat="59.191206" lon="18.144146">
        <ele>38</ele>
        <time>2019-12-05T09:13:12Z</time>
      </trkpt>
      <trkpt lat="59.191145" lon="18.144167">
        <ele>38</ele>
        <time>2019-12-05T09:13:13Z</time>
      </trkpt>
      <trkpt lat="59.191082" lon="18.144186">
        <ele>37</ele>
        <time>2019-12-05T09:13:14Z</time>
      </trkpt>
      <trkpt lat="59.191017" lon="18.144202">
        <ele>37</ele>
        <time>2019-12-05T09:13:16Z</time>
      </trkpt>
      <trkpt lat="59.190951" lon="18.144216">
        <ele>37</ele>
        <time>2019-12-05T09:13:16Z</time>
      </trkpt>
      <trkpt lat="59.190882" lon="18.144231">
        <ele>36</ele>
        <time>2019-12-05T09:13:17Z</time>
      </trkpt>
      <trkpt lat="59.190815" lon="18.144245">
        <ele>35</ele>
        <time>2019-12-05T09:13:18Z</time>
      </trkpt>
      <trkpt lat="59.190747" lon="18.144253">
        <ele>35</ele>
        <time>2019-12-05T09:13:20Z</time>
      </trkpt>
      <trkpt lat="59.190678" lon="18.144261">
        <ele>34</ele>
        <time>2019-12-05T09:13:20Z</time>
      </trkpt>
      <trkpt lat="59.190609" lon="18.144273">
        <ele>34</ele>
        <time>2019-12-05T09:13:21Z</time>
      </trkpt>
      <trkpt lat="59.190541" lon="18.144288">
        <ele>34</ele>
        <time>2019-12-05T09:13:22Z</time>
      </trkpt>
      <trkpt lat="59.190476" lon="18.144303">
        <ele>34</ele>
        <time>2019-12-05T09:13:23Z</time>
      </trkpt>
      <trkpt lat="59.190418" lon="18.144321">
        <ele>33</ele>
        <time>2019-12-05T09:13:24Z</time>
      </trkpt>
      <trkpt lat="59.190362" lon="18.144343">
        <ele>33</ele>
        <time>2019-12-05T09:13:25Z</time>
      </trkpt>
      <trkpt lat="59.190301" lon="18.144352">
        <ele>32</ele>
        <time>2019-12-05T09:13:26Z</time>
      </trkpt>
      <trkpt lat="59.190243" lon="18.144361">
        <ele>32</ele>
        <time>2019-12-05T09:13:28Z</time>
      </trkpt>
      <trkpt lat="59.190185" lon="18.144368">
        <ele>32</ele>
        <time>2019-12-05T09:13:28Z</time>
      </trkpt>
      <trkpt lat="59.190129" lon="18.144375">
        <ele>32</ele>
        <time>2019-12-05T09:13:29Z</time>
      </trkpt>
      <trkpt lat="59.190076" lon="18.144383">
        <ele>31</ele>
        <time>2019-12-05T09:13:30Z</time>
      </trkpt>
      <trkpt lat="59.190022" lon="18.144396">
        <ele>31</ele>
        <time>2019-12-05T09:13:31Z</time>
      </trkpt>
      <trkpt lat="59.18997" lon="18.144409">
        <ele>31</ele>
        <time>2019-12-05T09:13:32Z</time>
      </trkpt>
      <trkpt lat="59.189917" lon="18.144426">
        <ele>31</ele>
        <time>2019-12-05T09:13:33Z</time>
      </trkpt>
      <trkpt lat="59.18987" lon="18.144445">
        <ele>31</ele>
        <time>2019-12-05T09:13:35Z</time>
      </trkpt>
      <trkpt lat="59.189823" lon="18.144466">
        <ele>31</ele>
        <time>2019-12-05T09:13:35Z</time>
      </trkpt>
      <trkpt lat="59.18978" lon="18.144475">
        <ele>31</ele>
        <time>2019-12-05T09:13:36Z</time>
      </trkpt>
      <trkpt lat="59.189733" lon="18.144494">
        <ele>31</ele>
        <time>2019-12-05T09:13:38Z</time>
      </trkpt>
      <trkpt lat="59.189683" lon="18.144519">
        <ele>31</ele>
        <time>2019-12-05T09:13:38Z</time>
      </trkpt>
      <trkpt lat="59.189632" lon="18.144546">
        <ele>31</ele>
        <time>2019-12-05T09:13:39Z</time>
      </trkpt>
      <trkpt lat="59.189583" lon="18.144575">
        <ele>31</ele>
        <time>2019-12-05T09:13:40Z</time>
      </trkpt>
      <trkpt lat="59.189536" lon="18.144604">
        <ele>31</ele>
        <time>2019-12-05T09:13:41Z</time>
      </trkpt>
      <trkpt lat="59.189487" lon="18.144634">
        <ele>31</ele>
        <time>2019-12-05T09:13:42Z</time>
      </trkpt>
      <trkpt lat="59.189439" lon="18.144666">
        <ele>31</ele>
        <time>2019-12-05T09:13:43Z</time>
      </trkpt>
      <trkpt lat="59.189391" lon="18.144701">
        <ele>30</ele>
        <time>2019-12-05T09:13:44Z</time>
      </trkpt>
      <trkpt lat="59.189344" lon="18.144738">
        <ele>30</ele>
        <time>2019-12-05T09:13:45Z</time>
      </trkpt>
      <trkpt lat="59.189296" lon="18.144779">
        <ele>30</ele>
        <time>2019-12-05T09:13:47Z</time>
      </trkpt>
      <trkpt lat="59.189251" lon="18.144825">
        <ele>30</ele>
        <time>2019-12-05T09:13:47Z</time>
      </trkpt>
      <trkpt lat="59.189209" lon="18.144877">
        <ele>30</ele>
        <time>2019-12-05T09:13:48Z</time>
      </trkpt>
      <trkpt lat="59.189169" lon="18.144932">
        <ele>30</ele>
        <time>2019-12-05T09:13:49Z</time>
      </trkpt>
      <trkpt lat="59.18913" lon="18.14499">
        <ele>30</ele>
        <time>2019-12-05T09:13:50Z</time>
      </trkpt>
      <trkpt lat="59.189092" lon="18.14505">
        <ele>30</ele>
        <time>2019-12-05T09:13:51Z</time>
      </trkpt>
      <trkpt lat="59.189052" lon="18.14511">
        <ele>29</ele>
        <time>2019-12-05T09:13:52Z</time>
      </trkpt>
      <trkpt lat="59.189013" lon="18.145169">
        <ele>29</ele>
        <time>2019-12-05T09:13:54Z</time>
      </trkpt>
      <trkpt lat="59.188972" lon="18.145224">
        <ele>29</ele>
        <time>2019-12-05T09:13:54Z</time>
      </trkpt>
      <trkpt lat="59.188931" lon="18.145277">
        <ele>29</ele>
        <time>2019-12-05T09:13:55Z</time>
      </trkpt>
      <trkpt lat="59.188889" lon="18.145331">
        <ele>29</ele>
        <time>2019-12-05T09:13:56Z</time>
      </trkpt>
      <trkpt lat="59.188846" lon="18.145385">
        <ele>28</ele>
        <time>2019-12-05T09:13:58Z</time>
      </trkpt>
      <trkpt lat="59.188802" lon="18.145442">
        <ele>28</ele>
        <time>2019-12-05T09:13:58Z</time>
      </trkpt>
      <trkpt lat="59.188759" lon="18.145498">
        <ele>28</ele>
        <time>2019-12-05T09:13:59Z</time>
      </trkpt>
      <trkpt lat="59.188714" lon="18.145552">
        <ele>28</ele>
        <time>2019-12-05T09:14:00Z</time>
      </trkpt>
      <trkpt lat="59.188666" lon="18.145602">
        <ele>28</ele>
        <time>2019-12-05T09:14:01Z</time>
      </trkpt>
      <trkpt lat="59.188616" lon="18.145652">
        <ele>28</ele>
        <time>2019-12-05T09:14:02Z</time>
      </trkpt>
      <trkpt lat="59.188563" lon="18.145701">
        <ele>27</ele>
        <time>2019-12-05T09:14:03Z</time>
      </trkpt>
      <trkpt lat="59.188509" lon="18.145745">
        <ele>27</ele>
        <time>2019-12-05T09:14:04Z</time>
      </trkpt>
      <trkpt lat="59.188454" lon="18.145788">
        <ele>27</ele>
        <time>2019-12-05T09:14:06Z</time>
      </trkpt>
      <trkpt lat="59.188398" lon="18.14583">
        <ele>27</ele>
        <time>2019-12-05T09:14:06Z</time>
      </trkpt>
      <trkpt lat="59.188341" lon="18.145871">
        <ele>26</ele>
        <time>2019-12-05T09:14:07Z</time>
      </trkpt>
      <trkpt lat="59.188285" lon="18.145915">
        <ele>26</ele>
        <time>2019-12-05T09:14:08Z</time>
      </trkpt>
      <trkpt lat="59.188229" lon="18.145956">
        <ele>26</ele>
        <time>2019-12-05T09:14:09Z</time>
      </trkpt>
      <trkpt lat="59.188175" lon="18.145993">
        <ele>26</ele>
        <time>2019-12-05T09:14:10Z</time>
      </trkpt>
      <trkpt lat="59.188118" lon="18.146031">
        <ele>26</ele>
        <time>2019-12-05T09:14:11Z</time>
      </trkpt>
      <trkpt lat="59.188061" lon="18.146068">
        <ele>26</ele>
        <time>2019-12-05T09:14:13Z</time>
      </trkpt>
      <trkpt lat="59.188006" lon="18.146106">
        <ele>26</ele>
        <time>2019-12-05T09:14:13Z</time>
      </trkpt>
      <trkpt lat="59.18795" lon="18.146147">
        <ele>26</ele>
        <time>2019-12-05T09:14:15Z</time>
      </trkpt>
      <trkpt lat="59.187892" lon="18.146192">
        <ele>26</ele>
        <time>2019-12-05T09:14:15Z</time>
      </trkpt>
      <trkpt lat="59.187834" lon="18.146237">
        <ele>26</ele>
        <time>2019-12-05T09:14:16Z</time>
      </trkpt>
      <trkpt lat="59.187777" lon="18.14628">
        <ele>26</ele>
        <time>2019-12-05T09:14:17Z</time>
      </trkpt>
      <trkpt lat="59.187719" lon="18.14632">
        <ele>26</ele>
        <time>2019-12-05T09:14:18Z</time>
      </trkpt>
      <trkpt lat="59.187661" lon="18.146358">
        <ele>26</ele>
        <time>2019-12-05T09:14:19Z</time>
      </trkpt>
      <trkpt lat="59.187603" lon="18.146396">
        <ele>26</ele>
        <time>2019-12-05T09:14:20Z</time>
      </trkpt>
      <trkpt lat="59.187544" lon="18.146429">
        <ele>25</ele>
        <time>2019-12-05T09:14:21Z</time>
      </trkpt>
      <trkpt lat="59.187483" lon="18.146456">
        <ele>25</ele>
        <time>2019-12-05T09:14:23Z</time>
      </trkpt>
      <trkpt lat="59.187423" lon="18.146477">
        <ele>25</ele>
        <time>2019-12-05T09:14:23Z</time>
      </trkpt>
      <trkpt lat="59.187363" lon="18.146494">
        <ele>25</ele>
        <time>2019-12-05T09:14:24Z</time>
      </trkpt>
      <trkpt lat="59.187304" lon="18.146507">
        <ele>25</ele>
        <time>2019-12-05T09:14:25Z</time>
      </trkpt>
      <trkpt lat="59.187248" lon="18.14652">
        <ele>24</ele>
        <time>2019-12-05T09:14:26Z</time>
      </trkpt>
      <trkpt lat="59.187193" lon="18.146535">
        <ele>24</ele>
        <time>2019-12-05T09:14:27Z</time>
      </trkpt>
      <trkpt lat="59.18714" lon="18.146547">
        <ele>24</ele>
        <time>2019-12-05T09:14:28Z</time>
      </trkpt>
      <trkpt lat="59.187087" lon="18.146563">
        <ele>24</ele>
        <time>2019-12-05T09:14:29Z</time>
      </trkpt>
      <trkpt lat="59.187035" lon="18.146582">
        <ele>24</ele>
        <time>2019-12-05T09:14:30Z</time>
      </trkpt>
      <trkpt lat="59.186984" lon="18.146599">
        <ele>24</ele>
        <time>2019-12-05T09:14:32Z</time>
      </trkpt>
      <trkpt lat="59.186932" lon="18.14661">
        <ele>24</ele>
        <time>2019-12-05T09:14:32Z</time>
      </trkpt>
      <trkpt lat="59.186883" lon="18.146621">
        <ele>24</ele>
        <time>2019-12-05T09:14:33Z</time>
      </trkpt>
      <trkpt lat="59.186836" lon="18.146633">
        <ele>24</ele>
        <time>2019-12-05T09:14:34Z</time>
      </trkpt>
      <trkpt lat="59.186787" lon="18.146646">
        <ele>24</ele>
        <time>2019-12-05T09:14:35Z</time>
      </trkpt>
      <trkpt lat="59.186737" lon="18.14666">
        <ele>24</ele>
        <time>2019-12-05T09:14:36Z</time>
      </trkpt>
      <trkpt lat="59.186688" lon="18.146674">
        <ele>24</ele>
        <time>2019-12-05T09:14:37Z</time>
      </trkpt>
      <trkpt lat="59.186638" lon="18.146688">
        <ele>24</ele>
        <time>2019-12-05T09:14:38Z</time>
      </trkpt>
      <trkpt lat="59.186588" lon="18.146701">
        <ele>25</ele>
        <time>2019-12-05T09:14:39Z</time>
      </trkpt>
      <trkpt lat="59.186541" lon="18.146716">
        <ele>25</ele>
        <time>2019-12-05T09:14:40Z</time>
      </trkpt>
      <trkpt lat="59.186493" lon="18.146728">
        <ele>25</ele>
        <time>2019-12-05T09:14:42Z</time>
      </trkpt>
      <trkpt lat="59.186445" lon="18.146739">
        <ele>24</ele>
        <time>2019-12-05T09:14:42Z</time>
      </trkpt>
      <trkpt lat="59.186396" lon="18.146751">
        <ele>25</ele>
        <time>2019-12-05T09:14:43Z</time>
      </trkpt>
      <trkpt lat="59.186349" lon="18.146762">
        <ele>24</ele>
        <time>2019-12-05T09:14:44Z</time>
      </trkpt>
      <trkpt lat="59.186302" lon="18.146774">
        <ele>24</ele>
        <time>2019-12-05T09:14:45Z</time>
      </trkpt>
      <trkpt lat="59.186255" lon="18.146783">
        <ele>25</ele>
        <time>2019-12-05T09:14:46Z</time>
      </trkpt>
      <trkpt lat="59.186209" lon="18.14679">
        <ele>25</ele>
        <time>2019-12-05T09:14:47Z</time>
      </trkpt>
      <trkpt lat="59.186163" lon="18.146797">
        <ele>25</ele>
        <time>2019-12-05T09:14:48Z</time>
      </trkpt>
      <trkpt lat="59.186116" lon="18.146804">
        <ele>25</ele>
        <time>2019-12-05T09:14:49Z</time>
      </trkpt>
      <trkpt lat="59.186071" lon="18.146805">
        <ele>25</ele>
        <time>2019-12-05T09:14:51Z</time>
      </trkpt>
      <trkpt lat="59.186027" lon="18.146806">
        <ele>25</ele>
        <time>2019-12-05T09:14:51Z</time>
      </trkpt>
      <trkpt lat="59.185983" lon="18.146812">
        <ele>25</ele>
        <time>2019-12-05T09:14:53Z</time>
      </trkpt>
      <trkpt lat="59.185938" lon="18.146819">
        <ele>25</ele>
        <time>2019-12-05T09:14:53Z</time>
      </trkpt>
      <trkpt lat="59.185893" lon="18.146828">
        <ele>25</ele>
        <time>2019-12-05T09:14:54Z</time>
      </trkpt>
      <trkpt lat="59.185848" lon="18.146838">
        <ele>25</ele>
        <time>2019-12-05T09:14:55Z</time>
      </trkpt>
      <trkpt lat="59.185802" lon="18.146848">
        <ele>25</ele>
        <time>2019-12-05T09:14:56Z</time>
      </trkpt>
      <trkpt lat="59.185754" lon="18.146859">
        <ele>24</ele>
        <time>2019-12-05T09:14:57Z</time>
      </trkpt>
      <trkpt lat="59.185706" lon="18.146868">
        <ele>24</ele>
        <time>2019-12-05T09:14:58Z</time>
      </trkpt>
      <trkpt lat="59.185657" lon="18.146878">
        <ele>24</ele>
        <time>2019-12-05T09:14:59Z</time>
      </trkpt>
      <trkpt lat="59.185608" lon="18.146888">
        <ele>25</ele>
        <time>2019-12-05T09:15:00Z</time>
      </trkpt>
      <trkpt lat="59.185562" lon="18.146898">
        <ele>25</ele>
        <time>2019-12-05T09:15:01Z</time>
      </trkpt>
      <trkpt lat="59.185519" lon="18.146908">
        <ele>25</ele>
        <time>2019-12-05T09:15:02Z</time>
      </trkpt>
      <trkpt lat="59.18548" lon="18.14692">
        <ele>25</ele>
        <time>2019-12-05T09:15:04Z</time>
      </trkpt>
      <trkpt lat="59.185444" lon="18.146929">
        <ele>25</ele>
        <time>2019-12-05T09:15:04Z</time>
      </trkpt>
      <trkpt lat="59.185409" lon="18.146927">
        <ele>25</ele>
        <time>2019-12-05T09:15:05Z</time>
      </trkpt>
      <trkpt lat="59.185379" lon="18.1469">
        <ele>25</ele>
        <time>2019-12-05T09:15:06Z</time>
      </trkpt>
      <trkpt lat="59.185356" lon="18.146855">
        <ele>25</ele>
        <time>2019-12-05T09:15:07Z</time>
      </trkpt>
      <trkpt lat="59.185337" lon="18.146806">
        <ele>25</ele>
        <time>2019-12-05T09:15:08Z</time>
      </trkpt>
      <trkpt lat="59.185315" lon="18.146762">
        <ele>25</ele>
        <time>2019-12-05T09:15:10Z</time>
      </trkpt>
      <trkpt lat="59.185287" lon="18.146732">
        <ele>25</ele>
        <time>2019-12-05T09:15:10Z</time>
      </trkpt>
      <trkpt lat="59.185256" lon="18.146717">
        <ele>25</ele>
        <time>2019-12-05T09:15:11Z</time>
      </trkpt>
      <trkpt lat="59.185223" lon="18.146717">
        <ele>25</ele>
        <time>2019-12-05T09:15:12Z</time>
      </trkpt>
      <trkpt lat="59.185191" lon="18.146724">
        <ele>26</ele>
        <time>2019-12-05T09:15:13Z</time>
      </trkpt>
      <trkpt lat="59.18516" lon="18.146737">
        <ele>26</ele>
        <time>2019-12-05T09:15:14Z</time>
      </trkpt>
      <trkpt lat="59.185129" lon="18.146757">
        <ele>26</ele>
        <time>2019-12-05T09:15:15Z</time>
      </trkpt>
      <trkpt lat="59.185099" lon="18.146781">
        <ele>26</ele>
        <time>2019-12-05T09:15:16Z</time>
      </trkpt>
      <trkpt lat="59.185068" lon="18.146807">
        <ele>26</ele>
        <time>2019-12-05T09:15:17Z</time>
      </trkpt>
      <trkpt lat="59.185037" lon="18.146835">
        <ele>26</ele>
        <time>2019-12-05T09:15:19Z</time>
      </trkpt>
      <trkpt lat="59.185006" lon="18.146864">
        <ele>26</ele>
        <time>2019-12-05T09:15:19Z</time>
      </trkpt>
      <trkpt lat="59.184974" lon="18.146893">
        <ele>26</ele>
        <time>2019-12-05T09:15:20Z</time>
      </trkpt>
      <trkpt lat="59.184943" lon="18.146922">
        <ele>26</ele>
        <time>2019-12-05T09:15:21Z</time>
      </trkpt>
      <trkpt lat="59.184911" lon="18.146951">
        <ele>26</ele>
        <time>2019-12-05T09:15:22Z</time>
      </trkpt>
      <trkpt lat="59.184878" lon="18.146975">
        <ele>26</ele>
        <time>2019-12-05T09:15:23Z</time>
      </trkpt>
      <trkpt lat="59.184845" lon="18.146994">
        <ele>26</ele>
        <time>2019-12-05T09:15:24Z</time>
      </trkpt>
      <trkpt lat="59.184811" lon="18.147009">
        <ele>26</ele>
        <time>2019-12-05T09:15:25Z</time>
      </trkpt>
      <trkpt lat="59.184778" lon="18.14702">
        <ele>27</ele>
        <time>2019-12-05T09:15:26Z</time>
      </trkpt>
      <trkpt lat="59.184744" lon="18.147029">
        <ele>27</ele>
        <time>2019-12-05T09:15:27Z</time>
      </trkpt>
      <trkpt lat="59.18471" lon="18.147038">
        <ele>27</ele>
        <time>2019-12-05T09:15:29Z</time>
      </trkpt>
      <trkpt lat="59.184675" lon="18.147047">
        <ele>27</ele>
        <time>2019-12-05T09:15:29Z</time>
      </trkpt>
      <trkpt lat="59.18464" lon="18.147056">
        <ele>27</ele>
        <time>2019-12-05T09:15:30Z</time>
      </trkpt>
      <trkpt lat="59.184605" lon="18.147065">
        <ele>27</ele>
        <time>2019-12-05T09:15:31Z</time>
      </trkpt>
      <trkpt lat="59.184571" lon="18.147076">
        <ele>27</ele>
        <time>2019-12-05T09:15:33Z</time>
      </trkpt>
      <trkpt lat="59.184537" lon="18.147088">
        <ele>27</ele>
        <time>2019-12-05T09:15:33Z</time>
      </trkpt>
      <trkpt lat="59.184504" lon="18.147099">
        <ele>27</ele>
        <time>2019-12-05T09:15:34Z</time>
      </trkpt>
      <trkpt lat="59.18447" lon="18.147107">
        <ele>27</ele>
        <time>2019-12-05T09:15:35Z</time>
      </trkpt>
      <trkpt lat="59.184436" lon="18.147114">
        <ele>28</ele>
        <time>2019-12-05T09:15:36Z</time>
      </trkpt>
      <trkpt lat="59.184403" lon="18.147122">
        <ele>28</ele>
        <time>2019-12-05T09:15:37Z</time>
      </trkpt>
      <trkpt lat="59.184372" lon="18.147129">
        <ele>28</ele>
        <time>2019-12-05T09:15:38Z</time>
      </trkpt>
      <trkpt lat="59.184343" lon="18.147135">
        <ele>28</ele>
        <time>2019-12-05T09:15:39Z</time>
      </trkpt>
      <trkpt lat="59.184313" lon="18.147142">
        <ele>28</ele>
        <time>2019-12-05T09:15:40Z</time>
      </trkpt>
      <trkpt lat="59.184285" lon="18.147148">
        <ele>28</ele>
        <time>2019-12-05T09:15:41Z</time>
      </trkpt>
      <trkpt lat="59.184256" lon="18.147153">
        <ele>28</ele>
        <time>2019-12-05T09:15:42Z</time>
      </trkpt>
      <trkpt lat="59.184227" lon="18.14716">
        <ele>29</ele>
        <time>2019-12-05T09:15:43Z</time>
      </trkpt>
      <trkpt lat="59.184199" lon="18.147168">
        <ele>29</ele>
        <time>2019-12-05T09:15:44Z</time>
      </trkpt>
      <trkpt lat="59.18417" lon="18.147174">
        <ele>29</ele>
        <time>2019-12-05T09:15:45Z</time>
      </trkpt>
      <trkpt lat="59.184141" lon="18.147178">
        <ele>29</ele>
        <time>2019-12-05T09:15:46Z</time>
      </trkpt>
      <trkpt lat="59.184111" lon="18.147181">
        <ele>29</ele>
        <time>2019-12-05T09:15:48Z</time>
      </trkpt>
      <trkpt lat="59.18408" lon="18.147186">
        <ele>29</ele>
        <time>2019-12-05T09:15:49Z</time>
      </trkpt>
      <trkpt lat="59.18405" lon="18.147192">
        <ele>29</ele>
        <time>2019-12-05T09:15:49Z</time>
      </trkpt>
      <trkpt lat="59.184019" lon="18.1472">
        <ele>30</ele>
        <time>2019-12-05T09:15:50Z</time>
      </trkpt>
      <trkpt lat="59.183987" lon="18.147207">
        <ele>30</ele>
        <time>2019-12-05T09:15:51Z</time>
      </trkpt>
      <trkpt lat="59.183954" lon="18.147215">
        <ele>30</ele>
        <time>2019-12-05T09:15:52Z</time>
      </trkpt>
      <trkpt lat="59.183921" lon="18.147221">
        <ele>30</ele>
        <time>2019-12-05T09:15:53Z</time>
      </trkpt>
      <trkpt lat="59.183887" lon="18.147226">
        <ele>30</ele>
        <time>2019-12-05T09:15:54Z</time>
      </trkpt>
      <trkpt lat="59.183852" lon="18.14723">
        <ele>30</ele>
        <time>2019-12-05T09:15:55Z</time>
      </trkpt>
      <trkpt lat="59.183817" lon="18.147236">
        <ele>31</ele>
        <time>2019-12-05T09:15:56Z</time>
      </trkpt>
      <trkpt lat="59.183781" lon="18.147241">
        <ele>31</ele>
        <time>2019-12-05T09:15:57Z</time>
      </trkpt>
      <trkpt lat="59.183746" lon="18.147245">
        <ele>31</ele>
        <time>2019-12-05T09:15:58Z</time>
      </trkpt>
      <trkpt lat="59.183711" lon="18.147249">
        <ele>31</ele>
        <time>2019-12-05T09:15:59Z</time>
      </trkpt>
      <trkpt lat="59.183676" lon="18.147254">
        <ele>31</ele>
        <time>2019-12-05T09:16:00Z</time>
      </trkpt>
      <trkpt lat="59.18364" lon="18.147264">
        <ele>31</ele>
        <time>2019-12-05T09:16:01Z</time>
      </trkpt>
      <trkpt lat="59.183606" lon="18.147281">
        <ele>31</ele>
        <time>2019-12-05T09:16:02Z</time>
      </trkpt>
      <trkpt lat="59.183572" lon="18.147301">
        <ele>32</ele>
        <time>2019-12-05T09:16:04Z</time>
      </trkpt>
      <trkpt lat="59.183539" lon="18.147322">
        <ele>32</ele>
        <time>2019-12-05T09:16:04Z</time>
      </trkpt>
      <trkpt lat="59.183505" lon="18.147336">
        <ele>32</ele>
        <time>2019-12-05T09:16:05Z</time>
      </trkpt>
      <trkpt lat="59.183469" lon="18.147337">
        <ele>32</ele>
        <time>2019-12-05T09:16:07Z</time>
      </trkpt>
      <trkpt lat="59.183432" lon="18.147329">
        <ele>32</ele>
        <time>2019-12-05T09:16:07Z</time>
      </trkpt>
      <trkpt lat="59.183395" lon="18.147315">
        <ele>32</ele>
        <time>2019-12-05T09:16:08Z</time>
      </trkpt>
      <trkpt lat="59.18336" lon="18.147289">
        <ele>32</ele>
        <time>2019-12-05T09:16:09Z</time>
      </trkpt>
      <trkpt lat="59.183327" lon="18.147256">
        <ele>32</ele>
        <time>2019-12-05T09:16:10Z</time>
      </trkpt>
      <trkpt lat="59.183294" lon="18.147225">
        <ele>33</ele>
        <time>2019-12-05T09:16:11Z</time>
      </trkpt>
      <trkpt lat="59.18326" lon="18.147202">
        <ele>33</ele>
        <time>2019-12-05T09:16:12Z</time>
      </trkpt>
      <trkpt lat="59.183225" lon="18.147184">
        <ele>33</ele>
        <time>2019-12-05T09:16:13Z</time>
      </trkpt>
      <trkpt lat="59.18319" lon="18.147169">
        <ele>33</ele>
        <time>2019-12-05T09:16:14Z</time>
      </trkpt>
      <trkpt lat="59.183156" lon="18.147157">
        <ele>33</ele>
        <time>2019-12-05T09:16:15Z</time>
      </trkpt>
      <trkpt lat="59.18312" lon="18.147147">
        <ele>33</ele>
        <time>2019-12-05T09:16:16Z</time>
      </trkpt>
      <trkpt lat="59.183084" lon="18.147132">
        <ele>33</ele>
        <time>2019-12-05T09:16:18Z</time>
      </trkpt>
      <trkpt lat="59.183046" lon="18.147117">
        <ele>33</ele>
        <time>2019-12-05T09:16:18Z</time>
      </trkpt>
      <trkpt lat="59.183009" lon="18.147099">
        <ele>33</ele>
        <time>2019-12-05T09:16:19Z</time>
      </trkpt>
      <trkpt lat="59.182971" lon="18.147077">
        <ele>34</ele>
        <time>2019-12-05T09:16:20Z</time>
      </trkpt>
      <trkpt lat="59.182933" lon="18.147057">
        <ele>34</ele>
        <time>2019-12-05T09:16:21Z</time>
      </trkpt>
      <trkpt lat="59.182896" lon="18.147036">
        <ele>34</ele>
        <time>2019-12-05T09:16:22Z</time>
      </trkpt>
      <trkpt lat="59.182859" lon="18.147011">
        <ele>34</ele>
        <time>2019-12-05T09:16:23Z</time>
      </trkpt>
      <trkpt lat="59.182822" lon="18.146985">
        <ele>34</ele>
        <time>2019-12-05T09:16:24Z</time>
      </trkpt>
      <trkpt lat="59.182785" lon="18.146958">
        <ele>34</ele>
        <time>2019-12-05T09:16:26Z</time>
      </trkpt>
      <trkpt lat="59.182748" lon="18.146933">
        <ele>34</ele>
        <time>2019-12-05T09:16:26Z</time>
      </trkpt>
      <trkpt lat="59.182711" lon="18.146907">
        <ele>34</ele>
        <time>2019-12-05T09:16:27Z</time>
      </trkpt>
      <trkpt lat="59.182676" lon="18.146881">
        <ele>34</ele>
        <time>2019-12-05T09:16:28Z</time>
      </trkpt>
      <trkpt lat="59.182641" lon="18.146854">
        <ele>34</ele>
        <time>2019-12-05T09:16:29Z</time>
      </trkpt>
      <trkpt lat="59.182605" lon="18.146827">
        <ele>34</ele>
        <time>2019-12-05T09:16:31Z</time>
      </trkpt>
      <trkpt lat="59.18257" lon="18.1468">
        <ele>35</ele>
        <time>2019-12-05T09:16:31Z</time>
      </trkpt>
      <trkpt lat="59.182534" lon="18.146772">
        <ele>35</ele>
        <time>2019-12-05T09:16:32Z</time>
      </trkpt>
      <trkpt lat="59.182497" lon="18.146744">
        <ele>35</ele>
        <time>2019-12-05T09:16:33Z</time>
      </trkpt>
      <trkpt lat="59.182461" lon="18.146713">
        <ele>35</ele>
        <time>2019-12-05T09:16:34Z</time>
      </trkpt>
      <trkpt lat="59.182423" lon="18.146684">
        <ele>35</ele>
        <time>2019-12-05T09:16:35Z</time>
      </trkpt>
      <trkpt lat="59.182387" lon="18.14665">
        <ele>35</ele>
        <time>2019-12-05T09:16:36Z</time>
      </trkpt>
      <trkpt lat="59.182355" lon="18.146609">
        <ele>35</ele>
        <time>2019-12-05T09:16:37Z</time>
      </trkpt>
      <trkpt lat="59.182322" lon="18.146572">
        <ele>35</ele>
        <time>2019-12-05T09:16:38Z</time>
      </trkpt>
      <trkpt lat="59.182289" lon="18.14653">
        <ele>35</ele>
        <time>2019-12-05T09:16:39Z</time>
      </trkpt>
      <trkpt lat="59.182252" lon="18.146493">
        <ele>35</ele>
        <time>2019-12-05T09:16:40Z</time>
      </trkpt>
      <trkpt lat="59.182215" lon="18.146459">
        <ele>35</ele>
        <time>2019-12-05T09:16:41Z</time>
      </trkpt>
      <trkpt lat="59.182179" lon="18.146422">
        <ele>35</ele>
        <time>2019-12-05T09:16:43Z</time>
      </trkpt>
      <trkpt lat="59.182142" lon="18.146382">
        <ele>35</ele>
        <time>2019-12-05T09:16:43Z</time>
      </trkpt>
      <trkpt lat="59.182105" lon="18.146339">
        <ele>35</ele>
        <time>2019-12-05T09:16:45Z</time>
      </trkpt>
      <trkpt lat="59.182067" lon="18.146298">
        <ele>35</ele>
        <time>2019-12-05T09:16:45Z</time>
      </trkpt>
      <trkpt lat="59.182031" lon="18.146258">
        <ele>36</ele>
        <time>2019-12-05T09:16:46Z</time>
      </trkpt>
      <trkpt lat="59.181994" lon="18.146218">
        <ele>36</ele>
        <time>2019-12-05T09:16:47Z</time>
      </trkpt>
      <trkpt lat="59.181959" lon="18.146178">
        <ele>36</ele>
        <time>2019-12-05T09:16:48Z</time>
      </trkpt>
      <trkpt lat="59.181924" lon="18.146136">
        <ele>36</ele>
        <time>2019-12-05T09:16:49Z</time>
      </trkpt>
      <trkpt lat="59.181891" lon="18.146096">
        <ele>36</ele>
        <time>2019-12-05T09:16:50Z</time>
      </trkpt>
      <trkpt lat="59.181859" lon="18.146055">
        <ele>36</ele>
        <time>2019-12-05T09:16:51Z</time>
      </trkpt>
      <trkpt lat="59.181825" lon="18.146018">
        <ele>36</ele>
        <time>2019-12-05T09:16:52Z</time>
      </trkpt>
      <trkpt lat="59.181791" lon="18.145983">
        <ele>36</ele>
        <time>2019-12-05T09:16:53Z</time>
      </trkpt>
      <trkpt lat="59.181759" lon="18.145947">
        <ele>36</ele>
        <time>2019-12-05T09:16:54Z</time>
      </trkpt>
      <trkpt lat="59.181727" lon="18.145912">
        <ele>36</ele>
        <time>2019-12-05T09:16:56Z</time>
      </trkpt>
      <trkpt lat="59.181695" lon="18.145874">
        <ele>37</ele>
        <time>2019-12-05T09:16:56Z</time>
      </trkpt>
      <trkpt lat="59.181666" lon="18.145834">
        <ele>37</ele>
        <time>2019-12-05T09:16:57Z</time>
      </trkpt>
      <trkpt lat="59.181636" lon="18.145795">
        <ele>37</ele>
        <time>2019-12-05T09:16:58Z</time>
      </trkpt>
      <trkpt lat="59.181604" lon="18.145758">
        <ele>37</ele>
        <time>2019-12-05T09:16:59Z</time>
      </trkpt>
      <trkpt lat="59.181573" lon="18.145719">
        <ele>37</ele>
        <time>2019-12-05T09:17:00Z</time>
      </trkpt>
      <trkpt lat="59.181543" lon="18.145682">
        <ele>37</ele>
        <time>2019-12-05T09:17:01Z</time>
      </trkpt>
      <trkpt lat="59.181515" lon="18.145647">
        <ele>37</ele>
        <time>2019-12-05T09:17:02Z</time>
      </trkpt>
      <trkpt lat="59.181487" lon="18.145613">
        <ele>37</ele>
        <time>2019-12-05T09:17:04Z</time>
      </trkpt>
      <trkpt lat="59.181456" lon="18.145584">
        <ele>37</ele>
        <time>2019-12-05T09:17:04Z</time>
      </trkpt>
      <trkpt lat="59.181425" lon="18.14555">
        <ele>37</ele>
        <time>2019-12-05T09:17:05Z</time>
      </trkpt>
      <trkpt lat="59.181393" lon="18.145513">
        <ele>37</ele>
        <time>2019-12-05T09:17:06Z</time>
      </trkpt>
      <trkpt lat="59.181358" lon="18.145476">
        <ele>37</ele>
        <time>2019-12-05T09:17:07Z</time>
      </trkpt>
      <trkpt lat="59.181322" lon="18.145439">
        <ele>37</ele>
        <time>2019-12-05T09:17:09Z</time>
      </trkpt>
      <trkpt lat="59.181286" lon="18.145397">
        <ele>37</ele>
        <time>2019-12-05T09:17:09Z</time>
      </trkpt>
      <trkpt lat="59.18125" lon="18.145356">
        <ele>37</ele>
        <time>2019-12-05T09:17:10Z</time>
      </trkpt>
      <trkpt lat="59.181213" lon="18.145311">
        <ele>37</ele>
        <time>2019-12-05T09:17:11Z</time>
      </trkpt>
      <trkpt lat="59.181174" lon="18.145266">
        <ele>36</ele>
        <time>2019-12-05T09:17:12Z</time>
      </trkpt>
      <trkpt lat="59.181136" lon="18.145224">
        <ele>36</ele>
        <time>2019-12-05T09:17:13Z</time>
      </trkpt>
      <trkpt lat="59.181096" lon="18.145184">
        <ele>36</ele>
        <time>2019-12-05T09:17:14Z</time>
      </trkpt>
      <trkpt lat="59.181057" lon="18.145143">
        <ele>36</ele>
        <time>2019-12-05T09:17:15Z</time>
      </trkpt>
      <trkpt lat="59.181018" lon="18.1451">
        <ele>36</ele>
        <time>2019-12-05T09:17:16Z</time>
      </trkpt>
      <trkpt lat="59.180977" lon="18.145056">
        <ele>36</ele>
        <time>2019-12-05T09:17:17Z</time>
      </trkpt>
      <trkpt lat="59.180936" lon="18.14501">
        <ele>36</ele>
        <time>2019-12-05T09:17:18Z</time>
      </trkpt>
      <trkpt lat="59.180894" lon="18.144961">
        <ele>36</ele>
        <time>2019-12-05T09:17:20Z</time>
      </trkpt>
      <trkpt lat="59.180851" lon="18.144915">
        <ele>36</ele>
        <time>2019-12-05T09:17:20Z</time>
      </trkpt>
      <trkpt lat="59.180806" lon="18.144876">
        <ele>36</ele>
        <time>2019-12-05T09:17:21Z</time>
      </trkpt>
      <trkpt lat="59.180761" lon="18.144834">
        <ele>36</ele>
        <time>2019-12-05T09:17:23Z</time>
      </trkpt>
      <trkpt lat="59.180718" lon="18.144782">
        <ele>36</ele>
        <time>2019-12-05T09:17:23Z</time>
      </trkpt>
      <trkpt lat="59.180677" lon="18.144724">
        <ele>36</ele>
        <time>2019-12-05T09:17:24Z</time>
      </trkpt>
      <trkpt lat="59.180637" lon="18.144663">
        <ele>36</ele>
        <time>2019-12-05T09:17:25Z</time>
      </trkpt>
      <trkpt lat="59.180598" lon="18.144602">
        <ele>36</ele>
        <time>2019-12-05T09:17:26Z</time>
      </trkpt>
      <trkpt lat="59.180558" lon="18.144541">
        <ele>36</ele>
        <time>2019-12-05T09:17:27Z</time>
      </trkpt>
      <trkpt lat="59.180517" lon="18.144483">
        <ele>36</ele>
        <time>2019-12-05T09:17:28Z</time>
      </trkpt>
      <trkpt lat="59.180473" lon="18.144428">
        <ele>36</ele>
        <time>2019-12-05T09:17:30Z</time>
      </trkpt>
      <trkpt lat="59.18043" lon="18.144374">
        <ele>36</ele>
        <time>2019-12-05T09:17:30Z</time>
      </trkpt>
      <trkpt lat="59.180387" lon="18.144321">
        <ele>35</ele>
        <time>2019-12-05T09:17:31Z</time>
      </trkpt>
      <trkpt lat="59.180344" lon="18.144268">
        <ele>35</ele>
        <time>2019-12-05T09:17:32Z</time>
      </trkpt>
      <trkpt lat="59.1803" lon="18.144217">
        <ele>35</ele>
        <time>2019-12-05T09:17:33Z</time>
      </trkpt>
      <trkpt lat="59.180257" lon="18.144163">
        <ele>35</ele>
        <time>2019-12-05T09:17:34Z</time>
      </trkpt>
      <trkpt lat="59.180215" lon="18.144106">
        <ele>35</ele>
        <time>2019-12-05T09:17:35Z</time>
      </trkpt>
      <trkpt lat="59.180172" lon="18.144052">
        <ele>35</ele>
        <time>2019-12-05T09:17:36Z</time>
      </trkpt>
      <trkpt lat="59.180127" lon="18.144002">
        <ele>35</ele>
        <time>2019-12-05T09:17:37Z</time>
      </trkpt>
      <trkpt lat="59.180082" lon="18.143951">
        <ele>35</ele>
        <time>2019-12-05T09:17:38Z</time>
      </trkpt>
      <trkpt lat="59.180036" lon="18.1439">
        <ele>35</ele>
        <time>2019-12-05T09:17:40Z</time>
      </trkpt>
      <trkpt lat="59.179989" lon="18.143854">
        <ele>35</ele>
        <time>2019-12-05T09:17:41Z</time>
      </trkpt>
      <trkpt lat="59.179941" lon="18.143809">
        <ele>35</ele>
        <time>2019-12-05T09:17:42Z</time>
      </trkpt>
      <trkpt lat="59.179892" lon="18.143763">
        <ele>35</ele>
        <time>2019-12-05T09:17:42Z</time>
      </trkpt>
      <trkpt lat="59.179842" lon="18.14372">
        <ele>35</ele>
        <time>2019-12-05T09:17:43Z</time>
      </trkpt>
      <trkpt lat="59.179792" lon="18.14368">
        <ele>35</ele>
        <time>2019-12-05T09:17:44Z</time>
      </trkpt>
      <trkpt lat="59.179742" lon="18.143644">
        <ele>36</ele>
        <time>2019-12-05T09:17:45Z</time>
      </trkpt>
      <trkpt lat="59.179693" lon="18.143616">
        <ele>36</ele>
        <time>2019-12-05T09:17:46Z</time>
      </trkpt>
      <trkpt lat="59.179646" lon="18.143603">
        <ele>36</ele>
        <time>2019-12-05T09:17:47Z</time>
      </trkpt>
      <trkpt lat="59.1796" lon="18.143607">
        <ele>36</ele>
        <time>2019-12-05T09:17:48Z</time>
      </trkpt>
      <trkpt lat="59.17955" lon="18.143621">
        <ele>36</ele>
        <time>2019-12-05T09:17:50Z</time>
      </trkpt>
      <trkpt lat="59.179496" lon="18.143635">
        <ele>36</ele>
        <time>2019-12-05T09:17:50Z</time>
      </trkpt>
      <trkpt lat="59.179442" lon="18.14365">
        <ele>36</ele>
        <time>2019-12-05T09:17:51Z</time>
      </trkpt>
      <trkpt lat="59.179394" lon="18.143668">
        <ele>36</ele>
        <time>2019-12-05T09:17:52Z</time>
      </trkpt>
      <trkpt lat="59.179343" lon="18.143673">
        <ele>36</ele>
        <time>2019-12-05T09:17:53Z</time>
      </trkpt>
      <trkpt lat="59.179293" lon="18.14365">
        <ele>36</ele>
        <time>2019-12-05T09:17:54Z</time>
      </trkpt>
      <trkpt lat="59.179242" lon="18.143595">
        <ele>35</ele>
        <time>2019-12-05T09:17:55Z</time>
      </trkpt>
      <trkpt lat="59.179194" lon="18.143527">
        <ele>35</ele>
        <time>2019-12-05T09:17:56Z</time>
      </trkpt>
      <trkpt lat="59.179148" lon="18.143456">
        <ele>35</ele>
        <time>2019-12-05T09:17:57Z</time>
      </trkpt>
      <trkpt lat="59.179104" lon="18.143388">
        <ele>35</ele>
        <time>2019-12-05T09:17:59Z</time>
      </trkpt>
      <trkpt lat="59.179058" lon="18.143329">
        <ele>35</ele>
        <time>2019-12-05T09:17:59Z</time>
      </trkpt>
      <trkpt lat="59.179011" lon="18.143283">
        <ele>35</ele>
        <time>2019-12-05T09:18:01Z</time>
      </trkpt>
      <trkpt lat="59.178964" lon="18.143248">
        <ele>35</ele>
        <time>2019-12-05T09:18:01Z</time>
      </trkpt>
      <trkpt lat="59.178918" lon="18.143215">
        <ele>35</ele>
        <time>2019-12-05T09:18:02Z</time>
      </trkpt>
      <trkpt lat="59.178873" lon="18.143183">
        <ele>35</ele>
        <time>2019-12-05T09:18:03Z</time>
      </trkpt>
      <trkpt lat="59.178829" lon="18.143152">
        <ele>34</ele>
        <time>2019-12-05T09:18:04Z</time>
      </trkpt>
      <trkpt lat="59.178784" lon="18.14312">
        <ele>34</ele>
        <time>2019-12-05T09:18:05Z</time>
      </trkpt>
      <trkpt lat="59.178739" lon="18.14309">
        <ele>34</ele>
        <time>2019-12-05T09:18:06Z</time>
      </trkpt>
      <trkpt lat="59.178694" lon="18.14306">
        <ele>34</ele>
        <time>2019-12-05T09:18:07Z</time>
      </trkpt>
      <trkpt lat="59.17865" lon="18.143029">
        <ele>34</ele>
        <time>2019-12-05T09:18:09Z</time>
      </trkpt>
      <trkpt lat="59.178608" lon="18.142997">
        <ele>34</ele>
        <time>2019-12-05T09:18:09Z</time>
      </trkpt>
      <trkpt lat="59.178566" lon="18.142965">
        <ele>34</ele>
        <time>2019-12-05T09:18:10Z</time>
      </trkpt>
      <trkpt lat="59.178525" lon="18.142934">
        <ele>34</ele>
        <time>2019-12-05T09:18:11Z</time>
      </trkpt>
      <trkpt lat="59.178486" lon="18.142906">
        <ele>34</ele>
        <time>2019-12-05T09:18:12Z</time>
      </trkpt>
      <trkpt lat="59.178448" lon="18.142879">
        <ele>34</ele>
        <time>2019-12-05T09:18:13Z</time>
      </trkpt>
      <trkpt lat="59.17841" lon="18.142851">
        <ele>34</ele>
        <time>2019-12-05T09:18:14Z</time>
      </trkpt>
      <trkpt lat="59.178373" lon="18.142824">
        <ele>35</ele>
        <time>2019-12-05T09:18:15Z</time>
      </trkpt>
      <trkpt lat="59.178336" lon="18.142799">
        <ele>35</ele>
        <time>2019-12-05T09:18:16Z</time>
      </trkpt>
      <trkpt lat="59.178299" lon="18.142777">
        <ele>35</ele>
        <time>2019-12-05T09:18:17Z</time>
      </trkpt>
      <trkpt lat="59.178264" lon="18.142754">
        <ele>35</ele>
        <time>2019-12-05T09:18:18Z</time>
      </trkpt>
      <trkpt lat="59.178228" lon="18.14273">
        <ele>35</ele>
        <time>2019-12-05T09:18:20Z</time>
      </trkpt>
      <trkpt lat="59.178193" lon="18.142707">
        <ele>35</ele>
        <time>2019-12-05T09:18:21Z</time>
      </trkpt>
      <trkpt lat="59.178158" lon="18.142684">
        <ele>35</ele>
        <time>2019-12-05T09:18:21Z</time>
      </trkpt>
      <trkpt lat="59.178124" lon="18.142662">
        <ele>35</ele>
        <time>2019-12-05T09:18:22Z</time>
      </trkpt>
      <trkpt lat="59.178089" lon="18.142646">
        <ele>35</ele>
        <time>2019-12-05T09:18:23Z</time>
      </trkpt>
      <trkpt lat="59.178054" lon="18.142635">
        <ele>35</ele>
        <time>2019-12-05T09:18:24Z</time>
      </trkpt>
      <trkpt lat="59.178019" lon="18.142629">
        <ele>35</ele>
        <time>2019-12-05T09:18:25Z</time>
      </trkpt>
      <trkpt lat="59.177984" lon="18.142632">
        <ele>35</ele>
        <time>2019-12-05T09:18:26Z</time>
      </trkpt>
      <trkpt lat="59.177948" lon="18.14264">
        <ele>35</ele>
        <time>2019-12-05T09:18:27Z</time>
      </trkpt>
      <trkpt lat="59.177912" lon="18.14265">
        <ele>35</ele>
        <time>2019-12-05T09:18:28Z</time>
      </trkpt>
      <trkpt lat="59.177873" lon="18.142661">
        <ele>35</ele>
        <time>2019-12-05T09:18:29Z</time>
      </trkpt>
      <trkpt lat="59.177831" lon="18.142673">
        <ele>34</ele>
        <time>2019-12-05T09:18:30Z</time>
      </trkpt>
      <trkpt lat="59.177786" lon="18.142685">
        <ele>34</ele>
        <time>2019-12-05T09:18:31Z</time>
      </trkpt>
      <trkpt lat="59.177738" lon="18.142697">
        <ele>34</ele>
        <time>2019-12-05T09:18:32Z</time>
      </trkpt>
      <trkpt lat="59.177689" lon="18.14271">
        <ele>34</ele>
        <time>2019-12-05T09:18:34Z</time>
      </trkpt>
      <trkpt lat="59.177641" lon="18.142722">
        <ele>34</ele>
        <time>2019-12-05T09:18:34Z</time>
      </trkpt>
      <trkpt lat="59.177595" lon="18.142732">
        <ele>35</ele>
        <time>2019-12-05T09:18:35Z</time>
      </trkpt>
      <trkpt lat="59.177552" lon="18.142741">
        <ele>35</ele>
        <time>2019-12-05T09:18:36Z</time>
      </trkpt>
      <trkpt lat="59.17751" lon="18.142745">
        <ele>35</ele>
        <time>2019-12-05T09:18:37Z</time>
      </trkpt>
      <trkpt lat="59.177471" lon="18.142749">
        <ele>35</ele>
        <time>2019-12-05T09:18:39Z</time>
      </trkpt>
      <trkpt lat="59.177434" lon="18.142753">
        <ele>35</ele>
        <time>2019-12-05T09:18:39Z</time>
      </trkpt>
      <trkpt lat="59.177399" lon="18.142757">
        <ele>35</ele>
        <time>2019-12-05T09:18:40Z</time>
      </trkpt>
      <trkpt lat="59.177366" lon="18.14276">
        <ele>35</ele>
        <time>2019-12-05T09:18:41Z</time>
      </trkpt>
      <trkpt lat="59.177336" lon="18.142761">
        <ele>35</ele>
        <time>2019-12-05T09:18:42Z</time>
      </trkpt>
      <trkpt lat="59.177308" lon="18.142764">
        <ele>35</ele>
        <time>2019-12-05T09:18:43Z</time>
      </trkpt>
      <trkpt lat="59.177277" lon="18.142766">
        <ele>35</ele>
        <time>2019-12-05T09:18:44Z</time>
      </trkpt>
      <trkpt lat="59.177247" lon="18.142769">
        <ele>35</ele>
        <time>2019-12-05T09:18:45Z</time>
      </trkpt>
      <trkpt lat="59.177216" lon="18.142771">
        <ele>35</ele>
        <time>2019-12-05T09:18:46Z</time>
      </trkpt>
      <trkpt lat="59.177188" lon="18.142768">
        <ele>35</ele>
        <time>2019-12-05T09:18:48Z</time>
      </trkpt>
      <trkpt lat="59.177158" lon="18.142765">
        <ele>36</ele>
        <time>2019-12-05T09:18:48Z</time>
      </trkpt>
      <trkpt lat="59.177126" lon="18.142767">
        <ele>36</ele>
        <time>2019-12-05T09:18:49Z</time>
      </trkpt>
      <trkpt lat="59.177094" lon="18.142767">
        <ele>36</ele>
        <time>2019-12-05T09:18:50Z</time>
      </trkpt>
      <trkpt lat="59.177063" lon="18.142765">
        <ele>36</ele>
        <time>2019-12-05T09:18:51Z</time>
      </trkpt>
      <trkpt lat="59.177033" lon="18.142761">
        <ele>36</ele>
        <time>2019-12-05T09:18:52Z</time>
      </trkpt>
      <trkpt lat="59.177001" lon="18.142756">
        <ele>37</ele>
        <time>2019-12-05T09:18:53Z</time>
      </trkpt>
      <trkpt lat="59.176972" lon="18.142751">
        <ele>37</ele>
        <time>2019-12-05T09:18:54Z</time>
      </trkpt>
      <trkpt lat="59.17694" lon="18.142745">
        <ele>37</ele>
        <time>2019-12-05T09:18:55Z</time>
      </trkpt>
      <trkpt lat="59.176909" lon="18.142737">
        <ele>37</ele>
        <time>2019-12-05T09:18:56Z</time>
      </trkpt>
      <trkpt lat="59.176879" lon="18.142726">
        <ele>37</ele>
        <time>2019-12-05T09:18:58Z</time>
      </trkpt>
      <trkpt lat="59.176848" lon="18.142715">
        <ele>38</ele>
        <time>2019-12-05T09:18:58Z</time>
      </trkpt>
      <trkpt lat="59.176817" lon="18.142706">
        <ele>38</ele>
        <time>2019-12-05T09:18:59Z</time>
      </trkpt>
      <trkpt lat="59.176786" lon="18.142695">
        <ele>38</ele>
        <time>2019-12-05T09:19:00Z</time>
      </trkpt>
      <trkpt lat="59.176757" lon="18.142684">
        <ele>38</ele>
        <time>2019-12-05T09:19:01Z</time>
      </trkpt>
      <trkpt lat="59.176726" lon="18.14267">
        <ele>38</ele>
        <time>2019-12-05T09:19:02Z</time>
      </trkpt>
      <trkpt lat="59.176696" lon="18.142654">
        <ele>39</ele>
        <time>2019-12-05T09:19:04Z</time>
      </trkpt>
      <trkpt lat="59.176664" lon="18.142639">
        <ele>39</ele>
        <time>2019-12-05T09:19:04Z</time>
      </trkpt>
      <trkpt lat="59.176631" lon="18.142625">
        <ele>39</ele>
        <time>2019-12-05T09:19:05Z</time>
      </trkpt>
      <trkpt lat="59.1766" lon="18.142611">
        <ele>39</ele>
        <time>2019-12-05T09:19:06Z</time>
      </trkpt>
      <trkpt lat="59.17657" lon="18.142597">
        <ele>39</ele>
        <time>2019-12-05T09:19:07Z</time>
      </trkpt>
      <trkpt lat="59.17654" lon="18.14258">
        <ele>39</ele>
        <time>2019-12-05T09:19:08Z</time>
      </trkpt>
      <trkpt lat="59.17651" lon="18.142563">
        <ele>40</ele>
        <time>2019-12-05T09:19:09Z</time>
      </trkpt>
      <trkpt lat="59.17648" lon="18.142545">
        <ele>40</ele>
        <time>2019-12-05T09:19:10Z</time>
      </trkpt>
      <trkpt lat="59.17645" lon="18.142528">
        <ele>40</ele>
        <time>2019-12-05T09:19:11Z</time>
      </trkpt>
      <trkpt lat="59.176421" lon="18.142511">
        <ele>40</ele>
        <time>2019-12-05T09:19:12Z</time>
      </trkpt>
      <trkpt lat="59.176392" lon="18.142493">
        <ele>40</ele>
        <time>2019-12-05T09:19:13Z</time>
      </trkpt>
      <trkpt lat="59.176363" lon="18.142472">
        <ele>41</ele>
        <time>2019-12-05T09:19:14Z</time>
      </trkpt>
      <trkpt lat="59.176334" lon="18.142451">
        <ele>41</ele>
        <time>2019-12-05T09:19:15Z</time>
      </trkpt>
      <trkpt lat="59.176305" lon="18.14243">
        <ele>41</ele>
        <time>2019-12-05T09:19:17Z</time>
      </trkpt>
      <trkpt lat="59.176276" lon="18.142406">
        <ele>41</ele>
        <time>2019-12-05T09:19:17Z</time>
      </trkpt>
      <trkpt lat="59.176249" lon="18.142378">
        <ele>41</ele>
        <time>2019-12-05T09:19:18Z</time>
      </trkpt>
      <trkpt lat="59.176224" lon="18.142342">
        <ele>41</ele>
        <time>2019-12-05T09:19:20Z</time>
      </trkpt>
      <trkpt lat="59.176199" lon="18.142303">
        <ele>41</ele>
        <time>2019-12-05T09:19:20Z</time>
      </trkpt>
      <trkpt lat="59.176178" lon="18.142262">
        <ele>41</ele>
        <time>2019-12-05T09:19:21Z</time>
      </trkpt>
      <trkpt lat="59.176159" lon="18.142217">
        <ele>41</ele>
        <time>2019-12-05T09:19:22Z</time>
      </trkpt>
      <trkpt lat="59.176145" lon="18.142169">
        <ele>41</ele>
        <time>2019-12-05T09:19:23Z</time>
      </trkpt>
      <trkpt lat="59.176136" lon="18.142118">
        <ele>41</ele>
        <time>2019-12-05T09:19:24Z</time>
      </trkpt>
      <trkpt lat="59.176132" lon="18.142066">
        <ele>41</ele>
        <time>2019-12-05T09:19:25Z</time>
      </trkpt>
      <trkpt lat="59.176126" lon="18.142014">
        <ele>41</ele>
        <time>2019-12-05T09:19:26Z</time>
      </trkpt>
      <trkpt lat="59.176114" lon="18.14196">
        <ele>41</ele>
        <time>2019-12-05T09:19:27Z</time>
      </trkpt>
      <trkpt lat="59.176103" lon="18.141903">
        <ele>41</ele>
        <time>2019-12-05T09:19:28Z</time>
      </trkpt>
      <trkpt lat="59.176095" lon="18.141839">
        <ele>41</ele>
        <time>2019-12-05T09:19:29Z</time>
      </trkpt>
      <trkpt lat="59.176085" lon="18.14177">
        <ele>41</ele>
        <time>2019-12-05T09:19:30Z</time>
      </trkpt>
      <trkpt lat="59.176071" lon="18.141698">
        <ele>41</ele>
        <time>2019-12-05T09:19:31Z</time>
      </trkpt>
      <trkpt lat="59.176058" lon="18.141625">
        <ele>41</ele>
        <time>2019-12-05T09:19:32Z</time>
      </trkpt>
      <trkpt lat="59.176046" lon="18.141551">
        <ele>41</ele>
        <time>2019-12-05T09:19:33Z</time>
      </trkpt>
      <trkpt lat="59.176033" lon="18.141478">
        <ele>41</ele>
        <time>2019-12-05T09:19:35Z</time>
      </trkpt>
      <trkpt lat="59.176019" lon="18.141406">
        <ele>41</ele>
        <time>2019-12-05T09:19:36Z</time>
      </trkpt>
      <trkpt lat="59.176004" lon="18.141339">
        <ele>41</ele>
        <time>2019-12-05T09:19:36Z</time>
      </trkpt>
      <trkpt lat="59.175981" lon="18.141285">
        <ele>41</ele>
        <time>2019-12-05T09:19:37Z</time>
      </trkpt>
      <trkpt lat="59.175952" lon="18.141252">
        <ele>41</ele>
        <time>2019-12-05T09:19:38Z</time>
      </trkpt>
      <trkpt lat="59.175919" lon="18.141233">
        <ele>41</ele>
        <time>2019-12-05T09:19:39Z</time>
      </trkpt>
      <trkpt lat="59.175883" lon="18.141218">
        <ele>41</ele>
        <time>2019-12-05T09:19:40Z</time>
      </trkpt>
      <trkpt lat="59.175847" lon="18.141205">
        <ele>41</ele>
        <time>2019-12-05T09:19:41Z</time>
      </trkpt>
      <trkpt lat="59.17581" lon="18.141194">
        <ele>41</ele>
        <time>2019-12-05T09:19:42Z</time>
      </trkpt>
      <trkpt lat="59.17577" lon="18.141186">
        <ele>41</ele>
        <time>2019-12-05T09:19:43Z</time>
      </trkpt>
      <trkpt lat="59.175731" lon="18.141187">
        <ele>41</ele>
        <time>2019-12-05T09:19:44Z</time>
      </trkpt>
      <trkpt lat="59.175692" lon="18.141197">
        <ele>41</ele>
        <time>2019-12-05T09:19:45Z</time>
      </trkpt>
      <trkpt lat="59.175652" lon="18.141219">
        <ele>41</ele>
        <time>2019-12-05T09:19:46Z</time>
      </trkpt>
      <trkpt lat="59.175616" lon="18.141252">
        <ele>41</ele>
        <time>2019-12-05T09:19:48Z</time>
      </trkpt>
      <trkpt lat="59.175587" lon="18.141296">
        <ele>41</ele>
        <time>2019-12-05T09:19:48Z</time>
      </trkpt>
      <trkpt lat="59.175561" lon="18.141345">
        <ele>41</ele>
        <time>2019-12-05T09:19:49Z</time>
      </trkpt>
      <trkpt lat="59.175537" lon="18.141398">
        <ele>41</ele>
        <time>2019-12-05T09:19:50Z</time>
      </trkpt>
      <trkpt lat="59.175515" lon="18.141456">
        <ele>41</ele>
        <time>2019-12-05T09:19:51Z</time>
      </trkpt>
      <trkpt lat="59.175493" lon="18.141519">
        <ele>41</ele>
        <time>2019-12-05T09:19:52Z</time>
      </trkpt>
      <trkpt lat="59.17547" lon="18.141584">
        <ele>41</ele>
        <time>2019-12-05T09:19:53Z</time>
      </trkpt>
      <trkpt lat="59.175445" lon="18.141646">
        <ele>41</ele>
        <time>2019-12-05T09:19:55Z</time>
      </trkpt>
      <trkpt lat="59.175418" lon="18.141697">
        <ele>41</ele>
        <time>2019-12-05T09:19:55Z</time>
      </trkpt>
      <trkpt lat="59.175392" lon="18.141739">
        <ele>41</ele>
        <time>2019-12-05T09:19:56Z</time>
      </trkpt>
      <trkpt lat="59.175366" lon="18.141772">
        <ele>41</ele>
        <time>2019-12-05T09:19:57Z</time>
      </trkpt>
      <trkpt lat="59.175339" lon="18.141795">
        <ele>41</ele>
        <time>2019-12-05T09:19:58Z</time>
      </trkpt>
      <trkpt lat="59.175307" lon="18.141808">
        <ele>42</ele>
        <time>2019-12-05T09:19:59Z</time>
      </trkpt>
      <trkpt lat="59.175273" lon="18.141819">
        <ele>42</ele>
        <time>2019-12-05T09:20:00Z</time>
      </trkpt>
      <trkpt lat="59.175238" lon="18.141827">
        <ele>42</ele>
        <time>2019-12-05T09:20:02Z</time>
      </trkpt>
      <trkpt lat="59.175202" lon="18.141835">
        <ele>42</ele>
        <time>2019-12-05T09:20:02Z</time>
      </trkpt>
      <trkpt lat="59.175165" lon="18.141844">
        <ele>42</ele>
        <time>2019-12-05T09:20:03Z</time>
      </trkpt>
      <trkpt lat="59.175128" lon="18.141852">
        <ele>42</ele>
        <time>2019-12-05T09:20:04Z</time>
      </trkpt>
      <trkpt lat="59.175091" lon="18.141857">
        <ele>42</ele>
        <time>2019-12-05T09:20:05Z</time>
      </trkpt>
      <trkpt lat="59.175053" lon="18.141862">
        <ele>42</ele>
        <time>2019-12-05T09:20:06Z</time>
      </trkpt>
      <trkpt lat="59.175015" lon="18.141867">
        <ele>42</ele>
        <time>2019-12-05T09:20:07Z</time>
      </trkpt>
      <trkpt lat="59.174979" lon="18.141879">
        <ele>42</ele>
        <time>2019-12-05T09:20:08Z</time>
      </trkpt>
      <trkpt lat="59.174945" lon="18.141899">
        <ele>43</ele>
        <time>2019-12-05T09:20:09Z</time>
      </trkpt>
      <trkpt lat="59.174913" lon="18.141927">
        <ele>43</ele>
        <time>2019-12-05T09:20:10Z</time>
      </trkpt>
      <trkpt lat="59.174881" lon="18.141959">
        <ele>43</ele>
        <time>2019-12-05T09:20:11Z</time>
      </trkpt>
      <trkpt lat="59.174849" lon="18.141992">
        <ele>43</ele>
        <time>2019-12-05T09:20:12Z</time>
      </trkpt>
      <trkpt lat="59.174813" lon="18.142024">
        <ele>43</ele>
        <time>2019-12-05T09:20:14Z</time>
      </trkpt>
      <trkpt lat="59.174782" lon="18.142065">
        <ele>43</ele>
        <time>2019-12-05T09:20:14Z</time>
      </trkpt>
      <trkpt lat="59.174754" lon="18.142116">
        <ele>43</ele>
        <time>2019-12-05T09:20:16Z</time>
      </trkpt>
      <trkpt lat="59.174732" lon="18.142175">
        <ele>43</ele>
        <time>2019-12-05T09:20:16Z</time>
      </trkpt>
      <trkpt lat="59.174712" lon="18.142238">
        <ele>43</ele>
        <time>2019-12-05T09:20:17Z</time>
      </trkpt>
      <trkpt lat="59.174685" lon="18.142286">
        <ele>43</ele>
        <time>2019-12-05T09:20:18Z</time>
      </trkpt>
      <trkpt lat="59.17465" lon="18.14231">
        <ele>43</ele>
        <time>2019-12-05T09:20:19Z</time>
      </trkpt>
      <trkpt lat="59.174614" lon="18.142315">
        <ele>43</ele>
        <time>2019-12-05T09:20:20Z</time>
      </trkpt>
      <trkpt lat="59.174579" lon="18.14231">
        <ele>43</ele>
        <time>2019-12-05T09:20:21Z</time>
      </trkpt>
      <trkpt lat="59.174545" lon="18.142305">
        <ele>43</ele>
        <time>2019-12-05T09:20:22Z</time>
      </trkpt>
      <trkpt lat="59.174512" lon="18.1423">
        <ele>43</ele>
        <time>2019-12-05T09:20:23Z</time>
      </trkpt>
      <trkpt lat="59.174479" lon="18.142297">
        <ele>43</ele>
        <time>2019-12-05T09:20:24Z</time>
      </trkpt>
      <trkpt lat="59.174448" lon="18.142295">
        <ele>43</ele>
        <time>2019-12-05T09:20:25Z</time>
      </trkpt>
      <trkpt lat="59.174416" lon="18.142294">
        <ele>43</ele>
        <time>2019-12-05T09:20:26Z</time>
      </trkpt>
      <trkpt lat="59.174384" lon="18.142294">
        <ele>43</ele>
        <time>2019-12-05T09:20:27Z</time>
      </trkpt>
      <trkpt lat="59.174353" lon="18.142295">
        <ele>44</ele>
        <time>2019-12-05T09:20:28Z</time>
      </trkpt>
      <trkpt lat="59.174321" lon="18.142292">
        <ele>44</ele>
        <time>2019-12-05T09:20:29Z</time>
      </trkpt>
      <trkpt lat="59.174291" lon="18.142292">
        <ele>44</ele>
        <time>2019-12-05T09:20:31Z</time>
      </trkpt>
      <trkpt lat="59.174262" lon="18.142301">
        <ele>44</ele>
        <time>2019-12-05T09:20:31Z</time>
      </trkpt>
      <trkpt lat="59.174235" lon="18.142316">
        <ele>44</ele>
        <time>2019-12-05T09:20:33Z</time>
      </trkpt>
      <trkpt lat="59.174208" lon="18.142334">
        <ele>44</ele>
        <time>2019-12-05T09:20:33Z</time>
      </trkpt>
      <trkpt lat="59.174182" lon="18.142358">
        <ele>44</ele>
        <time>2019-12-05T09:20:34Z</time>
      </trkpt>
      <trkpt lat="59.174159" lon="18.142388">
        <ele>45</ele>
        <time>2019-12-05T09:20:35Z</time>
      </trkpt>
      <trkpt lat="59.174136" lon="18.142418">
        <ele>45</ele>
        <time>2019-12-05T09:20:36Z</time>
      </trkpt>
      <trkpt lat="59.174113" lon="18.142442">
        <ele>45</ele>
        <time>2019-12-05T09:20:37Z</time>
      </trkpt>
      <trkpt lat="59.17409" lon="18.142463">
        <ele>46</ele>
        <time>2019-12-05T09:20:38Z</time>
      </trkpt>
      <trkpt lat="59.174071" lon="18.142486">
        <ele>46</ele>
        <time>2019-12-05T09:20:39Z</time>
      </trkpt>
      <trkpt lat="59.174051" lon="18.142514">
        <ele>46</ele>
        <time>2019-12-05T09:20:40Z</time>
      </trkpt>
      <trkpt lat="59.174034" lon="18.142554">
        <ele>46</ele>
        <time>2019-12-05T09:20:41Z</time>
      </trkpt>
      <trkpt lat="59.174028" lon="18.142601">
        <ele>46</ele>
        <time>2019-12-05T09:20:42Z</time>
      </trkpt>
      <trkpt lat="59.174022" lon="18.142658">
        <ele>46</ele>
        <time>2019-12-05T09:20:43Z</time>
      </trkpt>
      <trkpt lat="59.174012" lon="18.142719">
        <ele>47</ele>
        <time>2019-12-05T09:20:44Z</time>
      </trkpt>
      <trkpt lat="59.173998" lon="18.14278">
        <ele>47</ele>
        <time>2019-12-05T09:20:45Z</time>
      </trkpt>
      <trkpt lat="59.17398" lon="18.142834">
        <ele>47</ele>
        <time>2019-12-05T09:20:46Z</time>
      </trkpt>
      <trkpt lat="59.173959" lon="18.14288">
        <ele>47</ele>
        <time>2019-12-05T09:20:48Z</time>
      </trkpt>
      <trkpt lat="59.173941" lon="18.142924">
        <ele>47</ele>
        <time>2019-12-05T09:20:48Z</time>
      </trkpt>
      <trkpt lat="59.173925" lon="18.14297">
        <ele>47</ele>
        <time>2019-12-05T09:20:49Z</time>
      </trkpt>
      <trkpt lat="59.173913" lon="18.143019">
        <ele>47</ele>
        <time>2019-12-05T09:20:50Z</time>
      </trkpt>
      <trkpt lat="59.173903" lon="18.143067">
        <ele>47</ele>
        <time>2019-12-05T09:20:52Z</time>
      </trkpt>
      <trkpt lat="59.173894" lon="18.143122">
        <ele>47</ele>
        <time>2019-12-05T09:20:52Z</time>
      </trkpt>
      <trkpt lat="59.173888" lon="18.143183">
        <ele>48</ele>
        <time>2019-12-05T09:20:53Z</time>
      </trkpt>
      <trkpt lat="59.173885" lon="18.143251">
        <ele>48</ele>
        <time>2019-12-05T09:20:54Z</time>
      </trkpt>
      <trkpt lat="59.173881" lon="18.143324">
        <ele>48</ele>
        <time>2019-12-05T09:20:55Z</time>
      </trkpt>
      <trkpt lat="59.17387" lon="18.143389">
        <ele>48</ele>
        <time>2019-12-05T09:20:56Z</time>
      </trkpt>
      <trkpt lat="59.173852" lon="18.143439">
        <ele>48</ele>
        <time>2019-12-05T09:20:57Z</time>
      </trkpt>
      <trkpt lat="59.17383" lon="18.143466">
        <ele>48</ele>
        <time>2019-12-05T09:20:58Z</time>
      </trkpt>
      <trkpt lat="59.1738" lon="18.143474">
        <ele>49</ele>
        <time>2019-12-05T09:20:59Z</time>
      </trkpt>
      <trkpt lat="59.173768" lon="18.143476">
        <ele>49</ele>
        <time>2019-12-05T09:21:00Z</time>
      </trkpt>
      <trkpt lat="59.173736" lon="18.143495">
        <ele>49</ele>
        <time>2019-12-05T09:21:01Z</time>
      </trkpt>
      <trkpt lat="59.173707" lon="18.143513">
        <ele>50</ele>
        <time>2019-12-05T09:21:02Z</time>
      </trkpt>
      <trkpt lat="59.17368" lon="18.143515">
        <ele>50</ele>
        <time>2019-12-05T09:21:03Z</time>
      </trkpt>
      <trkpt lat="59.173651" lon="18.143515">
        <ele>50</ele>
        <time>2019-12-05T09:21:05Z</time>
      </trkpt>
      <trkpt lat="59.173626" lon="18.143513">
        <ele>51</ele>
        <time>2019-12-05T09:21:05Z</time>
      </trkpt>
      <trkpt lat="59.173606" lon="18.143511">
        <ele>51</ele>
        <time>2019-12-05T09:21:06Z</time>
      </trkpt>
      <trkpt lat="59.173585" lon="18.143502">
        <ele>51</ele>
        <time>2019-12-05T09:21:07Z</time>
      </trkpt>
      <trkpt lat="59.173527" lon="18.143463">
        <ele>0</ele>
        <time>2019-12-05T09:21:10Z</time>
      </trkpt>
    </trkseg>
  </trk>
</gpx>